<?xml version='1.0' encoding='UTF-8'?><gpx version="1.1" creator="JPX - https://github.com/jenetics/jpx" xmlns="http://www.topografix.com/GPX/1/1"><trk><trkseg><trkpt lat="45.5079416" lon="10.4631844"><ele>187.0</ele><time>2026-03-28T07:28:51.609Z</time></trkpt><trkpt lat="45.5078922" lon="10.4632449"><ele>186.0</ele><time>2026-03-28T07:28:53.614Z</time></trkpt><trkpt lat="45.5078308" lon="10.4632734"><ele>185.0</ele><time>2026-03-28T07:28:55.612Z</time></trkpt><trkpt lat="45.5077708" lon="10.4633128"><ele>184.0</ele><time>2026-03-28T07:28:59.616Z</time></trkpt><trkpt lat="45.5076652" lon="10.4633143"><ele>183.0</ele><time>2026-03-28T07:29:02.611Z</time></trkpt><trkpt lat="45.5075773" lon="10.4633284"><ele>182.0</ele><time>2026-03-28T07:29:07.604Z</time></trkpt><trkpt lat="45.5074929" lon="10.4633233"><ele>182.0</ele><time>2026-03-28T07:29:09.612Z</time></trkpt><trkpt lat="45.5074101" lon="10.4633346"><ele>182.0</ele><time>2026-03-28T07:29:11.619Z</time></trkpt><trkpt lat="45.5073413" lon="10.4633485"><ele>182.0</ele><time>2026-03-28T07:29:13.613Z</time></trkpt><trkpt lat="45.5072527" lon="10.4633594"><ele>182.0</ele><time>2026-03-28T07:29:15.618Z</time></trkpt><trkpt lat="45.5071837" lon="10.4633969"><ele>182.0</ele><time>2026-03-28T07:29:18.605Z</time></trkpt><trkpt lat="45.5071987" lon="10.4634939"><ele>182.0</ele><time>2026-03-28T07:29:21.619Z</time></trkpt><trkpt lat="45.5072692" lon="10.4635106"><ele>182.0</ele><time>2026-03-28T07:29:23.624Z</time></trkpt><trkpt lat="45.5073412" lon="10.463484"><ele>182.0</ele><time>2026-03-28T07:32:08.64Z</time></trkpt><trkpt lat="45.5073412" lon="10.463484"><ele>182.0</ele><time>2026-03-28T07:32:08.64Z</time></trkpt></trkseg><trkseg><trkpt lat="45.5074052" lon="10.4634854"><ele>182.0</ele><time>2026-03-28T08:05:19.66Z</time></trkpt><trkpt lat="45.5074681" lon="10.4634748"><ele>182.0</ele><time>2026-03-28T08:05:21.659Z</time></trkpt><trkpt lat="45.5075338" lon="10.4634945"><ele>182.0</ele><time>2026-03-28T08:06:54.664Z</time></trkpt><trkpt lat="45.5075991" lon="10.4634747"><ele>182.0</ele><time>2026-03-28T08:07:01.639Z</time></trkpt><trkpt lat="45.5076862" lon="10.4635352"><ele>182.0</ele><time>2026-03-28T08:14:23.664Z</time></trkpt><trkpt lat="45.507793" lon="10.4635436"><ele>182.0</ele><time>2026-03-28T08:16:15.644Z</time></trkpt><trkpt lat="45.5078501" lon="10.4634277"><ele>182.0</ele><time>2026-03-28T08:16:20.636Z</time></trkpt><trkpt lat="45.5078784" lon="10.4635227"><ele>182.0</ele><time>2026-03-28T08:17:00.637Z</time></trkpt><trkpt lat="45.5079417" lon="10.4635354"><ele>182.0</ele><time>2026-03-28T08:17:45.645Z</time></trkpt><trkpt lat="45.5080192" lon="10.4635405"><ele>182.0</ele><time>2026-03-28T08:21:40.658Z</time></trkpt><trkpt lat="45.508089" lon="10.463517"><ele>182.0</ele><time>2026-03-28T08:23:09.654Z</time></trkpt><trkpt lat="45.5081543" lon="10.4634688"><ele>182.0</ele><time>2026-03-28T08:23:13.636Z</time></trkpt><trkpt lat="45.5082029" lon="10.463395"><ele>182.0</ele><time>2026-03-28T08:23:21.65Z</time></trkpt><trkpt lat="45.5081683" lon="10.4634836"><ele>183.2</ele><time>2026-03-28T08:23:29.648Z</time></trkpt><trkpt lat="45.5082478" lon="10.4634882"><ele>184.39999999999998</ele><time>2026-03-28T08:23:33.645Z</time></trkpt><trkpt lat="45.5083291" lon="10.4635417"><ele>185.60000000000002</ele><time>2026-03-28T08:23:38.654Z</time></trkpt><trkpt lat="45.5083228" lon="10.4636398"><ele>186.8</ele><time>2026-03-28T08:23:41.636Z</time></trkpt><trkpt lat="45.5081888" lon="10.4636972"><ele>188.0</ele><time>2026-03-28T08:23:43.628Z</time></trkpt><trkpt lat="45.5080793" lon="10.463707"><ele>188.0</ele><time>2026-03-28T08:23:44.632Z</time></trkpt><trkpt lat="45.5079834" lon="10.4637173"><ele>188.0</ele><time>2026-03-28T08:23:45.637Z</time></trkpt><trkpt lat="45.5078803" lon="10.4637362"><ele>188.0</ele><time>2026-03-28T08:23:46.647Z</time></trkpt><trkpt lat="45.5077666" lon="10.4637476"><ele>188.0</ele><time>2026-03-28T08:23:47.642Z</time></trkpt><trkpt lat="45.5076641" lon="10.4637573"><ele>188.0</ele><time>2026-03-28T08:23:48.646Z</time></trkpt><trkpt lat="45.507549" lon="10.4637707"><ele>187.2</ele><time>2026-03-28T08:23:49.645Z</time></trkpt><trkpt lat="45.5074314" lon="10.4637813"><ele>186.4</ele><time>2026-03-28T08:23:50.656Z</time></trkpt><trkpt lat="45.5073255" lon="10.4638013"><ele>185.6</ele><time>2026-03-28T08:23:51.641Z</time></trkpt><trkpt lat="45.5072341" lon="10.463813"><ele>184.79999999999998</ele><time>2026-03-28T08:23:52.647Z</time></trkpt><trkpt lat="45.50715" lon="10.4638113"><ele>184.0</ele><time>2026-03-28T08:23:53.65Z</time></trkpt><trkpt lat="45.5070136" lon="10.4637567"><ele>183.71428571428572</ele><time>2026-03-28T08:23:55.642Z</time></trkpt><trkpt lat="45.5069357" lon="10.4637052"><ele>183.42857142857142</ele><time>2026-03-28T08:23:56.658Z</time></trkpt><trkpt lat="45.5068714" lon="10.4636509"><ele>183.14285714285714</ele><time>2026-03-28T08:23:57.647Z</time></trkpt><trkpt lat="45.5068111" lon="10.4636146"><ele>182.85714285714286</ele><time>2026-03-28T08:23:58.638Z</time></trkpt><trkpt lat="45.5067454" lon="10.4636199"><ele>182.57142857142856</ele><time>2026-03-28T08:23:59.651Z</time></trkpt><trkpt lat="45.5066897" lon="10.4636665"><ele>182.28571428571428</ele><time>2026-03-28T08:24:00.637Z</time></trkpt><trkpt lat="45.5066415" lon="10.4637268"><ele>182.0</ele><time>2026-03-28T08:24:01.641Z</time></trkpt><trkpt lat="45.5066277" lon="10.4638963"><ele>182.0</ele><time>2026-03-28T08:24:03.63Z</time></trkpt><trkpt lat="45.5066523" lon="10.4639905"><ele>182.0</ele><time>2026-03-28T08:24:04.627Z</time></trkpt><trkpt lat="45.5066885" lon="10.4640849"><ele>182.0</ele><time>2026-03-28T08:24:05.631Z</time></trkpt><trkpt lat="45.5067375" lon="10.4642012"><ele>182.0</ele><time>2026-03-28T08:24:06.642Z</time></trkpt><trkpt lat="45.5067682" lon="10.4643422"><ele>182.0</ele><time>2026-03-28T08:24:07.644Z</time></trkpt><trkpt lat="45.5067696" lon="10.4645157"><ele>182.25</ele><time>2026-03-28T08:24:08.655Z</time></trkpt><trkpt lat="45.5067564" lon="10.4646972"><ele>182.5</ele><time>2026-03-28T08:24:09.646Z</time></trkpt><trkpt lat="45.5067437" lon="10.4648916"><ele>182.75</ele><time>2026-03-28T08:24:10.631Z</time></trkpt><trkpt lat="45.5067256" lon="10.4651045"><ele>183.0</ele><time>2026-03-28T08:24:11.635Z</time></trkpt><trkpt lat="45.5067103" lon="10.4653149"><ele>183.0</ele><time>2026-03-28T08:24:12.636Z</time></trkpt><trkpt lat="45.5066903" lon="10.4655309"><ele>183.0</ele><time>2026-03-28T08:24:13.64Z</time></trkpt><trkpt lat="45.5066766" lon="10.4657492"><ele>183.0</ele><time>2026-03-28T08:24:14.637Z</time></trkpt><trkpt lat="45.5066717" lon="10.4659781"><ele>183.0</ele><time>2026-03-28T08:24:15.634Z</time></trkpt><trkpt lat="45.5066985" lon="10.4661958"><ele>183.0</ele><time>2026-03-28T08:24:16.647Z</time></trkpt><trkpt lat="45.5067198" lon="10.4664141"><ele>183.0</ele><time>2026-03-28T08:24:17.636Z</time></trkpt><trkpt lat="45.5067596" lon="10.4666437"><ele>183.0</ele><time>2026-03-28T08:24:18.637Z</time></trkpt><trkpt lat="45.5068107" lon="10.4668928"><ele>183.0</ele><time>2026-03-28T08:24:19.639Z</time></trkpt><trkpt lat="45.5068528" lon="10.4671353"><ele>183.0</ele><time>2026-03-28T08:24:20.637Z</time></trkpt><trkpt lat="45.5068939" lon="10.4673882"><ele>183.0</ele><time>2026-03-28T08:24:21.651Z</time></trkpt><trkpt lat="45.5069247" lon="10.4676329"><ele>183.0</ele><time>2026-03-28T08:24:22.641Z</time></trkpt><trkpt lat="45.5069757" lon="10.4678778"><ele>183.0</ele><time>2026-03-28T08:24:23.64Z</time></trkpt><trkpt lat="45.5070027" lon="10.4681136"><ele>183.75</ele><time>2026-03-28T08:24:24.641Z</time></trkpt><trkpt lat="45.5070239" lon="10.4683391"><ele>184.5</ele><time>2026-03-28T08:24:25.649Z</time></trkpt><trkpt lat="45.5070521" lon="10.4685342"><ele>185.25</ele><time>2026-03-28T08:24:26.656Z</time></trkpt><trkpt lat="45.5070936" lon="10.4687348"><ele>186.0</ele><time>2026-03-28T08:24:27.654Z</time></trkpt><trkpt lat="45.5071117" lon="10.468921"><ele>187.0</ele><time>2026-03-28T08:24:28.65Z</time></trkpt><trkpt lat="45.5071332" lon="10.4690982"><ele>188.0</ele><time>2026-03-28T08:24:29.649Z</time></trkpt><trkpt lat="45.5071587" lon="10.4693089"><ele>189.0</ele><time>2026-03-28T08:24:30.647Z</time></trkpt><trkpt lat="45.5071508" lon="10.4695165"><ele>190.0</ele><time>2026-03-28T08:24:31.644Z</time></trkpt><trkpt lat="45.5071266" lon="10.4697343"><ele>189.66666666666669</ele><time>2026-03-28T08:24:32.643Z</time></trkpt><trkpt lat="45.5070814" lon="10.4699544"><ele>189.33333333333334</ele><time>2026-03-28T08:24:33.644Z</time></trkpt><trkpt lat="45.5070603" lon="10.470204"><ele>189.0</ele><time>2026-03-28T08:24:34.641Z</time></trkpt><trkpt lat="45.5070028" lon="10.4704296"><ele>189.66666666666666</ele><time>2026-03-28T08:24:35.643Z</time></trkpt><trkpt lat="45.5069516" lon="10.4706465"><ele>190.33333333333331</ele><time>2026-03-28T08:24:36.649Z</time></trkpt><trkpt lat="45.5068895" lon="10.4708362"><ele>191.0</ele><time>2026-03-28T08:24:37.641Z</time></trkpt><trkpt lat="45.5068314" lon="10.4710251"><ele>191.0</ele><time>2026-03-28T08:24:38.639Z</time></trkpt><trkpt lat="45.5067772" lon="10.4712215"><ele>191.0</ele><time>2026-03-28T08:24:39.641Z</time></trkpt><trkpt lat="45.5067124" lon="10.4713936"><ele>191.0</ele><time>2026-03-28T08:24:40.641Z</time></trkpt><trkpt lat="45.5066749" lon="10.4715725"><ele>191.0</ele><time>2026-03-28T08:24:41.634Z</time></trkpt><trkpt lat="45.5066411" lon="10.4717701"><ele>191.5</ele><time>2026-03-28T08:24:42.626Z</time></trkpt><trkpt lat="45.506616" lon="10.4719436"><ele>192.0</ele><time>2026-03-28T08:24:43.63Z</time></trkpt><trkpt lat="45.5065965" lon="10.4721373"><ele>192.5</ele><time>2026-03-28T08:24:44.626Z</time></trkpt><trkpt lat="45.5065893" lon="10.47232"><ele>193.0</ele><time>2026-03-28T08:24:45.631Z</time></trkpt><trkpt lat="45.5065804" lon="10.472523"><ele>193.5</ele><time>2026-03-28T08:24:46.638Z</time></trkpt><trkpt lat="45.5065672" lon="10.472717"><ele>194.0</ele><time>2026-03-28T08:24:47.627Z</time></trkpt><trkpt lat="45.5065526" lon="10.4729039"><ele>194.5</ele><time>2026-03-28T08:24:48.626Z</time></trkpt><trkpt lat="45.5065494" lon="10.4730685"><ele>195.0</ele><time>2026-03-28T08:24:49.634Z</time></trkpt><trkpt lat="45.5065344" lon="10.473247"><ele>195.0</ele><time>2026-03-28T08:24:50.636Z</time></trkpt><trkpt lat="45.5065241" lon="10.4734546"><ele>195.0</ele><time>2026-03-28T08:24:51.631Z</time></trkpt><trkpt lat="45.5065074" lon="10.4736402"><ele>195.0</ele><time>2026-03-28T08:24:52.643Z</time></trkpt><trkpt lat="45.5064891" lon="10.4738296"><ele>195.0</ele><time>2026-03-28T08:24:53.643Z</time></trkpt><trkpt lat="45.5064794" lon="10.4740074"><ele>194.8</ele><time>2026-03-28T08:24:54.637Z</time></trkpt><trkpt lat="45.5064537" lon="10.4741768"><ele>194.6</ele><time>2026-03-28T08:24:55.639Z</time></trkpt><trkpt lat="45.5064203" lon="10.4743249"><ele>194.39999999999998</ele><time>2026-03-28T08:24:56.635Z</time></trkpt><trkpt lat="45.5063837" lon="10.4744583"><ele>194.2</ele><time>2026-03-28T08:24:57.645Z</time></trkpt><trkpt lat="45.5063522" lon="10.4745527"><ele>194.0</ele><time>2026-03-28T08:24:58.646Z</time></trkpt><trkpt lat="45.5063234" lon="10.4746373"><ele>194.0</ele><time>2026-03-28T08:24:59.655Z</time></trkpt><trkpt lat="45.5062719" lon="10.4747893"><ele>194.0</ele><time>2026-03-28T08:25:01.649Z</time></trkpt><trkpt lat="45.5061916" lon="10.4748281"><ele>194.0</ele><time>2026-03-28T08:25:04.657Z</time></trkpt><trkpt lat="45.5061317" lon="10.4747819"><ele>194.0</ele><time>2026-03-28T08:25:05.656Z</time></trkpt><trkpt lat="45.5060542" lon="10.4746988"><ele>194.0</ele><time>2026-03-28T08:25:06.644Z</time></trkpt><trkpt lat="45.5059649" lon="10.474581"><ele>194.0</ele><time>2026-03-28T08:25:07.637Z</time></trkpt><trkpt lat="45.5058746" lon="10.4744523"><ele>194.0</ele><time>2026-03-28T08:25:08.639Z</time></trkpt><trkpt lat="45.5058109" lon="10.4743158"><ele>194.0</ele><time>2026-03-28T08:25:09.665Z</time></trkpt><trkpt lat="45.5057774" lon="10.4741564"><ele>194.0</ele><time>2026-03-28T08:25:10.632Z</time></trkpt><trkpt lat="45.5057488" lon="10.4739812"><ele>194.0</ele><time>2026-03-28T08:25:11.637Z</time></trkpt><trkpt lat="45.5057309" lon="10.4737895"><ele>194.0</ele><time>2026-03-28T08:25:12.635Z</time></trkpt><trkpt lat="45.5057089" lon="10.4735999"><ele>194.0</ele><time>2026-03-28T08:25:13.632Z</time></trkpt><trkpt lat="45.5056735" lon="10.4734055"><ele>194.0</ele><time>2026-03-28T08:25:14.627Z</time></trkpt><trkpt lat="45.5056097" lon="10.4732236"><ele>194.0</ele><time>2026-03-28T08:25:15.623Z</time></trkpt><trkpt lat="45.505564" lon="10.4731085"><ele>194.0</ele><time>2026-03-28T08:25:16.63Z</time></trkpt><trkpt lat="45.5054839" lon="10.4729997"><ele>194.0</ele><time>2026-03-28T08:25:18.634Z</time></trkpt><trkpt lat="45.5054151" lon="10.4730093"><ele>194.0</ele><time>2026-03-28T08:25:20.638Z</time></trkpt><trkpt lat="45.505332" lon="10.4730684"><ele>194.0</ele><time>2026-03-28T08:25:22.628Z</time></trkpt><trkpt lat="45.5052635" lon="10.4732117"><ele>194.2</ele><time>2026-03-28T08:25:24.639Z</time></trkpt><trkpt lat="45.5052032" lon="10.4733037"><ele>194.39999999999998</ele><time>2026-03-28T08:25:25.631Z</time></trkpt><trkpt lat="45.5051308" lon="10.4734077"><ele>194.6</ele><time>2026-03-28T08:25:26.646Z</time></trkpt><trkpt lat="45.5050427" lon="10.4735129"><ele>194.8</ele><time>2026-03-28T08:25:27.646Z</time></trkpt><trkpt lat="45.5049478" lon="10.4736364"><ele>195.0</ele><time>2026-03-28T08:25:28.65Z</time></trkpt><trkpt lat="45.504853" lon="10.4737692"><ele>194.75</ele><time>2026-03-28T08:25:29.647Z</time></trkpt><trkpt lat="45.5047431" lon="10.4739033"><ele>194.5</ele><time>2026-03-28T08:25:30.652Z</time></trkpt><trkpt lat="45.5046247" lon="10.4740285"><ele>194.25</ele><time>2026-03-28T08:25:31.651Z</time></trkpt><trkpt lat="45.5044951" lon="10.4741211"><ele>194.0</ele><time>2026-03-28T08:25:32.642Z</time></trkpt><trkpt lat="45.50436" lon="10.4741561"><ele>196.75</ele><time>2026-03-28T08:25:33.643Z</time></trkpt><trkpt lat="45.5042119" lon="10.4741666"><ele>199.5</ele><time>2026-03-28T08:25:34.639Z</time></trkpt><trkpt lat="45.5040884" lon="10.4741263"><ele>202.25</ele><time>2026-03-28T08:25:35.627Z</time></trkpt><trkpt lat="45.5039616" lon="10.4741063"><ele>205.0</ele><time>2026-03-28T08:25:36.629Z</time></trkpt><trkpt lat="45.5038312" lon="10.4740684"><ele>206.25</ele><time>2026-03-28T08:25:37.636Z</time></trkpt><trkpt lat="45.5037076" lon="10.4740466"><ele>207.5</ele><time>2026-03-28T08:25:38.638Z</time></trkpt><trkpt lat="45.503586" lon="10.4740314"><ele>208.75</ele><time>2026-03-28T08:25:39.641Z</time></trkpt><trkpt lat="45.5034684" lon="10.4740317"><ele>210.0</ele><time>2026-03-28T08:25:40.651Z</time></trkpt><trkpt lat="45.5033436" lon="10.4740618"><ele>210.0</ele><time>2026-03-28T08:25:41.637Z</time></trkpt><trkpt lat="45.5032155" lon="10.4741199"><ele>210.0</ele><time>2026-03-28T08:25:42.637Z</time></trkpt><trkpt lat="45.5030847" lon="10.4742083"><ele>210.0</ele><time>2026-03-28T08:25:43.641Z</time></trkpt><trkpt lat="45.5029351" lon="10.4742987"><ele>210.0</ele><time>2026-03-28T08:25:44.645Z</time></trkpt><trkpt lat="45.5028263" lon="10.4744472"><ele>209.8</ele><time>2026-03-28T08:25:45.643Z</time></trkpt><trkpt lat="45.5027185" lon="10.4745695"><ele>209.6</ele><time>2026-03-28T08:25:46.641Z</time></trkpt><trkpt lat="45.502653" lon="10.4746481"><ele>209.39999999999998</ele><time>2026-03-28T08:25:47.641Z</time></trkpt><trkpt lat="45.5025882" lon="10.474686"><ele>209.2</ele><time>2026-03-28T08:25:48.639Z</time></trkpt><trkpt lat="45.5025149" lon="10.4746908"><ele>209.0</ele><time>2026-03-28T08:25:49.641Z</time></trkpt><trkpt lat="45.5024199" lon="10.4746882"><ele>209.0</ele><time>2026-03-28T08:25:50.637Z</time></trkpt><trkpt lat="45.5022974" lon="10.474659"><ele>209.0</ele><time>2026-03-28T08:25:51.633Z</time></trkpt><trkpt lat="45.5021629" lon="10.4746068"><ele>209.0</ele><time>2026-03-28T08:25:52.636Z</time></trkpt><trkpt lat="45.5020242" lon="10.4745454"><ele>209.0</ele><time>2026-03-28T08:25:53.643Z</time></trkpt><trkpt lat="45.5018876" lon="10.4744782"><ele>209.2</ele><time>2026-03-28T08:25:54.655Z</time></trkpt><trkpt lat="45.501781" lon="10.4743739"><ele>209.39999999999998</ele><time>2026-03-28T08:25:55.638Z</time></trkpt><trkpt lat="45.5016695" lon="10.4742688"><ele>209.6</ele><time>2026-03-28T08:25:56.628Z</time></trkpt><trkpt lat="45.5015819" lon="10.4741872"><ele>209.8</ele><time>2026-03-28T08:25:57.631Z</time></trkpt><trkpt lat="45.5015255" lon="10.4741187"><ele>210.0</ele><time>2026-03-28T08:25:58.63Z</time></trkpt><trkpt lat="45.5014732" lon="10.4740594"><ele>210.0</ele><time>2026-03-28T08:25:59.626Z</time></trkpt><trkpt lat="45.5013753" lon="10.4740246"><ele>210.0</ele><time>2026-03-28T08:26:01.622Z</time></trkpt><trkpt lat="45.5012752" lon="10.4740782"><ele>210.0</ele><time>2026-03-28T08:26:03.627Z</time></trkpt><trkpt lat="45.5011577" lon="10.4741258"><ele>210.0</ele><time>2026-03-28T08:26:05.618Z</time></trkpt><trkpt lat="45.5010849" lon="10.4740794"><ele>210.0</ele><time>2026-03-28T08:26:06.601Z</time></trkpt><trkpt lat="45.5010096" lon="10.4739715"><ele>209.75</ele><time>2026-03-28T08:26:07.6Z</time></trkpt><trkpt lat="45.5009359" lon="10.4738374"><ele>209.5</ele><time>2026-03-28T08:26:08.612Z</time></trkpt><trkpt lat="45.5008674" lon="10.4736714"><ele>209.25</ele><time>2026-03-28T08:26:09.602Z</time></trkpt><trkpt lat="45.5008094" lon="10.4734934"><ele>209.0</ele><time>2026-03-28T08:26:10.605Z</time></trkpt><trkpt lat="45.5007586" lon="10.4733281"><ele>209.0</ele><time>2026-03-28T08:26:11.613Z</time></trkpt><trkpt lat="45.5007117" lon="10.4731906"><ele>209.0</ele><time>2026-03-28T08:26:12.611Z</time></trkpt><trkpt lat="45.5006668" lon="10.4730707"><ele>209.0</ele><time>2026-03-28T08:26:13.617Z</time></trkpt><trkpt lat="45.5006254" lon="10.4729876"><ele>209.0</ele><time>2026-03-28T08:26:14.632Z</time></trkpt><trkpt lat="45.5005162" lon="10.4729411"><ele>209.0</ele><time>2026-03-28T08:26:16.632Z</time></trkpt><trkpt lat="45.5004033" lon="10.4729071"><ele>206.66666666666669</ele><time>2026-03-28T08:26:17.631Z</time></trkpt><trkpt lat="45.5002392" lon="10.4728835"><ele>204.33333333333331</ele><time>2026-03-28T08:26:18.626Z</time></trkpt><trkpt lat="45.5000642" lon="10.4728482"><ele>202.0</ele><time>2026-03-28T08:26:19.631Z</time></trkpt><trkpt lat="45.4998771" lon="10.4728043"><ele>202.0</ele><time>2026-03-28T08:26:20.637Z</time></trkpt><trkpt lat="45.4996942" lon="10.4727674"><ele>202.0</ele><time>2026-03-28T08:26:21.637Z</time></trkpt><trkpt lat="45.4995237" lon="10.4727309"><ele>202.0</ele><time>2026-03-28T08:26:22.636Z</time></trkpt><trkpt lat="45.4993855" lon="10.4727009"><ele>201.25</ele><time>2026-03-28T08:26:23.64Z</time></trkpt><trkpt lat="45.4992286" lon="10.4726578"><ele>200.5</ele><time>2026-03-28T08:26:24.642Z</time></trkpt><trkpt lat="45.4990971" lon="10.4725926"><ele>199.75</ele><time>2026-03-28T08:26:25.652Z</time></trkpt><trkpt lat="45.4990016" lon="10.472567"><ele>199.0</ele><time>2026-03-28T08:26:26.642Z</time></trkpt><trkpt lat="45.4988925" lon="10.4725379"><ele>199.0</ele><time>2026-03-28T08:26:27.637Z</time></trkpt><trkpt lat="45.498825" lon="10.4725036"><ele>199.0</ele><time>2026-03-28T08:26:28.631Z</time></trkpt><trkpt lat="45.4987075" lon="10.4724916"><ele>199.0</ele><time>2026-03-28T08:26:30.638Z</time></trkpt><trkpt lat="45.4986238" lon="10.4724688"><ele>199.0</ele><time>2026-03-28T08:26:32.642Z</time></trkpt><trkpt lat="45.4985868" lon="10.4723514"><ele>199.0</ele><time>2026-03-28T08:26:34.648Z</time></trkpt><trkpt lat="45.4985872" lon="10.472227"><ele>198.99999999999997</ele><time>2026-03-28T08:26:36.645Z</time></trkpt><trkpt lat="45.4986057" lon="10.4721307"><ele>199.0</ele><time>2026-03-28T08:26:52.629Z</time></trkpt><trkpt lat="45.4985976" lon="10.4722235"><ele>199.0</ele><time>2026-03-28T08:27:41.636Z</time></trkpt><trkpt lat="45.4985924" lon="10.472326"><ele>199.0</ele><time>2026-03-28T08:27:43.635Z</time></trkpt><trkpt lat="45.4986361" lon="10.4724744"><ele>198.99999999999997</ele><time>2026-03-28T08:27:45.634Z</time></trkpt><trkpt lat="45.4987126" lon="10.4725142"><ele>199.0</ele><time>2026-03-28T08:27:46.635Z</time></trkpt><trkpt lat="45.4987945" lon="10.4725276"><ele>198.99999999999997</ele><time>2026-03-28T08:27:47.619Z</time></trkpt><trkpt lat="45.4988876" lon="10.4725479"><ele>199.0</ele><time>2026-03-28T08:27:48.633Z</time></trkpt><trkpt lat="45.498973" lon="10.4725739"><ele>199.0</ele><time>2026-03-28T08:27:50.638Z</time></trkpt><trkpt lat="45.4990251" lon="10.4726574"><ele>199.0</ele><time>2026-03-28T08:27:56.65Z</time></trkpt><trkpt lat="45.4990275" lon="10.472795"><ele>198.99999999999997</ele><time>2026-03-28T08:27:58.657Z</time></trkpt><trkpt lat="45.4990269" lon="10.4729081"><ele>199.0</ele><time>2026-03-28T08:27:59.638Z</time></trkpt><trkpt lat="45.4990295" lon="10.4730231"><ele>199.2</ele><time>2026-03-28T08:28:00.638Z</time></trkpt><trkpt lat="45.4990321" lon="10.4731575"><ele>199.39999999999998</ele><time>2026-03-28T08:28:01.642Z</time></trkpt><trkpt lat="45.4990317" lon="10.4733065"><ele>199.6</ele><time>2026-03-28T08:28:02.64Z</time></trkpt><trkpt lat="45.4990271" lon="10.4734513"><ele>199.8</ele><time>2026-03-28T08:28:03.639Z</time></trkpt><trkpt lat="45.4990203" lon="10.473597"><ele>200.0</ele><time>2026-03-28T08:28:04.635Z</time></trkpt><trkpt lat="45.4990178" lon="10.4737324"><ele>200.4</ele><time>2026-03-28T08:28:05.633Z</time></trkpt><trkpt lat="45.4990123" lon="10.4738742"><ele>200.8</ele><time>2026-03-28T08:28:06.636Z</time></trkpt><trkpt lat="45.4990058" lon="10.4740311"><ele>201.2</ele><time>2026-03-28T08:28:07.639Z</time></trkpt><trkpt lat="45.4990012" lon="10.474177"><ele>201.6</ele><time>2026-03-28T08:28:08.639Z</time></trkpt><trkpt lat="45.4989947" lon="10.4743291"><ele>202.0</ele><time>2026-03-28T08:28:09.641Z</time></trkpt><trkpt lat="45.4989795" lon="10.4744766"><ele>202.39999999999998</ele><time>2026-03-28T08:28:10.64Z</time></trkpt><trkpt lat="45.4989733" lon="10.4746268"><ele>202.79999999999998</ele><time>2026-03-28T08:28:11.641Z</time></trkpt><trkpt lat="45.4989747" lon="10.4747614"><ele>203.2</ele><time>2026-03-28T08:28:12.636Z</time></trkpt><trkpt lat="45.4989787" lon="10.4748685"><ele>203.6</ele><time>2026-03-28T08:28:13.631Z</time></trkpt><trkpt lat="45.4989699" lon="10.475037"><ele>204.0</ele><time>2026-03-28T08:28:15.647Z</time></trkpt><trkpt lat="45.4989628" lon="10.4751416"><ele>204.0</ele><time>2026-03-28T08:28:16.638Z</time></trkpt><trkpt lat="45.498952" lon="10.4752383"><ele>204.0</ele><time>2026-03-28T08:28:17.638Z</time></trkpt><trkpt lat="45.4989414" lon="10.4753519"><ele>204.0</ele><time>2026-03-28T08:28:19.637Z</time></trkpt><trkpt lat="45.4989083" lon="10.4754353"><ele>204.0</ele><time>2026-03-28T08:28:21.637Z</time></trkpt><trkpt lat="45.4987889" lon="10.4754577"><ele>204.0</ele><time>2026-03-28T08:28:23.628Z</time></trkpt><trkpt lat="45.4987033" lon="10.4754425"><ele>204.0</ele><time>2026-03-28T08:28:24.636Z</time></trkpt><trkpt lat="45.4985979" lon="10.4754363"><ele>205.0</ele><time>2026-03-28T08:28:25.642Z</time></trkpt><trkpt lat="45.4984637" lon="10.4754434"><ele>206.0</ele><time>2026-03-28T08:28:26.639Z</time></trkpt><trkpt lat="45.4983336" lon="10.475455"><ele>207.0</ele><time>2026-03-28T08:28:27.64Z</time></trkpt><trkpt lat="45.4982198" lon="10.4754708"><ele>208.0</ele><time>2026-03-28T08:28:28.637Z</time></trkpt><trkpt lat="45.4980934" lon="10.4754781"><ele>208.0</ele><time>2026-03-28T08:28:29.646Z</time></trkpt><trkpt lat="45.4979596" lon="10.4754724"><ele>208.0</ele><time>2026-03-28T08:28:30.637Z</time></trkpt><trkpt lat="45.4978181" lon="10.4754652"><ele>208.0</ele><time>2026-03-28T08:28:31.641Z</time></trkpt><trkpt lat="45.4976832" lon="10.4754537"><ele>208.0</ele><time>2026-03-28T08:28:32.637Z</time></trkpt><trkpt lat="45.4975511" lon="10.4754288"><ele>207.25</ele><time>2026-03-28T08:28:33.635Z</time></trkpt><trkpt lat="45.4974182" lon="10.4753972"><ele>206.5</ele><time>2026-03-28T08:28:34.628Z</time></trkpt><trkpt lat="45.4972812" lon="10.475361"><ele>205.75</ele><time>2026-03-28T08:28:35.637Z</time></trkpt><trkpt lat="45.4971625" lon="10.4753367"><ele>205.0</ele><time>2026-03-28T08:28:36.636Z</time></trkpt><trkpt lat="45.4970436" lon="10.4753098"><ele>205.0</ele><time>2026-03-28T08:28:37.638Z</time></trkpt><trkpt lat="45.4969209" lon="10.4752755"><ele>205.0</ele><time>2026-03-28T08:28:38.638Z</time></trkpt><trkpt lat="45.4968109" lon="10.475223"><ele>205.0</ele><time>2026-03-28T08:28:39.633Z</time></trkpt><trkpt lat="45.4967063" lon="10.475197"><ele>205.0</ele><time>2026-03-28T08:28:40.64Z</time></trkpt><trkpt lat="45.4965598" lon="10.4751715"><ele>205.0</ele><time>2026-03-28T08:28:41.645Z</time></trkpt><trkpt lat="45.4964246" lon="10.4751611"><ele>205.0</ele><time>2026-03-28T08:28:42.645Z</time></trkpt><trkpt lat="45.4962851" lon="10.4751556"><ele>205.0</ele><time>2026-03-28T08:28:43.647Z</time></trkpt><trkpt lat="45.4961484" lon="10.475145"><ele>205.0</ele><time>2026-03-28T08:28:44.646Z</time></trkpt><trkpt lat="45.4960104" lon="10.4751286"><ele>205.5</ele><time>2026-03-28T08:28:45.648Z</time></trkpt><trkpt lat="45.4958887" lon="10.4750947"><ele>206.0</ele><time>2026-03-28T08:28:46.665Z</time></trkpt><trkpt lat="45.4957711" lon="10.4750692"><ele>206.5</ele><time>2026-03-28T08:28:47.647Z</time></trkpt><trkpt lat="45.4956563" lon="10.4750297"><ele>207.0</ele><time>2026-03-28T08:28:48.647Z</time></trkpt><trkpt lat="45.4955498" lon="10.4749898"><ele>207.0</ele><time>2026-03-28T08:28:49.637Z</time></trkpt><trkpt lat="45.4954224" lon="10.4749775"><ele>207.0</ele><time>2026-03-28T08:28:50.638Z</time></trkpt><trkpt lat="45.4953068" lon="10.4749652"><ele>207.0</ele><time>2026-03-28T08:28:51.643Z</time></trkpt><trkpt lat="45.4951781" lon="10.4749724"><ele>207.0</ele><time>2026-03-28T08:28:52.637Z</time></trkpt><trkpt lat="45.4950518" lon="10.4749578"><ele>207.25</ele><time>2026-03-28T08:28:53.638Z</time></trkpt><trkpt lat="45.4949215" lon="10.4749413"><ele>207.5</ele><time>2026-03-28T08:28:54.637Z</time></trkpt><trkpt lat="45.4947774" lon="10.4749354"><ele>207.75</ele><time>2026-03-28T08:28:55.637Z</time></trkpt><trkpt lat="45.4946523" lon="10.4749412"><ele>208.0</ele><time>2026-03-28T08:28:56.641Z</time></trkpt><trkpt lat="45.4945283" lon="10.4749305"><ele>208.0</ele><time>2026-03-28T08:28:57.641Z</time></trkpt><trkpt lat="45.4943999" lon="10.4749228"><ele>208.0</ele><time>2026-03-28T08:28:58.641Z</time></trkpt><trkpt lat="45.4942564" lon="10.4749082"><ele>208.0</ele><time>2026-03-28T08:28:59.642Z</time></trkpt><trkpt lat="45.4941102" lon="10.4748954"><ele>208.0</ele><time>2026-03-28T08:29:00.654Z</time></trkpt><trkpt lat="45.493969" lon="10.4748881"><ele>208.0</ele><time>2026-03-28T08:29:01.648Z</time></trkpt><trkpt lat="45.493847" lon="10.4748805"><ele>208.0</ele><time>2026-03-28T08:29:02.64Z</time></trkpt><trkpt lat="45.4937134" lon="10.4749126"><ele>208.0</ele><time>2026-03-28T08:29:03.64Z</time></trkpt><trkpt lat="45.4936064" lon="10.4749303"><ele>208.0</ele><time>2026-03-28T08:29:04.641Z</time></trkpt><trkpt lat="45.4934935" lon="10.4749454"><ele>209.0</ele><time>2026-03-28T08:29:05.638Z</time></trkpt><trkpt lat="45.4933832" lon="10.474947"><ele>210.0</ele><time>2026-03-28T08:29:06.638Z</time></trkpt><trkpt lat="45.4932573" lon="10.4749285"><ele>211.0</ele><time>2026-03-28T08:29:07.637Z</time></trkpt><trkpt lat="45.49314" lon="10.4749315"><ele>212.0</ele><time>2026-03-28T08:29:08.632Z</time></trkpt><trkpt lat="45.4930373" lon="10.4749226"><ele>212.00000000000003</ele><time>2026-03-28T08:29:09.634Z</time></trkpt><trkpt lat="45.4929482" lon="10.4749119"><ele>212.0</ele><time>2026-03-28T08:29:10.626Z</time></trkpt><trkpt lat="45.4928858" lon="10.4748999"><ele>212.0</ele><time>2026-03-28T08:29:11.627Z</time></trkpt><trkpt lat="45.4928248" lon="10.4748317"><ele>212.0</ele><time>2026-03-28T08:29:13.62Z</time></trkpt><trkpt lat="45.4928132" lon="10.4747287"><ele>212.00000000000003</ele><time>2026-03-28T08:29:14.629Z</time></trkpt><trkpt lat="45.4928193" lon="10.4745877"><ele>212.0</ele><time>2026-03-28T08:29:15.614Z</time></trkpt><trkpt lat="45.4928112" lon="10.4744006"><ele>211.5</ele><time>2026-03-28T08:29:16.625Z</time></trkpt><trkpt lat="45.4927802" lon="10.4742096"><ele>211.0</ele><time>2026-03-28T08:29:17.619Z</time></trkpt><trkpt lat="45.4927462" lon="10.4740283"><ele>210.5</ele><time>2026-03-28T08:29:18.612Z</time></trkpt><trkpt lat="45.4927087" lon="10.4738721"><ele>210.0</ele><time>2026-03-28T08:29:19.623Z</time></trkpt><trkpt lat="45.4926695" lon="10.4737374"><ele>210.0</ele><time>2026-03-28T08:29:20.618Z</time></trkpt><trkpt lat="45.4926137" lon="10.4736179"><ele>210.0</ele><time>2026-03-28T08:29:21.619Z</time></trkpt><trkpt lat="45.4925454" lon="10.4734991"><ele>210.0</ele><time>2026-03-28T08:29:22.625Z</time></trkpt><trkpt lat="45.4924752" lon="10.473388"><ele>210.0</ele><time>2026-03-28T08:29:23.636Z</time></trkpt><trkpt lat="45.4924271" lon="10.4732746"><ele>210.0</ele><time>2026-03-28T08:29:24.629Z</time></trkpt><trkpt lat="45.4923855" lon="10.473186"><ele>210.0</ele><time>2026-03-28T08:29:25.629Z</time></trkpt><trkpt lat="45.4923429" lon="10.47311"><ele>210.0</ele><time>2026-03-28T08:29:26.629Z</time></trkpt><trkpt lat="45.4922903" lon="10.4730394"><ele>210.0</ele><time>2026-03-28T08:29:27.624Z</time></trkpt><trkpt lat="45.4922146" lon="10.4729798"><ele>210.0</ele><time>2026-03-28T08:29:28.623Z</time></trkpt><trkpt lat="45.4921353" lon="10.4729235"><ele>210.0</ele><time>2026-03-28T08:29:29.625Z</time></trkpt><trkpt lat="45.4920591" lon="10.4728783"><ele>210.0</ele><time>2026-03-28T08:29:30.627Z</time></trkpt><trkpt lat="45.4919952" lon="10.4728382"><ele>207.0</ele><time>2026-03-28T08:29:31.641Z</time></trkpt><trkpt lat="45.4919212" lon="10.4728139"><ele>204.0</ele><time>2026-03-28T08:29:32.62Z</time></trkpt><trkpt lat="45.4918384" lon="10.4728262"><ele>201.0</ele><time>2026-03-28T08:29:33.623Z</time></trkpt><trkpt lat="45.491745" lon="10.4728395"><ele>198.0</ele><time>2026-03-28T08:29:34.618Z</time></trkpt><trkpt lat="45.4916396" lon="10.4728789"><ele>195.0</ele><time>2026-03-28T08:29:35.618Z</time></trkpt><trkpt lat="45.4915203" lon="10.4729179"><ele>196.5</ele><time>2026-03-28T08:29:36.622Z</time></trkpt><trkpt lat="45.4913985" lon="10.4729567"><ele>198.0</ele><time>2026-03-28T08:29:37.621Z</time></trkpt><trkpt lat="45.4912647" lon="10.4729902"><ele>199.5</ele><time>2026-03-28T08:29:38.625Z</time></trkpt><trkpt lat="45.4911337" lon="10.4730161"><ele>201.0</ele><time>2026-03-28T08:29:39.623Z</time></trkpt><trkpt lat="45.491009" lon="10.4730473"><ele>201.0</ele><time>2026-03-28T08:29:40.622Z</time></trkpt><trkpt lat="45.4908918" lon="10.4730644"><ele>201.0</ele><time>2026-03-28T08:29:41.617Z</time></trkpt><trkpt lat="45.4907778" lon="10.4730786"><ele>201.0</ele><time>2026-03-28T08:29:42.622Z</time></trkpt><trkpt lat="45.4906689" lon="10.4731016"><ele>201.0</ele><time>2026-03-28T08:29:43.625Z</time></trkpt><trkpt lat="45.4905571" lon="10.4731353"><ele>201.0</ele><time>2026-03-28T08:29:44.627Z</time></trkpt><trkpt lat="45.490452" lon="10.4731749"><ele>201.0</ele><time>2026-03-28T08:29:45.627Z</time></trkpt><trkpt lat="45.4903488" lon="10.4732462"><ele>201.0</ele><time>2026-03-28T08:29:46.625Z</time></trkpt><trkpt lat="45.4902435" lon="10.4733205"><ele>201.0</ele><time>2026-03-28T08:29:47.64Z</time></trkpt><trkpt lat="45.4901451" lon="10.4734121"><ele>199.0</ele><time>2026-03-28T08:29:48.63Z</time></trkpt><trkpt lat="45.4900527" lon="10.4735149"><ele>197.0</ele><time>2026-03-28T08:29:49.631Z</time></trkpt><trkpt lat="45.4899639" lon="10.4735911"><ele>195.0</ele><time>2026-03-28T08:29:50.633Z</time></trkpt><trkpt lat="45.489874" lon="10.4736767"><ele>193.0</ele><time>2026-03-28T08:29:51.634Z</time></trkpt><trkpt lat="45.4897797" lon="10.4737783"><ele>191.0</ele><time>2026-03-28T08:29:52.639Z</time></trkpt><trkpt lat="45.4896682" lon="10.4738936"><ele>189.75</ele><time>2026-03-28T08:29:53.638Z</time></trkpt><trkpt lat="45.4895533" lon="10.4740118"><ele>188.5</ele><time>2026-03-28T08:29:54.646Z</time></trkpt><trkpt lat="45.4894363" lon="10.474112"><ele>187.25</ele><time>2026-03-28T08:29:55.645Z</time></trkpt><trkpt lat="45.4893088" lon="10.4742004"><ele>186.0</ele><time>2026-03-28T08:29:56.646Z</time></trkpt><trkpt lat="45.4891816" lon="10.4742741"><ele>186.0</ele><time>2026-03-28T08:29:57.646Z</time></trkpt><trkpt lat="45.4890379" lon="10.4743419"><ele>186.0</ele><time>2026-03-28T08:29:58.645Z</time></trkpt><trkpt lat="45.4889329" lon="10.4743799"><ele>186.0</ele><time>2026-03-28T08:29:59.643Z</time></trkpt><trkpt lat="45.4888255" lon="10.4744258"><ele>186.0</ele><time>2026-03-28T08:30:00.643Z</time></trkpt><trkpt lat="45.4887201" lon="10.4744995"><ele>185.60000000000002</ele><time>2026-03-28T08:30:01.645Z</time></trkpt><trkpt lat="45.4886287" lon="10.4745536"><ele>185.2</ele><time>2026-03-28T08:30:02.651Z</time></trkpt><trkpt lat="45.4885428" lon="10.4745925"><ele>184.8</ele><time>2026-03-28T08:30:03.635Z</time></trkpt><trkpt lat="45.4884497" lon="10.4746582"><ele>184.39999999999998</ele><time>2026-03-28T08:30:04.633Z</time></trkpt><trkpt lat="45.488354" lon="10.474706"><ele>184.0</ele><time>2026-03-28T08:30:05.629Z</time></trkpt><trkpt lat="45.4882679" lon="10.4747588"><ele>184.0</ele><time>2026-03-28T08:30:06.637Z</time></trkpt><trkpt lat="45.4881879" lon="10.4748166"><ele>184.0</ele><time>2026-03-28T08:30:07.638Z</time></trkpt><trkpt lat="45.4881054" lon="10.4748551"><ele>184.0</ele><time>2026-03-28T08:30:08.644Z</time></trkpt><trkpt lat="45.4880276" lon="10.4748976"><ele>184.0</ele><time>2026-03-28T08:30:09.642Z</time></trkpt><trkpt lat="45.4879433" lon="10.47493"><ele>184.0</ele><time>2026-03-28T08:30:10.64Z</time></trkpt><trkpt lat="45.4878528" lon="10.4749888"><ele>184.0</ele><time>2026-03-28T08:30:11.638Z</time></trkpt><trkpt lat="45.487771" lon="10.4750493"><ele>184.0</ele><time>2026-03-28T08:30:12.636Z</time></trkpt><trkpt lat="45.4877051" lon="10.4751084"><ele>184.0</ele><time>2026-03-28T08:30:13.641Z</time></trkpt><trkpt lat="45.4876458" lon="10.4751654"><ele>184.0</ele><time>2026-03-28T08:30:14.638Z</time></trkpt><trkpt lat="45.4875894" lon="10.4752307"><ele>184.0</ele><time>2026-03-28T08:30:15.637Z</time></trkpt><trkpt lat="45.4875294" lon="10.475337"><ele>184.0</ele><time>2026-03-28T08:30:17.628Z</time></trkpt><trkpt lat="45.4874965" lon="10.4754302"><ele>184.0</ele><time>2026-03-28T08:30:19.636Z</time></trkpt><trkpt lat="45.4874322" lon="10.4754778"><ele>184.0</ele><time>2026-03-28T08:30:28.635Z</time></trkpt><trkpt lat="45.4873495" lon="10.4755561"><ele>184.0</ele><time>2026-03-28T08:30:30.622Z</time></trkpt><trkpt lat="45.4872537" lon="10.4755987"><ele>184.0</ele><time>2026-03-28T08:30:31.623Z</time></trkpt><trkpt lat="45.4871844" lon="10.4756254"><ele>184.0</ele><time>2026-03-28T08:30:32.617Z</time></trkpt><trkpt lat="45.4870881" lon="10.4756285"><ele>184.0</ele><time>2026-03-28T08:30:34.618Z</time></trkpt><trkpt lat="45.4870571" lon="10.4755282"><ele>184.0</ele><time>2026-03-28T08:30:38.619Z</time></trkpt><trkpt lat="45.4870416" lon="10.475425"><ele>184.39999999999998</ele><time>2026-03-28T08:30:39.611Z</time></trkpt><trkpt lat="45.4870104" lon="10.4752925"><ele>184.8</ele><time>2026-03-28T08:30:40.611Z</time></trkpt><trkpt lat="45.4869742" lon="10.4751637"><ele>185.2</ele><time>2026-03-28T08:30:41.605Z</time></trkpt><trkpt lat="45.4869402" lon="10.4750325"><ele>185.60000000000002</ele><time>2026-03-28T08:30:42.611Z</time></trkpt><trkpt lat="45.4869094" lon="10.4749027"><ele>186.0</ele><time>2026-03-28T08:30:43.605Z</time></trkpt><trkpt lat="45.4868827" lon="10.4747834"><ele>186.0</ele><time>2026-03-28T08:30:44.61Z</time></trkpt><trkpt lat="45.4868526" lon="10.4746601"><ele>186.0</ele><time>2026-03-28T08:30:45.621Z</time></trkpt><trkpt lat="45.4868178" lon="10.4745295"><ele>186.0</ele><time>2026-03-28T08:30:46.622Z</time></trkpt><trkpt lat="45.4867899" lon="10.4744024"><ele>186.0</ele><time>2026-03-28T08:30:47.632Z</time></trkpt><trkpt lat="45.4867674" lon="10.474264"><ele>186.0</ele><time>2026-03-28T08:30:48.628Z</time></trkpt><trkpt lat="45.486753" lon="10.4741181"><ele>185.83333333333334</ele><time>2026-03-28T08:30:49.634Z</time></trkpt><trkpt lat="45.4867318" lon="10.4739813"><ele>185.66666666666666</ele><time>2026-03-28T08:30:50.622Z</time></trkpt><trkpt lat="45.4867027" lon="10.4738535"><ele>185.5</ele><time>2026-03-28T08:30:51.62Z</time></trkpt><trkpt lat="45.4866647" lon="10.4737429"><ele>185.33333333333331</ele><time>2026-03-28T08:30:52.621Z</time></trkpt><trkpt lat="45.4866345" lon="10.473654"><ele>185.16666666666666</ele><time>2026-03-28T08:30:53.618Z</time></trkpt><trkpt lat="45.4866018" lon="10.4735674"><ele>185.0</ele><time>2026-03-28T08:30:54.615Z</time></trkpt><trkpt lat="45.4865719" lon="10.4734844"><ele>185.0</ele><time>2026-03-28T08:30:55.617Z</time></trkpt><trkpt lat="45.486513" lon="10.4733663"><ele>185.0</ele><time>2026-03-28T08:30:57.622Z</time></trkpt><trkpt lat="45.4864417" lon="10.4732796"><ele>185.0</ele><time>2026-03-28T08:31:00.621Z</time></trkpt><trkpt lat="45.4863873" lon="10.473178"><ele>185.0</ele><time>2026-03-28T08:31:02.62Z</time></trkpt><trkpt lat="45.4863166" lon="10.4730764"><ele>185.0</ele><time>2026-03-28T08:31:04.629Z</time></trkpt><trkpt lat="45.4862747" lon="10.4729796"><ele>184.66666666666666</ele><time>2026-03-28T08:31:05.617Z</time></trkpt><trkpt lat="45.4862321" lon="10.4728767"><ele>184.33333333333331</ele><time>2026-03-28T08:31:06.62Z</time></trkpt><trkpt lat="45.4861867" lon="10.4727892"><ele>184.0</ele><time>2026-03-28T08:31:07.616Z</time></trkpt><trkpt lat="45.4861449" lon="10.472699"><ele>183.66666666666666</ele><time>2026-03-28T08:31:08.612Z</time></trkpt><trkpt lat="45.4860908" lon="10.4726157"><ele>183.33333333333334</ele><time>2026-03-28T08:31:09.611Z</time></trkpt><trkpt lat="45.4859893" lon="10.4725038"><ele>183.0</ele><time>2026-03-28T08:31:11.616Z</time></trkpt><trkpt lat="45.4859014" lon="10.4724122"><ele>183.0</ele><time>2026-03-28T08:31:13.602Z</time></trkpt><trkpt lat="45.4858394" lon="10.4723238"><ele>183.0</ele><time>2026-03-28T08:31:15.591Z</time></trkpt><trkpt lat="45.4857792" lon="10.4722631"><ele>183.0</ele><time>2026-03-28T08:31:17.606Z</time></trkpt><trkpt lat="45.4856904" lon="10.4722786"><ele>183.0</ele><time>2026-03-28T08:31:19.606Z</time></trkpt><trkpt lat="45.4856216" lon="10.4723071"><ele>183.0</ele><time>2026-03-28T08:31:21.622Z</time></trkpt><trkpt lat="45.4855548" lon="10.472153"><ele>183.0</ele><time>2026-03-28T08:31:23.607Z</time></trkpt><trkpt lat="45.4855201" lon="10.4720609"><ele>182.4</ele><time>2026-03-28T08:31:24.617Z</time></trkpt><trkpt lat="45.4855034" lon="10.4719292"><ele>181.8</ele><time>2026-03-28T08:31:25.612Z</time></trkpt><trkpt lat="45.4854836" lon="10.4717879"><ele>181.2</ele><time>2026-03-28T08:31:26.615Z</time></trkpt><trkpt lat="45.4854653" lon="10.4716481"><ele>180.6</ele><time>2026-03-28T08:31:27.616Z</time></trkpt><trkpt lat="45.4854376" lon="10.4715112"><ele>180.0</ele><time>2026-03-28T08:31:28.621Z</time></trkpt><trkpt lat="45.4854064" lon="10.4713739"><ele>179.0</ele><time>2026-03-28T08:31:29.623Z</time></trkpt><trkpt lat="45.4853747" lon="10.4712372"><ele>178.0</ele><time>2026-03-28T08:31:30.621Z</time></trkpt><trkpt lat="45.4853424" lon="10.4710784"><ele>177.0</ele><time>2026-03-28T08:31:31.627Z</time></trkpt><trkpt lat="45.4853264" lon="10.4709311"><ele>176.0</ele><time>2026-03-28T08:31:32.631Z</time></trkpt><trkpt lat="45.4853064" lon="10.4707869"><ele>175.0</ele><time>2026-03-28T08:31:33.633Z</time></trkpt><trkpt lat="45.4852819" lon="10.4706303"><ele>175.0</ele><time>2026-03-28T08:31:34.635Z</time></trkpt><trkpt lat="45.4852626" lon="10.4704609"><ele>175.0</ele><time>2026-03-28T08:31:35.642Z</time></trkpt><trkpt lat="45.4852435" lon="10.4702952"><ele>175.0</ele><time>2026-03-28T08:31:36.634Z</time></trkpt><trkpt lat="45.4852162" lon="10.47016"><ele>175.0</ele><time>2026-03-28T08:31:37.628Z</time></trkpt><trkpt lat="45.4851965" lon="10.4700386"><ele>175.0</ele><time>2026-03-28T08:31:38.628Z</time></trkpt><trkpt lat="45.4851851" lon="10.4699293"><ele>174.4</ele><time>2026-03-28T08:31:39.632Z</time></trkpt><trkpt lat="45.4851538" lon="10.4697681"><ele>173.8</ele><time>2026-03-28T08:31:41.627Z</time></trkpt><trkpt lat="45.4851378" lon="10.4696545"><ele>173.2</ele><time>2026-03-28T08:31:42.625Z</time></trkpt><trkpt lat="45.4851294" lon="10.4695245"><ele>172.6</ele><time>2026-03-28T08:31:43.629Z</time></trkpt><trkpt lat="45.4851321" lon="10.4693769"><ele>172.0</ele><time>2026-03-28T08:31:44.626Z</time></trkpt><trkpt lat="45.4851288" lon="10.4692087"><ele>171.75</ele><time>2026-03-28T08:31:45.627Z</time></trkpt><trkpt lat="45.4851262" lon="10.4690183"><ele>171.5</ele><time>2026-03-28T08:31:46.641Z</time></trkpt><trkpt lat="45.4851219" lon="10.4688141"><ele>171.25</ele><time>2026-03-28T08:31:47.649Z</time></trkpt><trkpt lat="45.48511" lon="10.4686055"><ele>171.0</ele><time>2026-03-28T08:31:48.641Z</time></trkpt><trkpt lat="45.485086" lon="10.4684024"><ele>170.66666666666666</ele><time>2026-03-28T08:31:49.644Z</time></trkpt><trkpt lat="45.4850718" lon="10.4681736"><ele>170.33333333333331</ele><time>2026-03-28T08:31:50.644Z</time></trkpt><trkpt lat="45.4850568" lon="10.4679525"><ele>170.0</ele><time>2026-03-28T08:31:51.651Z</time></trkpt><trkpt lat="45.4850364" lon="10.4677285"><ele>169.66666666666666</ele><time>2026-03-28T08:31:52.637Z</time></trkpt><trkpt lat="45.4850203" lon="10.4675241"><ele>169.33333333333334</ele><time>2026-03-28T08:31:53.645Z</time></trkpt><trkpt lat="45.4850086" lon="10.4673094"><ele>169.0</ele><time>2026-03-28T08:31:54.647Z</time></trkpt><trkpt lat="45.4849836" lon="10.4670852"><ele>169.0</ele><time>2026-03-28T08:31:55.648Z</time></trkpt><trkpt lat="45.4849517" lon="10.4668673"><ele>169.0</ele><time>2026-03-28T08:31:56.644Z</time></trkpt><trkpt lat="45.4849183" lon="10.4666561"><ele>169.0</ele><time>2026-03-28T08:31:57.647Z</time></trkpt><trkpt lat="45.4848926" lon="10.4664377"><ele>168.33333333333334</ele><time>2026-03-28T08:31:58.646Z</time></trkpt><trkpt lat="45.484864" lon="10.4662069"><ele>167.66666666666666</ele><time>2026-03-28T08:31:59.646Z</time></trkpt><trkpt lat="45.4848509" lon="10.4659725"><ele>167.0</ele><time>2026-03-28T08:32:00.645Z</time></trkpt><trkpt lat="45.4848331" lon="10.4657344"><ele>167.0</ele><time>2026-03-28T08:32:01.647Z</time></trkpt><trkpt lat="45.4848111" lon="10.4655177"><ele>167.0</ele><time>2026-03-28T08:32:02.641Z</time></trkpt><trkpt lat="45.4847813" lon="10.4653"><ele>167.0</ele><time>2026-03-28T08:32:03.641Z</time></trkpt><trkpt lat="45.484743" lon="10.4650746"><ele>166.66666666666666</ele><time>2026-03-28T08:32:04.64Z</time></trkpt><trkpt lat="45.4847235" lon="10.4648591"><ele>166.33333333333334</ele><time>2026-03-28T08:32:05.646Z</time></trkpt><trkpt lat="45.4847029" lon="10.4646441"><ele>166.0</ele><time>2026-03-28T08:32:06.654Z</time></trkpt><trkpt lat="45.4846918" lon="10.4644163"><ele>165.66666666666669</ele><time>2026-03-28T08:32:07.644Z</time></trkpt><trkpt lat="45.4846668" lon="10.4641938"><ele>165.33333333333334</ele><time>2026-03-28T08:32:08.64Z</time></trkpt><trkpt lat="45.4846379" lon="10.4639749"><ele>165.0</ele><time>2026-03-28T08:32:09.645Z</time></trkpt><trkpt lat="45.4846115" lon="10.4637457"><ele>165.0</ele><time>2026-03-28T08:32:10.64Z</time></trkpt><trkpt lat="45.4846101" lon="10.4635153"><ele>165.0</ele><time>2026-03-28T08:32:11.642Z</time></trkpt><trkpt lat="45.484624" lon="10.4633124"><ele>165.0</ele><time>2026-03-28T08:32:12.636Z</time></trkpt><trkpt lat="45.4846307" lon="10.4631349"><ele>165.0</ele><time>2026-03-28T08:32:13.636Z</time></trkpt><trkpt lat="45.4846257" lon="10.4629514"><ele>164.75</ele><time>2026-03-28T08:32:14.642Z</time></trkpt><trkpt lat="45.4846235" lon="10.4627576"><ele>164.5</ele><time>2026-03-28T08:32:15.645Z</time></trkpt><trkpt lat="45.4846418" lon="10.4625739"><ele>164.25</ele><time>2026-03-28T08:32:16.642Z</time></trkpt><trkpt lat="45.4846509" lon="10.4623942"><ele>164.0</ele><time>2026-03-28T08:32:17.644Z</time></trkpt><trkpt lat="45.4846528" lon="10.4621945"><ele>163.75</ele><time>2026-03-28T08:32:18.647Z</time></trkpt><trkpt lat="45.4846666" lon="10.4620099"><ele>163.5</ele><time>2026-03-28T08:32:19.648Z</time></trkpt><trkpt lat="45.4846802" lon="10.4618042"><ele>163.25</ele><time>2026-03-28T08:32:20.653Z</time></trkpt><trkpt lat="45.4846865" lon="10.4615969"><ele>163.0</ele><time>2026-03-28T08:32:21.649Z</time></trkpt><trkpt lat="45.4846792" lon="10.4613765"><ele>162.66666666666669</ele><time>2026-03-28T08:32:22.657Z</time></trkpt><trkpt lat="45.4846829" lon="10.4611387"><ele>162.33333333333334</ele><time>2026-03-28T08:32:23.654Z</time></trkpt><trkpt lat="45.4846911" lon="10.4609297"><ele>162.0</ele><time>2026-03-28T08:32:24.653Z</time></trkpt><trkpt lat="45.4846876" lon="10.4607197"><ele>162.0</ele><time>2026-03-28T08:32:25.646Z</time></trkpt><trkpt lat="45.4846802" lon="10.4605168"><ele>162.0</ele><time>2026-03-28T08:32:26.648Z</time></trkpt><trkpt lat="45.4846759" lon="10.4603195"><ele>162.0</ele><time>2026-03-28T08:32:27.651Z</time></trkpt><trkpt lat="45.484674" lon="10.4600854"><ele>162.0</ele><time>2026-03-28T08:32:28.646Z</time></trkpt><trkpt lat="45.4846689" lon="10.4598652"><ele>162.0</ele><time>2026-03-28T08:32:29.648Z</time></trkpt><trkpt lat="45.4846647" lon="10.4596895"><ele>162.0</ele><time>2026-03-28T08:32:30.641Z</time></trkpt><trkpt lat="45.484658" lon="10.4595339"><ele>162.0</ele><time>2026-03-28T08:32:31.647Z</time></trkpt><trkpt lat="45.4846667" lon="10.4594145"><ele>162.0</ele><time>2026-03-28T08:32:32.64Z</time></trkpt><trkpt lat="45.4846585" lon="10.4592914"><ele>162.0</ele><time>2026-03-28T08:32:33.637Z</time></trkpt><trkpt lat="45.4846561" lon="10.4591244"><ele>161.83333333333334</ele><time>2026-03-28T08:32:35.63Z</time></trkpt><trkpt lat="45.4846478" lon="10.4589883"><ele>161.66666666666666</ele><time>2026-03-28T08:32:37.65Z</time></trkpt><trkpt lat="45.4846484" lon="10.458897"><ele>161.5</ele><time>2026-03-28T08:32:40.649Z</time></trkpt><trkpt lat="45.4847104" lon="10.4589286"><ele>161.33333333333331</ele><time>2026-03-28T08:32:43.633Z</time></trkpt><trkpt lat="45.4846803" lon="10.4590505"><ele>161.16666666666666</ele><time>2026-03-28T08:32:45.637Z</time></trkpt><trkpt lat="45.4846396" lon="10.4592123"><ele>161.0</ele><time>2026-03-28T08:32:47.625Z</time></trkpt><trkpt lat="45.4846371" lon="10.4593474"><ele>161.0</ele><time>2026-03-28T08:32:48.637Z</time></trkpt><trkpt lat="45.484644" lon="10.4594986"><ele>161.0</ele><time>2026-03-28T08:32:49.633Z</time></trkpt><trkpt lat="45.4846543" lon="10.4596581"><ele>161.0</ele><time>2026-03-28T08:32:50.631Z</time></trkpt><trkpt lat="45.4846638" lon="10.4598247"><ele>161.0</ele><time>2026-03-28T08:32:51.634Z</time></trkpt><trkpt lat="45.4846701" lon="10.4600069"><ele>161.25</ele><time>2026-03-28T08:32:52.64Z</time></trkpt><trkpt lat="45.4846755" lon="10.4602107"><ele>161.5</ele><time>2026-03-28T08:32:53.647Z</time></trkpt><trkpt lat="45.4846805" lon="10.4604068"><ele>161.75</ele><time>2026-03-28T08:32:54.641Z</time></trkpt><trkpt lat="45.4846849" lon="10.4605935"><ele>162.0</ele><time>2026-03-28T08:32:55.639Z</time></trkpt><trkpt lat="45.4846876" lon="10.4607691"><ele>162.0</ele><time>2026-03-28T08:32:56.645Z</time></trkpt><trkpt lat="45.4846877" lon="10.4609398"><ele>162.0</ele><time>2026-03-28T08:32:57.641Z</time></trkpt><trkpt lat="45.4846873" lon="10.4611043"><ele>162.0</ele><time>2026-03-28T08:32:58.645Z</time></trkpt><trkpt lat="45.4846875" lon="10.4612753"><ele>162.0</ele><time>2026-03-28T08:32:59.638Z</time></trkpt><trkpt lat="45.4846864" lon="10.4614427"><ele>162.2</ele><time>2026-03-28T08:33:00.645Z</time></trkpt><trkpt lat="45.4846847" lon="10.4615955"><ele>162.39999999999998</ele><time>2026-03-28T08:33:01.644Z</time></trkpt><trkpt lat="45.4846847" lon="10.4617316"><ele>162.60000000000002</ele><time>2026-03-28T08:33:02.636Z</time></trkpt><trkpt lat="45.4846834" lon="10.4618319"><ele>162.8</ele><time>2026-03-28T08:33:03.632Z</time></trkpt><trkpt lat="45.4846821" lon="10.4619909"><ele>163.0</ele><time>2026-03-28T08:33:05.647Z</time></trkpt><trkpt lat="45.4846613" lon="10.4621772"><ele>163.16666666666669</ele><time>2026-03-28T08:33:07.644Z</time></trkpt><trkpt lat="45.4846471" lon="10.4622859"><ele>163.33333333333334</ele><time>2026-03-28T08:33:08.664Z</time></trkpt><trkpt lat="45.4846345" lon="10.4623998"><ele>163.5</ele><time>2026-03-28T08:33:09.657Z</time></trkpt><trkpt lat="45.4846291" lon="10.4624993"><ele>163.66666666666666</ele><time>2026-03-28T08:33:10.649Z</time></trkpt><trkpt lat="45.4846219" lon="10.4625952"><ele>163.83333333333331</ele><time>2026-03-28T08:33:11.652Z</time></trkpt><trkpt lat="45.4846191" lon="10.462688"><ele>164.0</ele><time>2026-03-28T08:33:12.652Z</time></trkpt><trkpt lat="45.4846219" lon="10.462858"><ele>164.0</ele><time>2026-03-28T08:33:14.655Z</time></trkpt><trkpt lat="45.4846164" lon="10.4630293"><ele>164.0</ele><time>2026-03-28T08:33:16.636Z</time></trkpt><trkpt lat="45.4845248" lon="10.4630434"><ele>164.0</ele><time>2026-03-28T08:33:25.65Z</time></trkpt><trkpt lat="45.4844694" lon="10.4629489"><ele>164.0</ele><time>2026-03-28T08:33:26.626Z</time></trkpt><trkpt lat="45.4844139" lon="10.462813"><ele>164.0</ele><time>2026-03-28T08:33:27.625Z</time></trkpt><trkpt lat="45.484364" lon="10.4626579"><ele>163.75</ele><time>2026-03-28T08:33:28.635Z</time></trkpt><trkpt lat="45.4843121" lon="10.4624958"><ele>163.5</ele><time>2026-03-28T08:33:29.643Z</time></trkpt><trkpt lat="45.4842504" lon="10.4623382"><ele>163.25</ele><time>2026-03-28T08:33:30.627Z</time></trkpt><trkpt lat="45.4841759" lon="10.4621806"><ele>163.0</ele><time>2026-03-28T08:33:31.639Z</time></trkpt><trkpt lat="45.4841089" lon="10.4620432"><ele>162.83333333333334</ele><time>2026-03-28T08:33:32.632Z</time></trkpt><trkpt lat="45.4840505" lon="10.4619334"><ele>162.66666666666669</ele><time>2026-03-28T08:33:33.625Z</time></trkpt><trkpt lat="45.4840014" lon="10.4618418"><ele>162.5</ele><time>2026-03-28T08:33:34.637Z</time></trkpt><trkpt lat="45.4839531" lon="10.4617405"><ele>162.33333333333334</ele><time>2026-03-28T08:33:35.637Z</time></trkpt><trkpt lat="45.4839282" lon="10.4616348"><ele>162.16666666666666</ele><time>2026-03-28T08:33:36.634Z</time></trkpt><trkpt lat="45.4839269" lon="10.4614987"><ele>162.0</ele><time>2026-03-28T08:33:37.631Z</time></trkpt><trkpt lat="45.483939" lon="10.461331"><ele>162.25</ele><time>2026-03-28T08:33:38.645Z</time></trkpt><trkpt lat="45.4839475" lon="10.4611459"><ele>162.5</ele><time>2026-03-28T08:33:39.635Z</time></trkpt><trkpt lat="45.4839471" lon="10.460963"><ele>162.75</ele><time>2026-03-28T08:33:40.64Z</time></trkpt><trkpt lat="45.4839471" lon="10.4607604"><ele>163.0</ele><time>2026-03-28T08:33:41.639Z</time></trkpt><trkpt lat="45.4839354" lon="10.4605636"><ele>162.75</ele><time>2026-03-28T08:33:42.642Z</time></trkpt><trkpt lat="45.4839144" lon="10.4603636"><ele>162.5</ele><time>2026-03-28T08:33:43.641Z</time></trkpt><trkpt lat="45.4839078" lon="10.4601679"><ele>162.25</ele><time>2026-03-28T08:33:44.643Z</time></trkpt><trkpt lat="45.4838788" lon="10.4599669"><ele>162.0</ele><time>2026-03-28T08:33:45.635Z</time></trkpt><trkpt lat="45.4838551" lon="10.459792"><ele>162.0</ele><time>2026-03-28T08:33:46.637Z</time></trkpt><trkpt lat="45.483826" lon="10.4596425"><ele>162.0</ele><time>2026-03-28T08:33:47.645Z</time></trkpt><trkpt lat="45.483811" lon="10.459526"><ele>162.0</ele><time>2026-03-28T08:33:48.638Z</time></trkpt><trkpt lat="45.4837991" lon="10.4594338"><ele>162.0</ele><time>2026-03-28T08:33:49.639Z</time></trkpt><trkpt lat="45.4838119" lon="10.4592649"><ele>162.0</ele><time>2026-03-28T08:33:51.648Z</time></trkpt><trkpt lat="45.4838581" lon="10.4591686"><ele>161.75</ele><time>2026-03-28T08:33:52.647Z</time></trkpt><trkpt lat="45.4839322" lon="10.459058"><ele>161.5</ele><time>2026-03-28T08:33:53.652Z</time></trkpt><trkpt lat="45.484016" lon="10.4589438"><ele>161.25</ele><time>2026-03-28T08:33:54.647Z</time></trkpt><trkpt lat="45.4840956" lon="10.4588272"><ele>161.0</ele><time>2026-03-28T08:33:55.641Z</time></trkpt><trkpt lat="45.4841865" lon="10.4586914"><ele>160.25</ele><time>2026-03-28T08:33:56.639Z</time></trkpt><trkpt lat="45.4842804" lon="10.4585562"><ele>159.5</ele><time>2026-03-28T08:33:57.654Z</time></trkpt><trkpt lat="45.4843743" lon="10.4584211"><ele>158.75</ele><time>2026-03-28T08:33:58.646Z</time></trkpt><trkpt lat="45.4844584" lon="10.4582929"><ele>158.0</ele><time>2026-03-28T08:33:59.652Z</time></trkpt><trkpt lat="45.4845144" lon="10.4581773"><ele>158.0</ele><time>2026-03-28T08:34:00.641Z</time></trkpt><trkpt lat="45.4845627" lon="10.4580499"><ele>158.0</ele><time>2026-03-28T08:34:01.652Z</time></trkpt><trkpt lat="45.4845855" lon="10.4579213"><ele>158.0</ele><time>2026-03-28T08:34:02.652Z</time></trkpt><trkpt lat="45.4845871" lon="10.4577746"><ele>158.0</ele><time>2026-03-28T08:34:03.647Z</time></trkpt><trkpt lat="45.4845786" lon="10.4575975"><ele>158.0</ele><time>2026-03-28T08:34:04.648Z</time></trkpt><trkpt lat="45.4845746" lon="10.4574076"><ele>158.0</ele><time>2026-03-28T08:34:05.642Z</time></trkpt><trkpt lat="45.4845687" lon="10.4572118"><ele>158.0</ele><time>2026-03-28T08:34:06.639Z</time></trkpt><trkpt lat="45.4845754" lon="10.4569886"><ele>158.0</ele><time>2026-03-28T08:34:07.647Z</time></trkpt><trkpt lat="45.4845708" lon="10.4567759"><ele>158.0</ele><time>2026-03-28T08:34:08.65Z</time></trkpt><trkpt lat="45.4845644" lon="10.4565515"><ele>158.0</ele><time>2026-03-28T08:34:09.663Z</time></trkpt><trkpt lat="45.4845693" lon="10.4563389"><ele>158.0</ele><time>2026-03-28T08:34:10.649Z</time></trkpt><trkpt lat="45.4845468" lon="10.4561253"><ele>158.0</ele><time>2026-03-28T08:34:11.647Z</time></trkpt><trkpt lat="45.48454" lon="10.4559174"><ele>158.0</ele><time>2026-03-28T08:34:12.643Z</time></trkpt><trkpt lat="45.4845535" lon="10.4557418"><ele>157.75</ele><time>2026-03-28T08:34:13.649Z</time></trkpt><trkpt lat="45.4845633" lon="10.4555522"><ele>157.5</ele><time>2026-03-28T08:34:14.649Z</time></trkpt><trkpt lat="45.48457" lon="10.4553542"><ele>157.25</ele><time>2026-03-28T08:34:15.647Z</time></trkpt><trkpt lat="45.4845626" lon="10.455148"><ele>157.0</ele><time>2026-03-28T08:34:16.647Z</time></trkpt><trkpt lat="45.4845546" lon="10.4549354"><ele>156.75</ele><time>2026-03-28T08:34:17.647Z</time></trkpt><trkpt lat="45.484561" lon="10.4547376"><ele>156.5</ele><time>2026-03-28T08:34:18.645Z</time></trkpt><trkpt lat="45.4845624" lon="10.4545569"><ele>156.25</ele><time>2026-03-28T08:34:19.642Z</time></trkpt><trkpt lat="45.4845688" lon="10.4544145"><ele>156.0</ele><time>2026-03-28T08:34:20.649Z</time></trkpt><trkpt lat="45.4845756" lon="10.4542754"><ele>155.8</ele><time>2026-03-28T08:34:21.64Z</time></trkpt><trkpt lat="45.4845925" lon="10.4541741"><ele>155.6</ele><time>2026-03-28T08:34:22.645Z</time></trkpt><trkpt lat="45.4845833" lon="10.4540744"><ele>155.4</ele><time>2026-03-28T08:34:23.636Z</time></trkpt><trkpt lat="45.4845473" lon="10.4539407"><ele>155.2</ele><time>2026-03-28T08:34:25.654Z</time></trkpt><trkpt lat="45.4844356" lon="10.4539025"><ele>155.0</ele><time>2026-03-28T08:34:27.632Z</time></trkpt><trkpt lat="45.4843321" lon="10.4539022"><ele>155.0</ele><time>2026-03-28T08:34:28.644Z</time></trkpt><trkpt lat="45.4841905" lon="10.4538983"><ele>155.0</ele><time>2026-03-28T08:34:29.636Z</time></trkpt><trkpt lat="45.4840506" lon="10.4538832"><ele>155.0</ele><time>2026-03-28T08:34:30.633Z</time></trkpt><trkpt lat="45.4838959" lon="10.4538567"><ele>155.0</ele><time>2026-03-28T08:34:31.636Z</time></trkpt><trkpt lat="45.4837325" lon="10.4538288"><ele>154.66666666666666</ele><time>2026-03-28T08:34:32.64Z</time></trkpt><trkpt lat="45.4835799" lon="10.4537912"><ele>154.33333333333334</ele><time>2026-03-28T08:34:33.645Z</time></trkpt><trkpt lat="45.4834158" lon="10.4537688"><ele>154.0</ele><time>2026-03-28T08:34:34.647Z</time></trkpt><trkpt lat="45.4832589" lon="10.4537509"><ele>153.75</ele><time>2026-03-28T08:34:35.645Z</time></trkpt><trkpt lat="45.4830973" lon="10.4537356"><ele>153.5</ele><time>2026-03-28T08:34:36.646Z</time></trkpt><trkpt lat="45.4829533" lon="10.4537164"><ele>153.25</ele><time>2026-03-28T08:34:37.646Z</time></trkpt><trkpt lat="45.4828133" lon="10.4536852"><ele>153.0</ele><time>2026-03-28T08:34:38.648Z</time></trkpt><trkpt lat="45.4826634" lon="10.4536619"><ele>152.66666666666666</ele><time>2026-03-28T08:34:39.648Z</time></trkpt><trkpt lat="45.4825199" lon="10.4536372"><ele>152.33333333333331</ele><time>2026-03-28T08:34:40.66Z</time></trkpt><trkpt lat="45.4823606" lon="10.4536106"><ele>152.0</ele><time>2026-03-28T08:34:41.649Z</time></trkpt><trkpt lat="45.4822128" lon="10.4535968"><ele>152.0</ele><time>2026-03-28T08:34:42.644Z</time></trkpt><trkpt lat="45.4820711" lon="10.4535725"><ele>152.0</ele><time>2026-03-28T08:34:43.649Z</time></trkpt><trkpt lat="45.481927" lon="10.4535602"><ele>152.0</ele><time>2026-03-28T08:34:44.646Z</time></trkpt><trkpt lat="45.4817859" lon="10.4535396"><ele>152.0</ele><time>2026-03-28T08:34:45.636Z</time></trkpt><trkpt lat="45.4816493" lon="10.4535164"><ele>152.0</ele><time>2026-03-28T08:34:46.646Z</time></trkpt><trkpt lat="45.4815208" lon="10.4534929"><ele>152.0</ele><time>2026-03-28T08:34:47.651Z</time></trkpt><trkpt lat="45.4813955" lon="10.4534733"><ele>152.0</ele><time>2026-03-28T08:34:48.648Z</time></trkpt><trkpt lat="45.4812703" lon="10.4534573"><ele>152.0</ele><time>2026-03-28T08:34:49.648Z</time></trkpt><trkpt lat="45.48112" lon="10.4534404"><ele>151.75</ele><time>2026-03-28T08:34:50.646Z</time></trkpt><trkpt lat="45.4809704" lon="10.4534165"><ele>151.5</ele><time>2026-03-28T08:34:51.651Z</time></trkpt><trkpt lat="45.4808176" lon="10.453401"><ele>151.25</ele><time>2026-03-28T08:34:52.644Z</time></trkpt><trkpt lat="45.4806739" lon="10.4533744"><ele>151.0</ele><time>2026-03-28T08:34:53.645Z</time></trkpt><trkpt lat="45.4805386" lon="10.4533576"><ele>151.2</ele><time>2026-03-28T08:34:54.642Z</time></trkpt><trkpt lat="45.4804198" lon="10.4533483"><ele>151.39999999999998</ele><time>2026-03-28T08:34:55.641Z</time></trkpt><trkpt lat="45.4803095" lon="10.4533381"><ele>151.6</ele><time>2026-03-28T08:34:56.65Z</time></trkpt><trkpt lat="45.4802269" lon="10.4533179"><ele>151.79999999999998</ele><time>2026-03-28T08:34:57.647Z</time></trkpt><trkpt lat="45.480142" lon="10.4533095"><ele>152.0</ele><time>2026-03-28T08:34:58.644Z</time></trkpt><trkpt lat="45.4800578" lon="10.4533082"><ele>152.0</ele><time>2026-03-28T08:34:59.646Z</time></trkpt><trkpt lat="45.4799824" lon="10.4533107"><ele>152.0</ele><time>2026-03-28T08:35:00.642Z</time></trkpt><trkpt lat="45.4799147" lon="10.4533363"><ele>152.0</ele><time>2026-03-28T08:35:01.635Z</time></trkpt><trkpt lat="45.4798291" lon="10.4533847"><ele>152.0</ele><time>2026-03-28T08:35:02.641Z</time></trkpt><trkpt lat="45.4797359" lon="10.4534611"><ele>152.0</ele><time>2026-03-28T08:35:03.638Z</time></trkpt><trkpt lat="45.4796294" lon="10.4535646"><ele>151.66666666666666</ele><time>2026-03-28T08:35:04.639Z</time></trkpt><trkpt lat="45.4795033" lon="10.4536827"><ele>151.33333333333334</ele><time>2026-03-28T08:35:05.643Z</time></trkpt><trkpt lat="45.4793668" lon="10.4538223"><ele>151.0</ele><time>2026-03-28T08:35:06.641Z</time></trkpt><trkpt lat="45.4792135" lon="10.4539763"><ele>151.0</ele><time>2026-03-28T08:35:07.636Z</time></trkpt><trkpt lat="45.4790737" lon="10.4541458"><ele>151.0</ele><time>2026-03-28T08:35:08.639Z</time></trkpt><trkpt lat="45.4789244" lon="10.4543323"><ele>151.0</ele><time>2026-03-28T08:35:09.641Z</time></trkpt><trkpt lat="45.478782" lon="10.4545095"><ele>151.0</ele><time>2026-03-28T08:35:10.637Z</time></trkpt><trkpt lat="45.4786433" lon="10.4546819"><ele>151.0</ele><time>2026-03-28T08:35:11.646Z</time></trkpt><trkpt lat="45.4785004" lon="10.4548627"><ele>151.0</ele><time>2026-03-28T08:35:12.636Z</time></trkpt><trkpt lat="45.4783574" lon="10.4550351"><ele>151.0</ele><time>2026-03-28T08:35:13.634Z</time></trkpt><trkpt lat="45.4782112" lon="10.4552009"><ele>151.0</ele><time>2026-03-28T08:35:14.632Z</time></trkpt><trkpt lat="45.4780819" lon="10.4553653"><ele>151.0</ele><time>2026-03-28T08:35:15.633Z</time></trkpt><trkpt lat="45.4779462" lon="10.4555139"><ele>151.75</ele><time>2026-03-28T08:35:16.625Z</time></trkpt><trkpt lat="45.4778378" lon="10.4556496"><ele>152.5</ele><time>2026-03-28T08:35:17.633Z</time></trkpt><trkpt lat="45.4777507" lon="10.4557789"><ele>153.25</ele><time>2026-03-28T08:35:18.62Z</time></trkpt><trkpt lat="45.4776606" lon="10.4558924"><ele>154.0</ele><time>2026-03-28T08:35:19.626Z</time></trkpt><trkpt lat="45.4776054" lon="10.4559461"><ele>154.0</ele><time>2026-03-28T08:35:20.624Z</time></trkpt><trkpt lat="45.4775329" lon="10.4560196"><ele>154.0</ele><time>2026-03-28T08:35:21.624Z</time></trkpt><trkpt lat="45.477464" lon="10.4560772"><ele>154.0</ele><time>2026-03-28T08:35:22.625Z</time></trkpt><trkpt lat="45.4773855" lon="10.4561813"><ele>154.0</ele><time>2026-03-28T08:35:24.628Z</time></trkpt><trkpt lat="45.4773183" lon="10.4563796"><ele>154.0</ele><time>2026-03-28T08:35:26.623Z</time></trkpt><trkpt lat="45.4772838" lon="10.4565307"><ele>153.66666666666669</ele><time>2026-03-28T08:35:27.634Z</time></trkpt><trkpt lat="45.4772401" lon="10.4567319"><ele>153.33333333333334</ele><time>2026-03-28T08:35:28.624Z</time></trkpt><trkpt lat="45.4771934" lon="10.456958"><ele>153.0</ele><time>2026-03-28T08:35:29.625Z</time></trkpt><trkpt lat="45.47715" lon="10.4572422"><ele>153.0</ele><time>2026-03-28T08:35:30.612Z</time></trkpt><trkpt lat="45.4771252" lon="10.4574858"><ele>153.0</ele><time>2026-03-28T08:35:31.615Z</time></trkpt><trkpt lat="45.477089" lon="10.4577296"><ele>153.0</ele><time>2026-03-28T08:35:32.611Z</time></trkpt><trkpt lat="45.4770471" lon="10.4579443"><ele>153.66666666666666</ele><time>2026-03-28T08:35:33.612Z</time></trkpt><trkpt lat="45.477017" lon="10.4581526"><ele>154.33333333333331</ele><time>2026-03-28T08:35:34.612Z</time></trkpt><trkpt lat="45.476967" lon="10.4583652"><ele>155.0</ele><time>2026-03-28T08:35:35.615Z</time></trkpt><trkpt lat="45.4769346" lon="10.4585925"><ele>155.0</ele><time>2026-03-28T08:35:36.616Z</time></trkpt><trkpt lat="45.4768964" lon="10.4587642"><ele>155.0</ele><time>2026-03-28T08:35:37.606Z</time></trkpt><trkpt lat="45.4768477" lon="10.4588973"><ele>155.0</ele><time>2026-03-28T08:35:38.61Z</time></trkpt><trkpt lat="45.4768236" lon="10.4590558"><ele>155.0</ele><time>2026-03-28T08:35:39.607Z</time></trkpt><trkpt lat="45.4768063" lon="10.4591756"><ele>155.0</ele><time>2026-03-28T08:35:40.614Z</time></trkpt><trkpt lat="45.4767387" lon="10.459342"><ele>155.0</ele><time>2026-03-28T08:35:42.619Z</time></trkpt><trkpt lat="45.4766735" lon="10.4594356"><ele>155.0</ele><time>2026-03-28T08:35:43.607Z</time></trkpt><trkpt lat="45.4765821" lon="10.459495"><ele>155.0</ele><time>2026-03-28T08:35:44.607Z</time></trkpt><trkpt lat="45.4764791" lon="10.4595546"><ele>155.0</ele><time>2026-03-28T08:35:45.614Z</time></trkpt><trkpt lat="45.4763783" lon="10.4596094"><ele>155.0</ele><time>2026-03-28T08:35:46.612Z</time></trkpt><trkpt lat="45.4762717" lon="10.4596801"><ele>155.0</ele><time>2026-03-28T08:35:47.614Z</time></trkpt><trkpt lat="45.4761647" lon="10.4597541"><ele>155.0</ele><time>2026-03-28T08:35:48.63Z</time></trkpt><trkpt lat="45.4760592" lon="10.459831"><ele>155.0</ele><time>2026-03-28T08:35:49.63Z</time></trkpt><trkpt lat="45.4759615" lon="10.4599099"><ele>155.0</ele><time>2026-03-28T08:35:50.631Z</time></trkpt><trkpt lat="45.4758686" lon="10.4599751"><ele>155.0</ele><time>2026-03-28T08:35:51.634Z</time></trkpt><trkpt lat="45.4757671" lon="10.4600745"><ele>155.0</ele><time>2026-03-28T08:35:52.633Z</time></trkpt><trkpt lat="45.4756499" lon="10.4601839"><ele>155.0</ele><time>2026-03-28T08:35:53.637Z</time></trkpt><trkpt lat="45.4755134" lon="10.4602942"><ele>155.0</ele><time>2026-03-28T08:35:54.64Z</time></trkpt><trkpt lat="45.4753599" lon="10.4604038"><ele>154.0</ele><time>2026-03-28T08:35:55.639Z</time></trkpt><trkpt lat="45.4752046" lon="10.4604896"><ele>153.0</ele><time>2026-03-28T08:35:56.639Z</time></trkpt><trkpt lat="45.4750525" lon="10.4605734"><ele>152.0</ele><time>2026-03-28T08:35:57.646Z</time></trkpt><trkpt lat="45.4748982" lon="10.460655"><ele>152.0</ele><time>2026-03-28T08:35:58.65Z</time></trkpt><trkpt lat="45.4747406" lon="10.4607626"><ele>152.0</ele><time>2026-03-28T08:35:59.644Z</time></trkpt><trkpt lat="45.4746017" lon="10.4608789"><ele>152.0</ele><time>2026-03-28T08:36:00.646Z</time></trkpt><trkpt lat="45.4744586" lon="10.4609966"><ele>152.66666666666666</ele><time>2026-03-28T08:36:01.648Z</time></trkpt><trkpt lat="45.4743331" lon="10.4611108"><ele>153.33333333333334</ele><time>2026-03-28T08:36:02.647Z</time></trkpt><trkpt lat="45.4741985" lon="10.4612434"><ele>154.0</ele><time>2026-03-28T08:36:03.637Z</time></trkpt><trkpt lat="45.4740711" lon="10.4613858"><ele>154.0</ele><time>2026-03-28T08:36:04.634Z</time></trkpt><trkpt lat="45.4739487" lon="10.4615402"><ele>154.0</ele><time>2026-03-28T08:36:05.633Z</time></trkpt><trkpt lat="45.4738339" lon="10.4616682"><ele>154.0</ele><time>2026-03-28T08:36:06.637Z</time></trkpt><trkpt lat="45.4737386" lon="10.4617958"><ele>154.0</ele><time>2026-03-28T08:36:07.635Z</time></trkpt><trkpt lat="45.473619" lon="10.4619097"><ele>153.66666666666669</ele><time>2026-03-28T08:36:08.643Z</time></trkpt><trkpt lat="45.4734968" lon="10.4620203"><ele>153.33333333333334</ele><time>2026-03-28T08:36:09.639Z</time></trkpt><trkpt lat="45.4733737" lon="10.4621314"><ele>153.0</ele><time>2026-03-28T08:36:10.642Z</time></trkpt><trkpt lat="45.473238" lon="10.462255"><ele>152.66666666666666</ele><time>2026-03-28T08:36:11.642Z</time></trkpt><trkpt lat="45.4730849" lon="10.4623921"><ele>152.33333333333331</ele><time>2026-03-28T08:36:12.641Z</time></trkpt><trkpt lat="45.4729552" lon="10.4625377"><ele>152.0</ele><time>2026-03-28T08:36:13.65Z</time></trkpt><trkpt lat="45.4728079" lon="10.4626929"><ele>152.0</ele><time>2026-03-28T08:36:14.632Z</time></trkpt><trkpt lat="45.4726616" lon="10.4628308"><ele>152.0</ele><time>2026-03-28T08:36:15.632Z</time></trkpt><trkpt lat="45.4725225" lon="10.4629761"><ele>152.0</ele><time>2026-03-28T08:36:16.637Z</time></trkpt><trkpt lat="45.472405" lon="10.4631089"><ele>152.33333333333331</ele><time>2026-03-28T08:36:17.638Z</time></trkpt><trkpt lat="45.4722688" lon="10.4632368"><ele>152.66666666666666</ele><time>2026-03-28T08:36:18.638Z</time></trkpt><trkpt lat="45.4721429" lon="10.4633735"><ele>153.0</ele><time>2026-03-28T08:36:19.636Z</time></trkpt><trkpt lat="45.4720015" lon="10.4635061"><ele>153.0</ele><time>2026-03-28T08:36:20.639Z</time></trkpt><trkpt lat="45.4718779" lon="10.4636125"><ele>153.0</ele><time>2026-03-28T08:36:21.633Z</time></trkpt><trkpt lat="45.4717448" lon="10.4637037"><ele>153.0</ele><time>2026-03-28T08:36:22.634Z</time></trkpt><trkpt lat="45.4716173" lon="10.4637794"><ele>153.0</ele><time>2026-03-28T08:36:23.636Z</time></trkpt><trkpt lat="45.4714951" lon="10.4638404"><ele>153.0</ele><time>2026-03-28T08:36:24.638Z</time></trkpt><trkpt lat="45.4713851" lon="10.4639302"><ele>153.0</ele><time>2026-03-28T08:36:25.635Z</time></trkpt><trkpt lat="45.4712533" lon="10.4640127"><ele>153.0</ele><time>2026-03-28T08:36:26.632Z</time></trkpt><trkpt lat="45.4711205" lon="10.4641514"><ele>153.0</ele><time>2026-03-28T08:36:27.642Z</time></trkpt><trkpt lat="45.4709964" lon="10.4643214"><ele>152.66666666666666</ele><time>2026-03-28T08:36:28.642Z</time></trkpt><trkpt lat="45.4708787" lon="10.4645008"><ele>152.33333333333331</ele><time>2026-03-28T08:36:29.645Z</time></trkpt><trkpt lat="45.4707732" lon="10.4647087"><ele>152.0</ele><time>2026-03-28T08:36:30.633Z</time></trkpt><trkpt lat="45.4706443" lon="10.4649055"><ele>152.0</ele><time>2026-03-28T08:36:31.644Z</time></trkpt><trkpt lat="45.4705357" lon="10.4650812"><ele>152.0</ele><time>2026-03-28T08:36:32.635Z</time></trkpt><trkpt lat="45.4704533" lon="10.4652376"><ele>152.0</ele><time>2026-03-28T08:36:33.639Z</time></trkpt><trkpt lat="45.4703443" lon="10.4653833"><ele>152.0</ele><time>2026-03-28T08:36:34.638Z</time></trkpt><trkpt lat="45.4702264" lon="10.4655126"><ele>152.0</ele><time>2026-03-28T08:36:35.637Z</time></trkpt><trkpt lat="45.4700859" lon="10.4656559"><ele>152.0</ele><time>2026-03-28T08:36:36.647Z</time></trkpt><trkpt lat="45.4699654" lon="10.4657995"><ele>152.0</ele><time>2026-03-28T08:36:37.641Z</time></trkpt><trkpt lat="45.4698593" lon="10.4659411"><ele>152.0</ele><time>2026-03-28T08:36:38.631Z</time></trkpt><trkpt lat="45.4697704" lon="10.46608"><ele>152.0</ele><time>2026-03-28T08:36:39.637Z</time></trkpt><trkpt lat="45.4696983" lon="10.4662444"><ele>152.0</ele><time>2026-03-28T08:36:40.627Z</time></trkpt><trkpt lat="45.4696591" lon="10.4664187"><ele>152.5</ele><time>2026-03-28T08:36:41.64Z</time></trkpt><trkpt lat="45.4696203" lon="10.4666132"><ele>153.0</ele><time>2026-03-28T08:36:42.639Z</time></trkpt><trkpt lat="45.4695715" lon="10.4668091"><ele>153.5</ele><time>2026-03-28T08:36:43.642Z</time></trkpt><trkpt lat="45.4695284" lon="10.4670128"><ele>154.0</ele><time>2026-03-28T08:36:44.654Z</time></trkpt><trkpt lat="45.469501" lon="10.4672199"><ele>154.0</ele><time>2026-03-28T08:36:45.64Z</time></trkpt><trkpt lat="45.4694539" lon="10.4674088"><ele>154.0</ele><time>2026-03-28T08:36:46.646Z</time></trkpt><trkpt lat="45.4693882" lon="10.4675619"><ele>154.0</ele><time>2026-03-28T08:36:47.646Z</time></trkpt><trkpt lat="45.4693227" lon="10.4677148"><ele>154.0</ele><time>2026-03-28T08:36:48.633Z</time></trkpt><trkpt lat="45.4692425" lon="10.467844"><ele>154.0</ele><time>2026-03-28T08:36:49.63Z</time></trkpt><trkpt lat="45.4691316" lon="10.4679676"><ele>154.0</ele><time>2026-03-28T08:36:50.626Z</time></trkpt><trkpt lat="45.4690256" lon="10.4680664"><ele>154.0</ele><time>2026-03-28T08:36:51.623Z</time></trkpt><trkpt lat="45.4688972" lon="10.4681609"><ele>154.0</ele><time>2026-03-28T08:36:52.621Z</time></trkpt><trkpt lat="45.4687418" lon="10.4682366"><ele>154.0</ele><time>2026-03-28T08:36:53.618Z</time></trkpt><trkpt lat="45.4685959" lon="10.4683092"><ele>154.0</ele><time>2026-03-28T08:36:54.625Z</time></trkpt><trkpt lat="45.4684496" lon="10.4683699"><ele>154.0</ele><time>2026-03-28T08:36:55.622Z</time></trkpt><trkpt lat="45.4683259" lon="10.4683963"><ele>154.0</ele><time>2026-03-28T08:36:56.64Z</time></trkpt><trkpt lat="45.4682145" lon="10.4684197"><ele>154.0</ele><time>2026-03-28T08:36:57.64Z</time></trkpt><trkpt lat="45.4681116" lon="10.4684229"><ele>154.0</ele><time>2026-03-28T08:36:58.639Z</time></trkpt><trkpt lat="45.4680262" lon="10.4684352"><ele>154.0</ele><time>2026-03-28T08:36:59.642Z</time></trkpt><trkpt lat="45.4679612" lon="10.4684488"><ele>154.0</ele><time>2026-03-28T08:37:00.648Z</time></trkpt><trkpt lat="45.4678904" lon="10.4684531"><ele>154.0</ele><time>2026-03-28T08:37:01.639Z</time></trkpt><trkpt lat="45.4678328" lon="10.4685077"><ele>154.0</ele><time>2026-03-28T08:37:02.645Z</time></trkpt><trkpt lat="45.4677932" lon="10.4685894"><ele>154.0</ele><time>2026-03-28T08:37:03.636Z</time></trkpt><trkpt lat="45.4677892" lon="10.4687169"><ele>154.0</ele><time>2026-03-28T08:37:04.63Z</time></trkpt><trkpt lat="45.4677875" lon="10.468873"><ele>154.0</ele><time>2026-03-28T08:37:05.621Z</time></trkpt><trkpt lat="45.4677753" lon="10.4690753"><ele>154.0</ele><time>2026-03-28T08:37:06.618Z</time></trkpt><trkpt lat="45.4677658" lon="10.469289"><ele>153.5</ele><time>2026-03-28T08:37:07.648Z</time></trkpt><trkpt lat="45.4677442" lon="10.4695102"><ele>153.0</ele><time>2026-03-28T08:37:08.643Z</time></trkpt><trkpt lat="45.4677192" lon="10.4697462"><ele>152.5</ele><time>2026-03-28T08:37:09.641Z</time></trkpt><trkpt lat="45.4676841" lon="10.4699144"><ele>152.0</ele><time>2026-03-28T08:37:10.641Z</time></trkpt><trkpt lat="45.467646" lon="10.4701163"><ele>152.0</ele><time>2026-03-28T08:37:11.642Z</time></trkpt><trkpt lat="45.4676052" lon="10.4703253"><ele>152.0</ele><time>2026-03-28T08:37:12.64Z</time></trkpt><trkpt lat="45.4675687" lon="10.4705303"><ele>152.0</ele><time>2026-03-28T08:37:13.644Z</time></trkpt><trkpt lat="45.4675235" lon="10.4707261"><ele>152.0</ele><time>2026-03-28T08:37:14.644Z</time></trkpt><trkpt lat="45.4674929" lon="10.4709195"><ele>152.25</ele><time>2026-03-28T08:37:15.651Z</time></trkpt><trkpt lat="45.4674594" lon="10.4711289"><ele>152.5</ele><time>2026-03-28T08:37:16.647Z</time></trkpt><trkpt lat="45.4674291" lon="10.4713216"><ele>152.75</ele><time>2026-03-28T08:37:17.657Z</time></trkpt><trkpt lat="45.4674093" lon="10.4715113"><ele>153.0</ele><time>2026-03-28T08:37:18.639Z</time></trkpt><trkpt lat="45.4673859" lon="10.4716892"><ele>153.20000000000002</ele><time>2026-03-28T08:37:19.633Z</time></trkpt><trkpt lat="45.4673559" lon="10.4718315"><ele>153.4</ele><time>2026-03-28T08:37:20.633Z</time></trkpt><trkpt lat="45.4673133" lon="10.4719281"><ele>153.60000000000002</ele><time>2026-03-28T08:37:21.636Z</time></trkpt><trkpt lat="45.4672531" lon="10.4720713"><ele>153.8</ele><time>2026-03-28T08:37:23.642Z</time></trkpt><trkpt lat="45.4671422" lon="10.4721427"><ele>154.0</ele><time>2026-03-28T08:37:25.633Z</time></trkpt><trkpt lat="45.4670685" lon="10.4721175"><ele>154.8</ele><time>2026-03-28T08:37:26.634Z</time></trkpt><trkpt lat="45.4669855" lon="10.472057"><ele>155.60000000000002</ele><time>2026-03-28T08:37:27.632Z</time></trkpt><trkpt lat="45.4668961" lon="10.4719903"><ele>156.4</ele><time>2026-03-28T08:37:28.624Z</time></trkpt><trkpt lat="45.4668016" lon="10.4719372"><ele>157.20000000000002</ele><time>2026-03-28T08:37:29.626Z</time></trkpt><trkpt lat="45.466713" lon="10.4718942"><ele>158.0</ele><time>2026-03-28T08:37:30.626Z</time></trkpt><trkpt lat="45.4666422" lon="10.4718586"><ele>158.0</ele><time>2026-03-28T08:37:31.641Z</time></trkpt><trkpt lat="45.4665774" lon="10.4718349"><ele>158.0</ele><time>2026-03-28T08:37:32.63Z</time></trkpt><trkpt lat="45.4664647" lon="10.4718241"><ele>158.0</ele><time>2026-03-28T08:37:34.62Z</time></trkpt><trkpt lat="45.4663832" lon="10.471945"><ele>158.0</ele><time>2026-03-28T08:37:36.621Z</time></trkpt><trkpt lat="45.4663241" lon="10.4720287"><ele>158.0</ele><time>2026-03-28T08:37:37.627Z</time></trkpt><trkpt lat="45.4662271" lon="10.4720958"><ele>158.0</ele><time>2026-03-28T08:37:38.619Z</time></trkpt><trkpt lat="45.4661087" lon="10.4721376"><ele>158.0</ele><time>2026-03-28T08:37:39.619Z</time></trkpt><trkpt lat="45.4659691" lon="10.4722011"><ele>158.0</ele><time>2026-03-28T08:37:40.627Z</time></trkpt><trkpt lat="45.4658061" lon="10.4722836"><ele>158.0</ele><time>2026-03-28T08:37:41.629Z</time></trkpt><trkpt lat="45.465625" lon="10.4723549"><ele>158.0</ele><time>2026-03-28T08:37:42.636Z</time></trkpt><trkpt lat="45.4654576" lon="10.4724345"><ele>158.0</ele><time>2026-03-28T08:37:43.627Z</time></trkpt><trkpt lat="45.4652952" lon="10.4724855"><ele>158.0</ele><time>2026-03-28T08:37:44.621Z</time></trkpt><trkpt lat="45.4651594" lon="10.4725046"><ele>158.0</ele><time>2026-03-28T08:37:45.624Z</time></trkpt><trkpt lat="45.4650497" lon="10.4725601"><ele>158.0</ele><time>2026-03-28T08:37:46.642Z</time></trkpt><trkpt lat="45.4649183" lon="10.4725771"><ele>158.0</ele><time>2026-03-28T08:37:47.624Z</time></trkpt><trkpt lat="45.4647907" lon="10.4725524"><ele>158.0</ele><time>2026-03-28T08:37:48.621Z</time></trkpt><trkpt lat="45.4646647" lon="10.4725441"><ele>158.20000000000002</ele><time>2026-03-28T08:37:49.617Z</time></trkpt><trkpt lat="45.4645552" lon="10.47251"><ele>158.4</ele><time>2026-03-28T08:37:50.617Z</time></trkpt><trkpt lat="45.4644489" lon="10.4724799"><ele>158.60000000000002</ele><time>2026-03-28T08:37:51.622Z</time></trkpt><trkpt lat="45.4643443" lon="10.4724692"><ele>158.8</ele><time>2026-03-28T08:37:52.626Z</time></trkpt><trkpt lat="45.4642559" lon="10.472454"><ele>159.0</ele><time>2026-03-28T08:37:53.626Z</time></trkpt><trkpt lat="45.4641776" lon="10.472434"><ele>159.0</ele><time>2026-03-28T08:37:54.628Z</time></trkpt><trkpt lat="45.4640561" lon="10.4724202"><ele>159.0</ele><time>2026-03-28T08:37:56.627Z</time></trkpt><trkpt lat="45.4639759" lon="10.4723949"><ele>159.0</ele><time>2026-03-28T08:37:58.625Z</time></trkpt><trkpt lat="45.4639307" lon="10.4724591"><ele>159.0</ele><time>2026-03-28T08:38:09.633Z</time></trkpt><trkpt lat="45.4639027" lon="10.4725464"><ele>159.0</ele><time>2026-03-28T08:38:10.622Z</time></trkpt><trkpt lat="45.4638901" lon="10.4727092"><ele>159.0</ele><time>2026-03-28T08:38:11.619Z</time></trkpt><trkpt lat="45.4638685" lon="10.4729106"><ele>159.0</ele><time>2026-03-28T08:38:12.614Z</time></trkpt><trkpt lat="45.4638412" lon="10.473139"><ele>159.0</ele><time>2026-03-28T08:38:13.614Z</time></trkpt><trkpt lat="45.4638187" lon="10.4733696"><ele>159.25</ele><time>2026-03-28T08:38:14.616Z</time></trkpt><trkpt lat="45.4638" lon="10.4735972"><ele>159.5</ele><time>2026-03-28T08:38:15.611Z</time></trkpt><trkpt lat="45.4637785" lon="10.4738152"><ele>159.75</ele><time>2026-03-28T08:38:16.627Z</time></trkpt><trkpt lat="45.4637472" lon="10.473995"><ele>160.0</ele><time>2026-03-28T08:38:17.617Z</time></trkpt><trkpt lat="45.4637417" lon="10.4741724"><ele>160.33333333333334</ele><time>2026-03-28T08:38:18.625Z</time></trkpt><trkpt lat="45.4637307" lon="10.4743041"><ele>160.66666666666669</ele><time>2026-03-28T08:38:19.622Z</time></trkpt><trkpt lat="45.4637213" lon="10.4744088"><ele>161.0</ele><time>2026-03-28T08:38:20.621Z</time></trkpt><trkpt lat="45.4637273" lon="10.4745106"><ele>161.33333333333334</ele><time>2026-03-28T08:38:21.628Z</time></trkpt><trkpt lat="45.463698" lon="10.4746537"><ele>161.66666666666666</ele><time>2026-03-28T08:38:23.613Z</time></trkpt><trkpt lat="45.4636095" lon="10.4746907"><ele>162.0</ele><time>2026-03-28T08:38:25.62Z</time></trkpt><trkpt lat="45.4635287" lon="10.4746478"><ele>162.0</ele><time>2026-03-28T08:38:26.607Z</time></trkpt><trkpt lat="45.4634438" lon="10.4745592"><ele>162.0</ele><time>2026-03-28T08:38:27.602Z</time></trkpt><trkpt lat="45.4633483" lon="10.4744609"><ele>162.0</ele><time>2026-03-28T08:38:28.619Z</time></trkpt><trkpt lat="45.4632459" lon="10.4743522"><ele>162.0</ele><time>2026-03-28T08:38:29.622Z</time></trkpt><trkpt lat="45.4631486" lon="10.4742394"><ele>162.0</ele><time>2026-03-28T08:38:30.621Z</time></trkpt><trkpt lat="45.4630644" lon="10.4741496"><ele>162.0</ele><time>2026-03-28T08:38:31.616Z</time></trkpt><trkpt lat="45.4629915" lon="10.4740745"><ele>162.0</ele><time>2026-03-28T08:38:32.638Z</time></trkpt><trkpt lat="45.4629266" lon="10.4740059"><ele>162.0</ele><time>2026-03-28T08:38:33.617Z</time></trkpt><trkpt lat="45.4628475" lon="10.4739222"><ele>162.0</ele><time>2026-03-28T08:38:35.624Z</time></trkpt><trkpt lat="45.4627913" lon="10.4738481"><ele>162.0</ele><time>2026-03-28T08:38:37.638Z</time></trkpt><trkpt lat="45.4627162" lon="10.4737205"><ele>162.0</ele><time>2026-03-28T08:38:39.633Z</time></trkpt><trkpt lat="45.4626256" lon="10.4736548"><ele>162.0</ele><time>2026-03-28T08:38:41.634Z</time></trkpt><trkpt lat="45.4625607" lon="10.4736766"><ele>162.0</ele><time>2026-03-28T08:38:42.63Z</time></trkpt><trkpt lat="45.4624869" lon="10.4737577"><ele>162.0</ele><time>2026-03-28T08:38:43.645Z</time></trkpt><trkpt lat="45.4624026" lon="10.4738776"><ele>162.0</ele><time>2026-03-28T08:38:44.625Z</time></trkpt><trkpt lat="45.4623176" lon="10.4740313"><ele>162.0</ele><time>2026-03-28T08:38:45.63Z</time></trkpt><trkpt lat="45.4622272" lon="10.4742097"><ele>162.0</ele><time>2026-03-28T08:38:46.628Z</time></trkpt><trkpt lat="45.4621183" lon="10.4743964"><ele>161.0</ele><time>2026-03-28T08:38:47.631Z</time></trkpt><trkpt lat="45.4619777" lon="10.4745876"><ele>160.0</ele><time>2026-03-28T08:38:48.622Z</time></trkpt><trkpt lat="45.4618963" lon="10.4747393"><ele>159.0</ele><time>2026-03-28T08:38:49.623Z</time></trkpt><trkpt lat="45.4618022" lon="10.4748397"><ele>158.0</ele><time>2026-03-28T08:38:50.629Z</time></trkpt><trkpt lat="45.4617241" lon="10.4749627"><ele>158.0</ele><time>2026-03-28T08:38:51.628Z</time></trkpt><trkpt lat="45.4616507" lon="10.4750707"><ele>158.0</ele><time>2026-03-28T08:38:52.623Z</time></trkpt><trkpt lat="45.4616161" lon="10.475173"><ele>158.0</ele><time>2026-03-28T08:38:53.641Z</time></trkpt><trkpt lat="45.4615969" lon="10.4752705"><ele>158.0</ele><time>2026-03-28T08:38:54.627Z</time></trkpt><trkpt lat="45.4615497" lon="10.475345"><ele>158.0</ele><time>2026-03-28T08:38:55.625Z</time></trkpt><trkpt lat="45.4615002" lon="10.4754032"><ele>158.0</ele><time>2026-03-28T08:38:56.633Z</time></trkpt><trkpt lat="45.4614142" lon="10.4754887"><ele>158.0</ele><time>2026-03-28T08:38:58.633Z</time></trkpt><trkpt lat="45.4612878" lon="10.4754208"><ele>158.0</ele><time>2026-03-28T08:39:00.638Z</time></trkpt><trkpt lat="45.4611957" lon="10.4753271"><ele>158.0</ele><time>2026-03-28T08:39:01.64Z</time></trkpt><trkpt lat="45.4610878" lon="10.4752332"><ele>158.0</ele><time>2026-03-28T08:39:02.627Z</time></trkpt><trkpt lat="45.4609548" lon="10.4751366"><ele>157.8</ele><time>2026-03-28T08:39:03.657Z</time></trkpt><trkpt lat="45.4608336" lon="10.4750343"><ele>157.60000000000002</ele><time>2026-03-28T08:39:04.626Z</time></trkpt><trkpt lat="45.4607299" lon="10.4749514"><ele>157.39999999999998</ele><time>2026-03-28T08:39:05.63Z</time></trkpt><trkpt lat="45.4606442" lon="10.4748794"><ele>157.2</ele><time>2026-03-28T08:39:06.627Z</time></trkpt><trkpt lat="45.4605817" lon="10.474822"><ele>157.0</ele><time>2026-03-28T08:39:07.625Z</time></trkpt><trkpt lat="45.4605217" lon="10.4747756"><ele>157.0</ele><time>2026-03-28T08:39:08.627Z</time></trkpt><trkpt lat="45.4604672" lon="10.4747294"><ele>157.0</ele><time>2026-03-28T08:39:09.624Z</time></trkpt><trkpt lat="45.4603756" lon="10.474658"><ele>157.0</ele><time>2026-03-28T08:39:11.627Z</time></trkpt><trkpt lat="45.4602738" lon="10.4746094"><ele>157.0</ele><time>2026-03-28T08:39:13.632Z</time></trkpt><trkpt lat="45.460173" lon="10.4746752"><ele>157.0</ele><time>2026-03-28T08:39:15.624Z</time></trkpt><trkpt lat="45.4601211" lon="10.4747798"><ele>156.5</ele><time>2026-03-28T08:39:16.621Z</time></trkpt><trkpt lat="45.4600744" lon="10.4749318"><ele>156.0</ele><time>2026-03-28T08:39:17.628Z</time></trkpt><trkpt lat="45.460025" lon="10.4751062"><ele>155.5</ele><time>2026-03-28T08:39:18.635Z</time></trkpt><trkpt lat="45.4599727" lon="10.4752833"><ele>155.0</ele><time>2026-03-28T08:39:19.624Z</time></trkpt><trkpt lat="45.4599116" lon="10.4754584"><ele>155.0</ele><time>2026-03-28T08:39:20.624Z</time></trkpt><trkpt lat="45.4598429" lon="10.475632"><ele>155.0</ele><time>2026-03-28T08:39:21.623Z</time></trkpt><trkpt lat="45.4597761" lon="10.4758033"><ele>155.0</ele><time>2026-03-28T08:39:22.627Z</time></trkpt><trkpt lat="45.4597061" lon="10.4759816"><ele>155.0</ele><time>2026-03-28T08:39:23.639Z</time></trkpt><trkpt lat="45.4596348" lon="10.4761537"><ele>154.75</ele><time>2026-03-28T08:39:24.628Z</time></trkpt><trkpt lat="45.4595706" lon="10.4763123"><ele>154.5</ele><time>2026-03-28T08:39:25.626Z</time></trkpt><trkpt lat="45.4595083" lon="10.4764888"><ele>154.25</ele><time>2026-03-28T08:39:26.629Z</time></trkpt><trkpt lat="45.45945" lon="10.4766672"><ele>154.0</ele><time>2026-03-28T08:39:27.637Z</time></trkpt><trkpt lat="45.4593937" lon="10.4768611"><ele>154.0</ele><time>2026-03-28T08:39:28.633Z</time></trkpt><trkpt lat="45.4593133" lon="10.4770357"><ele>154.0</ele><time>2026-03-28T08:39:29.64Z</time></trkpt><trkpt lat="45.4592262" lon="10.4772225"><ele>154.0</ele><time>2026-03-28T08:39:30.633Z</time></trkpt><trkpt lat="45.4591453" lon="10.4774192"><ele>154.0</ele><time>2026-03-28T08:39:31.632Z</time></trkpt><trkpt lat="45.4590651" lon="10.4775964"><ele>154.0</ele><time>2026-03-28T08:39:32.628Z</time></trkpt><trkpt lat="45.458995" lon="10.4777832"><ele>154.0</ele><time>2026-03-28T08:39:33.64Z</time></trkpt><trkpt lat="45.4589117" lon="10.4779709"><ele>154.25</ele><time>2026-03-28T08:39:34.636Z</time></trkpt><trkpt lat="45.4588477" lon="10.4781476"><ele>154.5</ele><time>2026-03-28T08:39:35.626Z</time></trkpt><trkpt lat="45.4587804" lon="10.4783232"><ele>154.75</ele><time>2026-03-28T08:39:36.626Z</time></trkpt><trkpt lat="45.4587107" lon="10.4785011"><ele>155.0</ele><time>2026-03-28T08:39:37.626Z</time></trkpt><trkpt lat="45.4586615" lon="10.478695"><ele>155.75</ele><time>2026-03-28T08:39:38.626Z</time></trkpt><trkpt lat="45.458603" lon="10.478883"><ele>156.5</ele><time>2026-03-28T08:39:39.628Z</time></trkpt><trkpt lat="45.4585299" lon="10.4790732"><ele>157.25</ele><time>2026-03-28T08:39:40.631Z</time></trkpt><trkpt lat="45.458486" lon="10.4792503"><ele>158.0</ele><time>2026-03-28T08:39:41.639Z</time></trkpt><trkpt lat="45.4584417" lon="10.4794424"><ele>158.0</ele><time>2026-03-28T08:39:42.638Z</time></trkpt><trkpt lat="45.4583915" lon="10.4796236"><ele>158.0</ele><time>2026-03-28T08:39:43.637Z</time></trkpt><trkpt lat="45.4583332" lon="10.4797909"><ele>158.0</ele><time>2026-03-28T08:39:44.636Z</time></trkpt><trkpt lat="45.4582464" lon="10.4799563"><ele>158.0</ele><time>2026-03-28T08:39:45.634Z</time></trkpt><trkpt lat="45.4581426" lon="10.4801194"><ele>158.0</ele><time>2026-03-28T08:39:46.635Z</time></trkpt><trkpt lat="45.4580243" lon="10.4802574"><ele>158.0</ele><time>2026-03-28T08:39:47.637Z</time></trkpt><trkpt lat="45.4578898" lon="10.4803917"><ele>158.0</ele><time>2026-03-28T08:39:48.637Z</time></trkpt><trkpt lat="45.457779" lon="10.4805292"><ele>157.75</ele><time>2026-03-28T08:39:49.642Z</time></trkpt><trkpt lat="45.4576587" lon="10.4806615"><ele>157.5</ele><time>2026-03-28T08:39:50.632Z</time></trkpt><trkpt lat="45.4575629" lon="10.4807961"><ele>157.25</ele><time>2026-03-28T08:39:51.634Z</time></trkpt><trkpt lat="45.4574873" lon="10.4809112"><ele>157.0</ele><time>2026-03-28T08:39:52.634Z</time></trkpt><trkpt lat="45.4574014" lon="10.4810254"><ele>157.0</ele><time>2026-03-28T08:39:53.633Z</time></trkpt><trkpt lat="45.4572963" lon="10.4811221"><ele>157.0</ele><time>2026-03-28T08:39:54.628Z</time></trkpt><trkpt lat="45.4572259" lon="10.481242"><ele>157.0</ele><time>2026-03-28T08:39:55.625Z</time></trkpt><trkpt lat="45.4571728" lon="10.4814096"><ele>157.0</ele><time>2026-03-28T08:39:56.624Z</time></trkpt><trkpt lat="45.4571373" lon="10.4815921"><ele>157.0</ele><time>2026-03-28T08:39:57.622Z</time></trkpt><trkpt lat="45.4571178" lon="10.4818023"><ele>157.0</ele><time>2026-03-28T08:39:58.62Z</time></trkpt><trkpt lat="45.4571186" lon="10.4820064"><ele>157.0</ele><time>2026-03-28T08:39:59.623Z</time></trkpt><trkpt lat="45.4571371" lon="10.48223"><ele>157.0</ele><time>2026-03-28T08:40:00.621Z</time></trkpt><trkpt lat="45.4571207" lon="10.4824465"><ele>157.0</ele><time>2026-03-28T08:40:01.615Z</time></trkpt><trkpt lat="45.4571013" lon="10.4826413"><ele>157.0</ele><time>2026-03-28T08:40:02.628Z</time></trkpt><trkpt lat="45.4570812" lon="10.4828524"><ele>157.0</ele><time>2026-03-28T08:40:03.627Z</time></trkpt><trkpt lat="45.4570713" lon="10.4830428"><ele>157.0</ele><time>2026-03-28T08:40:04.634Z</time></trkpt><trkpt lat="45.4570637" lon="10.4832317"><ele>157.0</ele><time>2026-03-28T08:40:05.643Z</time></trkpt><trkpt lat="45.4570774" lon="10.4834462"><ele>157.0</ele><time>2026-03-28T08:40:06.636Z</time></trkpt><trkpt lat="45.4570755" lon="10.483614"><ele>157.0</ele><time>2026-03-28T08:40:07.633Z</time></trkpt><trkpt lat="45.4570874" lon="10.4837874"><ele>156.79999999999998</ele><time>2026-03-28T08:40:08.63Z</time></trkpt><trkpt lat="45.4570809" lon="10.4839243"><ele>156.6</ele><time>2026-03-28T08:40:09.637Z</time></trkpt><trkpt lat="45.4571143" lon="10.4840881"><ele>156.39999999999998</ele><time>2026-03-28T08:40:10.638Z</time></trkpt><trkpt lat="45.4571282" lon="10.4842286"><ele>156.2</ele><time>2026-03-28T08:40:11.632Z</time></trkpt><trkpt lat="45.4571476" lon="10.4843857"><ele>156.0</ele><time>2026-03-28T08:40:12.626Z</time></trkpt><trkpt lat="45.4571917" lon="10.4845575"><ele>158.8</ele><time>2026-03-28T08:40:13.626Z</time></trkpt><trkpt lat="45.457245" lon="10.484689"><ele>161.6</ele><time>2026-03-28T08:40:14.631Z</time></trkpt><trkpt lat="45.4572939" lon="10.4847936"><ele>164.4</ele><time>2026-03-28T08:40:15.628Z</time></trkpt><trkpt lat="45.4573281" lon="10.4848794"><ele>167.2</ele><time>2026-03-28T08:40:16.632Z</time></trkpt><trkpt lat="45.4573783" lon="10.4850466"><ele>170.0</ele><time>2026-03-28T08:40:18.632Z</time></trkpt><trkpt lat="45.4573875" lon="10.485153"><ele>170.0</ele><time>2026-03-28T08:40:19.627Z</time></trkpt><trkpt lat="45.4573932" lon="10.4852834"><ele>170.0</ele><time>2026-03-28T08:40:20.639Z</time></trkpt><trkpt lat="45.4573922" lon="10.4854179"><ele>170.0</ele><time>2026-03-28T08:40:21.63Z</time></trkpt><trkpt lat="45.4573923" lon="10.4855477"><ele>170.0</ele><time>2026-03-28T08:40:22.63Z</time></trkpt><trkpt lat="45.457395" lon="10.485663"><ele>170.0</ele><time>2026-03-28T08:40:23.622Z</time></trkpt><trkpt lat="45.4574049" lon="10.4857853"><ele>170.0</ele><time>2026-03-28T08:40:24.627Z</time></trkpt><trkpt lat="45.45744" lon="10.4859047"><ele>169.4</ele><time>2026-03-28T08:40:25.625Z</time></trkpt><trkpt lat="45.4574893" lon="10.4860339"><ele>168.8</ele><time>2026-03-28T08:40:26.625Z</time></trkpt><trkpt lat="45.4575455" lon="10.4861636"><ele>168.2</ele><time>2026-03-28T08:40:27.626Z</time></trkpt><trkpt lat="45.4576011" lon="10.4862915"><ele>167.6</ele><time>2026-03-28T08:40:28.618Z</time></trkpt><trkpt lat="45.457636" lon="10.486401"><ele>167.0</ele><time>2026-03-28T08:40:29.616Z</time></trkpt><trkpt lat="45.4576892" lon="10.4864963"><ele>166.16666666666666</ele><time>2026-03-28T08:40:30.622Z</time></trkpt><trkpt lat="45.4577412" lon="10.4865941"><ele>165.33333333333331</ele><time>2026-03-28T08:40:31.624Z</time></trkpt><trkpt lat="45.4577853" lon="10.486695"><ele>164.5</ele><time>2026-03-28T08:40:32.612Z</time></trkpt><trkpt lat="45.4578072" lon="10.4867818"><ele>163.66666666666666</ele><time>2026-03-28T08:40:33.617Z</time></trkpt><trkpt lat="45.4578162" lon="10.4868892"><ele>162.83333333333334</ele><time>2026-03-28T08:40:34.616Z</time></trkpt><trkpt lat="45.4577993" lon="10.4870151"><ele>162.0</ele><time>2026-03-28T08:40:35.611Z</time></trkpt><trkpt lat="45.457764" lon="10.4871546"><ele>161.0</ele><time>2026-03-28T08:40:36.625Z</time></trkpt><trkpt lat="45.4577251" lon="10.4873181"><ele>160.0</ele><time>2026-03-28T08:40:37.638Z</time></trkpt><trkpt lat="45.4576862" lon="10.4874745"><ele>159.0</ele><time>2026-03-28T08:40:38.623Z</time></trkpt><trkpt lat="45.4576541" lon="10.4876243"><ele>158.0</ele><time>2026-03-28T08:40:39.615Z</time></trkpt><trkpt lat="45.4576546" lon="10.4877485"><ele>157.0</ele><time>2026-03-28T08:40:40.631Z</time></trkpt><trkpt lat="45.4576789" lon="10.4878516"><ele>157.0</ele><time>2026-03-28T08:40:41.629Z</time></trkpt><trkpt lat="45.4577148" lon="10.4879637"><ele>157.0</ele><time>2026-03-28T08:40:42.638Z</time></trkpt><trkpt lat="45.4577518" lon="10.4880664"><ele>157.0</ele><time>2026-03-28T08:40:43.634Z</time></trkpt><trkpt lat="45.4577934" lon="10.4881897"><ele>157.0</ele><time>2026-03-28T08:40:44.629Z</time></trkpt><trkpt lat="45.457839" lon="10.4883046"><ele>157.0</ele><time>2026-03-28T08:40:45.628Z</time></trkpt><trkpt lat="45.4578688" lon="10.4883848"><ele>157.0</ele><time>2026-03-28T08:40:46.623Z</time></trkpt><trkpt lat="45.4579306" lon="10.4885191"><ele>157.66666666666669</ele><time>2026-03-28T08:40:48.637Z</time></trkpt><trkpt lat="45.4579892" lon="10.4886514"><ele>158.33333333333334</ele><time>2026-03-28T08:40:50.635Z</time></trkpt><trkpt lat="45.4580109" lon="10.4887382"><ele>159.0</ele><time>2026-03-28T08:40:51.643Z</time></trkpt><trkpt lat="45.4580406" lon="10.4888544"><ele>159.66666666666666</ele><time>2026-03-28T08:40:52.633Z</time></trkpt><trkpt lat="45.4580707" lon="10.4889639"><ele>160.33333333333331</ele><time>2026-03-28T08:40:53.632Z</time></trkpt><trkpt lat="45.4581037" lon="10.4890968"><ele>161.0</ele><time>2026-03-28T08:40:55.632Z</time></trkpt><trkpt lat="45.4581096" lon="10.4891965"><ele>161.4</ele><time>2026-03-28T08:40:57.644Z</time></trkpt><trkpt lat="45.4581111" lon="10.489289"><ele>161.8</ele><time>2026-03-28T08:41:04.64Z</time></trkpt><trkpt lat="45.4580828" lon="10.4894248"><ele>162.20000000000002</ele><time>2026-03-28T08:41:13.636Z</time></trkpt><trkpt lat="45.4579834" lon="10.4895225"><ele>162.60000000000002</ele><time>2026-03-28T08:41:15.638Z</time></trkpt><trkpt lat="45.457891" lon="10.4895989"><ele>163.0</ele><time>2026-03-28T08:41:17.646Z</time></trkpt><trkpt lat="45.4577936" lon="10.4896549"><ele>163.16666666666669</ele><time>2026-03-28T08:41:19.636Z</time></trkpt><trkpt lat="45.4577133" lon="10.4897107"><ele>163.33333333333334</ele><time>2026-03-28T08:41:21.642Z</time></trkpt><trkpt lat="45.4576177" lon="10.4897509"><ele>163.5</ele><time>2026-03-28T08:41:23.636Z</time></trkpt><trkpt lat="45.4575377" lon="10.4897754"><ele>163.66666666666666</ele><time>2026-03-28T08:41:25.643Z</time></trkpt><trkpt lat="45.4574518" lon="10.4897887"><ele>163.83333333333331</ele><time>2026-03-28T08:41:28.65Z</time></trkpt><trkpt lat="45.4573826" lon="10.4897875"><ele>164.0</ele><time>2026-03-28T08:41:31.631Z</time></trkpt><trkpt lat="45.4572986" lon="10.4897026"><ele>164.0</ele><time>2026-03-28T08:41:33.614Z</time></trkpt><trkpt lat="45.4572453" lon="10.4896266"><ele>164.0</ele><time>2026-03-28T08:41:34.611Z</time></trkpt><trkpt lat="45.4571815" lon="10.4895353"><ele>164.0</ele><time>2026-03-28T08:41:35.619Z</time></trkpt><trkpt lat="45.4571017" lon="10.4894071"><ele>164.0</ele><time>2026-03-28T08:41:36.623Z</time></trkpt><trkpt lat="45.4570329" lon="10.4892917"><ele>164.0</ele><time>2026-03-28T08:41:37.623Z</time></trkpt><trkpt lat="45.4569691" lon="10.489184"><ele>163.2</ele><time>2026-03-28T08:41:38.64Z</time></trkpt><trkpt lat="45.4569174" lon="10.4890886"><ele>162.39999999999998</ele><time>2026-03-28T08:41:39.632Z</time></trkpt><trkpt lat="45.4568617" lon="10.4890051"><ele>161.6</ele><time>2026-03-28T08:41:40.63Z</time></trkpt><trkpt lat="45.456796" lon="10.4888422"><ele>160.8</ele><time>2026-03-28T08:41:42.621Z</time></trkpt><trkpt lat="45.4567678" lon="10.4887359"><ele>160.0</ele><time>2026-03-28T08:41:43.623Z</time></trkpt><trkpt lat="45.4567575" lon="10.488618"><ele>159.75</ele><time>2026-03-28T08:41:44.622Z</time></trkpt><trkpt lat="45.456744" lon="10.4884894"><ele>159.5</ele><time>2026-03-28T08:41:45.615Z</time></trkpt><trkpt lat="45.4567457" lon="10.488337"><ele>159.25</ele><time>2026-03-28T08:41:46.621Z</time></trkpt><trkpt lat="45.4567641" lon="10.4881501"><ele>159.0</ele><time>2026-03-28T08:41:47.623Z</time></trkpt><trkpt lat="45.4567891" lon="10.4879517"><ele>157.66666666666666</ele><time>2026-03-28T08:41:48.614Z</time></trkpt><trkpt lat="45.456815" lon="10.4877407"><ele>156.33333333333331</ele><time>2026-03-28T08:41:49.623Z</time></trkpt><trkpt lat="45.4568403" lon="10.4875235"><ele>155.0</ele><time>2026-03-28T08:41:50.628Z</time></trkpt><trkpt lat="45.4568663" lon="10.4872919"><ele>155.0</ele><time>2026-03-28T08:41:51.628Z</time></trkpt><trkpt lat="45.4568639" lon="10.4870716"><ele>155.0</ele><time>2026-03-28T08:41:52.635Z</time></trkpt><trkpt lat="45.4568896" lon="10.4868471"><ele>155.0</ele><time>2026-03-28T08:41:53.647Z</time></trkpt><trkpt lat="45.4568783" lon="10.4866455"><ele>155.0</ele><time>2026-03-28T08:41:54.638Z</time></trkpt><trkpt lat="45.4568983" lon="10.4864529"><ele>155.0</ele><time>2026-03-28T08:41:55.639Z</time></trkpt><trkpt lat="45.4568877" lon="10.4862566"><ele>155.0</ele><time>2026-03-28T08:41:56.637Z</time></trkpt><trkpt lat="45.4568912" lon="10.4860591"><ele>155.0</ele><time>2026-03-28T08:41:57.634Z</time></trkpt><trkpt lat="45.4569033" lon="10.4858566"><ele>155.0</ele><time>2026-03-28T08:41:58.636Z</time></trkpt><trkpt lat="45.4569062" lon="10.4856536"><ele>155.0</ele><time>2026-03-28T08:41:59.633Z</time></trkpt><trkpt lat="45.4569077" lon="10.4854485"><ele>155.0</ele><time>2026-03-28T08:42:00.631Z</time></trkpt><trkpt lat="45.4568796" lon="10.4852208"><ele>155.0</ele><time>2026-03-28T08:42:01.632Z</time></trkpt><trkpt lat="45.4568721" lon="10.4850189"><ele>155.0</ele><time>2026-03-28T08:42:02.628Z</time></trkpt><trkpt lat="45.456849" lon="10.484833"><ele>155.0</ele><time>2026-03-28T08:42:03.626Z</time></trkpt><trkpt lat="45.4568391" lon="10.4846432"><ele>155.0</ele><time>2026-03-28T08:42:04.62Z</time></trkpt><trkpt lat="45.4568165" lon="10.4844884"><ele>155.0</ele><time>2026-03-28T08:42:05.618Z</time></trkpt><trkpt lat="45.4567909" lon="10.4843384"><ele>155.25</ele><time>2026-03-28T08:42:06.62Z</time></trkpt><trkpt lat="45.4567616" lon="10.4841886"><ele>155.5</ele><time>2026-03-28T08:42:07.621Z</time></trkpt><trkpt lat="45.456723" lon="10.4840307"><ele>155.75</ele><time>2026-03-28T08:42:08.624Z</time></trkpt><trkpt lat="45.4566739" lon="10.4838648"><ele>156.0</ele><time>2026-03-28T08:42:09.63Z</time></trkpt><trkpt lat="45.4566055" lon="10.4837105"><ele>156.25</ele><time>2026-03-28T08:42:10.626Z</time></trkpt><trkpt lat="45.4565408" lon="10.4835701"><ele>156.5</ele><time>2026-03-28T08:42:11.63Z</time></trkpt><trkpt lat="45.4564732" lon="10.483435"><ele>156.75</ele><time>2026-03-28T08:42:12.625Z</time></trkpt><trkpt lat="45.4563994" lon="10.4833042"><ele>157.0</ele><time>2026-03-28T08:42:13.631Z</time></trkpt><trkpt lat="45.456328" lon="10.483187"><ele>156.5</ele><time>2026-03-28T08:42:14.636Z</time></trkpt><trkpt lat="45.4562587" lon="10.4830852"><ele>156.0</ele><time>2026-03-28T08:42:15.63Z</time></trkpt><trkpt lat="45.4561886" lon="10.4829914"><ele>155.5</ele><time>2026-03-28T08:42:16.628Z</time></trkpt><trkpt lat="45.4561287" lon="10.482907"><ele>155.0</ele><time>2026-03-28T08:42:17.621Z</time></trkpt><trkpt lat="45.4560684" lon="10.4828364"><ele>154.5</ele><time>2026-03-28T08:42:18.617Z</time></trkpt><trkpt lat="45.4560065" lon="10.4827759"><ele>154.0</ele><time>2026-03-28T08:42:19.618Z</time></trkpt><trkpt lat="45.4559395" lon="10.4826899"><ele>153.75</ele><time>2026-03-28T08:42:21.616Z</time></trkpt><trkpt lat="45.455894" lon="10.482599"><ele>153.5</ele><time>2026-03-28T08:42:22.612Z</time></trkpt><trkpt lat="45.4558358" lon="10.4824834"><ele>153.25</ele><time>2026-03-28T08:42:23.626Z</time></trkpt><trkpt lat="45.45575" lon="10.4823276"><ele>153.0</ele><time>2026-03-28T08:42:24.635Z</time></trkpt><trkpt lat="45.4556492" lon="10.4821664"><ele>153.66666666666666</ele><time>2026-03-28T08:42:25.612Z</time></trkpt><trkpt lat="45.4555305" lon="10.4819793"><ele>154.33333333333331</ele><time>2026-03-28T08:42:26.624Z</time></trkpt><trkpt lat="45.4554274" lon="10.4818056"><ele>155.0</ele><time>2026-03-28T08:42:27.616Z</time></trkpt><trkpt lat="45.4553097" lon="10.4816532"><ele>154.0</ele><time>2026-03-28T08:42:28.625Z</time></trkpt><trkpt lat="45.4551711" lon="10.4814634"><ele>153.0</ele><time>2026-03-28T08:42:29.623Z</time></trkpt><trkpt lat="45.4550468" lon="10.4812921"><ele>152.0</ele><time>2026-03-28T08:42:30.627Z</time></trkpt><trkpt lat="45.4549143" lon="10.4811218"><ele>152.0</ele><time>2026-03-28T08:42:31.628Z</time></trkpt><trkpt lat="45.4547997" lon="10.4809367"><ele>152.0</ele><time>2026-03-28T08:42:32.63Z</time></trkpt><trkpt lat="45.4546603" lon="10.4807675"><ele>152.0</ele><time>2026-03-28T08:42:33.632Z</time></trkpt><trkpt lat="45.4545424" lon="10.4806055"><ele>151.5</ele><time>2026-03-28T08:42:34.632Z</time></trkpt><trkpt lat="45.4544456" lon="10.4804497"><ele>151.0</ele><time>2026-03-28T08:42:35.629Z</time></trkpt><trkpt lat="45.4543682" lon="10.4802855"><ele>150.5</ele><time>2026-03-28T08:42:36.63Z</time></trkpt><trkpt lat="45.4543021" lon="10.4801035"><ele>150.0</ele><time>2026-03-28T08:42:37.632Z</time></trkpt><trkpt lat="45.4542204" lon="10.4799478"><ele>150.0</ele><time>2026-03-28T08:42:38.637Z</time></trkpt><trkpt lat="45.4541451" lon="10.4798047"><ele>150.0</ele><time>2026-03-28T08:42:39.636Z</time></trkpt><trkpt lat="45.4540589" lon="10.4796633"><ele>150.0</ele><time>2026-03-28T08:42:40.658Z</time></trkpt><trkpt lat="45.4539686" lon="10.4794878"><ele>150.0</ele><time>2026-03-28T08:42:41.643Z</time></trkpt><trkpt lat="45.4538734" lon="10.4793297"><ele>149.33333333333334</ele><time>2026-03-28T08:42:42.641Z</time></trkpt><trkpt lat="45.4537822" lon="10.4791483"><ele>148.66666666666669</ele><time>2026-03-28T08:42:43.643Z</time></trkpt><trkpt lat="45.4536935" lon="10.478971"><ele>148.0</ele><time>2026-03-28T08:42:44.638Z</time></trkpt><trkpt lat="45.4536009" lon="10.4787905"><ele>148.33333333333334</ele><time>2026-03-28T08:42:45.642Z</time></trkpt><trkpt lat="45.45351" lon="10.478604"><ele>148.66666666666666</ele><time>2026-03-28T08:42:46.637Z</time></trkpt><trkpt lat="45.4534092" lon="10.4784359"><ele>149.0</ele><time>2026-03-28T08:42:47.643Z</time></trkpt><trkpt lat="45.4533201" lon="10.4782696"><ele>149.0</ele><time>2026-03-28T08:42:48.639Z</time></trkpt><trkpt lat="45.4532136" lon="10.4780447"><ele>149.0</ele><time>2026-03-28T08:42:49.638Z</time></trkpt><trkpt lat="45.4530975" lon="10.4778396"><ele>149.0</ele><time>2026-03-28T08:42:50.642Z</time></trkpt><trkpt lat="45.4529879" lon="10.4776249"><ele>149.0</ele><time>2026-03-28T08:42:51.638Z</time></trkpt><trkpt lat="45.4528658" lon="10.4774248"><ele>149.0</ele><time>2026-03-28T08:42:52.639Z</time></trkpt><trkpt lat="45.4527488" lon="10.4772371"><ele>149.0</ele><time>2026-03-28T08:42:53.644Z</time></trkpt><trkpt lat="45.4526322" lon="10.4770348"><ele>149.0</ele><time>2026-03-28T08:42:54.65Z</time></trkpt><trkpt lat="45.4525092" lon="10.4768463"><ele>149.0</ele><time>2026-03-28T08:42:55.642Z</time></trkpt><trkpt lat="45.4523916" lon="10.4766363"><ele>149.0</ele><time>2026-03-28T08:42:56.646Z</time></trkpt><trkpt lat="45.4522534" lon="10.4764272"><ele>148.66666666666666</ele><time>2026-03-28T08:42:57.645Z</time></trkpt><trkpt lat="45.4521258" lon="10.4762306"><ele>148.33333333333334</ele><time>2026-03-28T08:42:58.643Z</time></trkpt><trkpt lat="45.4519642" lon="10.4760217"><ele>148.0</ele><time>2026-03-28T08:42:59.646Z</time></trkpt><trkpt lat="45.4518189" lon="10.4758312"><ele>146.66666666666669</ele><time>2026-03-28T08:43:00.646Z</time></trkpt><trkpt lat="45.451663" lon="10.4756412"><ele>145.33333333333334</ele><time>2026-03-28T08:43:01.654Z</time></trkpt><trkpt lat="45.4515086" lon="10.4754459"><ele>144.0</ele><time>2026-03-28T08:43:02.648Z</time></trkpt><trkpt lat="45.4513653" lon="10.4752449"><ele>142.66666666666666</ele><time>2026-03-28T08:43:03.645Z</time></trkpt><trkpt lat="45.4511997" lon="10.4750328"><ele>141.33333333333331</ele><time>2026-03-28T08:43:04.649Z</time></trkpt><trkpt lat="45.4510607" lon="10.4748262"><ele>140.0</ele><time>2026-03-28T08:43:05.648Z</time></trkpt><trkpt lat="45.4509183" lon="10.4746325"><ele>140.33333333333331</ele><time>2026-03-28T08:43:06.643Z</time></trkpt><trkpt lat="45.4507813" lon="10.4744392"><ele>140.66666666666666</ele><time>2026-03-28T08:43:07.635Z</time></trkpt><trkpt lat="45.4506526" lon="10.4742368"><ele>141.0</ele><time>2026-03-28T08:43:08.64Z</time></trkpt><trkpt lat="45.4505343" lon="10.474034"><ele>140.66666666666666</ele><time>2026-03-28T08:43:09.645Z</time></trkpt><trkpt lat="45.4504273" lon="10.4738111"><ele>140.33333333333331</ele><time>2026-03-28T08:43:10.656Z</time></trkpt><trkpt lat="45.4503266" lon="10.4735842"><ele>140.0</ele><time>2026-03-28T08:43:11.65Z</time></trkpt><trkpt lat="45.4502418" lon="10.4733322"><ele>140.0</ele><time>2026-03-28T08:43:12.646Z</time></trkpt><trkpt lat="45.4501469" lon="10.473071"><ele>140.0</ele><time>2026-03-28T08:43:13.645Z</time></trkpt><trkpt lat="45.450068" lon="10.4728081"><ele>140.0</ele><time>2026-03-28T08:43:14.651Z</time></trkpt><trkpt lat="45.4499891" lon="10.4725641"><ele>140.0</ele><time>2026-03-28T08:43:15.64Z</time></trkpt><trkpt lat="45.4499134" lon="10.4723426"><ele>140.0</ele><time>2026-03-28T08:43:16.642Z</time></trkpt><trkpt lat="45.4498394" lon="10.4721293"><ele>140.0</ele><time>2026-03-28T08:43:17.647Z</time></trkpt><trkpt lat="45.4497639" lon="10.4719394"><ele>139.66666666666666</ele><time>2026-03-28T08:43:18.639Z</time></trkpt><trkpt lat="45.4496926" lon="10.4717402"><ele>139.33333333333334</ele><time>2026-03-28T08:43:19.635Z</time></trkpt><trkpt lat="45.449625" lon="10.4715487"><ele>139.0</ele><time>2026-03-28T08:43:20.64Z</time></trkpt><trkpt lat="45.4495375" lon="10.4713376"><ele>139.0</ele><time>2026-03-28T08:43:21.638Z</time></trkpt><trkpt lat="45.4494585" lon="10.4711539"><ele>139.0</ele><time>2026-03-28T08:43:22.64Z</time></trkpt><trkpt lat="45.4493883" lon="10.4709481"><ele>139.0</ele><time>2026-03-28T08:43:23.639Z</time></trkpt><trkpt lat="45.4493199" lon="10.4707635"><ele>139.0</ele><time>2026-03-28T08:43:24.636Z</time></trkpt><trkpt lat="45.4492549" lon="10.4705744"><ele>139.0</ele><time>2026-03-28T08:43:25.648Z</time></trkpt><trkpt lat="45.4491902" lon="10.4704063"><ele>139.0</ele><time>2026-03-28T08:43:26.644Z</time></trkpt><trkpt lat="45.4491391" lon="10.4702527"><ele>139.0</ele><time>2026-03-28T08:43:27.64Z</time></trkpt><trkpt lat="45.4490901" lon="10.4701061"><ele>139.0</ele><time>2026-03-28T08:43:28.637Z</time></trkpt><trkpt lat="45.4490225" lon="10.4699842"><ele>139.0</ele><time>2026-03-28T08:43:29.643Z</time></trkpt><trkpt lat="45.4489866" lon="10.4698291"><ele>139.0</ele><time>2026-03-28T08:43:30.648Z</time></trkpt><trkpt lat="45.4489237" lon="10.469658"><ele>139.0</ele><time>2026-03-28T08:43:31.648Z</time></trkpt><trkpt lat="45.4488736" lon="10.4694946"><ele>138.83333333333334</ele><time>2026-03-28T08:43:32.641Z</time></trkpt><trkpt lat="45.4488341" lon="10.4693722"><ele>138.66666666666669</ele><time>2026-03-28T08:43:33.64Z</time></trkpt><trkpt lat="45.4487873" lon="10.469268"><ele>138.5</ele><time>2026-03-28T08:43:34.642Z</time></trkpt><trkpt lat="45.4487447" lon="10.4691652"><ele>138.33333333333334</ele><time>2026-03-28T08:43:35.644Z</time></trkpt><trkpt lat="45.4486862" lon="10.469083"><ele>138.16666666666666</ele><time>2026-03-28T08:43:36.635Z</time></trkpt><trkpt lat="45.4486182" lon="10.4690239"><ele>138.0</ele><time>2026-03-28T08:43:37.633Z</time></trkpt><trkpt lat="45.4485475" lon="10.4690042"><ele>138.0</ele><time>2026-03-28T08:43:38.634Z</time></trkpt><trkpt lat="45.4484702" lon="10.4690056"><ele>138.0</ele><time>2026-03-28T08:43:39.634Z</time></trkpt><trkpt lat="45.4483787" lon="10.4690032"><ele>138.0</ele><time>2026-03-28T08:43:40.637Z</time></trkpt><trkpt lat="45.4482618" lon="10.4689832"><ele>138.0</ele><time>2026-03-28T08:43:41.651Z</time></trkpt><trkpt lat="45.4481139" lon="10.468946"><ele>138.0</ele><time>2026-03-28T08:43:42.634Z</time></trkpt><trkpt lat="45.4479586" lon="10.468904"><ele>137.0</ele><time>2026-03-28T08:43:43.63Z</time></trkpt><trkpt lat="45.447802" lon="10.4688345"><ele>136.0</ele><time>2026-03-28T08:43:44.636Z</time></trkpt><trkpt lat="45.4476121" lon="10.4687574"><ele>135.0</ele><time>2026-03-28T08:43:45.646Z</time></trkpt><trkpt lat="45.447457" lon="10.4686927"><ele>134.75</ele><time>2026-03-28T08:43:46.642Z</time></trkpt><trkpt lat="45.4473299" lon="10.4686178"><ele>134.5</ele><time>2026-03-28T08:43:47.642Z</time></trkpt><trkpt lat="45.4472003" lon="10.468554"><ele>134.25</ele><time>2026-03-28T08:43:48.645Z</time></trkpt><trkpt lat="45.4470671" lon="10.468482"><ele>134.0</ele><time>2026-03-28T08:43:49.635Z</time></trkpt><trkpt lat="45.4469309" lon="10.4684175"><ele>133.66666666666666</ele><time>2026-03-28T08:43:50.64Z</time></trkpt><trkpt lat="45.4468074" lon="10.4683921"><ele>133.33333333333334</ele><time>2026-03-28T08:43:51.644Z</time></trkpt><trkpt lat="45.4466474" lon="10.4683662"><ele>133.0</ele><time>2026-03-28T08:43:52.639Z</time></trkpt><trkpt lat="45.4464755" lon="10.4683603"><ele>133.0</ele><time>2026-03-28T08:43:53.644Z</time></trkpt><trkpt lat="45.4463175" lon="10.4683484"><ele>133.0</ele><time>2026-03-28T08:43:54.639Z</time></trkpt><trkpt lat="45.4461792" lon="10.4683298"><ele>133.0</ele><time>2026-03-28T08:43:55.641Z</time></trkpt><trkpt lat="45.4460027" lon="10.4682925"><ele>133.0</ele><time>2026-03-28T08:43:56.652Z</time></trkpt><trkpt lat="45.445842" lon="10.4682582"><ele>133.0</ele><time>2026-03-28T08:43:57.641Z</time></trkpt><trkpt lat="45.4456985" lon="10.4682258"><ele>133.0</ele><time>2026-03-28T08:43:58.642Z</time></trkpt><trkpt lat="45.4455633" lon="10.4681939"><ele>133.0</ele><time>2026-03-28T08:43:59.643Z</time></trkpt><trkpt lat="45.445416" lon="10.4681493"><ele>132.5</ele><time>2026-03-28T08:44:00.642Z</time></trkpt><trkpt lat="45.445274" lon="10.4681081"><ele>132.0</ele><time>2026-03-28T08:44:01.637Z</time></trkpt><trkpt lat="45.4451284" lon="10.4681108"><ele>131.5</ele><time>2026-03-28T08:44:02.626Z</time></trkpt><trkpt lat="45.4449794" lon="10.4681247"><ele>131.0</ele><time>2026-03-28T08:44:03.645Z</time></trkpt><trkpt lat="45.4448081" lon="10.4681528"><ele>131.0</ele><time>2026-03-28T08:44:04.637Z</time></trkpt><trkpt lat="45.4446523" lon="10.4681907"><ele>131.0</ele><time>2026-03-28T08:44:05.634Z</time></trkpt><trkpt lat="45.4445049" lon="10.4681767"><ele>131.0</ele><time>2026-03-28T08:44:06.631Z</time></trkpt><trkpt lat="45.4443581" lon="10.4681885"><ele>131.25</ele><time>2026-03-28T08:44:07.621Z</time></trkpt><trkpt lat="45.4442186" lon="10.4681627"><ele>131.5</ele><time>2026-03-28T08:44:08.618Z</time></trkpt><trkpt lat="45.4440774" lon="10.4681718"><ele>131.75</ele><time>2026-03-28T08:44:09.61Z</time></trkpt><trkpt lat="45.4439314" lon="10.4681703"><ele>132.0</ele><time>2026-03-28T08:44:10.613Z</time></trkpt><trkpt lat="45.4437832" lon="10.4682028"><ele>132.0</ele><time>2026-03-28T08:44:11.619Z</time></trkpt><trkpt lat="45.4436526" lon="10.4682417"><ele>132.0</ele><time>2026-03-28T08:44:12.628Z</time></trkpt><trkpt lat="45.4435399" lon="10.4682696"><ele>132.0</ele><time>2026-03-28T08:44:13.612Z</time></trkpt><trkpt lat="45.4434198" lon="10.4683176"><ele>132.0</ele><time>2026-03-28T08:44:14.613Z</time></trkpt><trkpt lat="45.4432895" lon="10.4683388"><ele>132.0</ele><time>2026-03-28T08:44:15.617Z</time></trkpt><trkpt lat="45.4431719" lon="10.4683528"><ele>132.0</ele><time>2026-03-28T08:44:16.612Z</time></trkpt><trkpt lat="45.4430328" lon="10.4683401"><ele>132.0</ele><time>2026-03-28T08:44:17.617Z</time></trkpt><trkpt lat="45.4428958" lon="10.4683113"><ele>132.0</ele><time>2026-03-28T08:44:18.612Z</time></trkpt><trkpt lat="45.4427445" lon="10.4682806"><ele>131.75</ele><time>2026-03-28T08:44:19.617Z</time></trkpt><trkpt lat="45.4425991" lon="10.4682424"><ele>131.5</ele><time>2026-03-28T08:44:20.622Z</time></trkpt><trkpt lat="45.4424595" lon="10.4682192"><ele>131.25</ele><time>2026-03-28T08:44:21.634Z</time></trkpt><trkpt lat="45.4423266" lon="10.4682132"><ele>131.0</ele><time>2026-03-28T08:44:22.634Z</time></trkpt><trkpt lat="45.4421905" lon="10.4682125"><ele>130.75</ele><time>2026-03-28T08:44:23.629Z</time></trkpt><trkpt lat="45.4420493" lon="10.4682006"><ele>130.5</ele><time>2026-03-28T08:44:24.626Z</time></trkpt><trkpt lat="45.4419206" lon="10.468152"><ele>130.25</ele><time>2026-03-28T08:44:25.624Z</time></trkpt><trkpt lat="45.4417819" lon="10.4681016"><ele>130.0</ele><time>2026-03-28T08:44:26.621Z</time></trkpt><trkpt lat="45.4416309" lon="10.4680142"><ele>130.0</ele><time>2026-03-28T08:44:27.633Z</time></trkpt><trkpt lat="45.4414986" lon="10.4679247"><ele>130.0</ele><time>2026-03-28T08:44:28.624Z</time></trkpt><trkpt lat="45.4413623" lon="10.4678178"><ele>130.0</ele><time>2026-03-28T08:44:29.631Z</time></trkpt><trkpt lat="45.4412322" lon="10.4677091"><ele>129.33333333333334</ele><time>2026-03-28T08:44:30.631Z</time></trkpt><trkpt lat="45.4410852" lon="10.4676"><ele>128.66666666666666</ele><time>2026-03-28T08:44:31.641Z</time></trkpt><trkpt lat="45.4409433" lon="10.4674818"><ele>128.0</ele><time>2026-03-28T08:44:32.642Z</time></trkpt><trkpt lat="45.4408069" lon="10.4673681"><ele>128.0</ele><time>2026-03-28T08:44:33.638Z</time></trkpt><trkpt lat="45.4406991" lon="10.4672772"><ele>128.0</ele><time>2026-03-28T08:44:34.647Z</time></trkpt><trkpt lat="45.4405728" lon="10.4671879"><ele>128.0</ele><time>2026-03-28T08:44:35.646Z</time></trkpt><trkpt lat="45.4404647" lon="10.4670987"><ele>128.0</ele><time>2026-03-28T08:44:36.641Z</time></trkpt><trkpt lat="45.4403663" lon="10.4670212"><ele>127.5</ele><time>2026-03-28T08:44:37.644Z</time></trkpt><trkpt lat="45.4402506" lon="10.4669512"><ele>127.0</ele><time>2026-03-28T08:44:38.637Z</time></trkpt><trkpt lat="45.4401224" lon="10.4668726"><ele>126.5</ele><time>2026-03-28T08:44:39.639Z</time></trkpt><trkpt lat="45.4399741" lon="10.4668003"><ele>126.0</ele><time>2026-03-28T08:44:40.64Z</time></trkpt><trkpt lat="45.4398185" lon="10.466731"><ele>126.0</ele><time>2026-03-28T08:44:41.639Z</time></trkpt><trkpt lat="45.4396644" lon="10.4666745"><ele>126.0</ele><time>2026-03-28T08:44:42.642Z</time></trkpt><trkpt lat="45.4395143" lon="10.4666298"><ele>126.0</ele><time>2026-03-28T08:44:43.65Z</time></trkpt><trkpt lat="45.4393628" lon="10.4665841"><ele>126.0</ele><time>2026-03-28T08:44:44.638Z</time></trkpt><trkpt lat="45.4392262" lon="10.4665554"><ele>126.0</ele><time>2026-03-28T08:44:45.65Z</time></trkpt><trkpt lat="45.4390785" lon="10.4665181"><ele>126.0</ele><time>2026-03-28T08:44:46.649Z</time></trkpt><trkpt lat="45.4389324" lon="10.4664765"><ele>126.0</ele><time>2026-03-28T08:44:47.65Z</time></trkpt><trkpt lat="45.4388016" lon="10.4664356"><ele>126.0</ele><time>2026-03-28T08:44:48.639Z</time></trkpt><trkpt lat="45.4387024" lon="10.4664133"><ele>126.0</ele><time>2026-03-28T08:44:49.645Z</time></trkpt><trkpt lat="45.438578" lon="10.4663868"><ele>126.0</ele><time>2026-03-28T08:44:50.646Z</time></trkpt><trkpt lat="45.4384703" lon="10.4663617"><ele>126.0</ele><time>2026-03-28T08:44:51.641Z</time></trkpt><trkpt lat="45.4384042" lon="10.4662719"><ele>126.0</ele><time>2026-03-28T08:44:52.628Z</time></trkpt><trkpt lat="45.4382883" lon="10.4661805"><ele>126.25</ele><time>2026-03-28T08:44:53.629Z</time></trkpt><trkpt lat="45.4381641" lon="10.4660661"><ele>126.5</ele><time>2026-03-28T08:44:54.642Z</time></trkpt><trkpt lat="45.4380341" lon="10.4659542"><ele>126.75</ele><time>2026-03-28T08:44:55.645Z</time></trkpt><trkpt lat="45.4379161" lon="10.4658471"><ele>127.0</ele><time>2026-03-28T08:44:56.646Z</time></trkpt><trkpt lat="45.4377773" lon="10.4657312"><ele>126.0</ele><time>2026-03-28T08:44:57.646Z</time></trkpt><trkpt lat="45.4376534" lon="10.4656191"><ele>125.0</ele><time>2026-03-28T08:44:58.657Z</time></trkpt><trkpt lat="45.437514" lon="10.4655063"><ele>124.0</ele><time>2026-03-28T08:44:59.65Z</time></trkpt><trkpt lat="45.4373877" lon="10.4654087"><ele>124.0</ele><time>2026-03-28T08:45:00.638Z</time></trkpt><trkpt lat="45.4372721" lon="10.4653199"><ele>124.0</ele><time>2026-03-28T08:45:01.648Z</time></trkpt><trkpt lat="45.4371481" lon="10.4652382"><ele>124.0</ele><time>2026-03-28T08:45:02.637Z</time></trkpt><trkpt lat="45.4370317" lon="10.4651828"><ele>124.0</ele><time>2026-03-28T08:45:03.642Z</time></trkpt><trkpt lat="45.4369118" lon="10.4651379"><ele>124.0</ele><time>2026-03-28T08:45:04.641Z</time></trkpt><trkpt lat="45.4368027" lon="10.4650799"><ele>124.0</ele><time>2026-03-28T08:45:05.645Z</time></trkpt><trkpt lat="45.4367074" lon="10.4650423"><ele>124.0</ele><time>2026-03-28T08:45:06.637Z</time></trkpt><trkpt lat="45.4366314" lon="10.4650177"><ele>124.0</ele><time>2026-03-28T08:45:07.641Z</time></trkpt><trkpt lat="45.4365648" lon="10.464992"><ele>124.0</ele><time>2026-03-28T08:45:08.634Z</time></trkpt><trkpt lat="45.4364648" lon="10.4650072"><ele>124.0</ele><time>2026-03-28T08:45:10.631Z</time></trkpt><trkpt lat="45.4364199" lon="10.4651705"><ele>124.0</ele><time>2026-03-28T08:45:12.642Z</time></trkpt><trkpt lat="45.4364122" lon="10.4653296"><ele>124.0</ele><time>2026-03-28T08:45:13.631Z</time></trkpt><trkpt lat="45.4364082" lon="10.4655421"><ele>124.0</ele><time>2026-03-28T08:45:14.638Z</time></trkpt><trkpt lat="45.4364089" lon="10.4657655"><ele>124.33333333333334</ele><time>2026-03-28T08:45:15.625Z</time></trkpt><trkpt lat="45.4364" lon="10.4660072"><ele>124.66666666666666</ele><time>2026-03-28T08:45:16.635Z</time></trkpt><trkpt lat="45.4363864" lon="10.4662429"><ele>125.0</ele><time>2026-03-28T08:45:17.644Z</time></trkpt><trkpt lat="45.4363986" lon="10.4664855"><ele>125.0</ele><time>2026-03-28T08:45:18.639Z</time></trkpt><trkpt lat="45.4364245" lon="10.4667108"><ele>125.0</ele><time>2026-03-28T08:45:19.638Z</time></trkpt><trkpt lat="45.436439" lon="10.4669342"><ele>125.0</ele><time>2026-03-28T08:45:20.639Z</time></trkpt><trkpt lat="45.4364325" lon="10.4671516"><ele>125.0</ele><time>2026-03-28T08:45:21.638Z</time></trkpt><trkpt lat="45.4364143" lon="10.4673689"><ele>125.0</ele><time>2026-03-28T08:45:22.636Z</time></trkpt><trkpt lat="45.4363985" lon="10.4675773"><ele>125.0</ele><time>2026-03-28T08:45:23.634Z</time></trkpt><trkpt lat="45.4363982" lon="10.4678057"><ele>125.0</ele><time>2026-03-28T08:45:24.643Z</time></trkpt><trkpt lat="45.4363775" lon="10.4680246"><ele>125.0</ele><time>2026-03-28T08:45:25.643Z</time></trkpt><trkpt lat="45.4363718" lon="10.4682487"><ele>125.0</ele><time>2026-03-28T08:45:26.643Z</time></trkpt><trkpt lat="45.4363729" lon="10.4684715"><ele>125.0</ele><time>2026-03-28T08:45:27.641Z</time></trkpt><trkpt lat="45.4363591" lon="10.4686903"><ele>125.0</ele><time>2026-03-28T08:45:28.644Z</time></trkpt><trkpt lat="45.43636" lon="10.4689405"><ele>125.0</ele><time>2026-03-28T08:45:29.655Z</time></trkpt><trkpt lat="45.4363638" lon="10.4691639"><ele>125.25</ele><time>2026-03-28T08:45:30.645Z</time></trkpt><trkpt lat="45.4363681" lon="10.4693958"><ele>125.5</ele><time>2026-03-28T08:45:31.651Z</time></trkpt><trkpt lat="45.4363682" lon="10.4696005"><ele>125.75</ele><time>2026-03-28T08:45:32.647Z</time></trkpt><trkpt lat="45.4363666" lon="10.4697848"><ele>126.0</ele><time>2026-03-28T08:45:33.648Z</time></trkpt><trkpt lat="45.4363736" lon="10.4699752"><ele>126.25</ele><time>2026-03-28T08:45:34.646Z</time></trkpt><trkpt lat="45.4363813" lon="10.4701669"><ele>126.5</ele><time>2026-03-28T08:45:35.647Z</time></trkpt><trkpt lat="45.4363815" lon="10.4703777"><ele>126.75</ele><time>2026-03-28T08:45:36.644Z</time></trkpt><trkpt lat="45.4363811" lon="10.4705989"><ele>127.0</ele><time>2026-03-28T08:45:37.646Z</time></trkpt><trkpt lat="45.4363732" lon="10.4708219"><ele>127.0</ele><time>2026-03-28T08:45:38.649Z</time></trkpt><trkpt lat="45.4363706" lon="10.4710562"><ele>127.0</ele><time>2026-03-28T08:45:39.649Z</time></trkpt><trkpt lat="45.4363663" lon="10.4712863"><ele>127.0</ele><time>2026-03-28T08:45:40.65Z</time></trkpt><trkpt lat="45.4363523" lon="10.4715162"><ele>127.0</ele><time>2026-03-28T08:45:41.652Z</time></trkpt><trkpt lat="45.4363505" lon="10.4717385"><ele>127.0</ele><time>2026-03-28T08:45:42.655Z</time></trkpt><trkpt lat="45.4363506" lon="10.4719672"><ele>127.0</ele><time>2026-03-28T08:45:43.652Z</time></trkpt><trkpt lat="45.4363529" lon="10.4721859"><ele>127.0</ele><time>2026-03-28T08:45:44.659Z</time></trkpt><trkpt lat="45.4363674" lon="10.4724175"><ele>127.0</ele><time>2026-03-28T08:45:45.662Z</time></trkpt><trkpt lat="45.4363634" lon="10.4726548"><ele>127.0</ele><time>2026-03-28T08:45:46.654Z</time></trkpt><trkpt lat="45.4363808" lon="10.4729091"><ele>127.0</ele><time>2026-03-28T08:45:47.658Z</time></trkpt><trkpt lat="45.4364014" lon="10.4731558"><ele>127.0</ele><time>2026-03-28T08:45:48.649Z</time></trkpt><trkpt lat="45.4364354" lon="10.4734125"><ele>127.0</ele><time>2026-03-28T08:45:49.651Z</time></trkpt><trkpt lat="45.4364552" lon="10.4736529"><ele>127.0</ele><time>2026-03-28T08:45:50.647Z</time></trkpt><trkpt lat="45.4364861" lon="10.4738715"><ele>127.0</ele><time>2026-03-28T08:45:51.647Z</time></trkpt><trkpt lat="45.4365087" lon="10.4741005"><ele>127.0</ele><time>2026-03-28T08:45:52.645Z</time></trkpt><trkpt lat="45.4365192" lon="10.4743309"><ele>127.0</ele><time>2026-03-28T08:45:53.646Z</time></trkpt><trkpt lat="45.4365462" lon="10.4745786"><ele>127.0</ele><time>2026-03-28T08:45:54.646Z</time></trkpt><trkpt lat="45.4365617" lon="10.4747963"><ele>127.0</ele><time>2026-03-28T08:45:55.643Z</time></trkpt><trkpt lat="45.4365858" lon="10.4750424"><ele>127.25</ele><time>2026-03-28T08:45:56.646Z</time></trkpt><trkpt lat="45.4366076" lon="10.4752527"><ele>127.5</ele><time>2026-03-28T08:45:57.647Z</time></trkpt><trkpt lat="45.4366361" lon="10.4754661"><ele>127.75</ele><time>2026-03-28T08:45:58.645Z</time></trkpt><trkpt lat="45.4366586" lon="10.4756737"><ele>128.0</ele><time>2026-03-28T08:45:59.649Z</time></trkpt><trkpt lat="45.4366982" lon="10.4758842"><ele>128.0</ele><time>2026-03-28T08:46:00.662Z</time></trkpt><trkpt lat="45.4367187" lon="10.4760773"><ele>128.0</ele><time>2026-03-28T08:46:01.651Z</time></trkpt><trkpt lat="45.4367483" lon="10.4762603"><ele>128.0</ele><time>2026-03-28T08:46:02.645Z</time></trkpt><trkpt lat="45.4367761" lon="10.4764453"><ele>128.0</ele><time>2026-03-28T08:46:03.647Z</time></trkpt><trkpt lat="45.4367831" lon="10.4766139"><ele>127.99999999999999</ele><time>2026-03-28T08:46:04.641Z</time></trkpt><trkpt lat="45.4367876" lon="10.4767512"><ele>128.0</ele><time>2026-03-28T08:46:05.635Z</time></trkpt><trkpt lat="45.4368099" lon="10.4768821"><ele>128.0</ele><time>2026-03-28T08:46:06.65Z</time></trkpt><trkpt lat="45.4368279" lon="10.4770073"><ele>128.0</ele><time>2026-03-28T08:46:07.65Z</time></trkpt><trkpt lat="45.4368415" lon="10.4771282"><ele>127.99999999999999</ele><time>2026-03-28T08:46:08.647Z</time></trkpt><trkpt lat="45.4368582" lon="10.4772255"><ele>128.0</ele><time>2026-03-28T08:46:09.649Z</time></trkpt><trkpt lat="45.4368889" lon="10.4773877"><ele>128.25</ele><time>2026-03-28T08:46:11.651Z</time></trkpt><trkpt lat="45.4369344" lon="10.4774891"><ele>128.5</ele><time>2026-03-28T08:46:13.66Z</time></trkpt><trkpt lat="45.4370758" lon="10.4775269"><ele>128.75</ele><time>2026-03-28T08:46:15.648Z</time></trkpt><trkpt lat="45.4371797" lon="10.4775274"><ele>129.0</ele><time>2026-03-28T08:46:16.657Z</time></trkpt><trkpt lat="45.4373097" lon="10.4775358"><ele>129.0</ele><time>2026-03-28T08:46:17.637Z</time></trkpt><trkpt lat="45.4374691" lon="10.4775541"><ele>129.0</ele><time>2026-03-28T08:46:18.648Z</time></trkpt><trkpt lat="45.4376396" lon="10.4775718"><ele>129.0</ele><time>2026-03-28T08:46:19.642Z</time></trkpt><trkpt lat="45.4378205" lon="10.4775934"><ele>129.33333333333334</ele><time>2026-03-28T08:46:20.646Z</time></trkpt><trkpt lat="45.438009" lon="10.4776055"><ele>129.66666666666669</ele><time>2026-03-28T08:46:21.645Z</time></trkpt><trkpt lat="45.4382003" lon="10.4776169"><ele>130.0</ele><time>2026-03-28T08:46:22.643Z</time></trkpt><trkpt lat="45.4383917" lon="10.477635"><ele>130.0</ele><time>2026-03-28T08:46:23.651Z</time></trkpt><trkpt lat="45.4385775" lon="10.4776514"><ele>130.0</ele><time>2026-03-28T08:46:24.648Z</time></trkpt><trkpt lat="45.4387615" lon="10.4776681"><ele>130.0</ele><time>2026-03-28T08:46:25.653Z</time></trkpt><trkpt lat="45.4389506" lon="10.4777099"><ele>130.0</ele><time>2026-03-28T08:46:26.643Z</time></trkpt><trkpt lat="45.4391185" lon="10.4777599"><ele>130.0</ele><time>2026-03-28T08:46:27.647Z</time></trkpt><trkpt lat="45.4392987" lon="10.4778103"><ele>130.0</ele><time>2026-03-28T08:46:28.647Z</time></trkpt><trkpt lat="45.4394644" lon="10.4778769"><ele>130.33333333333334</ele><time>2026-03-28T08:46:29.644Z</time></trkpt><trkpt lat="45.4396305" lon="10.4779429"><ele>130.66666666666666</ele><time>2026-03-28T08:46:30.639Z</time></trkpt><trkpt lat="45.4398024" lon="10.4780181"><ele>131.0</ele><time>2026-03-28T08:46:31.66Z</time></trkpt><trkpt lat="45.439972" lon="10.4781008"><ele>131.0</ele><time>2026-03-28T08:46:32.646Z</time></trkpt><trkpt lat="45.4401521" lon="10.4781718"><ele>131.0</ele><time>2026-03-28T08:46:33.65Z</time></trkpt><trkpt lat="45.4403235" lon="10.4782333"><ele>131.0</ele><time>2026-03-28T08:46:34.647Z</time></trkpt><trkpt lat="45.440519" lon="10.4782983"><ele>131.33333333333331</ele><time>2026-03-28T08:46:35.645Z</time></trkpt><trkpt lat="45.4407092" lon="10.4783552"><ele>131.66666666666666</ele><time>2026-03-28T08:46:36.645Z</time></trkpt><trkpt lat="45.4409023" lon="10.4784218"><ele>132.0</ele><time>2026-03-28T08:46:37.646Z</time></trkpt><trkpt lat="45.4410885" lon="10.4784812"><ele>132.0</ele><time>2026-03-28T08:46:38.646Z</time></trkpt><trkpt lat="45.4412588" lon="10.4785334"><ele>132.0</ele><time>2026-03-28T08:46:39.645Z</time></trkpt><trkpt lat="45.4414215" lon="10.4785815"><ele>132.0</ele><time>2026-03-28T08:46:40.646Z</time></trkpt><trkpt lat="45.4415783" lon="10.4786182"><ele>132.66666666666666</ele><time>2026-03-28T08:46:41.642Z</time></trkpt><trkpt lat="45.4417278" lon="10.4786321"><ele>133.33333333333331</ele><time>2026-03-28T08:46:42.635Z</time></trkpt><trkpt lat="45.4418889" lon="10.4786266"><ele>134.0</ele><time>2026-03-28T08:46:43.634Z</time></trkpt><trkpt lat="45.4420635" lon="10.4786058"><ele>134.66666666666666</ele><time>2026-03-28T08:46:44.648Z</time></trkpt><trkpt lat="45.4422362" lon="10.4785357"><ele>135.33333333333334</ele><time>2026-03-28T08:46:45.645Z</time></trkpt><trkpt lat="45.442397" lon="10.4784509"><ele>136.0</ele><time>2026-03-28T08:46:46.645Z</time></trkpt><trkpt lat="45.4425843" lon="10.4783548"><ele>136.0</ele><time>2026-03-28T08:46:47.655Z</time></trkpt><trkpt lat="45.4427676" lon="10.4782508"><ele>136.0</ele><time>2026-03-28T08:46:48.642Z</time></trkpt><trkpt lat="45.4429301" lon="10.4781426"><ele>136.0</ele><time>2026-03-28T08:46:49.643Z</time></trkpt><trkpt lat="45.443077" lon="10.4780682"><ele>135.66666666666669</ele><time>2026-03-28T08:46:50.643Z</time></trkpt><trkpt lat="45.4432504" lon="10.4779707"><ele>135.33333333333334</ele><time>2026-03-28T08:46:51.63Z</time></trkpt><trkpt lat="45.4434223" lon="10.4779129"><ele>135.0</ele><time>2026-03-28T08:46:52.641Z</time></trkpt><trkpt lat="45.4436117" lon="10.4778916"><ele>135.0</ele><time>2026-03-28T08:46:53.641Z</time></trkpt><trkpt lat="45.4438096" lon="10.4779066"><ele>135.0</ele><time>2026-03-28T08:46:54.634Z</time></trkpt><trkpt lat="45.4440196" lon="10.477962"><ele>135.0</ele><time>2026-03-28T08:46:55.644Z</time></trkpt><trkpt lat="45.4442024" lon="10.4780025"><ele>135.33333333333334</ele><time>2026-03-28T08:46:56.636Z</time></trkpt><trkpt lat="45.444404" lon="10.4780668"><ele>135.66666666666669</ele><time>2026-03-28T08:46:57.64Z</time></trkpt><trkpt lat="45.4446112" lon="10.4781385"><ele>136.0</ele><time>2026-03-28T08:46:58.644Z</time></trkpt><trkpt lat="45.4448114" lon="10.4781938"><ele>136.33333333333334</ele><time>2026-03-28T08:46:59.639Z</time></trkpt><trkpt lat="45.4450048" lon="10.4782619"><ele>136.66666666666666</ele><time>2026-03-28T08:47:00.643Z</time></trkpt><trkpt lat="45.4451957" lon="10.4783241"><ele>137.0</ele><time>2026-03-28T08:47:01.652Z</time></trkpt><trkpt lat="45.4453684" lon="10.4783662"><ele>137.66666666666666</ele><time>2026-03-28T08:47:02.662Z</time></trkpt><trkpt lat="45.4455224" lon="10.4784247"><ele>138.33333333333334</ele><time>2026-03-28T08:47:03.637Z</time></trkpt><trkpt lat="45.4456772" lon="10.478512"><ele>139.0</ele><time>2026-03-28T08:47:04.646Z</time></trkpt><trkpt lat="45.4458432" lon="10.4786105"><ele>139.0</ele><time>2026-03-28T08:47:05.643Z</time></trkpt><trkpt lat="45.4460172" lon="10.478728"><ele>139.0</ele><time>2026-03-28T08:47:06.645Z</time></trkpt><trkpt lat="45.4461738" lon="10.478851"><ele>139.0</ele><time>2026-03-28T08:47:07.646Z</time></trkpt><trkpt lat="45.4463473" lon="10.4789818"><ele>140.0</ele><time>2026-03-28T08:47:08.646Z</time></trkpt><trkpt lat="45.4464975" lon="10.4791031"><ele>141.0</ele><time>2026-03-28T08:47:09.642Z</time></trkpt><trkpt lat="45.4466445" lon="10.4792312"><ele>142.0</ele><time>2026-03-28T08:47:10.649Z</time></trkpt><trkpt lat="45.4468075" lon="10.4793602"><ele>142.0</ele><time>2026-03-28T08:47:11.644Z</time></trkpt><trkpt lat="45.4469854" lon="10.4794935"><ele>142.0</ele><time>2026-03-28T08:47:12.646Z</time></trkpt><trkpt lat="45.4471359" lon="10.4796123"><ele>142.0</ele><time>2026-03-28T08:47:13.646Z</time></trkpt><trkpt lat="45.4473063" lon="10.4797251"><ele>141.33333333333334</ele><time>2026-03-28T08:47:14.642Z</time></trkpt><trkpt lat="45.4474927" lon="10.4797972"><ele>140.66666666666666</ele><time>2026-03-28T08:47:15.643Z</time></trkpt><trkpt lat="45.4476672" lon="10.4798809"><ele>140.0</ele><time>2026-03-28T08:47:16.645Z</time></trkpt><trkpt lat="45.4478455" lon="10.479953"><ele>140.0</ele><time>2026-03-28T08:47:17.643Z</time></trkpt><trkpt lat="45.4480099" lon="10.4800388"><ele>140.0</ele><time>2026-03-28T08:47:18.65Z</time></trkpt><trkpt lat="45.448178" lon="10.4801255"><ele>140.0</ele><time>2026-03-28T08:47:19.649Z</time></trkpt><trkpt lat="45.4483414" lon="10.4801973"><ele>140.0</ele><time>2026-03-28T08:47:20.649Z</time></trkpt><trkpt lat="45.4485161" lon="10.4802888"><ele>140.0</ele><time>2026-03-28T08:47:21.644Z</time></trkpt><trkpt lat="45.4486864" lon="10.4803438"><ele>140.0</ele><time>2026-03-28T08:47:22.641Z</time></trkpt><trkpt lat="45.4488466" lon="10.4803908"><ele>140.0</ele><time>2026-03-28T08:47:23.644Z</time></trkpt><trkpt lat="45.4490235" lon="10.4804413"><ele>140.0</ele><time>2026-03-28T08:47:24.643Z</time></trkpt><trkpt lat="45.4492075" lon="10.4804943"><ele>140.0</ele><time>2026-03-28T08:47:25.648Z</time></trkpt><trkpt lat="45.4493828" lon="10.4805445"><ele>140.0</ele><time>2026-03-28T08:47:26.645Z</time></trkpt><trkpt lat="45.4495691" lon="10.4805959"><ele>140.0</ele><time>2026-03-28T08:47:27.645Z</time></trkpt><trkpt lat="45.449739" lon="10.4806666"><ele>140.0</ele><time>2026-03-28T08:47:28.645Z</time></trkpt><trkpt lat="45.4499372" lon="10.4807097"><ele>141.0</ele><time>2026-03-28T08:47:29.645Z</time></trkpt><trkpt lat="45.4501283" lon="10.4807475"><ele>142.0</ele><time>2026-03-28T08:47:30.644Z</time></trkpt><trkpt lat="45.4503169" lon="10.4807948"><ele>143.0</ele><time>2026-03-28T08:47:31.65Z</time></trkpt><trkpt lat="45.4504941" lon="10.4808396"><ele>143.33333333333331</ele><time>2026-03-28T08:47:32.644Z</time></trkpt><trkpt lat="45.4506589" lon="10.4808831"><ele>143.66666666666666</ele><time>2026-03-28T08:47:33.64Z</time></trkpt><trkpt lat="45.4508299" lon="10.4809135"><ele>144.0</ele><time>2026-03-28T08:47:34.641Z</time></trkpt><trkpt lat="45.4509987" lon="10.4809548"><ele>144.0</ele><time>2026-03-28T08:47:35.642Z</time></trkpt><trkpt lat="45.4511679" lon="10.4809902"><ele>144.0</ele><time>2026-03-28T08:47:36.644Z</time></trkpt><trkpt lat="45.4513376" lon="10.48104"><ele>144.0</ele><time>2026-03-28T08:47:37.642Z</time></trkpt><trkpt lat="45.4515019" lon="10.4810837"><ele>143.75</ele><time>2026-03-28T08:47:38.638Z</time></trkpt><trkpt lat="45.451648" lon="10.4811087"><ele>143.5</ele><time>2026-03-28T08:47:39.639Z</time></trkpt><trkpt lat="45.4518005" lon="10.4811597"><ele>143.25</ele><time>2026-03-28T08:47:40.643Z</time></trkpt><trkpt lat="45.4519219" lon="10.4812187"><ele>143.0</ele><time>2026-03-28T08:47:41.633Z</time></trkpt><trkpt lat="45.4520393" lon="10.4812851"><ele>144.0</ele><time>2026-03-28T08:47:42.628Z</time></trkpt><trkpt lat="45.4521616" lon="10.4813368"><ele>145.0</ele><time>2026-03-28T08:47:43.634Z</time></trkpt><trkpt lat="45.452268" lon="10.4814161"><ele>146.0</ele><time>2026-03-28T08:47:44.63Z</time></trkpt><trkpt lat="45.4523702" lon="10.4815047"><ele>147.0</ele><time>2026-03-28T08:47:45.628Z</time></trkpt><trkpt lat="45.4524624" lon="10.4816178"><ele>147.0</ele><time>2026-03-28T08:47:46.632Z</time></trkpt><trkpt lat="45.4525501" lon="10.4817379"><ele>147.0</ele><time>2026-03-28T08:47:47.63Z</time></trkpt><trkpt lat="45.4526436" lon="10.4818884"><ele>147.0</ele><time>2026-03-28T08:47:48.634Z</time></trkpt><trkpt lat="45.452698" lon="10.482061"><ele>147.0</ele><time>2026-03-28T08:47:49.651Z</time></trkpt><trkpt lat="45.4527415" lon="10.4822315"><ele>147.25</ele><time>2026-03-28T08:47:50.641Z</time></trkpt><trkpt lat="45.4527675" lon="10.4824097"><ele>147.5</ele><time>2026-03-28T08:47:51.651Z</time></trkpt><trkpt lat="45.4527677" lon="10.4825988"><ele>147.75</ele><time>2026-03-28T08:47:52.645Z</time></trkpt><trkpt lat="45.4527206" lon="10.4828183"><ele>148.0</ele><time>2026-03-28T08:47:53.636Z</time></trkpt><trkpt lat="45.4526943" lon="10.4830517"><ele>148.5</ele><time>2026-03-28T08:47:54.637Z</time></trkpt><trkpt lat="45.4526834" lon="10.483241"><ele>149.0</ele><time>2026-03-28T08:47:55.644Z</time></trkpt><trkpt lat="45.452677" lon="10.4834192"><ele>149.5</ele><time>2026-03-28T08:47:56.64Z</time></trkpt><trkpt lat="45.4526758" lon="10.483596"><ele>150.0</ele><time>2026-03-28T08:47:57.637Z</time></trkpt><trkpt lat="45.4526814" lon="10.4837706"><ele>150.0</ele><time>2026-03-28T08:47:58.637Z</time></trkpt><trkpt lat="45.4526827" lon="10.4839419"><ele>150.0</ele><time>2026-03-28T08:47:59.631Z</time></trkpt><trkpt lat="45.4527077" lon="10.4841046"><ele>150.0</ele><time>2026-03-28T08:48:00.63Z</time></trkpt><trkpt lat="45.4527429" lon="10.4842507"><ele>150.0</ele><time>2026-03-28T08:48:01.632Z</time></trkpt><trkpt lat="45.4528005" lon="10.4843813"><ele>150.0</ele><time>2026-03-28T08:48:02.627Z</time></trkpt><trkpt lat="45.4528549" lon="10.4844951"><ele>150.0</ele><time>2026-03-28T08:48:03.623Z</time></trkpt><trkpt lat="45.4529113" lon="10.4845954"><ele>150.0</ele><time>2026-03-28T08:48:04.619Z</time></trkpt><trkpt lat="45.4529697" lon="10.4846779"><ele>150.0</ele><time>2026-03-28T08:48:05.613Z</time></trkpt><trkpt lat="45.4530262" lon="10.4848059"><ele>150.0</ele><time>2026-03-28T08:48:07.618Z</time></trkpt><trkpt lat="45.453027" lon="10.4849025"><ele>150.0</ele><time>2026-03-28T08:48:08.614Z</time></trkpt><trkpt lat="45.4530104" lon="10.4850304"><ele>151.2</ele><time>2026-03-28T08:48:10.62Z</time></trkpt><trkpt lat="45.4529507" lon="10.4850807"><ele>152.4</ele><time>2026-03-28T08:48:12.622Z</time></trkpt><trkpt lat="45.4528455" lon="10.4851265"><ele>153.6</ele><time>2026-03-28T08:48:14.615Z</time></trkpt><trkpt lat="45.4527516" lon="10.4851343"><ele>154.8</ele><time>2026-03-28T08:48:15.614Z</time></trkpt><trkpt lat="45.4526503" lon="10.4851279"><ele>156.0</ele><time>2026-03-28T08:48:16.617Z</time></trkpt><trkpt lat="45.4525352" lon="10.4851145"><ele>156.0</ele><time>2026-03-28T08:48:17.619Z</time></trkpt><trkpt lat="45.4524173" lon="10.4850962"><ele>156.0</ele><time>2026-03-28T08:48:18.622Z</time></trkpt><trkpt lat="45.4522958" lon="10.4850803"><ele>156.0</ele><time>2026-03-28T08:48:19.627Z</time></trkpt><trkpt lat="45.4521748" lon="10.4850597"><ele>156.0</ele><time>2026-03-28T08:48:20.632Z</time></trkpt><trkpt lat="45.4520498" lon="10.4850317"><ele>156.0</ele><time>2026-03-28T08:48:21.629Z</time></trkpt><trkpt lat="45.4519146" lon="10.4849951"><ele>156.0</ele><time>2026-03-28T08:48:22.629Z</time></trkpt><trkpt lat="45.451777" lon="10.4849562"><ele>156.0</ele><time>2026-03-28T08:48:23.627Z</time></trkpt><trkpt lat="45.4516391" lon="10.484921"><ele>156.0</ele><time>2026-03-28T08:48:24.624Z</time></trkpt><trkpt lat="45.4514745" lon="10.4848445"><ele>156.0</ele><time>2026-03-28T08:48:25.629Z</time></trkpt><trkpt lat="45.451335" lon="10.4847761"><ele>156.0</ele><time>2026-03-28T08:48:26.624Z</time></trkpt><trkpt lat="45.4512473" lon="10.4847249"><ele>156.0</ele><time>2026-03-28T08:48:27.622Z</time></trkpt><trkpt lat="45.4511162" lon="10.4846547"><ele>156.0</ele><time>2026-03-28T08:48:28.62Z</time></trkpt><trkpt lat="45.4509895" lon="10.4846298"><ele>156.5</ele><time>2026-03-28T08:48:29.62Z</time></trkpt><trkpt lat="45.4508413" lon="10.4846043"><ele>157.0</ele><time>2026-03-28T08:48:30.62Z</time></trkpt><trkpt lat="45.4507333" lon="10.484566"><ele>157.5</ele><time>2026-03-28T08:48:31.632Z</time></trkpt><trkpt lat="45.4506062" lon="10.4845382"><ele>158.0</ele><time>2026-03-28T08:48:32.622Z</time></trkpt><trkpt lat="45.4505138" lon="10.4845146"><ele>156.0</ele><time>2026-03-28T08:48:33.627Z</time></trkpt><trkpt lat="45.4504166" lon="10.4844735"><ele>154.0</ele><time>2026-03-28T08:48:34.645Z</time></trkpt><trkpt lat="45.4503105" lon="10.4844213"><ele>152.0</ele><time>2026-03-28T08:48:35.637Z</time></trkpt><trkpt lat="45.4502042" lon="10.4843935"><ele>150.0</ele><time>2026-03-28T08:48:36.632Z</time></trkpt><trkpt lat="45.4500848" lon="10.4843715"><ele>148.0</ele><time>2026-03-28T08:48:37.638Z</time></trkpt><trkpt lat="45.4499775" lon="10.484358"><ele>148.0</ele><time>2026-03-28T08:48:38.63Z</time></trkpt><trkpt lat="45.4498801" lon="10.4843404"><ele>148.0</ele><time>2026-03-28T08:48:39.628Z</time></trkpt><trkpt lat="45.4497722" lon="10.4843408"><ele>148.0</ele><time>2026-03-28T08:48:40.629Z</time></trkpt><trkpt lat="45.4496578" lon="10.4843545"><ele>148.0</ele><time>2026-03-28T08:48:41.626Z</time></trkpt><trkpt lat="45.4495226" lon="10.4843878"><ele>147.5</ele><time>2026-03-28T08:48:42.626Z</time></trkpt><trkpt lat="45.4493871" lon="10.484415"><ele>147.0</ele><time>2026-03-28T08:48:43.627Z</time></trkpt><trkpt lat="45.4492387" lon="10.4844288"><ele>146.5</ele><time>2026-03-28T08:48:44.631Z</time></trkpt><trkpt lat="45.4491014" lon="10.4844318"><ele>146.0</ele><time>2026-03-28T08:48:45.628Z</time></trkpt><trkpt lat="45.4489644" lon="10.4844364"><ele>146.0</ele><time>2026-03-28T08:48:46.629Z</time></trkpt><trkpt lat="45.4488644" lon="10.4844363"><ele>146.0</ele><time>2026-03-28T08:48:47.626Z</time></trkpt><trkpt lat="45.4487376" lon="10.4844141"><ele>146.0</ele><time>2026-03-28T08:48:48.628Z</time></trkpt><trkpt lat="45.4486504" lon="10.4844207"><ele>146.0</ele><time>2026-03-28T08:48:49.63Z</time></trkpt><trkpt lat="45.4485563" lon="10.4844558"><ele>146.0</ele><time>2026-03-28T08:48:50.627Z</time></trkpt><trkpt lat="45.4484213" lon="10.4844582"><ele>146.25</ele><time>2026-03-28T08:48:51.634Z</time></trkpt><trkpt lat="45.4483002" lon="10.4844614"><ele>146.5</ele><time>2026-03-28T08:48:52.626Z</time></trkpt><trkpt lat="45.4481733" lon="10.4844573"><ele>146.75</ele><time>2026-03-28T08:48:53.619Z</time></trkpt><trkpt lat="45.4480458" lon="10.4844436"><ele>147.0</ele><time>2026-03-28T08:48:54.624Z</time></trkpt><trkpt lat="45.4479203" lon="10.4844259"><ele>147.79999999999998</ele><time>2026-03-28T08:48:55.613Z</time></trkpt><trkpt lat="45.4478153" lon="10.4844007"><ele>148.6</ele><time>2026-03-28T08:48:56.61Z</time></trkpt><trkpt lat="45.4477328" lon="10.4843604"><ele>149.39999999999998</ele><time>2026-03-28T08:48:57.618Z</time></trkpt><trkpt lat="45.4476641" lon="10.4842953"><ele>150.2</ele><time>2026-03-28T08:48:58.615Z</time></trkpt><trkpt lat="45.4475951" lon="10.4842151"><ele>151.0</ele><time>2026-03-28T08:48:59.613Z</time></trkpt><trkpt lat="45.4475289" lon="10.484127"><ele>151.0</ele><time>2026-03-28T08:49:00.617Z</time></trkpt><trkpt lat="45.4474885" lon="10.4840277"><ele>151.0</ele><time>2026-03-28T08:49:01.624Z</time></trkpt><trkpt lat="45.4474299" lon="10.4839273"><ele>151.0</ele><time>2026-03-28T08:49:02.619Z</time></trkpt><trkpt lat="45.4473602" lon="10.4838457"><ele>151.0</ele><time>2026-03-28T08:49:03.619Z</time></trkpt><trkpt lat="45.4472716" lon="10.4837867"><ele>151.0</ele><time>2026-03-28T08:49:04.621Z</time></trkpt><trkpt lat="45.4471334" lon="10.4837592"><ele>148.66666666666669</ele><time>2026-03-28T08:49:05.639Z</time></trkpt><trkpt lat="45.4469815" lon="10.483756"><ele>146.33333333333334</ele><time>2026-03-28T08:49:06.634Z</time></trkpt><trkpt lat="45.4468297" lon="10.4837397"><ele>144.0</ele><time>2026-03-28T08:49:07.637Z</time></trkpt><trkpt lat="45.4466778" lon="10.4837186"><ele>144.0</ele><time>2026-03-28T08:49:08.634Z</time></trkpt><trkpt lat="45.4465559" lon="10.48367"><ele>144.0</ele><time>2026-03-28T08:49:09.636Z</time></trkpt><trkpt lat="45.4464221" lon="10.4836401"><ele>144.0</ele><time>2026-03-28T08:49:10.64Z</time></trkpt><trkpt lat="45.4462918" lon="10.48362"><ele>144.0</ele><time>2026-03-28T08:49:11.64Z</time></trkpt><trkpt lat="45.446137" lon="10.4835846"><ele>143.66666666666666</ele><time>2026-03-28T08:49:12.645Z</time></trkpt><trkpt lat="45.4459881" lon="10.4835488"><ele>143.33333333333331</ele><time>2026-03-28T08:49:13.641Z</time></trkpt><trkpt lat="45.4458343" lon="10.4835278"><ele>143.0</ele><time>2026-03-28T08:49:14.641Z</time></trkpt><trkpt lat="45.4456854" lon="10.4835129"><ele>143.0</ele><time>2026-03-28T08:49:15.637Z</time></trkpt><trkpt lat="45.4455143" lon="10.4834796"><ele>143.0</ele><time>2026-03-28T08:49:16.631Z</time></trkpt><trkpt lat="45.4453499" lon="10.4834378"><ele>143.0</ele><time>2026-03-28T08:49:17.628Z</time></trkpt><trkpt lat="45.4452004" lon="10.4834058"><ele>143.33333333333331</ele><time>2026-03-28T08:49:18.632Z</time></trkpt><trkpt lat="45.4450334" lon="10.4833638"><ele>143.66666666666666</ele><time>2026-03-28T08:49:19.635Z</time></trkpt><trkpt lat="45.4448851" lon="10.4833266"><ele>144.0</ele><time>2026-03-28T08:49:20.631Z</time></trkpt><trkpt lat="45.4447381" lon="10.4833002"><ele>144.0</ele><time>2026-03-28T08:49:21.63Z</time></trkpt><trkpt lat="45.4445961" lon="10.4832792"><ele>144.0</ele><time>2026-03-28T08:49:22.639Z</time></trkpt><trkpt lat="45.4444237" lon="10.4832621"><ele>144.0</ele><time>2026-03-28T08:49:23.634Z</time></trkpt><trkpt lat="45.4442754" lon="10.4832303"><ele>144.0</ele><time>2026-03-28T08:49:24.63Z</time></trkpt><trkpt lat="45.4441268" lon="10.4832128"><ele>144.0</ele><time>2026-03-28T08:49:25.632Z</time></trkpt><trkpt lat="45.4439902" lon="10.4832043"><ele>144.0</ele><time>2026-03-28T08:49:26.626Z</time></trkpt><trkpt lat="45.4438746" lon="10.4831818"><ele>144.0</ele><time>2026-03-28T08:49:27.629Z</time></trkpt><trkpt lat="45.4437655" lon="10.4831474"><ele>144.25</ele><time>2026-03-28T08:49:28.629Z</time></trkpt><trkpt lat="45.443654" lon="10.483104"><ele>144.5</ele><time>2026-03-28T08:49:29.634Z</time></trkpt><trkpt lat="45.4435379" lon="10.4830655"><ele>144.75</ele><time>2026-03-28T08:49:30.63Z</time></trkpt><trkpt lat="45.4434095" lon="10.4830372"><ele>145.0</ele><time>2026-03-28T08:49:31.632Z</time></trkpt><trkpt lat="45.4432701" lon="10.4830069"><ele>145.0</ele><time>2026-03-28T08:49:32.628Z</time></trkpt><trkpt lat="45.4431303" lon="10.4829882"><ele>145.0</ele><time>2026-03-28T08:49:33.628Z</time></trkpt><trkpt lat="45.4429965" lon="10.4829602"><ele>145.0</ele><time>2026-03-28T08:49:34.627Z</time></trkpt><trkpt lat="45.4428843" lon="10.4829212"><ele>145.0</ele><time>2026-03-28T08:49:35.634Z</time></trkpt><trkpt lat="45.4427795" lon="10.4828769"><ele>144.0</ele><time>2026-03-28T08:49:36.644Z</time></trkpt><trkpt lat="45.4426581" lon="10.4827918"><ele>143.0</ele><time>2026-03-28T08:49:37.635Z</time></trkpt><trkpt lat="45.4425288" lon="10.4827232"><ele>142.0</ele><time>2026-03-28T08:49:38.627Z</time></trkpt><trkpt lat="45.4423973" lon="10.4826369"><ele>141.0</ele><time>2026-03-28T08:49:39.64Z</time></trkpt><trkpt lat="45.4422695" lon="10.4825452"><ele>141.0</ele><time>2026-03-28T08:49:40.641Z</time></trkpt><trkpt lat="45.4421298" lon="10.4824229"><ele>141.0</ele><time>2026-03-28T08:49:41.646Z</time></trkpt><trkpt lat="45.4419914" lon="10.482316"><ele>141.0</ele><time>2026-03-28T08:49:42.646Z</time></trkpt><trkpt lat="45.441844" lon="10.4821955"><ele>140.0</ele><time>2026-03-28T08:49:43.646Z</time></trkpt><trkpt lat="45.4416754" lon="10.4820832"><ele>139.0</ele><time>2026-03-28T08:49:44.644Z</time></trkpt><trkpt lat="45.4415091" lon="10.4819575"><ele>138.0</ele><time>2026-03-28T08:49:45.639Z</time></trkpt><trkpt lat="45.4413588" lon="10.4818529"><ele>138.0</ele><time>2026-03-28T08:49:46.643Z</time></trkpt><trkpt lat="45.4411881" lon="10.4817383"><ele>138.0</ele><time>2026-03-28T08:49:47.643Z</time></trkpt><trkpt lat="45.4410333" lon="10.4816285"><ele>138.0</ele><time>2026-03-28T08:49:48.644Z</time></trkpt><trkpt lat="45.4408808" lon="10.4815301"><ele>138.0</ele><time>2026-03-28T08:49:49.642Z</time></trkpt><trkpt lat="45.4407462" lon="10.4814383"><ele>138.0</ele><time>2026-03-28T08:49:50.635Z</time></trkpt><trkpt lat="45.4406253" lon="10.4813422"><ele>138.0</ele><time>2026-03-28T08:49:51.629Z</time></trkpt><trkpt lat="45.4405283" lon="10.481252"><ele>138.0</ele><time>2026-03-28T08:49:52.63Z</time></trkpt><trkpt lat="45.4404329" lon="10.481174"><ele>137.0</ele><time>2026-03-28T08:49:53.643Z</time></trkpt><trkpt lat="45.4403407" lon="10.4811125"><ele>136.0</ele><time>2026-03-28T08:49:54.632Z</time></trkpt><trkpt lat="45.4402054" lon="10.4810406"><ele>135.0</ele><time>2026-03-28T08:49:55.628Z</time></trkpt><trkpt lat="45.4400813" lon="10.4809923"><ele>134.0</ele><time>2026-03-28T08:49:56.633Z</time></trkpt><trkpt lat="45.4399561" lon="10.480954"><ele>134.0</ele><time>2026-03-28T08:49:57.642Z</time></trkpt><trkpt lat="45.4398342" lon="10.4809037"><ele>134.0</ele><time>2026-03-28T08:49:58.631Z</time></trkpt><trkpt lat="45.4397103" lon="10.4808667"><ele>134.0</ele><time>2026-03-28T08:49:59.642Z</time></trkpt><trkpt lat="45.4395699" lon="10.4808373"><ele>134.0</ele><time>2026-03-28T08:50:00.64Z</time></trkpt><trkpt lat="45.4394201" lon="10.480814"><ele>134.33333333333331</ele><time>2026-03-28T08:50:01.646Z</time></trkpt><trkpt lat="45.4392629" lon="10.4807792"><ele>134.66666666666666</ele><time>2026-03-28T08:50:02.64Z</time></trkpt><trkpt lat="45.4391079" lon="10.4807312"><ele>135.0</ele><time>2026-03-28T08:50:03.644Z</time></trkpt><trkpt lat="45.4389453" lon="10.4806906"><ele>134.5</ele><time>2026-03-28T08:50:04.651Z</time></trkpt><trkpt lat="45.4387972" lon="10.480649"><ele>134.0</ele><time>2026-03-28T08:50:05.644Z</time></trkpt><trkpt lat="45.4386598" lon="10.4806243"><ele>133.5</ele><time>2026-03-28T08:50:06.637Z</time></trkpt><trkpt lat="45.4385275" lon="10.4805954"><ele>133.0</ele><time>2026-03-28T08:50:07.646Z</time></trkpt><trkpt lat="45.4384436" lon="10.4805693"><ele>133.0</ele><time>2026-03-28T08:50:08.635Z</time></trkpt><trkpt lat="45.4383592" lon="10.4805327"><ele>133.0</ele><time>2026-03-28T08:50:09.646Z</time></trkpt><trkpt lat="45.4382757" lon="10.4804856"><ele>133.0</ele><time>2026-03-28T08:50:10.64Z</time></trkpt><trkpt lat="45.4381621" lon="10.4804491"><ele>133.0</ele><time>2026-03-28T08:50:11.641Z</time></trkpt><trkpt lat="45.4380213" lon="10.4804291"><ele>133.0</ele><time>2026-03-28T08:50:12.636Z</time></trkpt><trkpt lat="45.4378716" lon="10.4804136"><ele>132.0</ele><time>2026-03-28T08:50:13.646Z</time></trkpt><trkpt lat="45.4376919" lon="10.48042"><ele>131.0</ele><time>2026-03-28T08:50:14.646Z</time></trkpt><trkpt lat="45.437505" lon="10.4804225"><ele>130.0</ele><time>2026-03-28T08:50:15.647Z</time></trkpt><trkpt lat="45.4373372" lon="10.4804229"><ele>130.0</ele><time>2026-03-28T08:50:16.643Z</time></trkpt><trkpt lat="45.4371593" lon="10.4804207"><ele>130.0</ele><time>2026-03-28T08:50:17.646Z</time></trkpt><trkpt lat="45.4369845" lon="10.480428"><ele>130.0</ele><time>2026-03-28T08:50:18.644Z</time></trkpt><trkpt lat="45.4368161" lon="10.4804198"><ele>130.33333333333334</ele><time>2026-03-28T08:50:19.648Z</time></trkpt><trkpt lat="45.4366367" lon="10.4804334"><ele>130.66666666666666</ele><time>2026-03-28T08:50:20.637Z</time></trkpt><trkpt lat="45.4364492" lon="10.4804825"><ele>131.0</ele><time>2026-03-28T08:50:21.649Z</time></trkpt><trkpt lat="45.436252" lon="10.4805752"><ele>131.0</ele><time>2026-03-28T08:50:22.638Z</time></trkpt><trkpt lat="45.4360715" lon="10.4806638"><ele>131.0</ele><time>2026-03-28T08:50:23.639Z</time></trkpt><trkpt lat="45.4359039" lon="10.4807553"><ele>131.0</ele><time>2026-03-28T08:50:24.651Z</time></trkpt><trkpt lat="45.4357312" lon="10.4808302"><ele>131.0</ele><time>2026-03-28T08:50:25.654Z</time></trkpt><trkpt lat="45.4355777" lon="10.4809066"><ele>131.0</ele><time>2026-03-28T08:50:26.649Z</time></trkpt><trkpt lat="45.4354203" lon="10.4809899"><ele>131.0</ele><time>2026-03-28T08:50:27.649Z</time></trkpt><trkpt lat="45.435274" lon="10.4810612"><ele>131.0</ele><time>2026-03-28T08:50:28.65Z</time></trkpt><trkpt lat="45.4351117" lon="10.4811462"><ele>131.0</ele><time>2026-03-28T08:50:29.644Z</time></trkpt><trkpt lat="45.4349541" lon="10.4812235"><ele>131.0</ele><time>2026-03-28T08:50:30.65Z</time></trkpt><trkpt lat="45.4347874" lon="10.4812997"><ele>131.0</ele><time>2026-03-28T08:50:31.653Z</time></trkpt><trkpt lat="45.4346293" lon="10.4813417"><ele>131.0</ele><time>2026-03-28T08:50:32.628Z</time></trkpt><trkpt lat="45.4344656" lon="10.481372"><ele>131.0</ele><time>2026-03-28T08:50:33.643Z</time></trkpt><trkpt lat="45.4342963" lon="10.4813851"><ele>131.0</ele><time>2026-03-28T08:50:34.644Z</time></trkpt><trkpt lat="45.4341215" lon="10.4814121"><ele>131.0</ele><time>2026-03-28T08:50:35.642Z</time></trkpt><trkpt lat="45.4339662" lon="10.4814279"><ele>131.0</ele><time>2026-03-28T08:50:36.639Z</time></trkpt><trkpt lat="45.4338319" lon="10.4814181"><ele>131.0</ele><time>2026-03-28T08:50:37.631Z</time></trkpt><trkpt lat="45.4336881" lon="10.4813819"><ele>131.0</ele><time>2026-03-28T08:50:38.645Z</time></trkpt><trkpt lat="45.4335212" lon="10.4813019"><ele>131.0</ele><time>2026-03-28T08:50:39.631Z</time></trkpt><trkpt lat="45.4333494" lon="10.481231"><ele>131.33333333333331</ele><time>2026-03-28T08:50:40.633Z</time></trkpt><trkpt lat="45.4331795" lon="10.4811387"><ele>131.66666666666666</ele><time>2026-03-28T08:50:41.641Z</time></trkpt><trkpt lat="45.4330085" lon="10.4810496"><ele>132.0</ele><time>2026-03-28T08:50:42.645Z</time></trkpt><trkpt lat="45.432836" lon="10.4809549"><ele>132.0</ele><time>2026-03-28T08:50:43.643Z</time></trkpt><trkpt lat="45.4326822" lon="10.480859"><ele>132.0</ele><time>2026-03-28T08:50:44.648Z</time></trkpt><trkpt lat="45.4325218" lon="10.4807767"><ele>132.0</ele><time>2026-03-28T08:50:45.648Z</time></trkpt><trkpt lat="45.4323621" lon="10.4807034"><ele>132.0</ele><time>2026-03-28T08:50:46.649Z</time></trkpt><trkpt lat="45.4322155" lon="10.480612"><ele>132.0</ele><time>2026-03-28T08:50:47.645Z</time></trkpt><trkpt lat="45.4320608" lon="10.4805365"><ele>132.0</ele><time>2026-03-28T08:50:48.647Z</time></trkpt><trkpt lat="45.4319138" lon="10.4804449"><ele>131.0</ele><time>2026-03-28T08:50:49.645Z</time></trkpt><trkpt lat="45.4317769" lon="10.4803765"><ele>130.0</ele><time>2026-03-28T08:50:50.642Z</time></trkpt><trkpt lat="45.4316302" lon="10.4803336"><ele>129.0</ele><time>2026-03-28T08:50:51.644Z</time></trkpt><trkpt lat="45.4314762" lon="10.4802895"><ele>129.0</ele><time>2026-03-28T08:50:52.651Z</time></trkpt><trkpt lat="45.4313041" lon="10.4802647"><ele>129.0</ele><time>2026-03-28T08:50:53.648Z</time></trkpt><trkpt lat="45.4311852" lon="10.4802504"><ele>129.0</ele><time>2026-03-28T08:50:54.637Z</time></trkpt><trkpt lat="45.4310573" lon="10.4802338"><ele>129.0</ele><time>2026-03-28T08:50:55.651Z</time></trkpt><trkpt lat="45.4309635" lon="10.4802078"><ele>129.0</ele><time>2026-03-28T08:50:56.642Z</time></trkpt><trkpt lat="45.430866" lon="10.4801857"><ele>129.0</ele><time>2026-03-28T08:50:57.638Z</time></trkpt><trkpt lat="45.4307694" lon="10.4801499"><ele>129.0</ele><time>2026-03-28T08:50:58.641Z</time></trkpt><trkpt lat="45.4306904" lon="10.4801244"><ele>129.0</ele><time>2026-03-28T08:50:59.645Z</time></trkpt><trkpt lat="45.4306218" lon="10.4801036"><ele>129.0</ele><time>2026-03-28T08:51:00.646Z</time></trkpt><trkpt lat="45.4305471" lon="10.4800819"><ele>129.0</ele><time>2026-03-28T08:51:01.637Z</time></trkpt><trkpt lat="45.4304444" lon="10.4800576"><ele>129.5</ele><time>2026-03-28T08:51:02.635Z</time></trkpt><trkpt lat="45.4303039" lon="10.4800258"><ele>130.0</ele><time>2026-03-28T08:51:03.626Z</time></trkpt><trkpt lat="45.4301615" lon="10.4799832"><ele>130.5</ele><time>2026-03-28T08:51:04.629Z</time></trkpt><trkpt lat="45.4300041" lon="10.4799355"><ele>131.0</ele><time>2026-03-28T08:51:05.637Z</time></trkpt><trkpt lat="45.429835" lon="10.4798969"><ele>131.0</ele><time>2026-03-28T08:51:06.638Z</time></trkpt><trkpt lat="45.4296741" lon="10.479846"><ele>131.0</ele><time>2026-03-28T08:51:07.639Z</time></trkpt><trkpt lat="45.4295028" lon="10.4797964"><ele>131.0</ele><time>2026-03-28T08:51:08.64Z</time></trkpt><trkpt lat="45.429346" lon="10.4797531"><ele>130.0</ele><time>2026-03-28T08:51:09.647Z</time></trkpt><trkpt lat="45.429168" lon="10.4797396"><ele>129.0</ele><time>2026-03-28T08:51:10.635Z</time></trkpt><trkpt lat="45.4289927" lon="10.4797363"><ele>128.0</ele><time>2026-03-28T08:51:11.639Z</time></trkpt><trkpt lat="45.4288091" lon="10.479741"><ele>127.0</ele><time>2026-03-28T08:51:12.642Z</time></trkpt><trkpt lat="45.4286208" lon="10.4797516"><ele>126.0</ele><time>2026-03-28T08:51:13.643Z</time></trkpt><trkpt lat="45.4284531" lon="10.4797672"><ele>125.0</ele><time>2026-03-28T08:51:14.642Z</time></trkpt><trkpt lat="45.4282987" lon="10.4797797"><ele>125.0</ele><time>2026-03-28T08:51:15.637Z</time></trkpt><trkpt lat="45.4281308" lon="10.4797763"><ele>125.0</ele><time>2026-03-28T08:51:16.644Z</time></trkpt><trkpt lat="45.4279593" lon="10.4797848"><ele>125.0</ele><time>2026-03-28T08:51:17.647Z</time></trkpt><trkpt lat="45.4278008" lon="10.4797847"><ele>125.25</ele><time>2026-03-28T08:51:18.643Z</time></trkpt><trkpt lat="45.427648" lon="10.4797901"><ele>125.5</ele><time>2026-03-28T08:51:19.647Z</time></trkpt><trkpt lat="45.4274938" lon="10.4797858"><ele>125.75</ele><time>2026-03-28T08:51:20.648Z</time></trkpt><trkpt lat="45.4273687" lon="10.4797732"><ele>126.0</ele><time>2026-03-28T08:51:21.636Z</time></trkpt><trkpt lat="45.4272296" lon="10.4797384"><ele>126.0</ele><time>2026-03-28T08:51:22.648Z</time></trkpt><trkpt lat="45.4270913" lon="10.4797179"><ele>126.0</ele><time>2026-03-28T08:51:23.643Z</time></trkpt><trkpt lat="45.4269386" lon="10.4796806"><ele>126.0</ele><time>2026-03-28T08:51:24.644Z</time></trkpt><trkpt lat="45.426787" lon="10.4796431"><ele>126.0</ele><time>2026-03-28T08:51:25.646Z</time></trkpt><trkpt lat="45.4266719" lon="10.4796106"><ele>125.5</ele><time>2026-03-28T08:51:26.645Z</time></trkpt><trkpt lat="45.4265415" lon="10.4795527"><ele>125.0</ele><time>2026-03-28T08:51:27.654Z</time></trkpt><trkpt lat="45.4264264" lon="10.4795049"><ele>124.5</ele><time>2026-03-28T08:51:28.649Z</time></trkpt><trkpt lat="45.4262892" lon="10.4794465"><ele>124.0</ele><time>2026-03-28T08:51:29.645Z</time></trkpt><trkpt lat="45.4261292" lon="10.479392"><ele>124.0</ele><time>2026-03-28T08:51:30.642Z</time></trkpt><trkpt lat="45.4259628" lon="10.4793523"><ele>124.0</ele><time>2026-03-28T08:51:31.65Z</time></trkpt><trkpt lat="45.4257888" lon="10.4792909"><ele>124.0</ele><time>2026-03-28T08:51:32.64Z</time></trkpt><trkpt lat="45.4256124" lon="10.4792358"><ele>124.33333333333334</ele><time>2026-03-28T08:51:33.645Z</time></trkpt><trkpt lat="45.4254319" lon="10.4791766"><ele>124.66666666666666</ele><time>2026-03-28T08:51:34.641Z</time></trkpt><trkpt lat="45.425244" lon="10.4791034"><ele>125.0</ele><time>2026-03-28T08:51:35.646Z</time></trkpt><trkpt lat="45.4250613" lon="10.4790389"><ele>125.0</ele><time>2026-03-28T08:51:36.643Z</time></trkpt><trkpt lat="45.4248876" lon="10.478983"><ele>125.0</ele><time>2026-03-28T08:51:37.643Z</time></trkpt><trkpt lat="45.424728" lon="10.4789215"><ele>125.0</ele><time>2026-03-28T08:51:38.65Z</time></trkpt><trkpt lat="45.4245497" lon="10.478865"><ele>124.75</ele><time>2026-03-28T08:51:39.641Z</time></trkpt><trkpt lat="45.4243969" lon="10.4788121"><ele>124.5</ele><time>2026-03-28T08:51:40.663Z</time></trkpt><trkpt lat="45.42426" lon="10.478754"><ele>124.25</ele><time>2026-03-28T08:51:41.64Z</time></trkpt><trkpt lat="45.4241286" lon="10.4787003"><ele>124.0</ele><time>2026-03-28T08:51:42.64Z</time></trkpt><trkpt lat="45.4239877" lon="10.4786513"><ele>123.75</ele><time>2026-03-28T08:51:43.637Z</time></trkpt><trkpt lat="45.4238639" lon="10.478599"><ele>123.5</ele><time>2026-03-28T08:51:44.64Z</time></trkpt><trkpt lat="45.423735" lon="10.4785451"><ele>123.25</ele><time>2026-03-28T08:51:45.638Z</time></trkpt><trkpt lat="45.4235984" lon="10.4784846"><ele>123.0</ele><time>2026-03-28T08:51:46.64Z</time></trkpt><trkpt lat="45.423436" lon="10.478417"><ele>123.0</ele><time>2026-03-28T08:51:47.639Z</time></trkpt><trkpt lat="45.4232581" lon="10.4783458"><ele>123.0</ele><time>2026-03-28T08:51:48.637Z</time></trkpt><trkpt lat="45.4230936" lon="10.4782596"><ele>123.0</ele><time>2026-03-28T08:51:49.631Z</time></trkpt><trkpt lat="45.4229212" lon="10.4781549"><ele>123.66666666666666</ele><time>2026-03-28T08:51:50.641Z</time></trkpt><trkpt lat="45.422754" lon="10.4780392"><ele>124.33333333333333</ele><time>2026-03-28T08:51:51.629Z</time></trkpt><trkpt lat="45.422594" lon="10.4779429"><ele>125.0</ele><time>2026-03-28T08:51:52.627Z</time></trkpt><trkpt lat="45.4224282" lon="10.4778432"><ele>123.0</ele><time>2026-03-28T08:51:53.63Z</time></trkpt><trkpt lat="45.422245" lon="10.477747"><ele>121.0</ele><time>2026-03-28T08:51:54.623Z</time></trkpt><trkpt lat="45.4220822" lon="10.4776616"><ele>119.0</ele><time>2026-03-28T08:51:55.617Z</time></trkpt><trkpt lat="45.4219367" lon="10.4775885"><ele>119.0</ele><time>2026-03-28T08:51:56.618Z</time></trkpt><trkpt lat="45.4217893" lon="10.4775172"><ele>119.0</ele><time>2026-03-28T08:51:57.643Z</time></trkpt><trkpt lat="45.4216097" lon="10.477435"><ele>119.0</ele><time>2026-03-28T08:51:58.628Z</time></trkpt><trkpt lat="45.4214597" lon="10.4773741"><ele>119.66666666666666</ele><time>2026-03-28T08:51:59.629Z</time></trkpt><trkpt lat="45.4213041" lon="10.4773108"><ele>120.33333333333334</ele><time>2026-03-28T08:52:00.641Z</time></trkpt><trkpt lat="45.4211303" lon="10.4772594"><ele>121.0</ele><time>2026-03-28T08:52:01.634Z</time></trkpt><trkpt lat="45.4209665" lon="10.4772091"><ele>121.0</ele><time>2026-03-28T08:52:02.627Z</time></trkpt><trkpt lat="45.4208046" lon="10.477172"><ele>121.0</ele><time>2026-03-28T08:52:03.64Z</time></trkpt><trkpt lat="45.4206464" lon="10.4771251"><ele>121.0</ele><time>2026-03-28T08:52:04.634Z</time></trkpt><trkpt lat="45.4204808" lon="10.4770931"><ele>119.0</ele><time>2026-03-28T08:52:05.633Z</time></trkpt><trkpt lat="45.4203094" lon="10.4770515"><ele>117.0</ele><time>2026-03-28T08:52:06.639Z</time></trkpt><trkpt lat="45.4201364" lon="10.477003"><ele>115.0</ele><time>2026-03-28T08:52:07.637Z</time></trkpt><trkpt lat="45.419958" lon="10.4769478"><ele>115.0</ele><time>2026-03-28T08:52:08.635Z</time></trkpt><trkpt lat="45.4197708" lon="10.4768997"><ele>115.0</ele><time>2026-03-28T08:52:09.634Z</time></trkpt><trkpt lat="45.4195961" lon="10.4768645"><ele>115.0</ele><time>2026-03-28T08:52:10.657Z</time></trkpt><trkpt lat="45.4194573" lon="10.4768379"><ele>115.4</ele><time>2026-03-28T08:52:11.634Z</time></trkpt><trkpt lat="45.4193206" lon="10.476806"><ele>115.8</ele><time>2026-03-28T08:52:12.634Z</time></trkpt><trkpt lat="45.4192213" lon="10.4767875"><ele>116.19999999999999</ele><time>2026-03-28T08:52:13.634Z</time></trkpt><trkpt lat="45.4191218" lon="10.4767485"><ele>116.6</ele><time>2026-03-28T08:52:14.629Z</time></trkpt><trkpt lat="45.4190363" lon="10.4767405"><ele>117.0</ele><time>2026-03-28T08:52:15.644Z</time></trkpt><trkpt lat="45.4189624" lon="10.4767106"><ele>117.0</ele><time>2026-03-28T08:52:16.644Z</time></trkpt><trkpt lat="45.418853" lon="10.4766822"><ele>116.99999999999999</ele><time>2026-03-28T08:52:18.644Z</time></trkpt><trkpt lat="45.4187663" lon="10.4766517"><ele>116.99999999999999</ele><time>2026-03-28T08:52:20.654Z</time></trkpt><trkpt lat="45.4186699" lon="10.4766649"><ele>117.0</ele><time>2026-03-28T08:52:22.627Z</time></trkpt><trkpt lat="45.4186396" lon="10.4768295"><ele>117.0</ele><time>2026-03-28T08:52:24.635Z</time></trkpt><trkpt lat="45.4186515" lon="10.4769598"><ele>116.5</ele><time>2026-03-28T08:52:25.638Z</time></trkpt><trkpt lat="45.4186485" lon="10.477102"><ele>116.0</ele><time>2026-03-28T08:52:26.625Z</time></trkpt><trkpt lat="45.4186148" lon="10.4772567"><ele>115.5</ele><time>2026-03-28T08:52:27.632Z</time></trkpt><trkpt lat="45.4185497" lon="10.4774094"><ele>115.0</ele><time>2026-03-28T08:52:28.62Z</time></trkpt><trkpt lat="45.4184616" lon="10.4775646"><ele>116.25</ele><time>2026-03-28T08:52:29.626Z</time></trkpt><trkpt lat="45.4183748" lon="10.4777266"><ele>117.5</ele><time>2026-03-28T08:52:30.634Z</time></trkpt><trkpt lat="45.4182928" lon="10.477866"><ele>118.75</ele><time>2026-03-28T08:52:31.622Z</time></trkpt><trkpt lat="45.418209" lon="10.4779995"><ele>120.0</ele><time>2026-03-28T08:52:32.621Z</time></trkpt><trkpt lat="45.4181361" lon="10.4781741"><ele>120.75</ele><time>2026-03-28T08:52:33.613Z</time></trkpt><trkpt lat="45.4180781" lon="10.4783793"><ele>121.5</ele><time>2026-03-28T08:52:34.604Z</time></trkpt><trkpt lat="45.4180444" lon="10.4786"><ele>122.25</ele><time>2026-03-28T08:52:35.603Z</time></trkpt><trkpt lat="45.4179903" lon="10.4787545"><ele>123.0</ele><time>2026-03-28T08:52:36.609Z</time></trkpt><trkpt lat="45.4179216" lon="10.4788734"><ele>123.0</ele><time>2026-03-28T08:52:37.609Z</time></trkpt><trkpt lat="45.4178791" lon="10.4790426"><ele>123.00000000000001</ele><time>2026-03-28T08:52:38.618Z</time></trkpt><trkpt lat="45.4178761" lon="10.4791965"><ele>123.00000000000001</ele><time>2026-03-28T08:52:39.623Z</time></trkpt><trkpt lat="45.4178639" lon="10.4793052"><ele>123.0</ele><time>2026-03-28T08:52:40.631Z</time></trkpt><trkpt lat="45.4178836" lon="10.4794481"><ele>123.0</ele><time>2026-03-28T08:52:41.632Z</time></trkpt><trkpt lat="45.417917" lon="10.4795874"><ele>122.75</ele><time>2026-03-28T08:52:42.618Z</time></trkpt><trkpt lat="45.4179731" lon="10.4797464"><ele>122.5</ele><time>2026-03-28T08:52:43.618Z</time></trkpt><trkpt lat="45.4180338" lon="10.4799121"><ele>122.25</ele><time>2026-03-28T08:52:44.619Z</time></trkpt><trkpt lat="45.4180904" lon="10.480089"><ele>122.0</ele><time>2026-03-28T08:52:45.624Z</time></trkpt><trkpt lat="45.4181413" lon="10.4802772"><ele>123.0</ele><time>2026-03-28T08:52:46.623Z</time></trkpt><trkpt lat="45.4181987" lon="10.480446"><ele>123.99999999999999</ele><time>2026-03-28T08:52:47.62Z</time></trkpt><trkpt lat="45.4182291" lon="10.4805712"><ele>124.99999999999999</ele><time>2026-03-28T08:52:48.621Z</time></trkpt><trkpt lat="45.4182773" lon="10.4806843"><ele>126.0</ele><time>2026-03-28T08:52:49.622Z</time></trkpt><trkpt lat="45.4183556" lon="10.4807817"><ele>127.0</ele><time>2026-03-28T08:52:50.626Z</time></trkpt><trkpt lat="45.4184493" lon="10.4808738"><ele>127.0</ele><time>2026-03-28T08:52:51.621Z</time></trkpt><trkpt lat="45.4185435" lon="10.4809552"><ele>126.99999999999999</ele><time>2026-03-28T08:52:52.621Z</time></trkpt><trkpt lat="45.4186251" lon="10.4810485"><ele>126.99999999999999</ele><time>2026-03-28T08:52:53.616Z</time></trkpt><trkpt lat="45.4186998" lon="10.4811289"><ele>127.0</ele><time>2026-03-28T08:52:54.611Z</time></trkpt><trkpt lat="45.4187505" lon="10.4812292"><ele>127.0</ele><time>2026-03-28T08:52:55.61Z</time></trkpt><trkpt lat="45.4187823" lon="10.4813276"><ele>126.50000000000001</ele><time>2026-03-28T08:52:56.613Z</time></trkpt><trkpt lat="45.4187896" lon="10.4814491"><ele>126.0</ele><time>2026-03-28T08:52:57.615Z</time></trkpt><trkpt lat="45.4187861" lon="10.4815667"><ele>125.5</ele><time>2026-03-28T08:52:58.622Z</time></trkpt><trkpt lat="45.4187603" lon="10.4816644"><ele>125.0</ele><time>2026-03-28T08:52:59.621Z</time></trkpt><trkpt lat="45.4187269" lon="10.4817495"><ele>124.50000000000001</ele><time>2026-03-28T08:53:00.633Z</time></trkpt><trkpt lat="45.4186745" lon="10.4818694"><ele>124.0</ele><time>2026-03-28T08:53:02.624Z</time></trkpt><trkpt lat="45.4186564" lon="10.4819587"><ele>124.0</ele><time>2026-03-28T08:53:06.634Z</time></trkpt><trkpt lat="45.418756" lon="10.4819987"><ele>124.0</ele><time>2026-03-28T08:53:08.624Z</time></trkpt><trkpt lat="45.4188021" lon="10.4820779"><ele>124.0</ele><time>2026-03-28T08:53:09.61Z</time></trkpt><trkpt lat="45.4188331" lon="10.4821759"><ele>124.0</ele><time>2026-03-28T08:53:10.619Z</time></trkpt><trkpt lat="45.4188443" lon="10.4823284"><ele>124.0</ele><time>2026-03-28T08:53:11.615Z</time></trkpt><trkpt lat="45.4188518" lon="10.4824834"><ele>124.00000000000001</ele><time>2026-03-28T08:53:12.629Z</time></trkpt><trkpt lat="45.4188607" lon="10.4826411"><ele>124.0</ele><time>2026-03-28T08:53:13.618Z</time></trkpt><trkpt lat="45.418865" lon="10.4827823"><ele>124.0</ele><time>2026-03-28T08:53:14.617Z</time></trkpt><trkpt lat="45.4188662" lon="10.4829049"><ele>124.0</ele><time>2026-03-28T08:53:15.601Z</time></trkpt><trkpt lat="45.4188608" lon="10.4830063"><ele>124.00000000000001</ele><time>2026-03-28T08:53:16.605Z</time></trkpt><trkpt lat="45.4188653" lon="10.4831216"><ele>124.0</ele><time>2026-03-28T08:53:17.606Z</time></trkpt><trkpt lat="45.4188663" lon="10.4832422"><ele>124.2</ele><time>2026-03-28T08:53:18.611Z</time></trkpt><trkpt lat="45.4188544" lon="10.4833582"><ele>124.4</ele><time>2026-03-28T08:53:19.61Z</time></trkpt><trkpt lat="45.4188425" lon="10.4834885"><ele>124.6</ele><time>2026-03-28T08:53:20.622Z</time></trkpt><trkpt lat="45.4188365" lon="10.4836327"><ele>124.8</ele><time>2026-03-28T08:53:21.612Z</time></trkpt><trkpt lat="45.4188343" lon="10.4837663"><ele>125.0</ele><time>2026-03-28T08:53:22.616Z</time></trkpt><trkpt lat="45.4188335" lon="10.483885"><ele>125.6</ele><time>2026-03-28T08:53:23.621Z</time></trkpt><trkpt lat="45.4188385" lon="10.4840173"><ele>126.2</ele><time>2026-03-28T08:53:25.626Z</time></trkpt><trkpt lat="45.4188355" lon="10.4841653"><ele>126.80000000000001</ele><time>2026-03-28T08:53:27.627Z</time></trkpt><trkpt lat="45.4188216" lon="10.4842811"><ele>127.4</ele><time>2026-03-28T08:53:29.634Z</time></trkpt><trkpt lat="45.4188271" lon="10.4841572"><ele>128.0</ele><time>2026-03-28T08:53:42.644Z</time></trkpt><trkpt lat="45.4188202" lon="10.4839161"><ele>127.4</ele><time>2026-03-28T08:53:44.638Z</time></trkpt><trkpt lat="45.4188311" lon="10.4837313"><ele>126.80000000000001</ele><time>2026-03-28T08:53:45.635Z</time></trkpt><trkpt lat="45.4188398" lon="10.4835661"><ele>126.2</ele><time>2026-03-28T08:53:46.622Z</time></trkpt><trkpt lat="45.4188463" lon="10.4834228"><ele>125.6</ele><time>2026-03-28T08:53:47.618Z</time></trkpt><trkpt lat="45.4188528" lon="10.4833011"><ele>125.0</ele><time>2026-03-28T08:53:48.628Z</time></trkpt><trkpt lat="45.4188463" lon="10.4832095"><ele>125.0</ele><time>2026-03-28T08:53:49.628Z</time></trkpt><trkpt lat="45.4188564" lon="10.4830894"><ele>125.0</ele><time>2026-03-28T08:53:51.632Z</time></trkpt><trkpt lat="45.4189454" lon="10.4830833"><ele>125.0</ele><time>2026-03-28T08:53:54.633Z</time></trkpt><trkpt lat="45.4190124" lon="10.4831477"><ele>125.0</ele><time>2026-03-28T08:53:55.62Z</time></trkpt><trkpt lat="45.4190881" lon="10.4832455"><ele>125.0</ele><time>2026-03-28T08:53:56.616Z</time></trkpt><trkpt lat="45.4191744" lon="10.4833473"><ele>124.99999999999999</ele><time>2026-03-28T08:53:57.621Z</time></trkpt><trkpt lat="45.4192644" lon="10.4834362"><ele>125.0</ele><time>2026-03-28T08:53:58.622Z</time></trkpt><trkpt lat="45.4193291" lon="10.4835267"><ele>125.0</ele><time>2026-03-28T08:53:59.617Z</time></trkpt><trkpt lat="45.4193749" lon="10.4836269"><ele>125.0</ele><time>2026-03-28T08:54:00.626Z</time></trkpt><trkpt lat="45.419414" lon="10.4837162"><ele>124.99999999999999</ele><time>2026-03-28T08:54:01.621Z</time></trkpt><trkpt lat="45.4194334" lon="10.4838041"><ele>125.0</ele><time>2026-03-28T08:54:02.611Z</time></trkpt><trkpt lat="45.4194162" lon="10.4840056"><ele>125.6</ele><time>2026-03-28T08:54:04.636Z</time></trkpt><trkpt lat="45.4193961" lon="10.4841358"><ele>126.2</ele><time>2026-03-28T08:54:05.632Z</time></trkpt><trkpt lat="45.4193821" lon="10.484289"><ele>126.80000000000001</ele><time>2026-03-28T08:54:06.624Z</time></trkpt><trkpt lat="45.4193654" lon="10.484421"><ele>127.4</ele><time>2026-03-28T08:54:07.619Z</time></trkpt><trkpt lat="45.4193723" lon="10.4845418"><ele>128.0</ele><time>2026-03-28T08:54:08.615Z</time></trkpt><trkpt lat="45.419417" lon="10.4846719"><ele>128.0</ele><time>2026-03-28T08:54:09.616Z</time></trkpt><trkpt lat="45.4194762" lon="10.4847977"><ele>128.0</ele><time>2026-03-28T08:54:10.612Z</time></trkpt><trkpt lat="45.41955" lon="10.4849018"><ele>128.0</ele><time>2026-03-28T08:54:11.611Z</time></trkpt><trkpt lat="45.4196482" lon="10.4850049"><ele>128.0</ele><time>2026-03-28T08:54:12.616Z</time></trkpt><trkpt lat="45.4197467" lon="10.4850954"><ele>128.0</ele><time>2026-03-28T08:54:13.614Z</time></trkpt><trkpt lat="45.4198575" lon="10.485181"><ele>128.0</ele><time>2026-03-28T08:54:14.63Z</time></trkpt><trkpt lat="45.4199863" lon="10.485271"><ele>128.0</ele><time>2026-03-28T08:54:15.609Z</time></trkpt><trkpt lat="45.4201048" lon="10.4853489"><ele>128.0</ele><time>2026-03-28T08:54:16.608Z</time></trkpt><trkpt lat="45.4202431" lon="10.4854158"><ele>128.0</ele><time>2026-03-28T08:54:17.609Z</time></trkpt><trkpt lat="45.4203916" lon="10.4854528"><ele>130.75</ele><time>2026-03-28T08:54:18.6Z</time></trkpt><trkpt lat="45.4205232" lon="10.4854865"><ele>133.5</ele><time>2026-03-28T08:54:19.601Z</time></trkpt><trkpt lat="45.4206313" lon="10.4854788"><ele>136.25</ele><time>2026-03-28T08:54:20.601Z</time></trkpt><trkpt lat="45.4207541" lon="10.4854877"><ele>139.0</ele><time>2026-03-28T08:54:21.6Z</time></trkpt><trkpt lat="45.4208556" lon="10.4854976"><ele>139.0</ele><time>2026-03-28T08:54:22.6Z</time></trkpt><trkpt lat="45.420956" lon="10.4854945"><ele>139.0</ele><time>2026-03-28T08:54:23.603Z</time></trkpt><trkpt lat="45.4210475" lon="10.4854733"><ele>139.0</ele><time>2026-03-28T08:54:24.616Z</time></trkpt><trkpt lat="45.4211602" lon="10.4854661"><ele>139.0</ele><time>2026-03-28T08:54:25.601Z</time></trkpt><trkpt lat="45.4212732" lon="10.4854703"><ele>139.0</ele><time>2026-03-28T08:54:26.6Z</time></trkpt><trkpt lat="45.4213903" lon="10.485482"><ele>139.25</ele><time>2026-03-28T08:54:27.596Z</time></trkpt><trkpt lat="45.4215165" lon="10.4855347"><ele>139.5</ele><time>2026-03-28T08:54:28.596Z</time></trkpt><trkpt lat="45.4216528" lon="10.4855845"><ele>139.75</ele><time>2026-03-28T08:54:29.6Z</time></trkpt><trkpt lat="45.4217905" lon="10.4856336"><ele>140.0</ele><time>2026-03-28T08:54:30.596Z</time></trkpt><trkpt lat="45.4219247" lon="10.4857002"><ele>140.0</ele><time>2026-03-28T08:54:31.606Z</time></trkpt><trkpt lat="45.422016" lon="10.4857539"><ele>140.0</ele><time>2026-03-28T08:54:32.59Z</time></trkpt><trkpt lat="45.4221416" lon="10.4858015"><ele>140.0</ele><time>2026-03-28T08:54:33.598Z</time></trkpt><trkpt lat="45.4222628" lon="10.4859074"><ele>140.0</ele><time>2026-03-28T08:54:35.589Z</time></trkpt><trkpt lat="45.4223362" lon="10.4860543"><ele>140.4</ele><time>2026-03-28T08:54:36.587Z</time></trkpt><trkpt lat="45.4223971" lon="10.4861944"><ele>140.8</ele><time>2026-03-28T08:54:37.592Z</time></trkpt><trkpt lat="45.4224377" lon="10.4863197"><ele>141.2</ele><time>2026-03-28T08:54:38.595Z</time></trkpt><trkpt lat="45.4224721" lon="10.486471"><ele>141.6</ele><time>2026-03-28T08:54:39.593Z</time></trkpt><trkpt lat="45.4224899" lon="10.4866411"><ele>142.0</ele><time>2026-03-28T08:54:40.593Z</time></trkpt><trkpt lat="45.4224992" lon="10.4868276"><ele>142.5</ele><time>2026-03-28T08:54:41.596Z</time></trkpt><trkpt lat="45.4224964" lon="10.4870146"><ele>143.0</ele><time>2026-03-28T08:54:42.595Z</time></trkpt><trkpt lat="45.4224843" lon="10.4872173"><ele>143.5</ele><time>2026-03-28T08:54:43.598Z</time></trkpt><trkpt lat="45.4224728" lon="10.4874543"><ele>144.0</ele><time>2026-03-28T08:54:44.598Z</time></trkpt><trkpt lat="45.4224767" lon="10.4876575"><ele>144.75</ele><time>2026-03-28T08:54:45.615Z</time></trkpt><trkpt lat="45.4225052" lon="10.4878494"><ele>145.5</ele><time>2026-03-28T08:54:46.593Z</time></trkpt><trkpt lat="45.4225298" lon="10.4880198"><ele>146.25</ele><time>2026-03-28T08:54:47.597Z</time></trkpt><trkpt lat="45.4225832" lon="10.4881773"><ele>147.0</ele><time>2026-03-28T08:54:48.59Z</time></trkpt><trkpt lat="45.4226809" lon="10.4883087"><ele>147.75</ele><time>2026-03-28T08:54:49.59Z</time></trkpt><trkpt lat="45.4228112" lon="10.4883891"><ele>148.5</ele><time>2026-03-28T08:54:50.588Z</time></trkpt><trkpt lat="45.4229203" lon="10.4885103"><ele>149.25</ele><time>2026-03-28T08:54:51.592Z</time></trkpt><trkpt lat="45.4230656" lon="10.4886143"><ele>150.0</ele><time>2026-03-28T08:54:52.598Z</time></trkpt><trkpt lat="45.4232043" lon="10.4887194"><ele>150.75</ele><time>2026-03-28T08:54:53.601Z</time></trkpt><trkpt lat="45.4233396" lon="10.4888357"><ele>151.5</ele><time>2026-03-28T08:54:54.594Z</time></trkpt><trkpt lat="45.4234642" lon="10.4889533"><ele>152.25</ele><time>2026-03-28T08:54:55.595Z</time></trkpt><trkpt lat="45.4235774" lon="10.4890641"><ele>153.0</ele><time>2026-03-28T08:54:56.592Z</time></trkpt><trkpt lat="45.4237015" lon="10.489174"><ele>153.0</ele><time>2026-03-28T08:54:57.6Z</time></trkpt><trkpt lat="45.4238287" lon="10.4892991"><ele>153.0</ele><time>2026-03-28T08:54:58.595Z</time></trkpt><trkpt lat="45.4239196" lon="10.4894286"><ele>153.0</ele><time>2026-03-28T08:54:59.597Z</time></trkpt><trkpt lat="45.4240106" lon="10.4895795"><ele>153.0</ele><time>2026-03-28T08:55:00.598Z</time></trkpt><trkpt lat="45.4241052" lon="10.4897301"><ele>152.66666666666666</ele><time>2026-03-28T08:55:01.603Z</time></trkpt><trkpt lat="45.4242044" lon="10.4898876"><ele>152.33333333333331</ele><time>2026-03-28T08:55:02.602Z</time></trkpt><trkpt lat="45.4243526" lon="10.4900425"><ele>152.0</ele><time>2026-03-28T08:55:03.599Z</time></trkpt><trkpt lat="45.4244578" lon="10.4901882"><ele>152.0</ele><time>2026-03-28T08:55:04.599Z</time></trkpt><trkpt lat="45.4245971" lon="10.4903617"><ele>152.0</ele><time>2026-03-28T08:55:05.602Z</time></trkpt><trkpt lat="45.4247339" lon="10.4905208"><ele>152.0</ele><time>2026-03-28T08:55:06.606Z</time></trkpt><trkpt lat="45.4248557" lon="10.4906623"><ele>153.0</ele><time>2026-03-28T08:55:07.602Z</time></trkpt><trkpt lat="45.4249856" lon="10.4907808"><ele>154.0</ele><time>2026-03-28T08:55:08.598Z</time></trkpt><trkpt lat="45.4250616" lon="10.4908613"><ele>155.0</ele><time>2026-03-28T08:55:09.601Z</time></trkpt><trkpt lat="45.4250921" lon="10.4909776"><ele>156.0</ele><time>2026-03-28T08:55:10.6Z</time></trkpt><trkpt lat="45.4251184" lon="10.4910929"><ele>157.0</ele><time>2026-03-28T08:55:11.602Z</time></trkpt><trkpt lat="45.425117" lon="10.4911983"><ele>156.2</ele><time>2026-03-28T08:55:12.608Z</time></trkpt><trkpt lat="45.4251311" lon="10.4913071"><ele>155.39999999999998</ele><time>2026-03-28T08:55:13.607Z</time></trkpt><trkpt lat="45.4251137" lon="10.4914669"><ele>154.60000000000002</ele><time>2026-03-28T08:55:14.603Z</time></trkpt><trkpt lat="45.4250966" lon="10.4916312"><ele>153.8</ele><time>2026-03-28T08:55:15.6Z</time></trkpt><trkpt lat="45.4250851" lon="10.4918186"><ele>153.0</ele><time>2026-03-28T08:55:16.613Z</time></trkpt><trkpt lat="45.4250683" lon="10.4920352"><ele>151.75</ele><time>2026-03-28T08:55:17.605Z</time></trkpt><trkpt lat="45.4250584" lon="10.4922388"><ele>150.5</ele><time>2026-03-28T08:55:18.612Z</time></trkpt><trkpt lat="45.4250643" lon="10.4924299"><ele>149.25</ele><time>2026-03-28T08:55:19.622Z</time></trkpt><trkpt lat="45.4250789" lon="10.4925887"><ele>148.0</ele><time>2026-03-28T08:55:20.629Z</time></trkpt><trkpt lat="45.4251214" lon="10.4927493"><ele>148.0</ele><time>2026-03-28T08:55:21.626Z</time></trkpt><trkpt lat="45.4251773" lon="10.4928444"><ele>148.0</ele><time>2026-03-28T08:55:22.622Z</time></trkpt><trkpt lat="45.4252837" lon="10.492927"><ele>148.0</ele><time>2026-03-28T08:55:23.624Z</time></trkpt><trkpt lat="45.4254002" lon="10.4929947"><ele>148.0</ele><time>2026-03-28T08:55:24.619Z</time></trkpt><trkpt lat="45.4255475" lon="10.4930748"><ele>147.0</ele><time>2026-03-28T08:55:25.623Z</time></trkpt><trkpt lat="45.4257116" lon="10.4931822"><ele>146.0</ele><time>2026-03-28T08:55:26.618Z</time></trkpt><trkpt lat="45.4258424" lon="10.4932688"><ele>145.0</ele><time>2026-03-28T08:55:27.635Z</time></trkpt><trkpt lat="45.4260138" lon="10.4933917"><ele>145.0</ele><time>2026-03-28T08:55:28.636Z</time></trkpt><trkpt lat="45.4261937" lon="10.4934901"><ele>145.0</ele><time>2026-03-28T08:55:29.632Z</time></trkpt><trkpt lat="45.4264112" lon="10.4935962"><ele>145.0</ele><time>2026-03-28T08:55:30.631Z</time></trkpt><trkpt lat="45.4265732" lon="10.4936952"><ele>144.0</ele><time>2026-03-28T08:55:31.64Z</time></trkpt><trkpt lat="45.4267312" lon="10.4938214"><ele>143.0</ele><time>2026-03-28T08:55:32.635Z</time></trkpt><trkpt lat="45.4268598" lon="10.4939324"><ele>142.0</ele><time>2026-03-28T08:55:33.636Z</time></trkpt><trkpt lat="45.4269643" lon="10.494025"><ele>142.0</ele><time>2026-03-28T08:55:34.626Z</time></trkpt><trkpt lat="45.4270499" lon="10.4941117"><ele>142.0</ele><time>2026-03-28T08:55:35.616Z</time></trkpt><trkpt lat="45.4271497" lon="10.4941406"><ele>142.0</ele><time>2026-03-28T08:55:37.609Z</time></trkpt><trkpt lat="45.4272367" lon="10.4941601"><ele>142.0</ele><time>2026-03-28T08:55:38.619Z</time></trkpt><trkpt lat="45.4273603" lon="10.4941489"><ele>142.0</ele><time>2026-03-28T08:55:39.612Z</time></trkpt><trkpt lat="45.4275041" lon="10.4941177"><ele>143.0</ele><time>2026-03-28T08:55:40.612Z</time></trkpt><trkpt lat="45.4276487" lon="10.4940869"><ele>144.0</ele><time>2026-03-28T08:55:41.608Z</time></trkpt><trkpt lat="45.4278434" lon="10.4940763"><ele>145.0</ele><time>2026-03-28T08:55:42.612Z</time></trkpt><trkpt lat="45.4280186" lon="10.4940767"><ele>145.75</ele><time>2026-03-28T08:55:43.613Z</time></trkpt><trkpt lat="45.4281485" lon="10.4940447"><ele>146.5</ele><time>2026-03-28T08:55:44.61Z</time></trkpt><trkpt lat="45.4282644" lon="10.494053"><ele>147.25</ele><time>2026-03-28T08:55:45.618Z</time></trkpt><trkpt lat="45.4283958" lon="10.4940723"><ele>148.0</ele><time>2026-03-28T08:55:46.631Z</time></trkpt><trkpt lat="45.4285183" lon="10.4941479"><ele>148.0</ele><time>2026-03-28T08:55:47.653Z</time></trkpt><trkpt lat="45.4286556" lon="10.4942617"><ele>148.0</ele><time>2026-03-28T08:55:48.632Z</time></trkpt><trkpt lat="45.4288007" lon="10.4943552"><ele>148.0</ele><time>2026-03-28T08:55:49.624Z</time></trkpt><trkpt lat="45.4289574" lon="10.4944718"><ele>148.66666666666669</ele><time>2026-03-28T08:55:50.628Z</time></trkpt><trkpt lat="45.4291456" lon="10.4945533"><ele>149.33333333333334</ele><time>2026-03-28T08:55:51.624Z</time></trkpt><trkpt lat="45.429302" lon="10.4946187"><ele>150.0</ele><time>2026-03-28T08:55:52.626Z</time></trkpt><trkpt lat="45.4294339" lon="10.4947032"><ele>148.0</ele><time>2026-03-28T08:55:53.637Z</time></trkpt><trkpt lat="45.4295609" lon="10.4947935"><ele>146.0</ele><time>2026-03-28T08:55:54.626Z</time></trkpt><trkpt lat="45.4296989" lon="10.4949186"><ele>144.0</ele><time>2026-03-28T08:55:55.636Z</time></trkpt><trkpt lat="45.4298221" lon="10.4950579"><ele>145.5</ele><time>2026-03-28T08:55:56.634Z</time></trkpt><trkpt lat="45.4299451" lon="10.4951855"><ele>147.0</ele><time>2026-03-28T08:55:57.638Z</time></trkpt><trkpt lat="45.430061" lon="10.4953418"><ele>148.5</ele><time>2026-03-28T08:55:58.629Z</time></trkpt><trkpt lat="45.4301447" lon="10.4954793"><ele>150.0</ele><time>2026-03-28T08:55:59.63Z</time></trkpt><trkpt lat="45.430212" lon="10.4956061"><ele>150.0</ele><time>2026-03-28T08:56:00.633Z</time></trkpt><trkpt lat="45.4302834" lon="10.4957631"><ele>150.0</ele><time>2026-03-28T08:56:01.635Z</time></trkpt><trkpt lat="45.4303431" lon="10.4959223"><ele>150.0</ele><time>2026-03-28T08:56:02.637Z</time></trkpt><trkpt lat="45.4303997" lon="10.4960899"><ele>150.0</ele><time>2026-03-28T08:56:03.635Z</time></trkpt><trkpt lat="45.4304593" lon="10.4962597"><ele>152.0</ele><time>2026-03-28T08:56:04.638Z</time></trkpt><trkpt lat="45.4305571" lon="10.496397"><ele>154.0</ele><time>2026-03-28T08:56:05.637Z</time></trkpt><trkpt lat="45.4306595" lon="10.4965117"><ele>156.0</ele><time>2026-03-28T08:56:06.629Z</time></trkpt><trkpt lat="45.4307883" lon="10.4966291"><ele>158.0</ele><time>2026-03-28T08:56:07.622Z</time></trkpt><trkpt lat="45.4309336" lon="10.4967484"><ele>158.0</ele><time>2026-03-28T08:56:08.619Z</time></trkpt><trkpt lat="45.4310583" lon="10.4968464"><ele>158.0</ele><time>2026-03-28T08:56:09.613Z</time></trkpt><trkpt lat="45.4311572" lon="10.4969363"><ele>158.0</ele><time>2026-03-28T08:56:10.613Z</time></trkpt><trkpt lat="45.4312581" lon="10.4970059"><ele>158.0</ele><time>2026-03-28T08:56:11.619Z</time></trkpt><trkpt lat="45.4313181" lon="10.497117"><ele>157.5</ele><time>2026-03-28T08:56:12.617Z</time></trkpt><trkpt lat="45.4313994" lon="10.4972243"><ele>157.0</ele><time>2026-03-28T08:56:13.611Z</time></trkpt><trkpt lat="45.4314667" lon="10.4973609"><ele>156.5</ele><time>2026-03-28T08:56:14.621Z</time></trkpt><trkpt lat="45.4315253" lon="10.4975264"><ele>156.0</ele><time>2026-03-28T08:56:15.615Z</time></trkpt><trkpt lat="45.4315891" lon="10.4976951"><ele>156.0</ele><time>2026-03-28T08:56:16.623Z</time></trkpt><trkpt lat="45.4316492" lon="10.4978623"><ele>156.0</ele><time>2026-03-28T08:56:17.634Z</time></trkpt><trkpt lat="45.4316984" lon="10.4980159"><ele>156.0</ele><time>2026-03-28T08:56:18.655Z</time></trkpt><trkpt lat="45.4317395" lon="10.4981871"><ele>156.0</ele><time>2026-03-28T08:56:19.639Z</time></trkpt><trkpt lat="45.4317797" lon="10.4983605"><ele>154.5</ele><time>2026-03-28T08:56:20.64Z</time></trkpt><trkpt lat="45.4318065" lon="10.4985397"><ele>153.0</ele><time>2026-03-28T08:56:21.632Z</time></trkpt><trkpt lat="45.4318102" lon="10.498729"><ele>151.5</ele><time>2026-03-28T08:56:22.634Z</time></trkpt><trkpt lat="45.4318031" lon="10.4989294"><ele>150.0</ele><time>2026-03-28T08:56:23.634Z</time></trkpt><trkpt lat="45.4317773" lon="10.4991316"><ele>150.0</ele><time>2026-03-28T08:56:24.634Z</time></trkpt><trkpt lat="45.4317506" lon="10.4993344"><ele>150.0</ele><time>2026-03-28T08:56:25.635Z</time></trkpt><trkpt lat="45.4317106" lon="10.4995127"><ele>150.0</ele><time>2026-03-28T08:56:26.637Z</time></trkpt><trkpt lat="45.4316621" lon="10.4997208"><ele>150.0</ele><time>2026-03-28T08:56:27.638Z</time></trkpt><trkpt lat="45.4316228" lon="10.4998873"><ele>150.0</ele><time>2026-03-28T08:56:28.64Z</time></trkpt><trkpt lat="45.4316043" lon="10.5000278"><ele>150.0</ele><time>2026-03-28T08:56:29.641Z</time></trkpt><trkpt lat="45.431588" lon="10.5001688"><ele>150.0</ele><time>2026-03-28T08:56:30.636Z</time></trkpt><trkpt lat="45.4315566" lon="10.5003111"><ele>150.0</ele><time>2026-03-28T08:56:31.651Z</time></trkpt><trkpt lat="45.4315263" lon="10.5004848"><ele>150.0</ele><time>2026-03-28T08:56:32.647Z</time></trkpt><trkpt lat="45.4314989" lon="10.500653"><ele>149.6</ele><time>2026-03-28T08:56:33.646Z</time></trkpt><trkpt lat="45.4314779" lon="10.5008131"><ele>149.2</ele><time>2026-03-28T08:56:34.643Z</time></trkpt><trkpt lat="45.4314559" lon="10.500968"><ele>148.8</ele><time>2026-03-28T08:56:35.663Z</time></trkpt><trkpt lat="45.4314324" lon="10.5011135"><ele>148.4</ele><time>2026-03-28T08:56:36.648Z</time></trkpt><trkpt lat="45.4314113" lon="10.501241"><ele>148.0</ele><time>2026-03-28T08:56:37.646Z</time></trkpt><trkpt lat="45.4313928" lon="10.5013525"><ele>148.0</ele><time>2026-03-28T08:56:38.643Z</time></trkpt><trkpt lat="45.4313818" lon="10.5014434"><ele>148.0</ele><time>2026-03-28T08:56:39.648Z</time></trkpt><trkpt lat="45.4313601" lon="10.5015632"><ele>148.0</ele><time>2026-03-28T08:56:41.641Z</time></trkpt><trkpt lat="45.4313277" lon="10.5016571"><ele>148.0</ele><time>2026-03-28T08:56:45.662Z</time></trkpt><trkpt lat="45.431299" lon="10.5017965"><ele>148.0</ele><time>2026-03-28T08:56:48.664Z</time></trkpt><trkpt lat="45.4312791" lon="10.501905"><ele>148.0</ele><time>2026-03-28T08:56:50.659Z</time></trkpt><trkpt lat="45.4312423" lon="10.5019849"><ele>147.83333333333334</ele><time>2026-03-28T08:56:52.661Z</time></trkpt><trkpt lat="45.4311887" lon="10.5020517"><ele>147.66666666666669</ele><time>2026-03-28T08:56:54.662Z</time></trkpt><trkpt lat="45.4310924" lon="10.5020365"><ele>147.5</ele><time>2026-03-28T08:56:56.649Z</time></trkpt><trkpt lat="45.4310299" lon="10.5019764"><ele>147.33333333333334</ele><time>2026-03-28T08:56:57.666Z</time></trkpt><trkpt lat="45.4309605" lon="10.5018953"><ele>147.16666666666666</ele><time>2026-03-28T08:56:58.634Z</time></trkpt><trkpt lat="45.4308745" lon="10.5017978"><ele>147.0</ele><time>2026-03-28T08:56:59.645Z</time></trkpt><trkpt lat="45.4307763" lon="10.5016937"><ele>147.0</ele><time>2026-03-28T08:57:00.635Z</time></trkpt><trkpt lat="45.430667" lon="10.5015805"><ele>147.0</ele><time>2026-03-28T08:57:01.649Z</time></trkpt><trkpt lat="45.4305584" lon="10.5014788"><ele>147.0</ele><time>2026-03-28T08:57:02.639Z</time></trkpt><trkpt lat="45.430446" lon="10.5013804"><ele>147.0</ele><time>2026-03-28T08:57:03.642Z</time></trkpt><trkpt lat="45.4303448" lon="10.5012772"><ele>146.6</ele><time>2026-03-28T08:57:04.65Z</time></trkpt><trkpt lat="45.4302541" lon="10.5011839"><ele>146.2</ele><time>2026-03-28T08:57:05.656Z</time></trkpt><trkpt lat="45.4301731" lon="10.5010969"><ele>145.8</ele><time>2026-03-28T08:57:06.642Z</time></trkpt><trkpt lat="45.4300971" lon="10.5010262"><ele>145.4</ele><time>2026-03-28T08:57:07.647Z</time></trkpt><trkpt lat="45.4300297" lon="10.5009644"><ele>145.0</ele><time>2026-03-28T08:57:08.645Z</time></trkpt><trkpt lat="45.4299673" lon="10.5009054"><ele>145.0</ele><time>2026-03-28T08:57:09.644Z</time></trkpt><trkpt lat="45.4298843" lon="10.5008275"><ele>145.0</ele><time>2026-03-28T08:57:11.636Z</time></trkpt><trkpt lat="45.4297917" lon="10.5008014"><ele>145.0</ele><time>2026-03-28T08:57:14.653Z</time></trkpt><trkpt lat="45.4297014" lon="10.5008709"><ele>145.0</ele><time>2026-03-28T08:57:16.643Z</time></trkpt><trkpt lat="45.4296568" lon="10.5009345"><ele>145.0</ele><time>2026-03-28T08:57:17.642Z</time></trkpt><trkpt lat="45.4296179" lon="10.5010249"><ele>145.0</ele><time>2026-03-28T08:57:18.648Z</time></trkpt><trkpt lat="45.4295732" lon="10.5011287"><ele>146.0</ele><time>2026-03-28T08:57:19.673Z</time></trkpt><trkpt lat="45.4295262" lon="10.5012337"><ele>147.0</ele><time>2026-03-28T08:57:20.647Z</time></trkpt><trkpt lat="45.429484" lon="10.5013388"><ele>148.0</ele><time>2026-03-28T08:57:21.642Z</time></trkpt><trkpt lat="45.4294267" lon="10.5014424"><ele>149.0</ele><time>2026-03-28T08:57:22.649Z</time></trkpt><trkpt lat="45.4293509" lon="10.5015325"><ele>150.0</ele><time>2026-03-28T08:57:23.643Z</time></trkpt><trkpt lat="45.429281" lon="10.5016206"><ele>150.16666666666666</ele><time>2026-03-28T08:57:24.641Z</time></trkpt><trkpt lat="45.4292162" lon="10.5017047"><ele>150.33333333333334</ele><time>2026-03-28T08:57:25.64Z</time></trkpt><trkpt lat="45.4291628" lon="10.5017747"><ele>150.5</ele><time>2026-03-28T08:57:26.635Z</time></trkpt><trkpt lat="45.4291137" lon="10.501848"><ele>150.66666666666669</ele><time>2026-03-28T08:57:27.634Z</time></trkpt><trkpt lat="45.4290751" lon="10.5019265"><ele>150.83333333333334</ele><time>2026-03-28T08:57:28.629Z</time></trkpt><trkpt lat="45.4290414" lon="10.5020399"><ele>151.0</ele><time>2026-03-28T08:57:29.634Z</time></trkpt><trkpt lat="45.4290149" lon="10.5021685"><ele>151.33333333333334</ele><time>2026-03-28T08:57:30.624Z</time></trkpt><trkpt lat="45.4289798" lon="10.5023218"><ele>151.66666666666669</ele><time>2026-03-28T08:57:31.643Z</time></trkpt><trkpt lat="45.4289464" lon="10.5024552"><ele>152.0</ele><time>2026-03-28T08:57:32.634Z</time></trkpt><trkpt lat="45.4289181" lon="10.5025671"><ele>152.33333333333334</ele><time>2026-03-28T08:57:33.638Z</time></trkpt><trkpt lat="45.4288893" lon="10.5026692"><ele>152.66666666666666</ele><time>2026-03-28T08:57:34.639Z</time></trkpt><trkpt lat="45.4288632" lon="10.5027543"><ele>153.0</ele><time>2026-03-28T08:57:35.64Z</time></trkpt><trkpt lat="45.4288304" lon="10.5028349"><ele>152.5</ele><time>2026-03-28T08:57:36.65Z</time></trkpt><trkpt lat="45.4287916" lon="10.5029167"><ele>152.0</ele><time>2026-03-28T08:57:37.647Z</time></trkpt><trkpt lat="45.4287457" lon="10.5029933"><ele>151.5</ele><time>2026-03-28T08:57:38.652Z</time></trkpt><trkpt lat="45.4286989" lon="10.50307"><ele>151.0</ele><time>2026-03-28T08:57:39.642Z</time></trkpt><trkpt lat="45.4285964" lon="10.5031246"><ele>150.5</ele><time>2026-03-28T08:57:41.646Z</time></trkpt><trkpt lat="45.428478" lon="10.5031556"><ele>150.0</ele><time>2026-03-28T08:57:43.638Z</time></trkpt><trkpt lat="45.4284139" lon="10.5031878"><ele>150.0</ele><time>2026-03-28T08:57:44.641Z</time></trkpt><trkpt lat="45.4282994" lon="10.5032683"><ele>150.0</ele><time>2026-03-28T08:57:46.629Z</time></trkpt><trkpt lat="45.4282431" lon="10.5033569"><ele>150.0</ele><time>2026-03-28T08:57:47.636Z</time></trkpt><trkpt lat="45.4282036" lon="10.5034552"><ele>150.0</ele><time>2026-03-28T08:57:48.643Z</time></trkpt><trkpt lat="45.4281636" lon="10.5035672"><ele>150.0</ele><time>2026-03-28T08:57:49.636Z</time></trkpt><trkpt lat="45.4281232" lon="10.5036721"><ele>148.83333333333334</ele><time>2026-03-28T08:57:50.646Z</time></trkpt><trkpt lat="45.428094" lon="10.5037547"><ele>147.66666666666666</ele><time>2026-03-28T08:57:51.632Z</time></trkpt><trkpt lat="45.4279895" lon="10.5038374"><ele>146.5</ele><time>2026-03-28T08:57:53.645Z</time></trkpt><trkpt lat="45.4278705" lon="10.5038535"><ele>145.33333333333331</ele><time>2026-03-28T08:57:55.638Z</time></trkpt><trkpt lat="45.4278084" lon="10.5038739"><ele>144.16666666666666</ele><time>2026-03-28T08:57:56.631Z</time></trkpt><trkpt lat="45.427741" lon="10.5039148"><ele>143.0</ele><time>2026-03-28T08:57:57.637Z</time></trkpt><trkpt lat="45.4276782" lon="10.5039659"><ele>142.20000000000002</ele><time>2026-03-28T08:57:58.635Z</time></trkpt><trkpt lat="45.4276058" lon="10.5040338"><ele>141.4</ele><time>2026-03-28T08:57:59.633Z</time></trkpt><trkpt lat="45.4275138" lon="10.5040945"><ele>140.60000000000002</ele><time>2026-03-28T08:58:00.621Z</time></trkpt><trkpt lat="45.4274213" lon="10.5041371"><ele>139.8</ele><time>2026-03-28T08:58:01.641Z</time></trkpt><trkpt lat="45.4273069" lon="10.5041723"><ele>139.0</ele><time>2026-03-28T08:58:02.631Z</time></trkpt><trkpt lat="45.4272023" lon="10.5041936"><ele>139.2</ele><time>2026-03-28T08:58:03.622Z</time></trkpt><trkpt lat="45.427104" lon="10.5041884"><ele>139.4</ele><time>2026-03-28T08:58:04.624Z</time></trkpt><trkpt lat="45.4270047" lon="10.5041717"><ele>139.6</ele><time>2026-03-28T08:58:05.624Z</time></trkpt><trkpt lat="45.4269108" lon="10.5041489"><ele>139.8</ele><time>2026-03-28T08:58:06.612Z</time></trkpt><trkpt lat="45.4268275" lon="10.5041233"><ele>140.0</ele><time>2026-03-28T08:58:07.62Z</time></trkpt><trkpt lat="45.4267423" lon="10.5041151"><ele>140.0</ele><time>2026-03-28T08:58:08.629Z</time></trkpt><trkpt lat="45.4266697" lon="10.5041167"><ele>140.0</ele><time>2026-03-28T08:58:09.621Z</time></trkpt><trkpt lat="45.426591" lon="10.5041301"><ele>140.0</ele><time>2026-03-28T08:58:10.625Z</time></trkpt><trkpt lat="45.426518" lon="10.5041659"><ele>140.0</ele><time>2026-03-28T08:58:11.624Z</time></trkpt><trkpt lat="45.4264525" lon="10.5042129"><ele>140.0</ele><time>2026-03-28T08:58:12.625Z</time></trkpt><trkpt lat="45.4263819" lon="10.504283"><ele>140.0</ele><time>2026-03-28T08:58:13.623Z</time></trkpt><trkpt lat="45.4263018" lon="10.5043517"><ele>139.66666666666666</ele><time>2026-03-28T08:58:14.618Z</time></trkpt><trkpt lat="45.4262206" lon="10.5044352"><ele>139.33333333333331</ele><time>2026-03-28T08:58:15.626Z</time></trkpt><trkpt lat="45.4261473" lon="10.5045143"><ele>139.0</ele><time>2026-03-28T08:58:16.62Z</time></trkpt><trkpt lat="45.4260791" lon="10.5045863"><ele>138.66666666666666</ele><time>2026-03-28T08:58:17.618Z</time></trkpt><trkpt lat="45.4260099" lon="10.5046516"><ele>138.33333333333334</ele><time>2026-03-28T08:58:18.618Z</time></trkpt><trkpt lat="45.4259488" lon="10.5047179"><ele>138.0</ele><time>2026-03-28T08:58:19.62Z</time></trkpt><trkpt lat="45.4258817" lon="10.5047811"><ele>136.5</ele><time>2026-03-28T08:58:20.617Z</time></trkpt><trkpt lat="45.4258203" lon="10.5048381"><ele>135.0</ele><time>2026-03-28T08:58:21.624Z</time></trkpt><trkpt lat="45.425761" lon="10.5048787"><ele>133.5</ele><time>2026-03-28T08:58:22.619Z</time></trkpt><trkpt lat="45.425677" lon="10.5049529"><ele>132.0</ele><time>2026-03-28T08:58:24.618Z</time></trkpt><trkpt lat="45.4256369" lon="10.5050268"><ele>130.5</ele><time>2026-03-28T08:58:26.635Z</time></trkpt><trkpt lat="45.4255581" lon="10.5051011"><ele>129.0</ele><time>2026-03-28T08:58:28.62Z</time></trkpt><trkpt lat="45.4254842" lon="10.5050903"><ele>129.0</ele><time>2026-03-28T08:58:29.627Z</time></trkpt><trkpt lat="45.4253737" lon="10.5050551"><ele>129.0</ele><time>2026-03-28T08:58:30.626Z</time></trkpt><trkpt lat="45.4252485" lon="10.5050149"><ele>129.0</ele><time>2026-03-28T08:58:31.622Z</time></trkpt><trkpt lat="45.4251055" lon="10.5049882"><ele>129.0</ele><time>2026-03-28T08:58:32.615Z</time></trkpt><trkpt lat="45.4249477" lon="10.5049626"><ele>129.0</ele><time>2026-03-28T08:58:33.617Z</time></trkpt><trkpt lat="45.4247559" lon="10.50495"><ele>129.0</ele><time>2026-03-28T08:58:34.618Z</time></trkpt><trkpt lat="45.424573" lon="10.5049825"><ele>129.0</ele><time>2026-03-28T08:58:35.618Z</time></trkpt><trkpt lat="45.4244156" lon="10.504987"><ele>129.0</ele><time>2026-03-28T08:58:36.618Z</time></trkpt><trkpt lat="45.4242656" lon="10.5049751"><ele>129.0</ele><time>2026-03-28T08:58:37.612Z</time></trkpt><trkpt lat="45.4241112" lon="10.5049244"><ele>129.0</ele><time>2026-03-28T08:58:38.628Z</time></trkpt><trkpt lat="45.423973" lon="10.504867"><ele>129.0</ele><time>2026-03-28T08:58:39.628Z</time></trkpt><trkpt lat="45.4238565" lon="10.5048074"><ele>129.0</ele><time>2026-03-28T08:58:40.629Z</time></trkpt><trkpt lat="45.4237402" lon="10.5047293"><ele>129.0</ele><time>2026-03-28T08:58:41.627Z</time></trkpt><trkpt lat="45.423625" lon="10.5046353"><ele>129.0</ele><time>2026-03-28T08:58:42.637Z</time></trkpt><trkpt lat="45.4234916" lon="10.5045023"><ele>128.33333333333334</ele><time>2026-03-28T08:58:43.631Z</time></trkpt><trkpt lat="45.4233506" lon="10.5043642"><ele>127.66666666666667</ele><time>2026-03-28T08:58:44.641Z</time></trkpt><trkpt lat="45.4232031" lon="10.5042271"><ele>127.0</ele><time>2026-03-28T08:58:45.638Z</time></trkpt><trkpt lat="45.4230477" lon="10.5041007"><ele>125.66666666666667</ele><time>2026-03-28T08:58:46.641Z</time></trkpt><trkpt lat="45.4228873" lon="10.5039986"><ele>124.33333333333334</ele><time>2026-03-28T08:58:47.644Z</time></trkpt><trkpt lat="45.4227206" lon="10.5039318"><ele>123.0</ele><time>2026-03-28T08:58:48.643Z</time></trkpt><trkpt lat="45.4225916" lon="10.5038672"><ele>123.0</ele><time>2026-03-28T08:58:49.651Z</time></trkpt><trkpt lat="45.4224548" lon="10.5037995"><ele>123.0</ele><time>2026-03-28T08:58:50.654Z</time></trkpt><trkpt lat="45.4223186" lon="10.503731"><ele>123.0</ele><time>2026-03-28T08:58:51.653Z</time></trkpt><trkpt lat="45.4221833" lon="10.5036928"><ele>123.0</ele><time>2026-03-28T08:58:52.658Z</time></trkpt><trkpt lat="45.4220578" lon="10.5036455"><ele>123.2</ele><time>2026-03-28T08:58:53.652Z</time></trkpt><trkpt lat="45.421947" lon="10.5036063"><ele>123.4</ele><time>2026-03-28T08:58:54.652Z</time></trkpt><trkpt lat="45.4218495" lon="10.5035622"><ele>123.60000000000001</ele><time>2026-03-28T08:58:55.652Z</time></trkpt><trkpt lat="45.4217657" lon="10.5035276"><ele>123.80000000000001</ele><time>2026-03-28T08:58:56.65Z</time></trkpt><trkpt lat="45.4216982" lon="10.5034647"><ele>124.0</ele><time>2026-03-28T08:58:57.65Z</time></trkpt><trkpt lat="45.4216457" lon="10.5033901"><ele>124.00000000000001</ele><time>2026-03-28T08:58:58.648Z</time></trkpt><trkpt lat="45.421593" lon="10.5032975"><ele>124.0</ele><time>2026-03-28T08:58:59.658Z</time></trkpt><trkpt lat="45.4215334" lon="10.5032283"><ele>124.0</ele><time>2026-03-28T08:59:00.656Z</time></trkpt><trkpt lat="45.421471" lon="10.5031597"><ele>124.0</ele><time>2026-03-28T08:59:01.655Z</time></trkpt><trkpt lat="45.4214042" lon="10.5031112"><ele>124.00000000000001</ele><time>2026-03-28T08:59:02.65Z</time></trkpt><trkpt lat="45.4212982" lon="10.5030842"><ele>124.0</ele><time>2026-03-28T08:59:04.661Z</time></trkpt><trkpt lat="45.4212164" lon="10.5031917"><ele>124.0</ele><time>2026-03-28T08:59:06.648Z</time></trkpt><trkpt lat="45.4211894" lon="10.5032932"><ele>124.0</ele><time>2026-03-28T08:59:07.648Z</time></trkpt><trkpt lat="45.4211572" lon="10.503553"><ele>124.0</ele><time>2026-03-28T08:59:09.656Z</time></trkpt><trkpt lat="45.4211433" lon="10.5036693"><ele>124.0</ele><time>2026-03-28T08:59:10.642Z</time></trkpt><trkpt lat="45.4211143" lon="10.5038058"><ele>124.0</ele><time>2026-03-28T08:59:11.641Z</time></trkpt><trkpt lat="45.4210698" lon="10.5039469"><ele>124.0</ele><time>2026-03-28T08:59:12.644Z</time></trkpt><trkpt lat="45.4209921" lon="10.5040809"><ele>124.0</ele><time>2026-03-28T08:59:13.647Z</time></trkpt><trkpt lat="45.420905" lon="10.5042155"><ele>124.0</ele><time>2026-03-28T08:59:14.645Z</time></trkpt><trkpt lat="45.4208351" lon="10.5043437"><ele>124.0</ele><time>2026-03-28T08:59:15.632Z</time></trkpt><trkpt lat="45.4207678" lon="10.5044894"><ele>123.0</ele><time>2026-03-28T08:59:16.636Z</time></trkpt><trkpt lat="45.4207213" lon="10.504668"><ele>122.0</ele><time>2026-03-28T08:59:17.65Z</time></trkpt><trkpt lat="45.4206891" lon="10.5048868"><ele>121.0</ele><time>2026-03-28T08:59:18.642Z</time></trkpt><trkpt lat="45.4206718" lon="10.5051209"><ele>121.0</ele><time>2026-03-28T08:59:19.645Z</time></trkpt><trkpt lat="45.4206527" lon="10.5053585"><ele>121.0</ele><time>2026-03-28T08:59:20.659Z</time></trkpt><trkpt lat="45.4206285" lon="10.5055797"><ele>121.0</ele><time>2026-03-28T08:59:21.649Z</time></trkpt><trkpt lat="45.4205784" lon="10.5058033"><ele>121.0</ele><time>2026-03-28T08:59:22.655Z</time></trkpt><trkpt lat="45.4205451" lon="10.5060442"><ele>121.0</ele><time>2026-03-28T08:59:23.655Z</time></trkpt><trkpt lat="45.4205218" lon="10.5062831"><ele>121.0</ele><time>2026-03-28T08:59:24.645Z</time></trkpt><trkpt lat="45.4204949" lon="10.5064988"><ele>120.75</ele><time>2026-03-28T08:59:25.642Z</time></trkpt><trkpt lat="45.4204795" lon="10.5067164"><ele>120.5</ele><time>2026-03-28T08:59:26.643Z</time></trkpt><trkpt lat="45.4204498" lon="10.5068991"><ele>120.25</ele><time>2026-03-28T08:59:27.645Z</time></trkpt><trkpt lat="45.4204442" lon="10.5070851"><ele>120.0</ele><time>2026-03-28T08:59:28.639Z</time></trkpt><trkpt lat="45.4204209" lon="10.50725"><ele>119.83333333333333</ele><time>2026-03-28T08:59:29.649Z</time></trkpt><trkpt lat="45.4204093" lon="10.5073978"><ele>119.66666666666666</ele><time>2026-03-28T08:59:30.647Z</time></trkpt><trkpt lat="45.4204075" lon="10.5075348"><ele>119.5</ele><time>2026-03-28T08:59:31.643Z</time></trkpt><trkpt lat="45.4203893" lon="10.5076298"><ele>119.33333333333333</ele><time>2026-03-28T08:59:32.654Z</time></trkpt><trkpt lat="45.420355" lon="10.5077487"><ele>119.16666666666666</ele><time>2026-03-28T08:59:34.651Z</time></trkpt><trkpt lat="45.4203616" lon="10.5078568"><ele>119.0</ele><time>2026-03-28T08:59:36.657Z</time></trkpt><trkpt lat="45.4203763" lon="10.5079458"><ele>118.75</ele><time>2026-03-28T08:59:37.641Z</time></trkpt><trkpt lat="45.4204061" lon="10.5080634"><ele>118.5</ele><time>2026-03-28T08:59:38.639Z</time></trkpt><trkpt lat="45.4204327" lon="10.5081969"><ele>118.25</ele><time>2026-03-28T08:59:39.63Z</time></trkpt><trkpt lat="45.4204867" lon="10.5083659"><ele>118.0</ele><time>2026-03-28T08:59:40.647Z</time></trkpt><trkpt lat="45.4205441" lon="10.5085551"><ele>117.0</ele><time>2026-03-28T08:59:41.636Z</time></trkpt><trkpt lat="45.4206106" lon="10.5087613"><ele>116.0</ele><time>2026-03-28T08:59:42.642Z</time></trkpt><trkpt lat="45.4206862" lon="10.5089959"><ele>115.0</ele><time>2026-03-28T08:59:43.629Z</time></trkpt><trkpt lat="45.4207361" lon="10.5091842"><ele>115.0</ele><time>2026-03-28T08:59:44.636Z</time></trkpt><trkpt lat="45.4207902" lon="10.5093618"><ele>115.0</ele><time>2026-03-28T08:59:45.642Z</time></trkpt><trkpt lat="45.4208406" lon="10.5095302"><ele>115.0</ele><time>2026-03-28T08:59:46.634Z</time></trkpt><trkpt lat="45.4209079" lon="10.5096755"><ele>115.0</ele><time>2026-03-28T08:59:47.63Z</time></trkpt><trkpt lat="45.4209855" lon="10.5098068"><ele>115.6</ele><time>2026-03-28T08:59:48.627Z</time></trkpt><trkpt lat="45.4210819" lon="10.5099041"><ele>116.2</ele><time>2026-03-28T08:59:49.637Z</time></trkpt><trkpt lat="45.4211636" lon="10.5099888"><ele>116.80000000000001</ele><time>2026-03-28T08:59:50.639Z</time></trkpt><trkpt lat="45.4212444" lon="10.5100659"><ele>117.4</ele><time>2026-03-28T08:59:51.642Z</time></trkpt><trkpt lat="45.4213103" lon="10.5101344"><ele>118.0</ele><time>2026-03-28T08:59:52.636Z</time></trkpt><trkpt lat="45.4213635" lon="10.510204"><ele>118.2</ele><time>2026-03-28T08:59:53.635Z</time></trkpt><trkpt lat="45.4213944" lon="10.5102877"><ele>118.4</ele><time>2026-03-28T08:59:54.649Z</time></trkpt><trkpt lat="45.4213617" lon="10.5104662"><ele>118.60000000000001</ele><time>2026-03-28T08:59:56.627Z</time></trkpt><trkpt lat="45.4213033" lon="10.5105212"><ele>118.80000000000001</ele><time>2026-03-28T08:59:57.639Z</time></trkpt><trkpt lat="45.4212158" lon="10.5105493"><ele>119.0</ele><time>2026-03-28T08:59:58.643Z</time></trkpt><trkpt lat="45.4211114" lon="10.5105552"><ele>119.6</ele><time>2026-03-28T08:59:59.638Z</time></trkpt><trkpt lat="45.4210174" lon="10.5105679"><ele>120.2</ele><time>2026-03-28T09:00:00.64Z</time></trkpt><trkpt lat="45.4209175" lon="10.5106018"><ele>120.79999999999998</ele><time>2026-03-28T09:00:01.638Z</time></trkpt><trkpt lat="45.4208233" lon="10.5106663"><ele>121.39999999999999</ele><time>2026-03-28T09:00:02.633Z</time></trkpt><trkpt lat="45.4207317" lon="10.5107797"><ele>122.0</ele><time>2026-03-28T09:00:03.627Z</time></trkpt><trkpt lat="45.4206669" lon="10.5109099"><ele>122.0</ele><time>2026-03-28T09:00:04.639Z</time></trkpt><trkpt lat="45.4206246" lon="10.5110781"><ele>122.0</ele><time>2026-03-28T09:00:05.636Z</time></trkpt><trkpt lat="45.4205836" lon="10.5112334"><ele>122.0</ele><time>2026-03-28T09:00:06.625Z</time></trkpt><trkpt lat="45.4205881" lon="10.5114042"><ele>122.0</ele><time>2026-03-28T09:00:07.623Z</time></trkpt><trkpt lat="45.4206265" lon="10.5115685"><ele>121.8</ele><time>2026-03-28T09:00:08.623Z</time></trkpt><trkpt lat="45.4206931" lon="10.5117202"><ele>121.6</ele><time>2026-03-28T09:00:09.624Z</time></trkpt><trkpt lat="45.4207678" lon="10.5118581"><ele>121.39999999999999</ele><time>2026-03-28T09:00:10.63Z</time></trkpt><trkpt lat="45.420834" lon="10.5119609"><ele>121.19999999999999</ele><time>2026-03-28T09:00:11.629Z</time></trkpt><trkpt lat="45.4208881" lon="10.5120554"><ele>121.0</ele><time>2026-03-28T09:00:12.645Z</time></trkpt><trkpt lat="45.4208918" lon="10.5121842"><ele>121.0</ele><time>2026-03-28T09:00:14.645Z</time></trkpt><trkpt lat="45.4207911" lon="10.5122562"><ele>121.0</ele><time>2026-03-28T09:00:16.634Z</time></trkpt><trkpt lat="45.4207185" lon="10.5122663"><ele>121.0</ele><time>2026-03-28T09:00:17.642Z</time></trkpt><trkpt lat="45.4206159" lon="10.512283"><ele>121.0</ele><time>2026-03-28T09:00:18.645Z</time></trkpt><trkpt lat="45.4204776" lon="10.5123283"><ele>121.0</ele><time>2026-03-28T09:00:19.631Z</time></trkpt><trkpt lat="45.4203231" lon="10.5124029"><ele>121.0</ele><time>2026-03-28T09:00:20.634Z</time></trkpt><trkpt lat="45.4201851" lon="10.512481"><ele>121.0</ele><time>2026-03-28T09:00:21.636Z</time></trkpt><trkpt lat="45.4200179" lon="10.5125411"><ele>121.0</ele><time>2026-03-28T09:00:22.646Z</time></trkpt><trkpt lat="45.4198688" lon="10.5126075"><ele>121.0</ele><time>2026-03-28T09:00:23.644Z</time></trkpt><trkpt lat="45.4197148" lon="10.5126601"><ele>121.0</ele><time>2026-03-28T09:00:24.651Z</time></trkpt><trkpt lat="45.4195412" lon="10.5127145"><ele>121.0</ele><time>2026-03-28T09:00:25.641Z</time></trkpt><trkpt lat="45.4193781" lon="10.5127382"><ele>121.33333333333334</ele><time>2026-03-28T09:00:26.635Z</time></trkpt><trkpt lat="45.4192165" lon="10.5127482"><ele>121.66666666666666</ele><time>2026-03-28T09:00:27.647Z</time></trkpt><trkpt lat="45.4190418" lon="10.5127588"><ele>122.0</ele><time>2026-03-28T09:00:28.652Z</time></trkpt><trkpt lat="45.418843" lon="10.5127619"><ele>120.33333333333333</ele><time>2026-03-28T09:00:29.653Z</time></trkpt><trkpt lat="45.4186793" lon="10.5127793"><ele>118.66666666666666</ele><time>2026-03-28T09:00:30.646Z</time></trkpt><trkpt lat="45.4185004" lon="10.5127924"><ele>117.0</ele><time>2026-03-28T09:00:31.649Z</time></trkpt><trkpt lat="45.418319" lon="10.5128098"><ele>117.0</ele><time>2026-03-28T09:00:32.644Z</time></trkpt><trkpt lat="45.418162" lon="10.512834"><ele>117.0</ele><time>2026-03-28T09:00:33.64Z</time></trkpt><trkpt lat="45.418005" lon="10.512825"><ele>117.0</ele><time>2026-03-28T09:00:34.645Z</time></trkpt><trkpt lat="45.4178689" lon="10.5128349"><ele>116.33333333333334</ele><time>2026-03-28T09:00:35.635Z</time></trkpt><trkpt lat="45.4177114" lon="10.512849"><ele>115.66666666666667</ele><time>2026-03-28T09:00:36.638Z</time></trkpt><trkpt lat="45.4175508" lon="10.5128664"><ele>115.0</ele><time>2026-03-28T09:00:37.635Z</time></trkpt><trkpt lat="45.4173772" lon="10.5128782"><ele>115.0</ele><time>2026-03-28T09:00:38.64Z</time></trkpt><trkpt lat="45.4172057" lon="10.5128876"><ele>115.0</ele><time>2026-03-28T09:00:39.649Z</time></trkpt><trkpt lat="45.4170343" lon="10.5129044"><ele>115.0</ele><time>2026-03-28T09:00:40.642Z</time></trkpt><trkpt lat="45.4168534" lon="10.512916"><ele>114.66666666666667</ele><time>2026-03-28T09:00:41.64Z</time></trkpt><trkpt lat="45.4166737" lon="10.5129317"><ele>114.33333333333334</ele><time>2026-03-28T09:00:42.65Z</time></trkpt><trkpt lat="45.4165034" lon="10.5129317"><ele>114.0</ele><time>2026-03-28T09:00:43.646Z</time></trkpt><trkpt lat="45.4163263" lon="10.5129543"><ele>114.66666666666666</ele><time>2026-03-28T09:00:44.647Z</time></trkpt><trkpt lat="45.4161625" lon="10.5129729"><ele>115.33333333333333</ele><time>2026-03-28T09:00:45.644Z</time></trkpt><trkpt lat="45.4159959" lon="10.5129828"><ele>116.0</ele><time>2026-03-28T09:00:46.647Z</time></trkpt><trkpt lat="45.4158561" lon="10.5129933"><ele>116.0</ele><time>2026-03-28T09:00:47.647Z</time></trkpt><trkpt lat="45.4157118" lon="10.5130083"><ele>116.0</ele><time>2026-03-28T09:00:48.643Z</time></trkpt><trkpt lat="45.415586" lon="10.5130073"><ele>116.0</ele><time>2026-03-28T09:00:49.66Z</time></trkpt><trkpt lat="45.4154702" lon="10.5130051"><ele>116.0</ele><time>2026-03-28T09:00:50.651Z</time></trkpt><trkpt lat="45.4153658" lon="10.5129775"><ele>116.16666666666666</ele><time>2026-03-28T09:00:51.646Z</time></trkpt><trkpt lat="45.4152805" lon="10.5129444"><ele>116.33333333333333</ele><time>2026-03-28T09:00:52.647Z</time></trkpt><trkpt lat="45.4152113" lon="10.5129325"><ele>116.5</ele><time>2026-03-28T09:00:53.644Z</time></trkpt><trkpt lat="45.415139" lon="10.5129079"><ele>116.66666666666666</ele><time>2026-03-28T09:00:54.644Z</time></trkpt><trkpt lat="45.4150483" lon="10.5128747"><ele>116.83333333333333</ele><time>2026-03-28T09:00:56.661Z</time></trkpt><trkpt lat="45.4149701" lon="10.5129578"><ele>117.0</ele><time>2026-03-28T09:00:59.64Z</time></trkpt><trkpt lat="45.4149503" lon="10.5130522"><ele>117.0</ele><time>2026-03-28T09:01:00.641Z</time></trkpt><trkpt lat="45.4149448" lon="10.5131676"><ele>117.0</ele><time>2026-03-28T09:01:01.648Z</time></trkpt><trkpt lat="45.4149279" lon="10.513273"><ele>117.0</ele><time>2026-03-28T09:01:02.644Z</time></trkpt><trkpt lat="45.4149279" lon="10.5133909"><ele>117.0</ele><time>2026-03-28T09:01:03.654Z</time></trkpt><trkpt lat="45.4149229" lon="10.5135171"><ele>117.0</ele><time>2026-03-28T09:01:04.642Z</time></trkpt><trkpt lat="45.4149206" lon="10.5136346"><ele>117.0</ele><time>2026-03-28T09:01:05.64Z</time></trkpt><trkpt lat="45.4149364" lon="10.5137294"><ele>116.8</ele><time>2026-03-28T09:01:06.647Z</time></trkpt><trkpt lat="45.4149496" lon="10.5138884"><ele>116.6</ele><time>2026-03-28T09:01:08.639Z</time></trkpt><trkpt lat="45.4149094" lon="10.5140066"><ele>116.39999999999999</ele><time>2026-03-28T09:01:10.63Z</time></trkpt><trkpt lat="45.4147881" lon="10.51407"><ele>116.19999999999999</ele><time>2026-03-28T09:01:12.623Z</time></trkpt><trkpt lat="45.4146833" lon="10.5140662"><ele>116.0</ele><time>2026-03-28T09:01:13.658Z</time></trkpt><trkpt lat="45.4145502" lon="10.5140555"><ele>116.0</ele><time>2026-03-28T09:01:14.634Z</time></trkpt><trkpt lat="45.4144092" lon="10.5140535"><ele>116.0</ele><time>2026-03-28T09:01:15.642Z</time></trkpt><trkpt lat="45.4142634" lon="10.5140778"><ele>116.0</ele><time>2026-03-28T09:01:16.623Z</time></trkpt><trkpt lat="45.4141304" lon="10.5141141"><ele>116.0</ele><time>2026-03-28T09:01:17.64Z</time></trkpt><trkpt lat="45.4139914" lon="10.5141803"><ele>116.0</ele><time>2026-03-28T09:01:18.639Z</time></trkpt><trkpt lat="45.413865" lon="10.5142475"><ele>116.0</ele><time>2026-03-28T09:01:19.64Z</time></trkpt><trkpt lat="45.4137405" lon="10.5142971"><ele>116.0</ele><time>2026-03-28T09:01:20.63Z</time></trkpt><trkpt lat="45.4136426" lon="10.5143228"><ele>116.0</ele><time>2026-03-28T09:01:21.643Z</time></trkpt><trkpt lat="45.4135543" lon="10.5143612"><ele>116.0</ele><time>2026-03-28T09:01:22.64Z</time></trkpt><trkpt lat="45.4134812" lon="10.5144134"><ele>116.0</ele><time>2026-03-28T09:01:23.635Z</time></trkpt><trkpt lat="45.4134227" lon="10.5145053"><ele>116.0</ele><time>2026-03-28T09:01:24.634Z</time></trkpt><trkpt lat="45.4133795" lon="10.5146523"><ele>116.0</ele><time>2026-03-28T09:01:25.641Z</time></trkpt><trkpt lat="45.4133497" lon="10.5148179"><ele>116.0</ele><time>2026-03-28T09:01:26.639Z</time></trkpt><trkpt lat="45.4133259" lon="10.515007"><ele>116.0</ele><time>2026-03-28T09:01:27.634Z</time></trkpt><trkpt lat="45.413299" lon="10.5152194"><ele>116.0</ele><time>2026-03-28T09:01:28.625Z</time></trkpt><trkpt lat="45.4132499" lon="10.5154698"><ele>116.0</ele><time>2026-03-28T09:01:29.643Z</time></trkpt><trkpt lat="45.4131983" lon="10.5156849"><ele>116.0</ele><time>2026-03-28T09:01:30.64Z</time></trkpt><trkpt lat="45.4131395" lon="10.5158933"><ele>116.0</ele><time>2026-03-28T09:01:31.635Z</time></trkpt><trkpt lat="45.4130601" lon="10.5160815"><ele>116.0</ele><time>2026-03-28T09:01:32.637Z</time></trkpt><trkpt lat="45.4129972" lon="10.5162573"><ele>115.5</ele><time>2026-03-28T09:01:33.639Z</time></trkpt><trkpt lat="45.4129311" lon="10.5164386"><ele>115.0</ele><time>2026-03-28T09:01:34.636Z</time></trkpt><trkpt lat="45.4128602" lon="10.5166235"><ele>114.5</ele><time>2026-03-28T09:01:35.634Z</time></trkpt><trkpt lat="45.4127959" lon="10.5168131"><ele>114.0</ele><time>2026-03-28T09:01:36.635Z</time></trkpt><trkpt lat="45.4127269" lon="10.517001"><ele>114.0</ele><time>2026-03-28T09:01:37.647Z</time></trkpt><trkpt lat="45.4126692" lon="10.5171939"><ele>114.0</ele><time>2026-03-28T09:01:38.639Z</time></trkpt><trkpt lat="45.4126144" lon="10.5173838"><ele>114.0</ele><time>2026-03-28T09:01:39.626Z</time></trkpt><trkpt lat="45.4125473" lon="10.5175484"><ele>114.0</ele><time>2026-03-28T09:01:40.638Z</time></trkpt><trkpt lat="45.4124549" lon="10.5176756"><ele>114.0</ele><time>2026-03-28T09:01:41.629Z</time></trkpt><trkpt lat="45.4123411" lon="10.517803"><ele>114.0</ele><time>2026-03-28T09:01:42.637Z</time></trkpt><trkpt lat="45.4122296" lon="10.5179184"><ele>114.0</ele><time>2026-03-28T09:01:43.658Z</time></trkpt><trkpt lat="45.412109" lon="10.5180305"><ele>114.0</ele><time>2026-03-28T09:01:44.653Z</time></trkpt><trkpt lat="45.4120055" lon="10.5181381"><ele>115.25</ele><time>2026-03-28T09:01:45.652Z</time></trkpt><trkpt lat="45.4119242" lon="10.5182606"><ele>116.5</ele><time>2026-03-28T09:01:46.644Z</time></trkpt><trkpt lat="45.4118513" lon="10.5184138"><ele>117.75</ele><time>2026-03-28T09:01:47.654Z</time></trkpt><trkpt lat="45.4117699" lon="10.5185858"><ele>119.0</ele><time>2026-03-28T09:01:48.653Z</time></trkpt><trkpt lat="45.4116948" lon="10.5187477"><ele>119.0</ele><time>2026-03-28T09:01:49.657Z</time></trkpt><trkpt lat="45.411618" lon="10.518885"><ele>119.0</ele><time>2026-03-28T09:01:50.649Z</time></trkpt><trkpt lat="45.4115513" lon="10.5190113"><ele>119.0</ele><time>2026-03-28T09:01:51.643Z</time></trkpt><trkpt lat="45.4114985" lon="10.5191097"><ele>119.0</ele><time>2026-03-28T09:01:52.634Z</time></trkpt><trkpt lat="45.4114551" lon="10.5191994"><ele>119.0</ele><time>2026-03-28T09:01:53.634Z</time></trkpt><trkpt lat="45.4114234" lon="10.5193355"><ele>119.0</ele><time>2026-03-28T09:01:55.634Z</time></trkpt><trkpt lat="45.4114618" lon="10.5194711"><ele>119.0</ele><time>2026-03-28T09:01:57.642Z</time></trkpt><trkpt lat="45.4115019" lon="10.5195423"><ele>119.0</ele><time>2026-03-28T09:01:58.635Z</time></trkpt><trkpt lat="45.4115644" lon="10.5196257"><ele>119.0</ele><time>2026-03-28T09:01:59.633Z</time></trkpt><trkpt lat="45.4116209" lon="10.5197333"><ele>119.0</ele><time>2026-03-28T09:02:00.629Z</time></trkpt><trkpt lat="45.4116582" lon="10.5198736"><ele>118.5</ele><time>2026-03-28T09:02:01.647Z</time></trkpt><trkpt lat="45.4116595" lon="10.5200489"><ele>118.0</ele><time>2026-03-28T09:02:02.64Z</time></trkpt><trkpt lat="45.4116469" lon="10.5202322"><ele>117.5</ele><time>2026-03-28T09:02:03.648Z</time></trkpt><trkpt lat="45.4116297" lon="10.5204155"><ele>117.0</ele><time>2026-03-28T09:02:04.641Z</time></trkpt><trkpt lat="45.4116257" lon="10.5205833"><ele>116.83333333333333</ele><time>2026-03-28T09:02:05.637Z</time></trkpt><trkpt lat="45.41162" lon="10.5207209"><ele>116.66666666666666</ele><time>2026-03-28T09:02:06.627Z</time></trkpt><trkpt lat="45.4116195" lon="10.5208288"><ele>116.5</ele><time>2026-03-28T09:02:07.647Z</time></trkpt><trkpt lat="45.4116397" lon="10.5209278"><ele>116.33333333333333</ele><time>2026-03-28T09:02:08.644Z</time></trkpt><trkpt lat="45.4116933" lon="10.5210137"><ele>116.16666666666666</ele><time>2026-03-28T09:02:09.649Z</time></trkpt><trkpt lat="45.4117698" lon="10.5210927"><ele>116.0</ele><time>2026-03-28T09:02:10.652Z</time></trkpt><trkpt lat="45.4118853" lon="10.521155"><ele>116.0</ele><time>2026-03-28T09:02:11.647Z</time></trkpt><trkpt lat="45.412006" lon="10.5212108"><ele>116.0</ele><time>2026-03-28T09:02:12.642Z</time></trkpt><trkpt lat="45.4120962" lon="10.5212593"><ele>116.0</ele><time>2026-03-28T09:02:13.643Z</time></trkpt><trkpt lat="45.4121679" lon="10.5213305"><ele>116.0</ele><time>2026-03-28T09:02:14.643Z</time></trkpt><trkpt lat="45.4122389" lon="10.5214221"><ele>116.0</ele><time>2026-03-28T09:02:15.65Z</time></trkpt><trkpt lat="45.4122746" lon="10.5215539"><ele>115.8</ele><time>2026-03-28T09:02:16.652Z</time></trkpt><trkpt lat="45.4122764" lon="10.5217092"><ele>115.6</ele><time>2026-03-28T09:02:17.631Z</time></trkpt><trkpt lat="45.4122491" lon="10.5218524"><ele>115.4</ele><time>2026-03-28T09:02:18.619Z</time></trkpt><trkpt lat="45.4122134" lon="10.5219805"><ele>115.2</ele><time>2026-03-28T09:02:19.633Z</time></trkpt><trkpt lat="45.4121769" lon="10.5220773"><ele>115.0</ele><time>2026-03-28T09:02:20.642Z</time></trkpt><trkpt lat="45.4121234" lon="10.5222012"><ele>116.0</ele><time>2026-03-28T09:02:22.637Z</time></trkpt><trkpt lat="45.412177" lon="10.5223081"><ele>117.0</ele><time>2026-03-28T09:02:24.638Z</time></trkpt><trkpt lat="45.412235" lon="10.522356"><ele>118.0</ele><time>2026-03-28T09:02:25.636Z</time></trkpt><trkpt lat="45.4123114" lon="10.5224042"><ele>119.0</ele><time>2026-03-28T09:02:26.626Z</time></trkpt><trkpt lat="45.4124174" lon="10.5224567"><ele>120.0</ele><time>2026-03-28T09:02:27.644Z</time></trkpt><trkpt lat="45.4125465" lon="10.5225087"><ele>120.0</ele><time>2026-03-28T09:02:28.643Z</time></trkpt><trkpt lat="45.4126799" lon="10.5225582"><ele>120.0</ele><time>2026-03-28T09:02:29.64Z</time></trkpt><trkpt lat="45.4128308" lon="10.5226058"><ele>120.0</ele><time>2026-03-28T09:02:30.621Z</time></trkpt><trkpt lat="45.4129744" lon="10.5226558"><ele>120.0</ele><time>2026-03-28T09:02:31.63Z</time></trkpt><trkpt lat="45.4131036" lon="10.522713"><ele>120.0</ele><time>2026-03-28T09:02:32.633Z</time></trkpt><trkpt lat="45.4132205" lon="10.5227722"><ele>120.0</ele><time>2026-03-28T09:02:33.63Z</time></trkpt><trkpt lat="45.4133179" lon="10.5228036"><ele>120.0</ele><time>2026-03-28T09:02:34.623Z</time></trkpt><trkpt lat="45.4134272" lon="10.5228686"><ele>120.0</ele><time>2026-03-28T09:02:35.63Z</time></trkpt><trkpt lat="45.4135465" lon="10.5229134"><ele>119.5</ele><time>2026-03-28T09:02:36.631Z</time></trkpt><trkpt lat="45.4136707" lon="10.522963"><ele>119.0</ele><time>2026-03-28T09:02:37.643Z</time></trkpt><trkpt lat="45.4138012" lon="10.5230026"><ele>118.5</ele><time>2026-03-28T09:02:38.635Z</time></trkpt><trkpt lat="45.4139268" lon="10.5230334"><ele>118.0</ele><time>2026-03-28T09:02:39.63Z</time></trkpt><trkpt lat="45.4140288" lon="10.5230569"><ele>117.4</ele><time>2026-03-28T09:02:40.633Z</time></trkpt><trkpt lat="45.4141121" lon="10.5230803"><ele>116.80000000000001</ele><time>2026-03-28T09:02:41.636Z</time></trkpt><trkpt lat="45.4142279" lon="10.5230883"><ele>116.2</ele><time>2026-03-28T09:02:43.64Z</time></trkpt><trkpt lat="45.4143189" lon="10.5231572"><ele>115.6</ele><time>2026-03-28T09:02:45.653Z</time></trkpt><trkpt lat="45.4143287" lon="10.5232509"><ele>115.0</ele><time>2026-03-28T09:02:46.643Z</time></trkpt><trkpt lat="45.4143197" lon="10.5233717"><ele>115.0</ele><time>2026-03-28T09:02:47.651Z</time></trkpt><trkpt lat="45.4142841" lon="10.5235111"><ele>115.0</ele><time>2026-03-28T09:02:48.634Z</time></trkpt><trkpt lat="45.4142405" lon="10.5236626"><ele>115.0</ele><time>2026-03-28T09:02:49.646Z</time></trkpt><trkpt lat="45.4141949" lon="10.523826"><ele>115.0</ele><time>2026-03-28T09:02:50.643Z</time></trkpt><trkpt lat="45.4141588" lon="10.523976"><ele>115.0</ele><time>2026-03-28T09:02:51.642Z</time></trkpt><trkpt lat="45.4141273" lon="10.5240813"><ele>115.0</ele><time>2026-03-28T09:02:52.651Z</time></trkpt><trkpt lat="45.4141089" lon="10.5242429"><ele>115.0</ele><time>2026-03-28T09:02:54.644Z</time></trkpt><trkpt lat="45.4142018" lon="10.5243828"><ele>115.0</ele><time>2026-03-28T09:02:56.637Z</time></trkpt><trkpt lat="45.4142816" lon="10.5244255"><ele>115.0</ele><time>2026-03-28T09:02:57.645Z</time></trkpt><trkpt lat="45.4143894" lon="10.5244795"><ele>115.0</ele><time>2026-03-28T09:02:58.641Z</time></trkpt><trkpt lat="45.4145153" lon="10.5245581"><ele>115.0</ele><time>2026-03-28T09:02:59.642Z</time></trkpt><trkpt lat="45.4146515" lon="10.5246597"><ele>115.0</ele><time>2026-03-28T09:03:00.652Z</time></trkpt><trkpt lat="45.4147862" lon="10.5247749"><ele>115.0</ele><time>2026-03-28T09:03:01.652Z</time></trkpt><trkpt lat="45.41494" lon="10.5249095"><ele>115.33333333333334</ele><time>2026-03-28T09:03:02.659Z</time></trkpt><trkpt lat="45.4150711" lon="10.5250353"><ele>115.66666666666666</ele><time>2026-03-28T09:03:03.648Z</time></trkpt><trkpt lat="45.4152044" lon="10.5251586"><ele>116.0</ele><time>2026-03-28T09:03:04.654Z</time></trkpt><trkpt lat="45.4153519" lon="10.5252849"><ele>116.0</ele><time>2026-03-28T09:03:05.646Z</time></trkpt><trkpt lat="45.4154841" lon="10.5254062"><ele>116.0</ele><time>2026-03-28T09:03:06.645Z</time></trkpt><trkpt lat="45.4156076" lon="10.5255261"><ele>116.0</ele><time>2026-03-28T09:03:07.655Z</time></trkpt><trkpt lat="45.4157282" lon="10.5256447"><ele>115.66666666666666</ele><time>2026-03-28T09:03:08.65Z</time></trkpt><trkpt lat="45.4158515" lon="10.5257639"><ele>115.33333333333334</ele><time>2026-03-28T09:03:09.657Z</time></trkpt><trkpt lat="45.4159837" lon="10.52589"><ele>115.0</ele><time>2026-03-28T09:03:10.648Z</time></trkpt><trkpt lat="45.4161187" lon="10.5260128"><ele>115.0</ele><time>2026-03-28T09:03:11.648Z</time></trkpt><trkpt lat="45.4162577" lon="10.5261286"><ele>115.0</ele><time>2026-03-28T09:03:12.651Z</time></trkpt><trkpt lat="45.4163883" lon="10.5262372"><ele>115.0</ele><time>2026-03-28T09:03:13.648Z</time></trkpt><trkpt lat="45.4165165" lon="10.5263481"><ele>114.33333333333334</ele><time>2026-03-28T09:03:14.648Z</time></trkpt><trkpt lat="45.4166533" lon="10.526462"><ele>113.66666666666666</ele><time>2026-03-28T09:03:15.648Z</time></trkpt><trkpt lat="45.4167886" lon="10.5265472"><ele>113.0</ele><time>2026-03-28T09:03:16.652Z</time></trkpt><trkpt lat="45.4169431" lon="10.5266617"><ele>113.0</ele><time>2026-03-28T09:03:17.652Z</time></trkpt><trkpt lat="45.41709" lon="10.5267628"><ele>113.0</ele><time>2026-03-28T09:03:18.649Z</time></trkpt><trkpt lat="45.417218" lon="10.526849"><ele>113.0</ele><time>2026-03-28T09:03:19.65Z</time></trkpt><trkpt lat="45.4173445" lon="10.5269366"><ele>113.0</ele><time>2026-03-28T09:03:20.649Z</time></trkpt><trkpt lat="45.4174833" lon="10.5270266"><ele>113.66666666666666</ele><time>2026-03-28T09:03:21.649Z</time></trkpt><trkpt lat="45.417638" lon="10.5271188"><ele>114.33333333333334</ele><time>2026-03-28T09:03:22.647Z</time></trkpt><trkpt lat="45.4177825" lon="10.5272087"><ele>115.0</ele><time>2026-03-28T09:03:23.645Z</time></trkpt><trkpt lat="45.4179283" lon="10.5272987"><ele>116.0</ele><time>2026-03-28T09:03:24.648Z</time></trkpt><trkpt lat="45.4180836" lon="10.5273863"><ele>117.0</ele><time>2026-03-28T09:03:25.651Z</time></trkpt><trkpt lat="45.4182363" lon="10.5274777"><ele>118.0</ele><time>2026-03-28T09:03:26.642Z</time></trkpt><trkpt lat="45.4183749" lon="10.5275582"><ele>118.0</ele><time>2026-03-28T09:03:27.65Z</time></trkpt><trkpt lat="45.4185099" lon="10.5276478"><ele>118.0</ele><time>2026-03-28T09:03:28.64Z</time></trkpt><trkpt lat="45.4186574" lon="10.5277475"><ele>118.0</ele><time>2026-03-28T09:03:29.648Z</time></trkpt><trkpt lat="45.4187807" lon="10.5278293"><ele>118.0</ele><time>2026-03-28T09:03:30.657Z</time></trkpt><trkpt lat="45.4188922" lon="10.5279095"><ele>118.0</ele><time>2026-03-28T09:03:31.648Z</time></trkpt><trkpt lat="45.4190025" lon="10.5279675"><ele>118.00000000000001</ele><time>2026-03-28T09:03:32.655Z</time></trkpt><trkpt lat="45.419112" lon="10.5280367"><ele>118.00000000000001</ele><time>2026-03-28T09:03:33.653Z</time></trkpt><trkpt lat="45.4191866" lon="10.5281298"><ele>118.0</ele><time>2026-03-28T09:03:34.653Z</time></trkpt><trkpt lat="45.4192551" lon="10.5282328"><ele>118.0</ele><time>2026-03-28T09:03:35.639Z</time></trkpt><trkpt lat="45.4193288" lon="10.5283454"><ele>118.0</ele><time>2026-03-28T09:03:36.644Z</time></trkpt><trkpt lat="45.4194018" lon="10.528449"><ele>118.00000000000001</ele><time>2026-03-28T09:03:37.638Z</time></trkpt><trkpt lat="45.4194749" lon="10.5285407"><ele>118.00000000000001</ele><time>2026-03-28T09:03:38.637Z</time></trkpt><trkpt lat="45.4195804" lon="10.528605"><ele>118.0</ele><time>2026-03-28T09:03:39.642Z</time></trkpt><trkpt lat="45.4197005" lon="10.5286623"><ele>118.0</ele><time>2026-03-28T09:03:40.644Z</time></trkpt><trkpt lat="45.4198244" lon="10.5287257"><ele>118.75</ele><time>2026-03-28T09:03:41.646Z</time></trkpt><trkpt lat="45.4199357" lon="10.5288039"><ele>119.5</ele><time>2026-03-28T09:03:42.65Z</time></trkpt><trkpt lat="45.4200369" lon="10.5288983"><ele>120.25</ele><time>2026-03-28T09:03:43.646Z</time></trkpt><trkpt lat="45.4201307" lon="10.5290059"><ele>121.0</ele><time>2026-03-28T09:03:44.646Z</time></trkpt><trkpt lat="45.4202136" lon="10.5291383"><ele>121.0</ele><time>2026-03-28T09:03:45.643Z</time></trkpt><trkpt lat="45.4202964" lon="10.5292725"><ele>121.0</ele><time>2026-03-28T09:03:46.645Z</time></trkpt><trkpt lat="45.4203743" lon="10.5293998"><ele>121.0</ele><time>2026-03-28T09:03:47.653Z</time></trkpt><trkpt lat="45.420438" lon="10.5295261"><ele>121.0</ele><time>2026-03-28T09:03:48.654Z</time></trkpt><trkpt lat="45.420505" lon="10.5296447"><ele>121.19999999999999</ele><time>2026-03-28T09:03:49.657Z</time></trkpt><trkpt lat="45.4205727" lon="10.5297657"><ele>121.39999999999999</ele><time>2026-03-28T09:03:50.654Z</time></trkpt><trkpt lat="45.4206429" lon="10.5298701"><ele>121.6</ele><time>2026-03-28T09:03:51.656Z</time></trkpt><trkpt lat="45.4207133" lon="10.529978"><ele>121.8</ele><time>2026-03-28T09:03:52.651Z</time></trkpt><trkpt lat="45.4207803" lon="10.5300786"><ele>122.0</ele><time>2026-03-28T09:03:53.651Z</time></trkpt><trkpt lat="45.4208475" lon="10.5301745"><ele>122.0</ele><time>2026-03-28T09:03:54.651Z</time></trkpt><trkpt lat="45.420921" lon="10.5302567"><ele>121.99999999999999</ele><time>2026-03-28T09:03:55.641Z</time></trkpt><trkpt lat="45.4210029" lon="10.5303304"><ele>121.99999999999999</ele><time>2026-03-28T09:03:56.647Z</time></trkpt><trkpt lat="45.4210884" lon="10.5303906"><ele>122.0</ele><time>2026-03-28T09:03:57.635Z</time></trkpt><trkpt lat="45.4211991" lon="10.5304412"><ele>122.0</ele><time>2026-03-28T09:03:58.635Z</time></trkpt><trkpt lat="45.421317" lon="10.5304693"><ele>123.19999999999999</ele><time>2026-03-28T09:03:59.643Z</time></trkpt><trkpt lat="45.4214344" lon="10.530478"><ele>124.39999999999999</ele><time>2026-03-28T09:04:00.659Z</time></trkpt><trkpt lat="45.4215282" lon="10.5304702"><ele>125.60000000000001</ele><time>2026-03-28T09:04:01.663Z</time></trkpt><trkpt lat="45.4216182" lon="10.5304602"><ele>126.80000000000001</ele><time>2026-03-28T09:04:02.647Z</time></trkpt><trkpt lat="45.4217132" lon="10.5304704"><ele>128.0</ele><time>2026-03-28T09:04:03.641Z</time></trkpt><trkpt lat="45.4218168" lon="10.5305023"><ele>128.0</ele><time>2026-03-28T09:04:04.645Z</time></trkpt><trkpt lat="45.4219146" lon="10.5305599"><ele>128.0</ele><time>2026-03-28T09:04:05.634Z</time></trkpt><trkpt lat="45.4219919" lon="10.5306303"><ele>128.0</ele><time>2026-03-28T09:04:06.638Z</time></trkpt><trkpt lat="45.4220557" lon="10.5307401"><ele>128.0</ele><time>2026-03-28T09:04:07.627Z</time></trkpt><trkpt lat="45.4221042" lon="10.5308837"><ele>128.0</ele><time>2026-03-28T09:04:08.628Z</time></trkpt><trkpt lat="45.4221479" lon="10.5310282"><ele>128.66666666666666</ele><time>2026-03-28T09:04:09.625Z</time></trkpt><trkpt lat="45.422168" lon="10.5311609"><ele>129.33333333333331</ele><time>2026-03-28T09:04:10.634Z</time></trkpt><trkpt lat="45.4221754" lon="10.5312693"><ele>130.0</ele><time>2026-03-28T09:04:11.634Z</time></trkpt><trkpt lat="45.4221785" lon="10.5313599"><ele>130.66666666666666</ele><time>2026-03-28T09:04:12.645Z</time></trkpt><trkpt lat="45.4221662" lon="10.5314573"><ele>131.33333333333334</ele><time>2026-03-28T09:04:13.646Z</time></trkpt><trkpt lat="45.4221495" lon="10.5315949"><ele>132.0</ele><time>2026-03-28T09:04:15.658Z</time></trkpt><trkpt lat="45.422131" lon="10.5317288"><ele>132.2</ele><time>2026-03-28T09:04:17.648Z</time></trkpt><trkpt lat="45.4221116" lon="10.5318233"><ele>132.39999999999998</ele><time>2026-03-28T09:04:18.642Z</time></trkpt><trkpt lat="45.4220782" lon="10.5319392"><ele>132.60000000000002</ele><time>2026-03-28T09:04:19.631Z</time></trkpt><trkpt lat="45.422033" lon="10.5320722"><ele>132.8</ele><time>2026-03-28T09:04:20.627Z</time></trkpt><trkpt lat="45.4219725" lon="10.5322262"><ele>133.0</ele><time>2026-03-28T09:04:21.642Z</time></trkpt><trkpt lat="45.4218995" lon="10.5323869"><ele>134.0</ele><time>2026-03-28T09:04:22.641Z</time></trkpt><trkpt lat="45.4218206" lon="10.532531"><ele>135.0</ele><time>2026-03-28T09:04:23.646Z</time></trkpt><trkpt lat="45.4217376" lon="10.532654"><ele>136.0</ele><time>2026-03-28T09:04:24.641Z</time></trkpt><trkpt lat="45.4216414" lon="10.5327755"><ele>137.0</ele><time>2026-03-28T09:04:25.638Z</time></trkpt><trkpt lat="45.4215302" lon="10.5328746"><ele>137.25</ele><time>2026-03-28T09:04:26.637Z</time></trkpt><trkpt lat="45.4214137" lon="10.532946"><ele>137.5</ele><time>2026-03-28T09:04:27.628Z</time></trkpt><trkpt lat="45.4212865" lon="10.5329915"><ele>137.75</ele><time>2026-03-28T09:04:28.635Z</time></trkpt><trkpt lat="45.4211503" lon="10.533025"><ele>138.0</ele><time>2026-03-28T09:04:29.647Z</time></trkpt><trkpt lat="45.4209824" lon="10.5330492"><ele>138.0</ele><time>2026-03-28T09:04:30.644Z</time></trkpt><trkpt lat="45.4208339" lon="10.5331082"><ele>138.0</ele><time>2026-03-28T09:04:31.642Z</time></trkpt><trkpt lat="45.4206867" lon="10.533174"><ele>138.0</ele><time>2026-03-28T09:04:32.654Z</time></trkpt><trkpt lat="45.4205382" lon="10.5332369"><ele>135.33333333333334</ele><time>2026-03-28T09:04:33.643Z</time></trkpt><trkpt lat="45.4203979" lon="10.5333374"><ele>132.66666666666669</ele><time>2026-03-28T09:04:34.641Z</time></trkpt><trkpt lat="45.4202451" lon="10.5334344"><ele>130.0</ele><time>2026-03-28T09:04:35.65Z</time></trkpt><trkpt lat="45.4201037" lon="10.5335409"><ele>130.0</ele><time>2026-03-28T09:04:36.65Z</time></trkpt><trkpt lat="45.4199548" lon="10.5336503"><ele>130.0</ele><time>2026-03-28T09:04:37.65Z</time></trkpt><trkpt lat="45.419821" lon="10.533775"><ele>130.0</ele><time>2026-03-28T09:04:38.65Z</time></trkpt><trkpt lat="45.4196806" lon="10.533896"><ele>130.66666666666669</ele><time>2026-03-28T09:04:39.65Z</time></trkpt><trkpt lat="45.4195472" lon="10.5340232"><ele>131.33333333333334</ele><time>2026-03-28T09:04:40.649Z</time></trkpt><trkpt lat="45.4194201" lon="10.5341446"><ele>132.0</ele><time>2026-03-28T09:04:41.649Z</time></trkpt><trkpt lat="45.419293" lon="10.5342524"><ele>132.0</ele><time>2026-03-28T09:04:42.647Z</time></trkpt><trkpt lat="45.419163" lon="10.5343726"><ele>132.0</ele><time>2026-03-28T09:04:43.642Z</time></trkpt><trkpt lat="45.4190558" lon="10.5345033"><ele>132.0</ele><time>2026-03-28T09:04:44.63Z</time></trkpt><trkpt lat="45.4189161" lon="10.5345693"><ele>132.0</ele><time>2026-03-28T09:04:45.627Z</time></trkpt><trkpt lat="45.418773" lon="10.5346582"><ele>131.25</ele><time>2026-03-28T09:04:46.626Z</time></trkpt><trkpt lat="45.4186331" lon="10.534715"><ele>130.5</ele><time>2026-03-28T09:04:47.631Z</time></trkpt><trkpt lat="45.418491" lon="10.5347679"><ele>129.75</ele><time>2026-03-28T09:04:48.632Z</time></trkpt><trkpt lat="45.4183493" lon="10.534805"><ele>129.0</ele><time>2026-03-28T09:04:49.639Z</time></trkpt><trkpt lat="45.4182073" lon="10.534846"><ele>129.0</ele><time>2026-03-28T09:04:50.647Z</time></trkpt><trkpt lat="45.4180736" lon="10.5349252"><ele>129.0</ele><time>2026-03-28T09:04:51.648Z</time></trkpt><trkpt lat="45.4179573" lon="10.535016"><ele>129.0</ele><time>2026-03-28T09:04:52.637Z</time></trkpt><trkpt lat="45.4178398" lon="10.5351157"><ele>129.0</ele><time>2026-03-28T09:04:53.639Z</time></trkpt><trkpt lat="45.417738" lon="10.5352164"><ele>128.75</ele><time>2026-03-28T09:04:54.638Z</time></trkpt><trkpt lat="45.4176335" lon="10.5353238"><ele>128.5</ele><time>2026-03-28T09:04:55.641Z</time></trkpt><trkpt lat="45.4175134" lon="10.5354601"><ele>128.25</ele><time>2026-03-28T09:04:56.641Z</time></trkpt><trkpt lat="45.4173701" lon="10.5355487"><ele>128.0</ele><time>2026-03-28T09:04:57.636Z</time></trkpt><trkpt lat="45.4172533" lon="10.5356335"><ele>127.33333333333333</ele><time>2026-03-28T09:04:58.63Z</time></trkpt><trkpt lat="45.417119" lon="10.5356954"><ele>126.66666666666666</ele><time>2026-03-28T09:04:59.626Z</time></trkpt><trkpt lat="45.4169527" lon="10.5357558"><ele>126.0</ele><time>2026-03-28T09:05:00.623Z</time></trkpt><trkpt lat="45.4167916" lon="10.5357698"><ele>126.0</ele><time>2026-03-28T09:05:01.628Z</time></trkpt><trkpt lat="45.4166506" lon="10.5358082"><ele>126.0</ele><time>2026-03-28T09:05:02.633Z</time></trkpt><trkpt lat="45.4164969" lon="10.5358481"><ele>126.0</ele><time>2026-03-28T09:05:03.642Z</time></trkpt><trkpt lat="45.4163484" lon="10.5358983"><ele>126.33333333333334</ele><time>2026-03-28T09:05:04.632Z</time></trkpt><trkpt lat="45.4162246" lon="10.5359824"><ele>126.66666666666667</ele><time>2026-03-28T09:05:05.628Z</time></trkpt><trkpt lat="45.4160812" lon="10.5360703"><ele>127.0</ele><time>2026-03-28T09:05:06.633Z</time></trkpt><trkpt lat="45.4159557" lon="10.5362331"><ele>127.0</ele><time>2026-03-28T09:05:07.646Z</time></trkpt><trkpt lat="45.4158278" lon="10.5363954"><ele>127.0</ele><time>2026-03-28T09:05:08.638Z</time></trkpt><trkpt lat="45.4157145" lon="10.5365459"><ele>127.0</ele><time>2026-03-28T09:05:09.642Z</time></trkpt><trkpt lat="45.4156093" lon="10.5367158"><ele>127.0</ele><time>2026-03-28T09:05:10.636Z</time></trkpt><trkpt lat="45.4155141" lon="10.5368978"><ele>127.0</ele><time>2026-03-28T09:05:11.648Z</time></trkpt><trkpt lat="45.4154131" lon="10.5371124"><ele>127.0</ele><time>2026-03-28T09:05:12.646Z</time></trkpt><trkpt lat="45.4153094" lon="10.537315"><ele>126.66666666666667</ele><time>2026-03-28T09:05:13.66Z</time></trkpt><trkpt lat="45.4152166" lon="10.5375256"><ele>126.33333333333334</ele><time>2026-03-28T09:05:14.659Z</time></trkpt><trkpt lat="45.4151255" lon="10.5377088"><ele>126.0</ele><time>2026-03-28T09:05:15.649Z</time></trkpt><trkpt lat="45.4150608" lon="10.5378949"><ele>129.0</ele><time>2026-03-28T09:05:16.649Z</time></trkpt><trkpt lat="45.4149436" lon="10.5380424"><ele>132.0</ele><time>2026-03-28T09:05:17.652Z</time></trkpt><trkpt lat="45.414824" lon="10.538207"><ele>135.0</ele><time>2026-03-28T09:05:18.646Z</time></trkpt><trkpt lat="45.4146788" lon="10.5383376"><ele>134.75</ele><time>2026-03-28T09:05:19.641Z</time></trkpt><trkpt lat="45.4145447" lon="10.538465"><ele>134.5</ele><time>2026-03-28T09:05:20.649Z</time></trkpt><trkpt lat="45.4144137" lon="10.5385812"><ele>134.25</ele><time>2026-03-28T09:05:21.64Z</time></trkpt><trkpt lat="45.4143105" lon="10.538689"><ele>134.0</ele><time>2026-03-28T09:05:22.643Z</time></trkpt><trkpt lat="45.4141851" lon="10.5388045"><ele>134.0</ele><time>2026-03-28T09:05:23.641Z</time></trkpt><trkpt lat="45.4140532" lon="10.5389318"><ele>134.0</ele><time>2026-03-28T09:05:24.645Z</time></trkpt><trkpt lat="45.4139119" lon="10.5390694"><ele>134.0</ele><time>2026-03-28T09:05:25.646Z</time></trkpt><trkpt lat="45.4137775" lon="10.5392034"><ele>131.0</ele><time>2026-03-28T09:05:26.649Z</time></trkpt><trkpt lat="45.4136368" lon="10.5393335"><ele>128.0</ele><time>2026-03-28T09:05:27.642Z</time></trkpt><trkpt lat="45.4134994" lon="10.5394498"><ele>125.0</ele><time>2026-03-28T09:05:28.641Z</time></trkpt><trkpt lat="45.4133525" lon="10.5395493"><ele>125.25</ele><time>2026-03-28T09:05:29.644Z</time></trkpt><trkpt lat="45.4132069" lon="10.539635"><ele>125.5</ele><time>2026-03-28T09:05:30.634Z</time></trkpt><trkpt lat="45.4130773" lon="10.5397114"><ele>125.75</ele><time>2026-03-28T09:05:31.643Z</time></trkpt><trkpt lat="45.4129636" lon="10.5398081"><ele>126.0</ele><time>2026-03-28T09:05:32.636Z</time></trkpt><trkpt lat="45.4128431" lon="10.5399192"><ele>126.0</ele><time>2026-03-28T09:05:33.633Z</time></trkpt><trkpt lat="45.4127613" lon="10.5400491"><ele>126.0</ele><time>2026-03-28T09:05:34.653Z</time></trkpt><trkpt lat="45.4126861" lon="10.5402118"><ele>126.0</ele><time>2026-03-28T09:05:35.63Z</time></trkpt><trkpt lat="45.412608" lon="10.5403905"><ele>126.0</ele><time>2026-03-28T09:05:36.636Z</time></trkpt><trkpt lat="45.4125333" lon="10.5405964"><ele>127.0</ele><time>2026-03-28T09:05:37.643Z</time></trkpt><trkpt lat="45.4124443" lon="10.5408094"><ele>128.0</ele><time>2026-03-28T09:05:38.642Z</time></trkpt><trkpt lat="45.4123507" lon="10.5410133"><ele>129.0</ele><time>2026-03-28T09:05:39.639Z</time></trkpt><trkpt lat="45.4122676" lon="10.5412153"><ele>129.33333333333334</ele><time>2026-03-28T09:05:40.634Z</time></trkpt><trkpt lat="45.4121599" lon="10.541419"><ele>129.66666666666669</ele><time>2026-03-28T09:05:41.629Z</time></trkpt><trkpt lat="45.4120692" lon="10.5415829"><ele>130.0</ele><time>2026-03-28T09:05:42.63Z</time></trkpt><trkpt lat="45.4119603" lon="10.5417487"><ele>129.0</ele><time>2026-03-28T09:05:43.636Z</time></trkpt><trkpt lat="45.4118581" lon="10.5419337"><ele>128.0</ele><time>2026-03-28T09:05:44.642Z</time></trkpt><trkpt lat="45.411757" lon="10.5420985"><ele>127.0</ele><time>2026-03-28T09:05:45.642Z</time></trkpt><trkpt lat="45.4116636" lon="10.5422798"><ele>126.66666666666667</ele><time>2026-03-28T09:05:46.636Z</time></trkpt><trkpt lat="45.4115738" lon="10.5424778"><ele>126.33333333333334</ele><time>2026-03-28T09:05:47.643Z</time></trkpt><trkpt lat="45.4114961" lon="10.542682"><ele>126.0</ele><time>2026-03-28T09:05:48.638Z</time></trkpt><trkpt lat="45.4114038" lon="10.5428653"><ele>124.5</ele><time>2026-03-28T09:05:49.638Z</time></trkpt><trkpt lat="45.4113086" lon="10.543044"><ele>123.0</ele><time>2026-03-28T09:05:50.64Z</time></trkpt><trkpt lat="45.4112342" lon="10.5432214"><ele>121.5</ele><time>2026-03-28T09:05:51.655Z</time></trkpt><trkpt lat="45.4111851" lon="10.5434018"><ele>120.0</ele><time>2026-03-28T09:05:52.646Z</time></trkpt><trkpt lat="45.411139" lon="10.5435902"><ele>120.5</ele><time>2026-03-28T09:05:53.642Z</time></trkpt><trkpt lat="45.4111013" lon="10.5438002"><ele>121.0</ele><time>2026-03-28T09:05:54.647Z</time></trkpt><trkpt lat="45.4110632" lon="10.5439672"><ele>121.5</ele><time>2026-03-28T09:05:55.633Z</time></trkpt><trkpt lat="45.4109973" lon="10.5441327"><ele>122.0</ele><time>2026-03-28T09:05:56.628Z</time></trkpt><trkpt lat="45.4108895" lon="10.5442923"><ele>122.0</ele><time>2026-03-28T09:05:57.626Z</time></trkpt><trkpt lat="45.4107573" lon="10.5444458"><ele>122.0</ele><time>2026-03-28T09:05:58.623Z</time></trkpt><trkpt lat="45.4106138" lon="10.5445807"><ele>122.0</ele><time>2026-03-28T09:05:59.629Z</time></trkpt><trkpt lat="45.4104771" lon="10.5447215"><ele>121.66666666666666</ele><time>2026-03-28T09:06:00.64Z</time></trkpt><trkpt lat="45.4103343" lon="10.5448616"><ele>121.33333333333334</ele><time>2026-03-28T09:06:01.64Z</time></trkpt><trkpt lat="45.4102194" lon="10.5450178"><ele>121.0</ele><time>2026-03-28T09:06:02.642Z</time></trkpt><trkpt lat="45.4100886" lon="10.545156"><ele>121.0</ele><time>2026-03-28T09:06:03.639Z</time></trkpt><trkpt lat="45.409964" lon="10.5452953"><ele>121.0</ele><time>2026-03-28T09:06:04.651Z</time></trkpt><trkpt lat="45.4098457" lon="10.5454278"><ele>121.0</ele><time>2026-03-28T09:06:05.648Z</time></trkpt><trkpt lat="45.4097266" lon="10.5455501"><ele>119.25</ele><time>2026-03-28T09:06:06.646Z</time></trkpt><trkpt lat="45.4096092" lon="10.5456562"><ele>117.5</ele><time>2026-03-28T09:06:07.644Z</time></trkpt><trkpt lat="45.4095049" lon="10.5457499"><ele>115.75</ele><time>2026-03-28T09:06:08.645Z</time></trkpt><trkpt lat="45.4093853" lon="10.5458293"><ele>114.0</ele><time>2026-03-28T09:06:09.642Z</time></trkpt><trkpt lat="45.40926" lon="10.545892"><ele>114.0</ele><time>2026-03-28T09:06:10.643Z</time></trkpt><trkpt lat="45.4091381" lon="10.5459306"><ele>114.0</ele><time>2026-03-28T09:06:11.644Z</time></trkpt><trkpt lat="45.4090232" lon="10.5459285"><ele>114.0</ele><time>2026-03-28T09:06:12.644Z</time></trkpt><trkpt lat="45.4089025" lon="10.5459251"><ele>114.0</ele><time>2026-03-28T09:06:13.642Z</time></trkpt><trkpt lat="45.4087589" lon="10.5458853"><ele>113.5</ele><time>2026-03-28T09:06:14.648Z</time></trkpt><trkpt lat="45.4086197" lon="10.5458583"><ele>113.0</ele><time>2026-03-28T09:06:15.65Z</time></trkpt><trkpt lat="45.4084734" lon="10.5458263"><ele>112.5</ele><time>2026-03-28T09:06:16.646Z</time></trkpt><trkpt lat="45.4083178" lon="10.5458087"><ele>112.0</ele><time>2026-03-28T09:06:17.657Z</time></trkpt><trkpt lat="45.4081911" lon="10.5458206"><ele>112.0</ele><time>2026-03-28T09:06:18.651Z</time></trkpt><trkpt lat="45.4080664" lon="10.5458225"><ele>112.0</ele><time>2026-03-28T09:06:19.652Z</time></trkpt><trkpt lat="45.407964" lon="10.5458334"><ele>112.0</ele><time>2026-03-28T09:06:20.649Z</time></trkpt><trkpt lat="45.4078446" lon="10.5458648"><ele>112.0</ele><time>2026-03-28T09:06:21.657Z</time></trkpt><trkpt lat="45.4077454" lon="10.5459212"><ele>112.0</ele><time>2026-03-28T09:06:22.65Z</time></trkpt><trkpt lat="45.4076356" lon="10.5459556"><ele>112.0</ele><time>2026-03-28T09:06:23.65Z</time></trkpt><trkpt lat="45.4075157" lon="10.5459841"><ele>112.0</ele><time>2026-03-28T09:06:24.647Z</time></trkpt><trkpt lat="45.4073985" lon="10.5460066"><ele>112.0</ele><time>2026-03-28T09:06:25.647Z</time></trkpt><trkpt lat="45.4072903" lon="10.5460332"><ele>112.0</ele><time>2026-03-28T09:06:26.642Z</time></trkpt><trkpt lat="45.4071932" lon="10.5460779"><ele>111.99999999999999</ele><time>2026-03-28T09:06:27.65Z</time></trkpt><trkpt lat="45.4071001" lon="10.5461531"><ele>111.99999999999999</ele><time>2026-03-28T09:06:28.649Z</time></trkpt><trkpt lat="45.407008" lon="10.5462463"><ele>112.0</ele><time>2026-03-28T09:06:29.65Z</time></trkpt><trkpt lat="45.4069149" lon="10.5463676"><ele>112.0</ele><time>2026-03-28T09:06:30.645Z</time></trkpt><trkpt lat="45.406822" lon="10.5465093"><ele>113.0</ele><time>2026-03-28T09:06:31.652Z</time></trkpt><trkpt lat="45.4067275" lon="10.5466548"><ele>114.0</ele><time>2026-03-28T09:06:32.644Z</time></trkpt><trkpt lat="45.4066328" lon="10.5467957"><ele>115.0</ele><time>2026-03-28T09:06:33.647Z</time></trkpt><trkpt lat="45.4065339" lon="10.5469489"><ele>116.0</ele><time>2026-03-28T09:06:34.652Z</time></trkpt><trkpt lat="45.4064277" lon="10.5470534"><ele>117.5</ele><time>2026-03-28T09:06:35.653Z</time></trkpt><trkpt lat="45.4063058" lon="10.5471572"><ele>119.0</ele><time>2026-03-28T09:06:36.637Z</time></trkpt><trkpt lat="45.4061825" lon="10.5472403"><ele>120.5</ele><time>2026-03-28T09:06:37.64Z</time></trkpt><trkpt lat="45.4060475" lon="10.5473051"><ele>122.0</ele><time>2026-03-28T09:06:38.652Z</time></trkpt><trkpt lat="45.4059017" lon="10.5473513"><ele>122.0</ele><time>2026-03-28T09:06:39.649Z</time></trkpt><trkpt lat="45.4057805" lon="10.5473877"><ele>122.0</ele><time>2026-03-28T09:06:40.649Z</time></trkpt><trkpt lat="45.4056702" lon="10.5474388"><ele>122.0</ele><time>2026-03-28T09:06:41.636Z</time></trkpt><trkpt lat="45.4055666" lon="10.5474904"><ele>122.0</ele><time>2026-03-28T09:06:42.642Z</time></trkpt><trkpt lat="45.4054675" lon="10.5475382"><ele>122.25</ele><time>2026-03-28T09:06:43.65Z</time></trkpt><trkpt lat="45.4053643" lon="10.5476021"><ele>122.5</ele><time>2026-03-28T09:06:44.653Z</time></trkpt><trkpt lat="45.4052603" lon="10.5476934"><ele>122.75</ele><time>2026-03-28T09:06:45.654Z</time></trkpt><trkpt lat="45.4051479" lon="10.5477985"><ele>123.0</ele><time>2026-03-28T09:06:46.648Z</time></trkpt><trkpt lat="45.4050178" lon="10.5479106"><ele>123.0</ele><time>2026-03-28T09:06:47.653Z</time></trkpt><trkpt lat="45.4048983" lon="10.5480115"><ele>123.0</ele><time>2026-03-28T09:06:48.655Z</time></trkpt><trkpt lat="45.4047746" lon="10.5481186"><ele>123.0</ele><time>2026-03-28T09:06:49.649Z</time></trkpt><trkpt lat="45.4046438" lon="10.5482308"><ele>123.0</ele><time>2026-03-28T09:06:50.654Z</time></trkpt><trkpt lat="45.4045138" lon="10.5483408"><ele>122.75</ele><time>2026-03-28T09:06:51.65Z</time></trkpt><trkpt lat="45.4043873" lon="10.5484444"><ele>122.5</ele><time>2026-03-28T09:06:52.656Z</time></trkpt><trkpt lat="45.4042552" lon="10.5485458"><ele>122.25</ele><time>2026-03-28T09:06:53.652Z</time></trkpt><trkpt lat="45.404141" lon="10.5486583"><ele>122.0</ele><time>2026-03-28T09:06:54.651Z</time></trkpt><trkpt lat="45.4040343" lon="10.5487721"><ele>122.0</ele><time>2026-03-28T09:06:55.648Z</time></trkpt><trkpt lat="45.4039384" lon="10.5488851"><ele>122.0</ele><time>2026-03-28T09:06:56.642Z</time></trkpt><trkpt lat="45.4038384" lon="10.549021"><ele>122.0</ele><time>2026-03-28T09:06:57.645Z</time></trkpt><trkpt lat="45.403732" lon="10.5491464"><ele>122.0</ele><time>2026-03-28T09:06:58.643Z</time></trkpt><trkpt lat="45.4036322" lon="10.5492677"><ele>121.25</ele><time>2026-03-28T09:06:59.644Z</time></trkpt><trkpt lat="45.4035199" lon="10.5493751"><ele>120.5</ele><time>2026-03-28T09:07:00.644Z</time></trkpt><trkpt lat="45.4033975" lon="10.5494445"><ele>119.75</ele><time>2026-03-28T09:07:01.642Z</time></trkpt><trkpt lat="45.4032722" lon="10.5494968"><ele>119.0</ele><time>2026-03-28T09:07:02.642Z</time></trkpt><trkpt lat="45.4031537" lon="10.5495423"><ele>119.0</ele><time>2026-03-28T09:07:03.636Z</time></trkpt><trkpt lat="45.4030449" lon="10.5495519"><ele>119.0</ele><time>2026-03-28T09:07:04.631Z</time></trkpt><trkpt lat="45.4029332" lon="10.5495368"><ele>119.0</ele><time>2026-03-28T09:07:05.643Z</time></trkpt><trkpt lat="45.4028376" lon="10.5494932"><ele>119.0</ele><time>2026-03-28T09:07:06.653Z</time></trkpt><trkpt lat="45.4027376" lon="10.5494586"><ele>119.0</ele><time>2026-03-28T09:07:07.635Z</time></trkpt><trkpt lat="45.402635" lon="10.5494434"><ele>118.80000000000001</ele><time>2026-03-28T09:07:08.642Z</time></trkpt><trkpt lat="45.4025372" lon="10.549446"><ele>118.60000000000001</ele><time>2026-03-28T09:07:09.634Z</time></trkpt><trkpt lat="45.4024431" lon="10.5494901"><ele>118.4</ele><time>2026-03-28T09:07:10.639Z</time></trkpt><trkpt lat="45.4023397" lon="10.5495593"><ele>118.2</ele><time>2026-03-28T09:07:11.629Z</time></trkpt><trkpt lat="45.402245" lon="10.5496634"><ele>118.0</ele><time>2026-03-28T09:07:12.632Z</time></trkpt><trkpt lat="45.4021424" lon="10.5497955"><ele>117.33333333333334</ele><time>2026-03-28T09:07:13.624Z</time></trkpt><trkpt lat="45.4020267" lon="10.549966"><ele>116.66666666666666</ele><time>2026-03-28T09:07:14.635Z</time></trkpt><trkpt lat="45.4018806" lon="10.5502024"><ele>116.0</ele><time>2026-03-28T09:07:15.627Z</time></trkpt><trkpt lat="45.401776" lon="10.5503664"><ele>116.25</ele><time>2026-03-28T09:07:16.625Z</time></trkpt><trkpt lat="45.4016716" lon="10.5505209"><ele>116.5</ele><time>2026-03-28T09:07:17.623Z</time></trkpt><trkpt lat="45.4015884" lon="10.5506533"><ele>116.75</ele><time>2026-03-28T09:07:18.622Z</time></trkpt><trkpt lat="45.40148" lon="10.550801"><ele>117.0</ele><time>2026-03-28T09:07:19.625Z</time></trkpt><trkpt lat="45.4013945" lon="10.5508926"><ele>116.25</ele><time>2026-03-28T09:07:20.628Z</time></trkpt><trkpt lat="45.4013095" lon="10.5510099"><ele>115.5</ele><time>2026-03-28T09:07:21.639Z</time></trkpt><trkpt lat="45.4012073" lon="10.5510744"><ele>114.75</ele><time>2026-03-28T09:07:22.639Z</time></trkpt><trkpt lat="45.4010956" lon="10.5511121"><ele>114.0</ele><time>2026-03-28T09:07:23.65Z</time></trkpt><trkpt lat="45.400976" lon="10.5511376"><ele>114.0</ele><time>2026-03-28T09:07:24.642Z</time></trkpt><trkpt lat="45.4008263" lon="10.5511231"><ele>114.0</ele><time>2026-03-28T09:07:25.641Z</time></trkpt><trkpt lat="45.4006884" lon="10.5511052"><ele>114.0</ele><time>2026-03-28T09:07:26.642Z</time></trkpt><trkpt lat="45.4005559" lon="10.5510895"><ele>114.0</ele><time>2026-03-28T09:07:27.637Z</time></trkpt><trkpt lat="45.4004157" lon="10.5511042"><ele>114.25</ele><time>2026-03-28T09:07:28.631Z</time></trkpt><trkpt lat="45.4003171" lon="10.5511701"><ele>114.5</ele><time>2026-03-28T09:07:29.639Z</time></trkpt><trkpt lat="45.4002152" lon="10.5512415"><ele>114.75</ele><time>2026-03-28T09:07:30.636Z</time></trkpt><trkpt lat="45.4000983" lon="10.5513247"><ele>115.0</ele><time>2026-03-28T09:07:31.638Z</time></trkpt><trkpt lat="45.399993" lon="10.5514051"><ele>115.0</ele><time>2026-03-28T09:07:32.642Z</time></trkpt><trkpt lat="45.3999128" lon="10.5514925"><ele>115.0</ele><time>2026-03-28T09:07:33.64Z</time></trkpt><trkpt lat="45.3997923" lon="10.551538"><ele>115.0</ele><time>2026-03-28T09:07:34.643Z</time></trkpt><trkpt lat="45.3996809" lon="10.5515679"><ele>115.0</ele><time>2026-03-28T09:07:35.634Z</time></trkpt><trkpt lat="45.3995604" lon="10.5515765"><ele>115.0</ele><time>2026-03-28T09:07:36.637Z</time></trkpt><trkpt lat="45.3994234" lon="10.5515769"><ele>115.0</ele><time>2026-03-28T09:07:37.644Z</time></trkpt><trkpt lat="45.3992797" lon="10.5515755"><ele>115.0</ele><time>2026-03-28T09:07:38.641Z</time></trkpt><trkpt lat="45.3991439" lon="10.5515713"><ele>115.0</ele><time>2026-03-28T09:07:39.635Z</time></trkpt><trkpt lat="45.3990394" lon="10.5515734"><ele>115.0</ele><time>2026-03-28T09:07:40.631Z</time></trkpt><trkpt lat="45.3989246" lon="10.5516006"><ele>115.0</ele><time>2026-03-28T09:07:41.624Z</time></trkpt><trkpt lat="45.3988083" lon="10.5516565"><ele>115.0</ele><time>2026-03-28T09:07:42.613Z</time></trkpt><trkpt lat="45.3987056" lon="10.5517349"><ele>115.0</ele><time>2026-03-28T09:07:43.618Z</time></trkpt><trkpt lat="45.398591" lon="10.551774"><ele>117.0</ele><time>2026-03-28T09:07:44.629Z</time></trkpt><trkpt lat="45.398468" lon="10.5518605"><ele>119.0</ele><time>2026-03-28T09:07:45.615Z</time></trkpt><trkpt lat="45.3983329" lon="10.5519189"><ele>121.0</ele><time>2026-03-28T09:07:46.613Z</time></trkpt><trkpt lat="45.3982235" lon="10.551953"><ele>123.0</ele><time>2026-03-28T09:07:47.615Z</time></trkpt><trkpt lat="45.3980916" lon="10.5519677"><ele>122.75</ele><time>2026-03-28T09:07:48.608Z</time></trkpt><trkpt lat="45.397959" lon="10.5519675"><ele>122.5</ele><time>2026-03-28T09:07:49.621Z</time></trkpt><trkpt lat="45.397818" lon="10.551943"><ele>122.25</ele><time>2026-03-28T09:07:50.624Z</time></trkpt><trkpt lat="45.3976511" lon="10.5519071"><ele>122.0</ele><time>2026-03-28T09:07:51.628Z</time></trkpt><trkpt lat="45.3974913" lon="10.5518654"><ele>122.0</ele><time>2026-03-28T09:07:52.636Z</time></trkpt><trkpt lat="45.3973481" lon="10.551824"><ele>122.0</ele><time>2026-03-28T09:07:53.633Z</time></trkpt><trkpt lat="45.3972523" lon="10.5517989"><ele>122.0</ele><time>2026-03-28T09:07:54.646Z</time></trkpt><trkpt lat="45.3971451" lon="10.5517821"><ele>122.0</ele><time>2026-03-28T09:07:55.636Z</time></trkpt><trkpt lat="45.3970374" lon="10.5517626"><ele>121.8</ele><time>2026-03-28T09:07:57.634Z</time></trkpt><trkpt lat="45.3969722" lon="10.5517727"><ele>121.6</ele><time>2026-03-28T09:07:58.635Z</time></trkpt><trkpt lat="45.3969202" lon="10.551856"><ele>121.39999999999999</ele><time>2026-03-28T09:08:00.64Z</time></trkpt><trkpt lat="45.3968974" lon="10.55197"><ele>121.19999999999999</ele><time>2026-03-28T09:08:01.633Z</time></trkpt><trkpt lat="45.396898" lon="10.552131"><ele>121.0</ele><time>2026-03-28T09:08:02.638Z</time></trkpt><trkpt lat="45.3969062" lon="10.5523083"><ele>123.25</ele><time>2026-03-28T09:08:03.621Z</time></trkpt><trkpt lat="45.3969393" lon="10.5524849"><ele>125.5</ele><time>2026-03-28T09:08:04.627Z</time></trkpt><trkpt lat="45.3969939" lon="10.5526622"><ele>127.75</ele><time>2026-03-28T09:08:05.611Z</time></trkpt><trkpt lat="45.3970731" lon="10.552834"><ele>130.0</ele><time>2026-03-28T09:08:06.614Z</time></trkpt><trkpt lat="45.397151" lon="10.5529876"><ele>125.0</ele><time>2026-03-28T09:08:07.613Z</time></trkpt><trkpt lat="45.3972142" lon="10.5531865"><ele>120.0</ele><time>2026-03-28T09:08:08.626Z</time></trkpt><trkpt lat="45.3972346" lon="10.5533845"><ele>115.0</ele><time>2026-03-28T09:08:09.627Z</time></trkpt><trkpt lat="45.3972977" lon="10.553604"><ele>114.5</ele><time>2026-03-28T09:08:10.63Z</time></trkpt><trkpt lat="45.3973506" lon="10.5537715"><ele>114.0</ele><time>2026-03-28T09:08:11.63Z</time></trkpt><trkpt lat="45.3974152" lon="10.553934"><ele>113.5</ele><time>2026-03-28T09:08:12.64Z</time></trkpt><trkpt lat="45.3974793" lon="10.5540616"><ele>113.0</ele><time>2026-03-28T09:08:13.646Z</time></trkpt><trkpt lat="45.3975212" lon="10.5542109"><ele>113.0</ele><time>2026-03-28T09:08:14.658Z</time></trkpt><trkpt lat="45.3975893" lon="10.5543664"><ele>113.00000000000001</ele><time>2026-03-28T09:08:15.651Z</time></trkpt><trkpt lat="45.397617" lon="10.5545102"><ele>113.00000000000001</ele><time>2026-03-28T09:08:16.651Z</time></trkpt><trkpt lat="45.3976311" lon="10.5546577"><ele>113.0</ele><time>2026-03-28T09:08:17.653Z</time></trkpt><trkpt lat="45.3976273" lon="10.5548101"><ele>113.0</ele><time>2026-03-28T09:08:18.649Z</time></trkpt><trkpt lat="45.39762" lon="10.5549857"><ele>112.0</ele><time>2026-03-28T09:08:19.634Z</time></trkpt><trkpt lat="45.3976002" lon="10.5551861"><ele>111.0</ele><time>2026-03-28T09:08:20.633Z</time></trkpt><trkpt lat="45.3975576" lon="10.5553987"><ele>110.0</ele><time>2026-03-28T09:08:21.632Z</time></trkpt><trkpt lat="45.3974961" lon="10.5556218"><ele>108.66666666666666</ele><time>2026-03-28T09:08:22.635Z</time></trkpt><trkpt lat="45.3974304" lon="10.5558659"><ele>107.33333333333334</ele><time>2026-03-28T09:08:23.641Z</time></trkpt><trkpt lat="45.3973805" lon="10.5561125"><ele>106.0</ele><time>2026-03-28T09:08:24.654Z</time></trkpt><trkpt lat="45.3973504" lon="10.5563678"><ele>106.0</ele><time>2026-03-28T09:08:25.654Z</time></trkpt><trkpt lat="45.3973251" lon="10.5566215"><ele>106.0</ele><time>2026-03-28T09:08:26.65Z</time></trkpt><trkpt lat="45.3973006" lon="10.5568277"><ele>106.0</ele><time>2026-03-28T09:08:27.647Z</time></trkpt><trkpt lat="45.3972568" lon="10.5570371"><ele>106.0</ele><time>2026-03-28T09:08:28.635Z</time></trkpt><trkpt lat="45.3972072" lon="10.5572103"><ele>106.0</ele><time>2026-03-28T09:08:29.638Z</time></trkpt><trkpt lat="45.3971611" lon="10.5573514"><ele>106.0</ele><time>2026-03-28T09:08:30.646Z</time></trkpt><trkpt lat="45.3970762" lon="10.5574717"><ele>106.0</ele><time>2026-03-28T09:08:31.626Z</time></trkpt><trkpt lat="45.3969849" lon="10.5576281"><ele>105.33333333333334</ele><time>2026-03-28T09:08:32.623Z</time></trkpt><trkpt lat="45.3968905" lon="10.5578018"><ele>104.66666666666666</ele><time>2026-03-28T09:08:33.633Z</time></trkpt><trkpt lat="45.396808" lon="10.5580135"><ele>104.0</ele><time>2026-03-28T09:08:34.646Z</time></trkpt><trkpt lat="45.3967705" lon="10.5582642"><ele>104.0</ele><time>2026-03-28T09:08:35.634Z</time></trkpt><trkpt lat="45.3967442" lon="10.5585146"><ele>104.0</ele><time>2026-03-28T09:08:36.636Z</time></trkpt><trkpt lat="45.3967399" lon="10.5587872"><ele>104.0</ele><time>2026-03-28T09:08:37.641Z</time></trkpt><trkpt lat="45.3967563" lon="10.5590727"><ele>104.0</ele><time>2026-03-28T09:08:38.642Z</time></trkpt><trkpt lat="45.3967869" lon="10.559348"><ele>104.0</ele><time>2026-03-28T09:08:39.661Z</time></trkpt><trkpt lat="45.3968186" lon="10.5596296"><ele>104.0</ele><time>2026-03-28T09:08:40.654Z</time></trkpt><trkpt lat="45.3968481" lon="10.5599237"><ele>104.0</ele><time>2026-03-28T09:08:41.648Z</time></trkpt><trkpt lat="45.3968604" lon="10.5601952"><ele>104.0</ele><time>2026-03-28T09:08:42.641Z</time></trkpt><trkpt lat="45.3968768" lon="10.5604467"><ele>104.0</ele><time>2026-03-28T09:08:43.648Z</time></trkpt><trkpt lat="45.3968911" lon="10.5607011"><ele>104.0</ele><time>2026-03-28T09:08:44.661Z</time></trkpt><trkpt lat="45.3968743" lon="10.5609472"><ele>104.0</ele><time>2026-03-28T09:08:45.651Z</time></trkpt><trkpt lat="45.3968493" lon="10.5611862"><ele>104.0</ele><time>2026-03-28T09:08:46.646Z</time></trkpt><trkpt lat="45.3968077" lon="10.5614502"><ele>104.0</ele><time>2026-03-28T09:08:47.649Z</time></trkpt><trkpt lat="45.3967519" lon="10.5616916"><ele>104.0</ele><time>2026-03-28T09:08:48.65Z</time></trkpt><trkpt lat="45.3966927" lon="10.5619352"><ele>104.0</ele><time>2026-03-28T09:08:49.648Z</time></trkpt><trkpt lat="45.3966313" lon="10.5621729"><ele>103.5</ele><time>2026-03-28T09:08:50.651Z</time></trkpt><trkpt lat="45.396578" lon="10.5623689"><ele>103.0</ele><time>2026-03-28T09:08:51.656Z</time></trkpt><trkpt lat="45.3965272" lon="10.5625688"><ele>102.5</ele><time>2026-03-28T09:08:52.655Z</time></trkpt><trkpt lat="45.3964594" lon="10.5627489"><ele>102.0</ele><time>2026-03-28T09:08:53.65Z</time></trkpt><trkpt lat="45.3964" lon="10.5629253"><ele>102.0</ele><time>2026-03-28T09:08:54.655Z</time></trkpt><trkpt lat="45.3963374" lon="10.5630827"><ele>102.0</ele><time>2026-03-28T09:08:55.648Z</time></trkpt><trkpt lat="45.3962717" lon="10.563245"><ele>102.0</ele><time>2026-03-28T09:08:56.65Z</time></trkpt><trkpt lat="45.3962343" lon="10.5633586"><ele>102.0</ele><time>2026-03-28T09:08:57.641Z</time></trkpt><trkpt lat="45.3962015" lon="10.5634527"><ele>102.0</ele><time>2026-03-28T09:08:58.652Z</time></trkpt><trkpt lat="45.3961634" lon="10.5635308"><ele>101.8</ele><time>2026-03-28T09:08:59.649Z</time></trkpt><trkpt lat="45.3961311" lon="10.563686"><ele>101.6</ele><time>2026-03-28T09:09:01.656Z</time></trkpt><trkpt lat="45.39616" lon="10.5637746"><ele>101.39999999999999</ele><time>2026-03-28T09:09:02.647Z</time></trkpt><trkpt lat="45.3962165" lon="10.5638563"><ele>101.19999999999999</ele><time>2026-03-28T09:09:03.644Z</time></trkpt><trkpt lat="45.3962918" lon="10.5639422"><ele>101.0</ele><time>2026-03-28T09:09:04.633Z</time></trkpt><trkpt lat="45.396383" lon="10.564053"><ele>101.33333333333333</ele><time>2026-03-28T09:09:05.625Z</time></trkpt><trkpt lat="45.3965006" lon="10.5641934"><ele>101.66666666666666</ele><time>2026-03-28T09:09:06.631Z</time></trkpt><trkpt lat="45.3966347" lon="10.5643606"><ele>102.0</ele><time>2026-03-28T09:09:07.626Z</time></trkpt><trkpt lat="45.3967582" lon="10.5645376"><ele>102.0</ele><time>2026-03-28T09:09:08.632Z</time></trkpt><trkpt lat="45.3968987" lon="10.5647072"><ele>102.0</ele><time>2026-03-28T09:09:09.636Z</time></trkpt><trkpt lat="45.3970068" lon="10.5648568"><ele>102.0</ele><time>2026-03-28T09:09:10.646Z</time></trkpt><trkpt lat="45.3971258" lon="10.5650096"><ele>102.0</ele><time>2026-03-28T09:09:11.639Z</time></trkpt><trkpt lat="45.3972287" lon="10.5651533"><ele>102.0</ele><time>2026-03-28T09:09:12.641Z</time></trkpt><trkpt lat="45.397334" lon="10.5653005"><ele>102.0</ele><time>2026-03-28T09:09:13.64Z</time></trkpt><trkpt lat="45.397391" lon="10.5654474"><ele>102.0</ele><time>2026-03-28T09:09:14.638Z</time></trkpt><trkpt lat="45.3974628" lon="10.5656096"><ele>102.0</ele><time>2026-03-28T09:09:15.64Z</time></trkpt><trkpt lat="45.3975055" lon="10.565792"><ele>102.0</ele><time>2026-03-28T09:09:16.643Z</time></trkpt><trkpt lat="45.3975496" lon="10.5659836"><ele>102.0</ele><time>2026-03-28T09:09:17.647Z</time></trkpt><trkpt lat="45.3976423" lon="10.5661815"><ele>102.0</ele><time>2026-03-28T09:09:18.637Z</time></trkpt><trkpt lat="45.3977302" lon="10.566361"><ele>102.0</ele><time>2026-03-28T09:09:19.636Z</time></trkpt><trkpt lat="45.3978529" lon="10.5665356"><ele>102.0</ele><time>2026-03-28T09:09:20.638Z</time></trkpt><trkpt lat="45.3979776" lon="10.5667052"><ele>102.0</ele><time>2026-03-28T09:09:21.642Z</time></trkpt><trkpt lat="45.3981403" lon="10.5668977"><ele>103.0</ele><time>2026-03-28T09:09:22.639Z</time></trkpt><trkpt lat="45.3982722" lon="10.5670694"><ele>104.0</ele><time>2026-03-28T09:09:23.641Z</time></trkpt><trkpt lat="45.3984266" lon="10.5672664"><ele>105.0</ele><time>2026-03-28T09:09:24.638Z</time></trkpt><trkpt lat="45.3985778" lon="10.5674279"><ele>105.0</ele><time>2026-03-28T09:09:25.641Z</time></trkpt><trkpt lat="45.3987261" lon="10.5675918"><ele>105.0</ele><time>2026-03-28T09:09:26.642Z</time></trkpt><trkpt lat="45.3988528" lon="10.5677298"><ele>105.0</ele><time>2026-03-28T09:09:27.648Z</time></trkpt><trkpt lat="45.3989861" lon="10.5679041"><ele>106.0</ele><time>2026-03-28T09:09:28.646Z</time></trkpt><trkpt lat="45.3990901" lon="10.5680479"><ele>107.0</ele><time>2026-03-28T09:09:29.65Z</time></trkpt><trkpt lat="45.3991956" lon="10.5682028"><ele>108.0</ele><time>2026-03-28T09:09:30.652Z</time></trkpt><trkpt lat="45.3993006" lon="10.5683418"><ele>109.0</ele><time>2026-03-28T09:09:31.655Z</time></trkpt><trkpt lat="45.3993721" lon="10.5684445"><ele>109.0</ele><time>2026-03-28T09:09:32.646Z</time></trkpt><trkpt lat="45.3994552" lon="10.5685477"><ele>109.0</ele><time>2026-03-28T09:09:33.644Z</time></trkpt><trkpt lat="45.3995126" lon="10.568635"><ele>109.0</ele><time>2026-03-28T09:09:34.642Z</time></trkpt><trkpt lat="45.3995873" lon="10.5687235"><ele>109.0</ele><time>2026-03-28T09:09:36.644Z</time></trkpt><trkpt lat="45.3996197" lon="10.5688205"><ele>109.0</ele><time>2026-03-28T09:09:38.656Z</time></trkpt><trkpt lat="45.3995846" lon="10.5689799"><ele>110.25</ele><time>2026-03-28T09:09:40.653Z</time></trkpt><trkpt lat="45.3995153" lon="10.5690659"><ele>111.5</ele><time>2026-03-28T09:09:41.647Z</time></trkpt><trkpt lat="45.3994279" lon="10.5691848"><ele>112.75</ele><time>2026-03-28T09:09:42.631Z</time></trkpt><trkpt lat="45.399324" lon="10.5693122"><ele>114.0</ele><time>2026-03-28T09:09:43.65Z</time></trkpt><trkpt lat="45.3992079" lon="10.5694744"><ele>115.0</ele><time>2026-03-28T09:09:44.636Z</time></trkpt><trkpt lat="45.3990476" lon="10.5696964"><ele>116.0</ele><time>2026-03-28T09:09:45.638Z</time></trkpt><trkpt lat="45.398898" lon="10.5699041"><ele>117.0</ele><time>2026-03-28T09:09:46.649Z</time></trkpt><trkpt lat="45.3987525" lon="10.5700716"><ele>117.66666666666666</ele><time>2026-03-28T09:09:47.648Z</time></trkpt><trkpt lat="45.3986451" lon="10.5702497"><ele>118.33333333333333</ele><time>2026-03-28T09:09:48.637Z</time></trkpt><trkpt lat="45.398527" lon="10.5704012"><ele>119.0</ele><time>2026-03-28T09:09:49.643Z</time></trkpt><trkpt lat="45.3983954" lon="10.5705683"><ele>119.0</ele><time>2026-03-28T09:09:50.636Z</time></trkpt><trkpt lat="45.398236" lon="10.5707296"><ele>119.0</ele><time>2026-03-28T09:09:51.635Z</time></trkpt><trkpt lat="45.3980577" lon="10.5709278"><ele>119.0</ele><time>2026-03-28T09:09:52.645Z</time></trkpt><trkpt lat="45.3979143" lon="10.5711081"><ele>118.66666666666666</ele><time>2026-03-28T09:09:53.649Z</time></trkpt><trkpt lat="45.3977711" lon="10.5712768"><ele>118.33333333333334</ele><time>2026-03-28T09:09:54.643Z</time></trkpt><trkpt lat="45.3976204" lon="10.5714291"><ele>118.0</ele><time>2026-03-28T09:09:55.639Z</time></trkpt><trkpt lat="45.397477" lon="10.5715972"><ele>118.0</ele><time>2026-03-28T09:09:56.646Z</time></trkpt><trkpt lat="45.397322" lon="10.5717741"><ele>118.0</ele><time>2026-03-28T09:09:57.646Z</time></trkpt><trkpt lat="45.3971679" lon="10.571976"><ele>118.0</ele><time>2026-03-28T09:09:58.666Z</time></trkpt><trkpt lat="45.3969971" lon="10.5721506"><ele>117.66666666666667</ele><time>2026-03-28T09:09:59.649Z</time></trkpt><trkpt lat="45.3968602" lon="10.5723288"><ele>117.33333333333334</ele><time>2026-03-28T09:10:00.649Z</time></trkpt><trkpt lat="45.3967214" lon="10.5724923"><ele>117.0</ele><time>2026-03-28T09:10:01.65Z</time></trkpt><trkpt lat="45.3966035" lon="10.5726199"><ele>117.0</ele><time>2026-03-28T09:10:02.648Z</time></trkpt><trkpt lat="45.3964857" lon="10.5727485"><ele>117.0</ele><time>2026-03-28T09:10:03.652Z</time></trkpt><trkpt lat="45.3963647" lon="10.5728698"><ele>117.0</ele><time>2026-03-28T09:10:04.643Z</time></trkpt><trkpt lat="45.3962165" lon="10.5729578"><ele>117.66666666666666</ele><time>2026-03-28T09:10:05.644Z</time></trkpt><trkpt lat="45.3960665" lon="10.5730413"><ele>118.33333333333333</ele><time>2026-03-28T09:10:06.638Z</time></trkpt><trkpt lat="45.3959036" lon="10.5731396"><ele>119.0</ele><time>2026-03-28T09:10:07.645Z</time></trkpt><trkpt lat="45.3957326" lon="10.5732306"><ele>119.0</ele><time>2026-03-28T09:10:08.652Z</time></trkpt><trkpt lat="45.3955812" lon="10.5733165"><ele>119.0</ele><time>2026-03-28T09:10:09.631Z</time></trkpt><trkpt lat="45.3954406" lon="10.573427"><ele>119.0</ele><time>2026-03-28T09:10:10.636Z</time></trkpt><trkpt lat="45.3953083" lon="10.5735784"><ele>119.0</ele><time>2026-03-28T09:10:11.632Z</time></trkpt><trkpt lat="45.395155" lon="10.5737469"><ele>119.0</ele><time>2026-03-28T09:10:12.648Z</time></trkpt><trkpt lat="45.395006" lon="10.5739303"><ele>119.0</ele><time>2026-03-28T09:10:13.646Z</time></trkpt><trkpt lat="45.3948408" lon="10.5741044"><ele>119.0</ele><time>2026-03-28T09:10:14.649Z</time></trkpt><trkpt lat="45.3946778" lon="10.5742879"><ele>119.0</ele><time>2026-03-28T09:10:15.647Z</time></trkpt><trkpt lat="45.3945154" lon="10.5744651"><ele>119.0</ele><time>2026-03-28T09:10:16.648Z</time></trkpt><trkpt lat="45.3943685" lon="10.5746472"><ele>119.0</ele><time>2026-03-28T09:10:17.65Z</time></trkpt><trkpt lat="45.3942212" lon="10.5748422"><ele>119.0</ele><time>2026-03-28T09:10:18.66Z</time></trkpt><trkpt lat="45.3940583" lon="10.5750426"><ele>119.0</ele><time>2026-03-28T09:10:19.65Z</time></trkpt><trkpt lat="45.3939021" lon="10.5752201"><ele>118.66666666666666</ele><time>2026-03-28T09:10:20.648Z</time></trkpt><trkpt lat="45.3937682" lon="10.5753974"><ele>118.33333333333334</ele><time>2026-03-28T09:10:21.648Z</time></trkpt><trkpt lat="45.3936359" lon="10.5755794"><ele>118.0</ele><time>2026-03-28T09:10:22.646Z</time></trkpt><trkpt lat="45.3935034" lon="10.5757643"><ele>118.0</ele><time>2026-03-28T09:10:23.642Z</time></trkpt><trkpt lat="45.3934" lon="10.5759801"><ele>118.0</ele><time>2026-03-28T09:10:24.637Z</time></trkpt><trkpt lat="45.3932923" lon="10.5762115"><ele>118.0</ele><time>2026-03-28T09:10:25.645Z</time></trkpt><trkpt lat="45.3931781" lon="10.5764767"><ele>118.0</ele><time>2026-03-28T09:10:26.646Z</time></trkpt><trkpt lat="45.3930871" lon="10.5767187"><ele>118.0</ele><time>2026-03-28T09:10:27.638Z</time></trkpt><trkpt lat="45.3929919" lon="10.5769378"><ele>118.0</ele><time>2026-03-28T09:10:28.652Z</time></trkpt><trkpt lat="45.3928953" lon="10.5771313"><ele>118.0</ele><time>2026-03-28T09:10:29.666Z</time></trkpt><trkpt lat="45.3927708" lon="10.5773294"><ele>118.0</ele><time>2026-03-28T09:10:30.647Z</time></trkpt><trkpt lat="45.3926501" lon="10.5775353"><ele>118.0</ele><time>2026-03-28T09:10:31.649Z</time></trkpt><trkpt lat="45.3925175" lon="10.577762"><ele>117.66666666666667</ele><time>2026-03-28T09:10:32.643Z</time></trkpt><trkpt lat="45.3923712" lon="10.5779819"><ele>117.33333333333334</ele><time>2026-03-28T09:10:33.643Z</time></trkpt><trkpt lat="45.3922332" lon="10.5781837"><ele>117.0</ele><time>2026-03-28T09:10:34.642Z</time></trkpt><trkpt lat="45.392102" lon="10.5783817"><ele>117.0</ele><time>2026-03-28T09:10:35.638Z</time></trkpt><trkpt lat="45.3919694" lon="10.5785824"><ele>117.0</ele><time>2026-03-28T09:10:36.638Z</time></trkpt><trkpt lat="45.3918314" lon="10.5787442"><ele>117.0</ele><time>2026-03-28T09:10:37.636Z</time></trkpt><trkpt lat="45.3917029" lon="10.5789026"><ele>117.0</ele><time>2026-03-28T09:10:38.654Z</time></trkpt><trkpt lat="45.3915847" lon="10.5790571"><ele>117.0</ele><time>2026-03-28T09:10:39.644Z</time></trkpt><trkpt lat="45.3914572" lon="10.5791902"><ele>117.0</ele><time>2026-03-28T09:10:40.64Z</time></trkpt><trkpt lat="45.39135" lon="10.5793051"><ele>117.25</ele><time>2026-03-28T09:10:41.646Z</time></trkpt><trkpt lat="45.3912588" lon="10.5794105"><ele>117.5</ele><time>2026-03-28T09:10:42.65Z</time></trkpt><trkpt lat="45.3911637" lon="10.5795284"><ele>117.75</ele><time>2026-03-28T09:10:43.652Z</time></trkpt><trkpt lat="45.3910827" lon="10.5796301"><ele>118.0</ele><time>2026-03-28T09:10:44.636Z</time></trkpt><trkpt lat="45.3910354" lon="10.5797811"><ele>118.80000000000001</ele><time>2026-03-28T09:10:45.647Z</time></trkpt><trkpt lat="45.3910012" lon="10.5798939"><ele>119.60000000000001</ele><time>2026-03-28T09:10:46.641Z</time></trkpt><trkpt lat="45.3909895" lon="10.5799919"><ele>120.39999999999999</ele><time>2026-03-28T09:10:47.637Z</time></trkpt><trkpt lat="45.3909593" lon="10.5801287"><ele>121.19999999999999</ele><time>2026-03-28T09:10:49.639Z</time></trkpt><trkpt lat="45.3909964" lon="10.5802342"><ele>122.0</ele><time>2026-03-28T09:10:51.644Z</time></trkpt><trkpt lat="45.3911132" lon="10.5802889"><ele>122.0</ele><time>2026-03-28T09:10:53.642Z</time></trkpt><trkpt lat="45.391198" lon="10.5804002"><ele>122.0</ele><time>2026-03-28T09:10:55.631Z</time></trkpt><trkpt lat="45.3911753" lon="10.5805904"><ele>122.0</ele><time>2026-03-28T09:10:57.621Z</time></trkpt><trkpt lat="45.3911226" lon="10.5807252"><ele>122.0</ele><time>2026-03-28T09:10:58.625Z</time></trkpt><trkpt lat="45.3910714" lon="10.5808776"><ele>122.0</ele><time>2026-03-28T09:10:59.633Z</time></trkpt><trkpt lat="45.3910195" lon="10.5810509"><ele>122.0</ele><time>2026-03-28T09:11:00.619Z</time></trkpt><trkpt lat="45.3909587" lon="10.5812265"><ele>122.0</ele><time>2026-03-28T09:11:01.623Z</time></trkpt><trkpt lat="45.3908779" lon="10.5813993"><ele>122.0</ele><time>2026-03-28T09:11:02.626Z</time></trkpt><trkpt lat="45.3907893" lon="10.5815537"><ele>120.66666666666666</ele><time>2026-03-28T09:11:03.635Z</time></trkpt><trkpt lat="45.3906984" lon="10.5816957"><ele>119.33333333333334</ele><time>2026-03-28T09:11:04.632Z</time></trkpt><trkpt lat="45.3906013" lon="10.5818773"><ele>118.0</ele><time>2026-03-28T09:11:05.632Z</time></trkpt><trkpt lat="45.3905227" lon="10.5820953"><ele>118.0</ele><time>2026-03-28T09:11:06.643Z</time></trkpt><trkpt lat="45.3904583" lon="10.5823006"><ele>118.0</ele><time>2026-03-28T09:11:07.649Z</time></trkpt><trkpt lat="45.3903996" lon="10.582483"><ele>118.0</ele><time>2026-03-28T09:11:08.651Z</time></trkpt><trkpt lat="45.3903135" lon="10.5826719"><ele>118.0</ele><time>2026-03-28T09:11:09.654Z</time></trkpt><trkpt lat="45.3902229" lon="10.5828344"><ele>118.0</ele><time>2026-03-28T09:11:10.652Z</time></trkpt><trkpt lat="45.3901429" lon="10.5829862"><ele>118.0</ele><time>2026-03-28T09:11:11.647Z</time></trkpt><trkpt lat="45.3900613" lon="10.5830951"><ele>118.0</ele><time>2026-03-28T09:11:12.641Z</time></trkpt><trkpt lat="45.3900005" lon="10.5832102"><ele>118.2</ele><time>2026-03-28T09:11:13.647Z</time></trkpt><trkpt lat="45.389948" lon="10.5833116"><ele>118.4</ele><time>2026-03-28T09:11:14.656Z</time></trkpt><trkpt lat="45.3899" lon="10.5833985"><ele>118.60000000000001</ele><time>2026-03-28T09:11:15.642Z</time></trkpt><trkpt lat="45.3898652" lon="10.5835313"><ele>118.80000000000001</ele><time>2026-03-28T09:11:17.65Z</time></trkpt><trkpt lat="45.3898898" lon="10.583716"><ele>119.0</ele><time>2026-03-28T09:11:19.65Z</time></trkpt><trkpt lat="45.3899313" lon="10.5838069"><ele>119.0</ele><time>2026-03-28T09:11:20.642Z</time></trkpt><trkpt lat="45.3899724" lon="10.5838918"><ele>119.0</ele><time>2026-03-28T09:11:21.642Z</time></trkpt><trkpt lat="45.3900302" lon="10.5839552"><ele>119.0</ele><time>2026-03-28T09:11:22.635Z</time></trkpt><trkpt lat="45.3901232" lon="10.5840009"><ele>119.0</ele><time>2026-03-28T09:11:23.637Z</time></trkpt><trkpt lat="45.3902284" lon="10.5840191"><ele>119.0</ele><time>2026-03-28T09:11:24.632Z</time></trkpt><trkpt lat="45.3903559" lon="10.5840103"><ele>119.0</ele><time>2026-03-28T09:11:25.628Z</time></trkpt><trkpt lat="45.3904939" lon="10.5840013"><ele>119.0</ele><time>2026-03-28T09:11:26.636Z</time></trkpt><trkpt lat="45.3906296" lon="10.5839753"><ele>119.0</ele><time>2026-03-28T09:11:27.642Z</time></trkpt><trkpt lat="45.3907481" lon="10.5839535"><ele>119.0</ele><time>2026-03-28T09:11:28.645Z</time></trkpt><trkpt lat="45.3908547" lon="10.5839417"><ele>118.99999999999999</ele><time>2026-03-28T09:11:29.645Z</time></trkpt><trkpt lat="45.3909396" lon="10.5839365"><ele>119.0</ele><time>2026-03-28T09:11:30.654Z</time></trkpt><trkpt lat="45.391016" lon="10.583939"><ele>119.0</ele><time>2026-03-28T09:11:31.653Z</time></trkpt><trkpt lat="45.3910832" lon="10.5839477"><ele>119.0</ele><time>2026-03-28T09:11:32.652Z</time></trkpt><trkpt lat="45.3911546" lon="10.5839642"><ele>118.99999999999999</ele><time>2026-03-28T09:11:33.635Z</time></trkpt><trkpt lat="45.3912284" lon="10.5840177"><ele>119.0</ele><time>2026-03-28T09:11:34.634Z</time></trkpt><trkpt lat="45.3913096" lon="10.5841009"><ele>118.2</ele><time>2026-03-28T09:11:35.646Z</time></trkpt><trkpt lat="45.3913837" lon="10.5842037"><ele>117.4</ele><time>2026-03-28T09:11:36.639Z</time></trkpt><trkpt lat="45.3914581" lon="10.5842973"><ele>116.6</ele><time>2026-03-28T09:11:37.648Z</time></trkpt><trkpt lat="45.3915429" lon="10.5843811"><ele>115.8</ele><time>2026-03-28T09:11:38.651Z</time></trkpt><trkpt lat="45.3916164" lon="10.5844575"><ele>115.0</ele><time>2026-03-28T09:11:39.652Z</time></trkpt><trkpt lat="45.391673" lon="10.5845324"><ele>115.0</ele><time>2026-03-28T09:11:40.654Z</time></trkpt><trkpt lat="45.3917325" lon="10.5846187"><ele>115.0</ele><time>2026-03-28T09:11:41.649Z</time></trkpt><trkpt lat="45.3917913" lon="10.5847317"><ele>115.0</ele><time>2026-03-28T09:11:42.642Z</time></trkpt><trkpt lat="45.3918344" lon="10.5848564"><ele>115.0</ele><time>2026-03-28T09:11:43.646Z</time></trkpt><trkpt lat="45.3918493" lon="10.5850013"><ele>115.0</ele><time>2026-03-28T09:11:44.653Z</time></trkpt><trkpt lat="45.3918388" lon="10.5851606"><ele>115.0</ele><time>2026-03-28T09:11:45.659Z</time></trkpt><trkpt lat="45.3917985" lon="10.5853486"><ele>115.0</ele><time>2026-03-28T09:11:46.646Z</time></trkpt><trkpt lat="45.3917545" lon="10.5855403"><ele>115.0</ele><time>2026-03-28T09:11:47.655Z</time></trkpt><trkpt lat="45.3917269" lon="10.5857339"><ele>115.0</ele><time>2026-03-28T09:11:48.645Z</time></trkpt><trkpt lat="45.3917015" lon="10.5859471"><ele>115.0</ele><time>2026-03-28T09:11:49.649Z</time></trkpt><trkpt lat="45.3916503" lon="10.5861216"><ele>115.0</ele><time>2026-03-28T09:11:50.649Z</time></trkpt><trkpt lat="45.3915971" lon="10.5862852"><ele>115.0</ele><time>2026-03-28T09:11:51.654Z</time></trkpt><trkpt lat="45.3915442" lon="10.5864543"><ele>115.0</ele><time>2026-03-28T09:11:52.668Z</time></trkpt><trkpt lat="45.3914539" lon="10.5866201"><ele>115.0</ele><time>2026-03-28T09:11:53.659Z</time></trkpt><trkpt lat="45.391378" lon="10.5867809"><ele>115.0</ele><time>2026-03-28T09:11:54.647Z</time></trkpt><trkpt lat="45.3913314" lon="10.5869144"><ele>115.0</ele><time>2026-03-28T09:11:55.641Z</time></trkpt><trkpt lat="45.3912927" lon="10.587055"><ele>115.0</ele><time>2026-03-28T09:11:56.643Z</time></trkpt><trkpt lat="45.3912794" lon="10.5872074"><ele>115.0</ele><time>2026-03-28T09:11:57.657Z</time></trkpt><trkpt lat="45.3912847" lon="10.5873722"><ele>115.0</ele><time>2026-03-28T09:11:58.659Z</time></trkpt><trkpt lat="45.3913105" lon="10.5875086"><ele>115.0</ele><time>2026-03-28T09:11:59.646Z</time></trkpt><trkpt lat="45.3913577" lon="10.5876078"><ele>115.0</ele><time>2026-03-28T09:12:00.638Z</time></trkpt><trkpt lat="45.3914227" lon="10.5876862"><ele>115.0</ele><time>2026-03-28T09:12:01.659Z</time></trkpt><trkpt lat="45.3915136" lon="10.5877405"><ele>115.0</ele><time>2026-03-28T09:12:02.661Z</time></trkpt><trkpt lat="45.391621" lon="10.5878108"><ele>115.0</ele><time>2026-03-28T09:12:03.652Z</time></trkpt><trkpt lat="45.3917229" lon="10.5879176"><ele>115.0</ele><time>2026-03-28T09:12:04.649Z</time></trkpt><trkpt lat="45.3918023" lon="10.5880499"><ele>115.0</ele><time>2026-03-28T09:12:05.639Z</time></trkpt><trkpt lat="45.3918789" lon="10.5882001"><ele>115.75</ele><time>2026-03-28T09:12:06.637Z</time></trkpt><trkpt lat="45.3919287" lon="10.5883772"><ele>116.5</ele><time>2026-03-28T09:12:07.647Z</time></trkpt><trkpt lat="45.3919642" lon="10.5885651"><ele>117.25</ele><time>2026-03-28T09:12:08.645Z</time></trkpt><trkpt lat="45.3920092" lon="10.5887822"><ele>118.0</ele><time>2026-03-28T09:12:09.639Z</time></trkpt><trkpt lat="45.3920411" lon="10.5890132"><ele>118.0</ele><time>2026-03-28T09:12:10.652Z</time></trkpt><trkpt lat="45.392066" lon="10.589238"><ele>118.0</ele><time>2026-03-28T09:12:11.657Z</time></trkpt><trkpt lat="45.3920866" lon="10.5894404"><ele>118.0</ele><time>2026-03-28T09:12:12.662Z</time></trkpt><trkpt lat="45.3920995" lon="10.5896479"><ele>117.75</ele><time>2026-03-28T09:12:13.662Z</time></trkpt><trkpt lat="45.3920931" lon="10.5898433"><ele>117.5</ele><time>2026-03-28T09:12:14.654Z</time></trkpt><trkpt lat="45.392081" lon="10.5900326"><ele>117.25</ele><time>2026-03-28T09:12:15.66Z</time></trkpt><trkpt lat="45.3920692" lon="10.5902295"><ele>117.0</ele><time>2026-03-28T09:12:16.669Z</time></trkpt><trkpt lat="45.3920636" lon="10.5904365"><ele>116.8</ele><time>2026-03-28T09:12:17.66Z</time></trkpt><trkpt lat="45.3920852" lon="10.5906206"><ele>116.6</ele><time>2026-03-28T09:12:18.647Z</time></trkpt><trkpt lat="45.3920947" lon="10.5907847"><ele>116.39999999999999</ele><time>2026-03-28T09:12:19.649Z</time></trkpt><trkpt lat="45.3921217" lon="10.5909126"><ele>116.19999999999999</ele><time>2026-03-28T09:12:20.65Z</time></trkpt><trkpt lat="45.392162" lon="10.5910441"><ele>116.0</ele><time>2026-03-28T09:12:21.645Z</time></trkpt><trkpt lat="45.3922069" lon="10.5911553"><ele>117.25</ele><time>2026-03-28T09:12:22.656Z</time></trkpt><trkpt lat="45.3923048" lon="10.5912836"><ele>118.5</ele><time>2026-03-28T09:12:23.659Z</time></trkpt><trkpt lat="45.3923917" lon="10.5914163"><ele>119.75</ele><time>2026-03-28T09:12:24.657Z</time></trkpt><trkpt lat="45.3924705" lon="10.5915417"><ele>121.0</ele><time>2026-03-28T09:12:25.655Z</time></trkpt><trkpt lat="45.3925405" lon="10.5916763"><ele>121.0</ele><time>2026-03-28T09:12:26.647Z</time></trkpt><trkpt lat="45.3925979" lon="10.5918175"><ele>121.0</ele><time>2026-03-28T09:12:27.649Z</time></trkpt><trkpt lat="45.3926367" lon="10.5919428"><ele>121.0</ele><time>2026-03-28T09:12:28.648Z</time></trkpt><trkpt lat="45.3926625" lon="10.5920776"><ele>121.0</ele><time>2026-03-28T09:12:29.65Z</time></trkpt><trkpt lat="45.3926715" lon="10.5922182"><ele>121.0</ele><time>2026-03-28T09:12:30.651Z</time></trkpt><trkpt lat="45.392667" lon="10.5923661"><ele>120.83333333333334</ele><time>2026-03-28T09:12:31.658Z</time></trkpt><trkpt lat="45.3926481" lon="10.5925103"><ele>120.66666666666667</ele><time>2026-03-28T09:12:32.661Z</time></trkpt><trkpt lat="45.3926206" lon="10.5926405"><ele>120.5</ele><time>2026-03-28T09:12:33.648Z</time></trkpt><trkpt lat="45.3925911" lon="10.5927431"><ele>120.33333333333334</ele><time>2026-03-28T09:12:34.643Z</time></trkpt><trkpt lat="45.3925787" lon="10.5928311"><ele>120.16666666666667</ele><time>2026-03-28T09:12:35.656Z</time></trkpt><trkpt lat="45.3926028" lon="10.5929763"><ele>120.0</ele><time>2026-03-28T09:12:37.64Z</time></trkpt><trkpt lat="45.3927108" lon="10.5931096"><ele>119.8</ele><time>2026-03-28T09:12:39.642Z</time></trkpt><trkpt lat="45.3927992" lon="10.5931574"><ele>119.6</ele><time>2026-03-28T09:12:40.644Z</time></trkpt><trkpt lat="45.3929085" lon="10.5931857"><ele>119.4</ele><time>2026-03-28T09:12:41.633Z</time></trkpt><trkpt lat="45.393026" lon="10.5932143"><ele>119.2</ele><time>2026-03-28T09:12:42.642Z</time></trkpt><trkpt lat="45.393142" lon="10.5932402"><ele>119.0</ele><time>2026-03-28T09:12:43.639Z</time></trkpt><trkpt lat="45.3932498" lon="10.5932901"><ele>118.4</ele><time>2026-03-28T09:12:44.632Z</time></trkpt><trkpt lat="45.3933682" lon="10.5933616"><ele>117.80000000000001</ele><time>2026-03-28T09:12:45.627Z</time></trkpt><trkpt lat="45.3934552" lon="10.593436"><ele>117.19999999999999</ele><time>2026-03-28T09:12:46.631Z</time></trkpt><trkpt lat="45.3935347" lon="10.5935259"><ele>116.6</ele><time>2026-03-28T09:12:47.648Z</time></trkpt><trkpt lat="45.3936278" lon="10.5936099"><ele>116.0</ele><time>2026-03-28T09:12:48.639Z</time></trkpt><trkpt lat="45.3937253" lon="10.5936823"><ele>116.0</ele><time>2026-03-28T09:12:49.639Z</time></trkpt><trkpt lat="45.3938366" lon="10.5937556"><ele>116.0</ele><time>2026-03-28T09:12:50.638Z</time></trkpt><trkpt lat="45.3939325" lon="10.5938319"><ele>116.0</ele><time>2026-03-28T09:12:51.637Z</time></trkpt><trkpt lat="45.3939841" lon="10.5939163"><ele>116.0</ele><time>2026-03-28T09:12:52.644Z</time></trkpt><trkpt lat="45.3940042" lon="10.5940031"><ele>116.0</ele><time>2026-03-28T09:12:53.642Z</time></trkpt><trkpt lat="45.3940173" lon="10.5941105"><ele>115.5</ele><time>2026-03-28T09:12:54.631Z</time></trkpt><trkpt lat="45.3940292" lon="10.5942607"><ele>115.0</ele><time>2026-03-28T09:12:55.63Z</time></trkpt><trkpt lat="45.3940239" lon="10.5944296"><ele>114.5</ele><time>2026-03-28T09:12:56.648Z</time></trkpt><trkpt lat="45.3939994" lon="10.5946253"><ele>114.0</ele><time>2026-03-28T09:12:57.65Z</time></trkpt><trkpt lat="45.3939701" lon="10.5948268"><ele>113.75</ele><time>2026-03-28T09:12:58.647Z</time></trkpt><trkpt lat="45.393955" lon="10.595029"><ele>113.5</ele><time>2026-03-28T09:12:59.651Z</time></trkpt><trkpt lat="45.3939402" lon="10.5951975"><ele>113.25</ele><time>2026-03-28T09:13:00.645Z</time></trkpt><trkpt lat="45.3939242" lon="10.5953419"><ele>113.0</ele><time>2026-03-28T09:13:01.636Z</time></trkpt><trkpt lat="45.3939104" lon="10.5954729"><ele>113.60000000000001</ele><time>2026-03-28T09:13:02.638Z</time></trkpt><trkpt lat="45.3938978" lon="10.5955891"><ele>114.20000000000002</ele><time>2026-03-28T09:13:03.648Z</time></trkpt><trkpt lat="45.3938935" lon="10.5956834"><ele>114.8</ele><time>2026-03-28T09:13:04.644Z</time></trkpt><trkpt lat="45.3939339" lon="10.5958271"><ele>115.4</ele><time>2026-03-28T09:13:06.637Z</time></trkpt><trkpt lat="45.3940571" lon="10.595931"><ele>116.0</ele><time>2026-03-28T09:13:08.639Z</time></trkpt><trkpt lat="45.3941582" lon="10.5959796"><ele>116.0</ele><time>2026-03-28T09:13:09.637Z</time></trkpt><trkpt lat="45.3942819" lon="10.5960331"><ele>116.0</ele><time>2026-03-28T09:13:10.639Z</time></trkpt><trkpt lat="45.3944071" lon="10.5960818"><ele>116.0</ele><time>2026-03-28T09:13:11.64Z</time></trkpt><trkpt lat="45.3945185" lon="10.5961041"><ele>116.0</ele><time>2026-03-28T09:13:12.644Z</time></trkpt><trkpt lat="45.3946199" lon="10.5961313"><ele>115.5</ele><time>2026-03-28T09:13:13.644Z</time></trkpt><trkpt lat="45.3947253" lon="10.5961578"><ele>115.0</ele><time>2026-03-28T09:13:14.648Z</time></trkpt><trkpt lat="45.39485" lon="10.596181"><ele>114.5</ele><time>2026-03-28T09:13:15.644Z</time></trkpt><trkpt lat="45.3949665" lon="10.5962162"><ele>114.0</ele><time>2026-03-28T09:13:16.642Z</time></trkpt><trkpt lat="45.3950895" lon="10.5962554"><ele>113.6</ele><time>2026-03-28T09:13:17.642Z</time></trkpt><trkpt lat="45.3952" lon="10.5962984"><ele>113.2</ele><time>2026-03-28T09:13:18.651Z</time></trkpt><trkpt lat="45.3952886" lon="10.5963486"><ele>112.79999999999998</ele><time>2026-03-28T09:13:19.641Z</time></trkpt><trkpt lat="45.3953713" lon="10.5963972"><ele>112.39999999999999</ele><time>2026-03-28T09:13:20.639Z</time></trkpt><trkpt lat="45.395445" lon="10.5964677"><ele>112.0</ele><time>2026-03-28T09:13:21.628Z</time></trkpt><trkpt lat="45.3955076" lon="10.5965806"><ele>111.33333333333334</ele><time>2026-03-28T09:13:22.63Z</time></trkpt><trkpt lat="45.3955602" lon="10.5967085"><ele>110.66666666666667</ele><time>2026-03-28T09:13:23.635Z</time></trkpt><trkpt lat="45.3956005" lon="10.5968242"><ele>110.0</ele><time>2026-03-28T09:13:24.645Z</time></trkpt><trkpt lat="45.3956459" lon="10.5969208"><ele>109.33333333333334</ele><time>2026-03-28T09:13:25.64Z</time></trkpt><trkpt lat="45.3956989" lon="10.5969866"><ele>108.66666666666667</ele><time>2026-03-28T09:13:26.643Z</time></trkpt><trkpt lat="45.3957526" lon="10.597054"><ele>108.0</ele><time>2026-03-28T09:13:27.64Z</time></trkpt><trkpt lat="45.3958336" lon="10.597103"><ele>108.0</ele><time>2026-03-28T09:13:28.644Z</time></trkpt><trkpt lat="45.3959288" lon="10.597142"><ele>108.00000000000001</ele><time>2026-03-28T09:13:29.648Z</time></trkpt><trkpt lat="45.396027" lon="10.5971728"><ele>108.00000000000001</ele><time>2026-03-28T09:13:30.656Z</time></trkpt><trkpt lat="45.3961233" lon="10.5971925"><ele>108.0</ele><time>2026-03-28T09:13:31.654Z</time></trkpt><trkpt lat="45.3962198" lon="10.5972186"><ele>108.0</ele><time>2026-03-28T09:13:32.649Z</time></trkpt><trkpt lat="45.3963121" lon="10.5972459"><ele>107.0</ele><time>2026-03-28T09:13:33.647Z</time></trkpt><trkpt lat="45.3964004" lon="10.5972722"><ele>106.00000000000001</ele><time>2026-03-28T09:13:34.661Z</time></trkpt><trkpt lat="45.3964947" lon="10.5972799"><ele>105.0</ele><time>2026-03-28T09:13:35.649Z</time></trkpt><trkpt lat="45.3965957" lon="10.5972586"><ele>104.0</ele><time>2026-03-28T09:13:36.65Z</time></trkpt><trkpt lat="45.3966964" lon="10.5972132"><ele>103.0</ele><time>2026-03-28T09:13:37.641Z</time></trkpt><trkpt lat="45.3967882" lon="10.5971471"><ele>103.00000000000001</ele><time>2026-03-28T09:13:38.649Z</time></trkpt><trkpt lat="45.3968779" lon="10.5970967"><ele>103.0</ele><time>2026-03-28T09:13:39.646Z</time></trkpt><trkpt lat="45.3969638" lon="10.597063"><ele>103.0</ele><time>2026-03-28T09:13:40.654Z</time></trkpt><trkpt lat="45.3970532" lon="10.5970572"><ele>103.0</ele><time>2026-03-28T09:13:41.653Z</time></trkpt><trkpt lat="45.3971334" lon="10.597057"><ele>103.00000000000001</ele><time>2026-03-28T09:13:42.648Z</time></trkpt><trkpt lat="45.3972037" lon="10.5970726"><ele>103.0</ele><time>2026-03-28T09:13:43.654Z</time></trkpt><trkpt lat="45.3973095" lon="10.5970979"><ele>103.16666666666667</ele><time>2026-03-28T09:13:45.657Z</time></trkpt><trkpt lat="45.3973507" lon="10.5971974"><ele>103.33333333333334</ele><time>2026-03-28T09:13:48.648Z</time></trkpt><trkpt lat="45.3973414" lon="10.5972871"><ele>103.5</ele><time>2026-03-28T09:13:49.674Z</time></trkpt><trkpt lat="45.397322" lon="10.5974054"><ele>103.66666666666666</ele><time>2026-03-28T09:13:50.645Z</time></trkpt><trkpt lat="45.397296" lon="10.5975393"><ele>103.83333333333333</ele><time>2026-03-28T09:13:51.646Z</time></trkpt><trkpt lat="45.3972814" lon="10.5976624"><ele>104.0</ele><time>2026-03-28T09:13:52.645Z</time></trkpt><trkpt lat="45.3972691" lon="10.59778"><ele>103.83333333333333</ele><time>2026-03-28T09:13:53.644Z</time></trkpt><trkpt lat="45.397245" lon="10.597886"><ele>103.66666666666666</ele><time>2026-03-28T09:13:54.642Z</time></trkpt><trkpt lat="45.3972261" lon="10.5979799"><ele>103.5</ele><time>2026-03-28T09:13:55.646Z</time></trkpt><trkpt lat="45.3972044" lon="10.5980977"><ele>103.33333333333334</ele><time>2026-03-28T09:13:56.637Z</time></trkpt><trkpt lat="45.3971804" lon="10.5982291"><ele>103.16666666666667</ele><time>2026-03-28T09:13:57.624Z</time></trkpt><trkpt lat="45.3971511" lon="10.5983546"><ele>103.0</ele><time>2026-03-28T09:13:58.623Z</time></trkpt><trkpt lat="45.3971188" lon="10.59848"><ele>103.0</ele><time>2026-03-28T09:13:59.618Z</time></trkpt><trkpt lat="45.3970786" lon="10.5986185"><ele>103.0</ele><time>2026-03-28T09:14:00.618Z</time></trkpt><trkpt lat="45.3970253" lon="10.5987627"><ele>103.0</ele><time>2026-03-28T09:14:01.624Z</time></trkpt><trkpt lat="45.3969808" lon="10.5989198"><ele>103.0</ele><time>2026-03-28T09:14:02.619Z</time></trkpt><trkpt lat="45.3969362" lon="10.5990896"><ele>103.0</ele><time>2026-03-28T09:14:03.633Z</time></trkpt><trkpt lat="45.3969052" lon="10.5992416"><ele>103.0</ele><time>2026-03-28T09:14:04.636Z</time></trkpt><trkpt lat="45.396875" lon="10.5993924"><ele>103.0</ele><time>2026-03-28T09:14:05.649Z</time></trkpt><trkpt lat="45.3968488" lon="10.5995233"><ele>103.0</ele><time>2026-03-28T09:14:06.646Z</time></trkpt><trkpt lat="45.3968151" lon="10.5996545"><ele>103.0</ele><time>2026-03-28T09:14:07.644Z</time></trkpt><trkpt lat="45.3967702" lon="10.599794"><ele>103.00000000000001</ele><time>2026-03-28T09:14:08.634Z</time></trkpt><trkpt lat="45.3967204" lon="10.5999091"><ele>103.0</ele><time>2026-03-28T09:14:09.648Z</time></trkpt><trkpt lat="45.3966741" lon="10.5999976"><ele>103.0</ele><time>2026-03-28T09:14:10.652Z</time></trkpt><trkpt lat="45.396629" lon="10.6000863"><ele>103.0</ele><time>2026-03-28T09:14:11.642Z</time></trkpt><trkpt lat="45.3965919" lon="10.6001958"><ele>103.00000000000001</ele><time>2026-03-28T09:14:12.656Z</time></trkpt><trkpt lat="45.3965663" lon="10.600315"><ele>103.0</ele><time>2026-03-28T09:14:13.653Z</time></trkpt><trkpt lat="45.3965342" lon="10.6004662"><ele>103.60000000000001</ele><time>2026-03-28T09:14:14.65Z</time></trkpt><trkpt lat="45.3964935" lon="10.6006052"><ele>104.2</ele><time>2026-03-28T09:14:15.65Z</time></trkpt><trkpt lat="45.3964574" lon="10.6007347"><ele>104.8</ele><time>2026-03-28T09:14:16.652Z</time></trkpt><trkpt lat="45.3964162" lon="10.6008562"><ele>105.4</ele><time>2026-03-28T09:14:17.644Z</time></trkpt><trkpt lat="45.3963699" lon="10.6009807"><ele>106.0</ele><time>2026-03-28T09:14:18.642Z</time></trkpt><trkpt lat="45.3963215" lon="10.6011437"><ele>104.33333333333334</ele><time>2026-03-28T09:14:19.632Z</time></trkpt><trkpt lat="45.3962743" lon="10.6013168"><ele>102.66666666666666</ele><time>2026-03-28T09:14:20.623Z</time></trkpt><trkpt lat="45.3962236" lon="10.6015124"><ele>101.0</ele><time>2026-03-28T09:14:21.619Z</time></trkpt><trkpt lat="45.3961515" lon="10.6017452"><ele>101.0</ele><time>2026-03-28T09:14:22.628Z</time></trkpt><trkpt lat="45.3960967" lon="10.6019777"><ele>101.0</ele><time>2026-03-28T09:14:23.624Z</time></trkpt><trkpt lat="45.3960229" lon="10.6021889"><ele>101.0</ele><time>2026-03-28T09:14:24.624Z</time></trkpt><trkpt lat="45.3959612" lon="10.6024039"><ele>101.33333333333333</ele><time>2026-03-28T09:14:25.628Z</time></trkpt><trkpt lat="45.3958723" lon="10.6026218"><ele>101.66666666666666</ele><time>2026-03-28T09:14:26.628Z</time></trkpt><trkpt lat="45.3957991" lon="10.6028389"><ele>102.0</ele><time>2026-03-28T09:14:27.625Z</time></trkpt><trkpt lat="45.3957281" lon="10.6030548"><ele>101.5</ele><time>2026-03-28T09:14:28.628Z</time></trkpt><trkpt lat="45.3956648" lon="10.6032492"><ele>101.0</ele><time>2026-03-28T09:14:29.634Z</time></trkpt><trkpt lat="45.395601" lon="10.6034461"><ele>100.5</ele><time>2026-03-28T09:14:30.635Z</time></trkpt><trkpt lat="45.3955337" lon="10.6036208"><ele>100.0</ele><time>2026-03-28T09:14:31.635Z</time></trkpt><trkpt lat="45.3954768" lon="10.6037807"><ele>100.0</ele><time>2026-03-28T09:14:32.635Z</time></trkpt><trkpt lat="45.3954078" lon="10.603954"><ele>100.0</ele><time>2026-03-28T09:14:33.631Z</time></trkpt><trkpt lat="45.3953581" lon="10.6041182"><ele>100.0</ele><time>2026-03-28T09:14:34.637Z</time></trkpt><trkpt lat="45.3953098" lon="10.6042998"><ele>100.0</ele><time>2026-03-28T09:14:35.642Z</time></trkpt><trkpt lat="45.3952677" lon="10.6044769"><ele>100.0</ele><time>2026-03-28T09:14:36.649Z</time></trkpt><trkpt lat="45.3952181" lon="10.6046478"><ele>100.0</ele><time>2026-03-28T09:14:37.65Z</time></trkpt><trkpt lat="45.3951712" lon="10.6048293"><ele>100.0</ele><time>2026-03-28T09:14:38.639Z</time></trkpt><trkpt lat="45.3951316" lon="10.6049903"><ele>100.0</ele><time>2026-03-28T09:14:39.646Z</time></trkpt><trkpt lat="45.3951033" lon="10.6051758"><ele>100.6</ele><time>2026-03-28T09:14:40.646Z</time></trkpt><trkpt lat="45.3950738" lon="10.6053466"><ele>101.2</ele><time>2026-03-28T09:14:41.641Z</time></trkpt><trkpt lat="45.3950524" lon="10.6055119"><ele>101.80000000000001</ele><time>2026-03-28T09:14:42.645Z</time></trkpt><trkpt lat="45.3950314" lon="10.6056566"><ele>102.4</ele><time>2026-03-28T09:14:43.647Z</time></trkpt><trkpt lat="45.3950083" lon="10.6057928"><ele>103.0</ele><time>2026-03-28T09:14:44.647Z</time></trkpt><trkpt lat="45.3949842" lon="10.6059377"><ele>103.0</ele><time>2026-03-28T09:14:45.643Z</time></trkpt><trkpt lat="45.3949588" lon="10.6061103"><ele>103.0</ele><time>2026-03-28T09:14:46.636Z</time></trkpt><trkpt lat="45.3949211" lon="10.6062995"><ele>103.0</ele><time>2026-03-28T09:14:47.65Z</time></trkpt><trkpt lat="45.394887" lon="10.6064895"><ele>103.0</ele><time>2026-03-28T09:14:48.65Z</time></trkpt><trkpt lat="45.3948674" lon="10.6067033"><ele>102.75</ele><time>2026-03-28T09:14:49.655Z</time></trkpt><trkpt lat="45.394833" lon="10.6069092"><ele>102.5</ele><time>2026-03-28T09:14:50.651Z</time></trkpt><trkpt lat="45.3948253" lon="10.6071083"><ele>102.25</ele><time>2026-03-28T09:14:51.668Z</time></trkpt><trkpt lat="45.3948208" lon="10.607331"><ele>102.0</ele><time>2026-03-28T09:14:52.653Z</time></trkpt><trkpt lat="45.3948216" lon="10.607556"><ele>102.66666666666666</ele><time>2026-03-28T09:14:53.657Z</time></trkpt><trkpt lat="45.3948264" lon="10.6077773"><ele>103.33333333333333</ele><time>2026-03-28T09:14:54.657Z</time></trkpt><trkpt lat="45.3948053" lon="10.6080056"><ele>104.0</ele><time>2026-03-28T09:14:55.656Z</time></trkpt><trkpt lat="45.3948002" lon="10.6082327"><ele>104.0</ele><time>2026-03-28T09:14:56.656Z</time></trkpt><trkpt lat="45.3947912" lon="10.6084402"><ele>104.0</ele><time>2026-03-28T09:14:57.657Z</time></trkpt><trkpt lat="45.3947794" lon="10.6086393"><ele>104.0</ele><time>2026-03-28T09:14:58.652Z</time></trkpt><trkpt lat="45.3947469" lon="10.6088375"><ele>104.0</ele><time>2026-03-28T09:14:59.648Z</time></trkpt><trkpt lat="45.3947016" lon="10.6090372"><ele>102.5</ele><time>2026-03-28T09:15:00.65Z</time></trkpt><trkpt lat="45.3946553" lon="10.6092367"><ele>101.0</ele><time>2026-03-28T09:15:01.621Z</time></trkpt><trkpt lat="45.3946003" lon="10.6094256"><ele>99.5</ele><time>2026-03-28T09:15:02.617Z</time></trkpt><trkpt lat="45.3945333" lon="10.6095982"><ele>98.0</ele><time>2026-03-28T09:15:03.619Z</time></trkpt><trkpt lat="45.3944512" lon="10.609778"><ele>98.0</ele><time>2026-03-28T09:15:04.617Z</time></trkpt><trkpt lat="45.3943896" lon="10.6099616"><ele>98.0</ele><time>2026-03-28T09:15:05.621Z</time></trkpt><trkpt lat="45.3943419" lon="10.6100925"><ele>98.0</ele><time>2026-03-28T09:15:06.623Z</time></trkpt><trkpt lat="45.3943138" lon="10.6102453"><ele>98.0</ele><time>2026-03-28T09:15:07.634Z</time></trkpt><trkpt lat="45.3942925" lon="10.6104148"><ele>98.5</ele><time>2026-03-28T09:15:08.613Z</time></trkpt><trkpt lat="45.3942997" lon="10.6106318"><ele>99.0</ele><time>2026-03-28T09:15:09.616Z</time></trkpt><trkpt lat="45.3942883" lon="10.6108411"><ele>99.5</ele><time>2026-03-28T09:15:10.617Z</time></trkpt><trkpt lat="45.3942845" lon="10.6109754"><ele>100.0</ele><time>2026-03-28T09:15:11.614Z</time></trkpt><trkpt lat="45.3943083" lon="10.6111313"><ele>100.00000000000001</ele><time>2026-03-28T09:15:12.602Z</time></trkpt><trkpt lat="45.3943131" lon="10.6112473"><ele>100.0</ele><time>2026-03-28T09:15:13.613Z</time></trkpt><trkpt lat="45.3943355" lon="10.6113319"><ele>100.0</ele><time>2026-03-28T09:15:15.597Z</time></trkpt><trkpt lat="45.3944158" lon="10.6113022"><ele>100.0</ele><time>2026-03-28T09:15:17.623Z</time></trkpt><trkpt lat="45.3944802" lon="10.6112694"><ele>100.00000000000001</ele><time>2026-03-28T09:15:18.62Z</time></trkpt><trkpt lat="45.3945573" lon="10.6112111"><ele>100.0</ele><time>2026-03-28T09:15:19.601Z</time></trkpt><trkpt lat="45.394644" lon="10.6111412"><ele>102.5</ele><time>2026-03-28T09:15:20.607Z</time></trkpt><trkpt lat="45.3947415" lon="10.6110623"><ele>105.0</ele><time>2026-03-28T09:15:21.626Z</time></trkpt><trkpt lat="45.3948485" lon="10.6109908"><ele>107.5</ele><time>2026-03-28T09:15:22.618Z</time></trkpt><trkpt lat="45.3949551" lon="10.610914"><ele>110.0</ele><time>2026-03-28T09:15:23.619Z</time></trkpt><trkpt lat="45.3950647" lon="10.6108361"><ele>110.0</ele><time>2026-03-28T09:15:24.611Z</time></trkpt><trkpt lat="45.3951659" lon="10.6107787"><ele>110.0</ele><time>2026-03-28T09:15:25.614Z</time></trkpt><trkpt lat="45.3952585" lon="10.610729"><ele>110.0</ele><time>2026-03-28T09:15:26.615Z</time></trkpt><trkpt lat="45.3953408" lon="10.6106907"><ele>110.0</ele><time>2026-03-28T09:15:27.611Z</time></trkpt><trkpt lat="45.3954207" lon="10.6106493"><ele>110.0</ele><time>2026-03-28T09:15:28.616Z</time></trkpt><trkpt lat="45.3955216" lon="10.6106192"><ele>110.83333333333333</ele><time>2026-03-28T09:15:29.611Z</time></trkpt><trkpt lat="45.3956285" lon="10.6105958"><ele>111.66666666666666</ele><time>2026-03-28T09:15:30.613Z</time></trkpt><trkpt lat="45.3957248" lon="10.6105692"><ele>112.5</ele><time>2026-03-28T09:15:31.612Z</time></trkpt><trkpt lat="45.3957952" lon="10.6105465"><ele>113.33333333333334</ele><time>2026-03-28T09:15:32.614Z</time></trkpt><trkpt lat="45.3958598" lon="10.6105244"><ele>114.16666666666667</ele><time>2026-03-28T09:15:33.622Z</time></trkpt><trkpt lat="45.3959282" lon="10.6104828"><ele>115.0</ele><time>2026-03-28T09:15:34.616Z</time></trkpt><trkpt lat="45.3959917" lon="10.6104111"><ele>115.16666666666667</ele><time>2026-03-28T09:15:35.62Z</time></trkpt><trkpt lat="45.3960365" lon="10.6103074"><ele>115.33333333333334</ele><time>2026-03-28T09:15:36.619Z</time></trkpt><trkpt lat="45.3960651" lon="10.6102095"><ele>115.5</ele><time>2026-03-28T09:15:37.626Z</time></trkpt><trkpt lat="45.3960986" lon="10.6101113"><ele>115.66666666666666</ele><time>2026-03-28T09:15:38.619Z</time></trkpt><trkpt lat="45.3961432" lon="10.6100153"><ele>115.83333333333333</ele><time>2026-03-28T09:15:39.617Z</time></trkpt><trkpt lat="45.3961957" lon="10.6099365"><ele>116.0</ele><time>2026-03-28T09:15:40.629Z</time></trkpt><trkpt lat="45.3962619" lon="10.6098408"><ele>116.0</ele><time>2026-03-28T09:15:41.622Z</time></trkpt><trkpt lat="45.3963222" lon="10.6097368"><ele>116.0</ele><time>2026-03-28T09:15:42.619Z</time></trkpt><trkpt lat="45.3963764" lon="10.6096205"><ele>116.0</ele><time>2026-03-28T09:15:43.621Z</time></trkpt><trkpt lat="45.3964095" lon="10.6094938"><ele>116.0</ele><time>2026-03-28T09:15:44.63Z</time></trkpt><trkpt lat="45.3964389" lon="10.6093629"><ele>116.0</ele><time>2026-03-28T09:15:45.625Z</time></trkpt><trkpt lat="45.3964674" lon="10.6092653"><ele>116.8</ele><time>2026-03-28T09:15:46.619Z</time></trkpt><trkpt lat="45.396513" lon="10.6091226"><ele>117.6</ele><time>2026-03-28T09:15:48.626Z</time></trkpt><trkpt lat="45.3965846" lon="10.6090225"><ele>118.4</ele><time>2026-03-28T09:15:50.626Z</time></trkpt><trkpt lat="45.396656" lon="10.6090002"><ele>119.2</ele><time>2026-03-28T09:15:51.624Z</time></trkpt><trkpt lat="45.3967501" lon="10.6090051"><ele>120.0</ele><time>2026-03-28T09:15:52.628Z</time></trkpt><trkpt lat="45.3968639" lon="10.6090309"><ele>120.0</ele><time>2026-03-28T09:15:53.622Z</time></trkpt><trkpt lat="45.3970022" lon="10.6090563"><ele>120.0</ele><time>2026-03-28T09:15:54.63Z</time></trkpt><trkpt lat="45.397146" lon="10.6090688"><ele>120.0</ele><time>2026-03-28T09:15:55.626Z</time></trkpt><trkpt lat="45.3972865" lon="10.6090743"><ele>120.0</ele><time>2026-03-28T09:15:56.628Z</time></trkpt><trkpt lat="45.3974192" lon="10.6090761"><ele>120.5</ele><time>2026-03-28T09:15:57.632Z</time></trkpt><trkpt lat="45.3975335" lon="10.6090714"><ele>121.0</ele><time>2026-03-28T09:15:58.633Z</time></trkpt><trkpt lat="45.3976465" lon="10.6090573"><ele>121.5</ele><time>2026-03-28T09:15:59.634Z</time></trkpt><trkpt lat="45.3977603" lon="10.6090462"><ele>122.0</ele><time>2026-03-28T09:16:00.63Z</time></trkpt><trkpt lat="45.3978779" lon="10.6090217"><ele>122.0</ele><time>2026-03-28T09:16:01.632Z</time></trkpt><trkpt lat="45.3979845" lon="10.6089797"><ele>121.99999999999999</ele><time>2026-03-28T09:16:02.63Z</time></trkpt><trkpt lat="45.3980933" lon="10.6089462"><ele>121.99999999999999</ele><time>2026-03-28T09:16:03.637Z</time></trkpt><trkpt lat="45.3981865" lon="10.6089208"><ele>122.0</ele><time>2026-03-28T09:16:04.635Z</time></trkpt><trkpt lat="45.3982603" lon="10.6088978"><ele>122.0</ele><time>2026-03-28T09:16:05.634Z</time></trkpt><trkpt lat="45.3983696" lon="10.6088914"><ele>122.0</ele><time>2026-03-28T09:16:07.625Z</time></trkpt><trkpt lat="45.3984364" lon="10.6089674"><ele>121.99999999999999</ele><time>2026-03-28T09:16:09.612Z</time></trkpt><trkpt lat="45.3984259" lon="10.6091399"><ele>121.99999999999999</ele><time>2026-03-28T09:16:11.606Z</time></trkpt><trkpt lat="45.3984052" lon="10.6092615"><ele>122.0</ele><time>2026-03-28T09:16:12.616Z</time></trkpt><trkpt lat="45.3983877" lon="10.6094129"><ele>122.0</ele><time>2026-03-28T09:16:13.629Z</time></trkpt><trkpt lat="45.3983687" lon="10.609568"><ele>122.75</ele><time>2026-03-28T09:16:14.635Z</time></trkpt><trkpt lat="45.3983547" lon="10.6097371"><ele>123.5</ele><time>2026-03-28T09:16:15.625Z</time></trkpt><trkpt lat="45.398328" lon="10.609929"><ele>124.25</ele><time>2026-03-28T09:16:16.626Z</time></trkpt><trkpt lat="45.398294" lon="10.6101505"><ele>125.0</ele><time>2026-03-28T09:16:17.628Z</time></trkpt><trkpt lat="45.3982352" lon="10.6103989"><ele>125.0</ele><time>2026-03-28T09:16:18.623Z</time></trkpt><trkpt lat="45.3981959" lon="10.6106409"><ele>125.0</ele><time>2026-03-28T09:16:19.627Z</time></trkpt><trkpt lat="45.3981529" lon="10.6108851"><ele>125.0</ele><time>2026-03-28T09:16:20.626Z</time></trkpt><trkpt lat="45.3980965" lon="10.6111226"><ele>125.66666666666666</ele><time>2026-03-28T09:16:21.622Z</time></trkpt><trkpt lat="45.3980209" lon="10.6113616"><ele>126.33333333333334</ele><time>2026-03-28T09:16:22.625Z</time></trkpt><trkpt lat="45.397952" lon="10.6116039"><ele>127.0</ele><time>2026-03-28T09:16:23.637Z</time></trkpt><trkpt lat="45.397856" lon="10.611825"><ele>124.0</ele><time>2026-03-28T09:16:24.623Z</time></trkpt><trkpt lat="45.397773" lon="10.6120232"><ele>121.0</ele><time>2026-03-28T09:16:25.626Z</time></trkpt><trkpt lat="45.3977143" lon="10.6122446"><ele>118.0</ele><time>2026-03-28T09:16:26.62Z</time></trkpt><trkpt lat="45.3976601" lon="10.6124723"><ele>118.0</ele><time>2026-03-28T09:16:27.621Z</time></trkpt><trkpt lat="45.3976307" lon="10.6126843"><ele>118.0</ele><time>2026-03-28T09:16:28.623Z</time></trkpt><trkpt lat="45.3976201" lon="10.6129147"><ele>118.0</ele><time>2026-03-28T09:16:29.615Z</time></trkpt><trkpt lat="45.3976207" lon="10.6131626"><ele>118.0</ele><time>2026-03-28T09:16:30.618Z</time></trkpt><trkpt lat="45.3976256" lon="10.6134229"><ele>118.0</ele><time>2026-03-28T09:16:31.625Z</time></trkpt><trkpt lat="45.3976348" lon="10.6137099"><ele>118.0</ele><time>2026-03-28T09:16:32.622Z</time></trkpt><trkpt lat="45.3976449" lon="10.6139873"><ele>118.0</ele><time>2026-03-28T09:16:33.624Z</time></trkpt><trkpt lat="45.3976549" lon="10.6142497"><ele>118.0</ele><time>2026-03-28T09:16:34.623Z</time></trkpt><trkpt lat="45.3976612" lon="10.6145191"><ele>118.0</ele><time>2026-03-28T09:16:35.623Z</time></trkpt><trkpt lat="45.3976608" lon="10.614774"><ele>118.0</ele><time>2026-03-28T09:16:36.612Z</time></trkpt><trkpt lat="45.3976758" lon="10.6150423"><ele>118.0</ele><time>2026-03-28T09:16:37.616Z</time></trkpt><trkpt lat="45.3976657" lon="10.6152952"><ele>118.0</ele><time>2026-03-28T09:16:38.622Z</time></trkpt><trkpt lat="45.3976555" lon="10.6155399"><ele>118.0</ele><time>2026-03-28T09:16:39.63Z</time></trkpt><trkpt lat="45.3976507" lon="10.6158101"><ele>118.0</ele><time>2026-03-28T09:16:40.626Z</time></trkpt><trkpt lat="45.3976322" lon="10.6160727"><ele>118.0</ele><time>2026-03-28T09:16:41.621Z</time></trkpt><trkpt lat="45.3976122" lon="10.6163486"><ele>117.33333333333334</ele><time>2026-03-28T09:16:42.618Z</time></trkpt><trkpt lat="45.3975762" lon="10.616632"><ele>116.66666666666666</ele><time>2026-03-28T09:16:43.616Z</time></trkpt><trkpt lat="45.3975562" lon="10.6169103"><ele>116.0</ele><time>2026-03-28T09:16:44.616Z</time></trkpt><trkpt lat="45.3975497" lon="10.617191"><ele>115.33333333333333</ele><time>2026-03-28T09:16:45.616Z</time></trkpt><trkpt lat="45.3975394" lon="10.6174708"><ele>114.66666666666666</ele><time>2026-03-28T09:16:46.616Z</time></trkpt><trkpt lat="45.3975214" lon="10.6177436"><ele>114.0</ele><time>2026-03-28T09:16:47.616Z</time></trkpt><trkpt lat="45.3975035" lon="10.6179862"><ele>113.0</ele><time>2026-03-28T09:16:48.612Z</time></trkpt><trkpt lat="45.3974919" lon="10.6182215"><ele>112.0</ele><time>2026-03-28T09:16:49.616Z</time></trkpt><trkpt lat="45.3974949" lon="10.6184508"><ele>111.0</ele><time>2026-03-28T09:16:50.614Z</time></trkpt><trkpt lat="45.3974801" lon="10.6186699"><ele>108.66666666666666</ele><time>2026-03-28T09:16:51.615Z</time></trkpt><trkpt lat="45.3974537" lon="10.6188893"><ele>106.33333333333333</ele><time>2026-03-28T09:16:52.612Z</time></trkpt><trkpt lat="45.397409" lon="10.6190904"><ele>104.0</ele><time>2026-03-28T09:16:53.617Z</time></trkpt><trkpt lat="45.3973603" lon="10.6193105"><ele>103.0</ele><time>2026-03-28T09:16:54.628Z</time></trkpt><trkpt lat="45.3973204" lon="10.6194991"><ele>102.0</ele><time>2026-03-28T09:16:55.616Z</time></trkpt><trkpt lat="45.397239" lon="10.6196721"><ele>101.0</ele><time>2026-03-28T09:16:56.613Z</time></trkpt><trkpt lat="45.3971508" lon="10.6198554"><ele>100.0</ele><time>2026-03-28T09:16:57.62Z</time></trkpt><trkpt lat="45.3970534" lon="10.6200374"><ele>100.0</ele><time>2026-03-28T09:16:58.614Z</time></trkpt><trkpt lat="45.3969485" lon="10.6202094"><ele>100.0</ele><time>2026-03-28T09:16:59.615Z</time></trkpt><trkpt lat="45.3968147" lon="10.6203674"><ele>100.0</ele><time>2026-03-28T09:17:00.619Z</time></trkpt><trkpt lat="45.3966698" lon="10.6205024"><ele>99.25</ele><time>2026-03-28T09:17:01.619Z</time></trkpt><trkpt lat="45.3965448" lon="10.6206168"><ele>98.5</ele><time>2026-03-28T09:17:02.606Z</time></trkpt><trkpt lat="45.3964365" lon="10.6207542"><ele>97.75</ele><time>2026-03-28T09:17:03.611Z</time></trkpt><trkpt lat="45.396341" lon="10.6208839"><ele>97.0</ele><time>2026-03-28T09:17:04.618Z</time></trkpt><trkpt lat="45.396248" lon="10.6209692"><ele>96.19999999999999</ele><time>2026-03-28T09:17:05.62Z</time></trkpt><trkpt lat="45.3961485" lon="10.6210823"><ele>95.4</ele><time>2026-03-28T09:17:06.622Z</time></trkpt><trkpt lat="45.3960424" lon="10.6211714"><ele>94.6</ele><time>2026-03-28T09:17:07.621Z</time></trkpt><trkpt lat="45.3959565" lon="10.6212447"><ele>93.80000000000001</ele><time>2026-03-28T09:17:08.618Z</time></trkpt><trkpt lat="45.3959002" lon="10.6213061"><ele>93.0</ele><time>2026-03-28T09:17:09.612Z</time></trkpt><trkpt lat="45.3958419" lon="10.62135"><ele>93.0</ele><time>2026-03-28T09:17:10.623Z</time></trkpt><trkpt lat="45.3957628" lon="10.6213732"><ele>93.0</ele><time>2026-03-28T09:17:12.623Z</time></trkpt><trkpt lat="45.3957291" lon="10.621252"><ele>93.0</ele><time>2026-03-28T09:17:16.622Z</time></trkpt><trkpt lat="45.3957233" lon="10.6211472"><ele>93.0</ele><time>2026-03-28T09:17:17.636Z</time></trkpt><trkpt lat="45.3957315" lon="10.6210021"><ele>93.0</ele><time>2026-03-28T09:17:18.623Z</time></trkpt><trkpt lat="45.3957412" lon="10.6208261"><ele>93.0</ele><time>2026-03-28T09:17:19.628Z</time></trkpt><trkpt lat="45.3957416" lon="10.6206281"><ele>93.0</ele><time>2026-03-28T09:17:20.626Z</time></trkpt><trkpt lat="45.3957267" lon="10.6203992"><ele>93.0</ele><time>2026-03-28T09:17:21.621Z</time></trkpt><trkpt lat="45.395693" lon="10.6201344"><ele>93.33333333333333</ele><time>2026-03-28T09:17:22.615Z</time></trkpt><trkpt lat="45.3956253" lon="10.6198944"><ele>93.66666666666666</ele><time>2026-03-28T09:17:23.621Z</time></trkpt><trkpt lat="45.3955542" lon="10.6196494"><ele>94.0</ele><time>2026-03-28T09:17:24.61Z</time></trkpt><trkpt lat="45.3954425" lon="10.6193702"><ele>94.0</ele><time>2026-03-28T09:17:25.635Z</time></trkpt><trkpt lat="45.3953393" lon="10.6191074"><ele>94.0</ele><time>2026-03-28T09:17:26.625Z</time></trkpt><trkpt lat="45.395252" lon="10.6188501"><ele>94.0</ele><time>2026-03-28T09:17:27.622Z</time></trkpt><trkpt lat="45.3951681" lon="10.6185962"><ele>95.0</ele><time>2026-03-28T09:17:28.623Z</time></trkpt><trkpt lat="45.3950654" lon="10.6183397"><ele>96.0</ele><time>2026-03-28T09:17:29.634Z</time></trkpt><trkpt lat="45.3949746" lon="10.6181009"><ele>97.0</ele><time>2026-03-28T09:17:30.625Z</time></trkpt><trkpt lat="45.3948935" lon="10.6178837"><ele>96.0</ele><time>2026-03-28T09:17:31.631Z</time></trkpt><trkpt lat="45.394798" lon="10.6176416"><ele>95.0</ele><time>2026-03-28T09:17:32.634Z</time></trkpt><trkpt lat="45.3947101" lon="10.6174166"><ele>94.0</ele><time>2026-03-28T09:17:33.627Z</time></trkpt><trkpt lat="45.3945997" lon="10.6171861"><ele>96.0</ele><time>2026-03-28T09:17:34.632Z</time></trkpt><trkpt lat="45.3944891" lon="10.6169606"><ele>98.0</ele><time>2026-03-28T09:17:35.63Z</time></trkpt><trkpt lat="45.3943733" lon="10.6167227"><ele>100.0</ele><time>2026-03-28T09:17:36.625Z</time></trkpt><trkpt lat="45.3942498" lon="10.6164946"><ele>100.0</ele><time>2026-03-28T09:17:37.625Z</time></trkpt><trkpt lat="45.3941308" lon="10.6162694"><ele>100.0</ele><time>2026-03-28T09:17:38.626Z</time></trkpt><trkpt lat="45.3940115" lon="10.6160543"><ele>100.0</ele><time>2026-03-28T09:17:39.62Z</time></trkpt><trkpt lat="45.3939118" lon="10.6158146"><ele>98.66666666666667</ele><time>2026-03-28T09:17:40.615Z</time></trkpt><trkpt lat="45.3938341" lon="10.6155739"><ele>97.33333333333334</ele><time>2026-03-28T09:17:41.619Z</time></trkpt><trkpt lat="45.3937481" lon="10.6153191"><ele>96.0</ele><time>2026-03-28T09:17:42.614Z</time></trkpt><trkpt lat="45.3936532" lon="10.6150577"><ele>96.0</ele><time>2026-03-28T09:17:43.61Z</time></trkpt><trkpt lat="45.3935552" lon="10.6147914"><ele>96.0</ele><time>2026-03-28T09:17:44.617Z</time></trkpt><trkpt lat="45.3934574" lon="10.6145445"><ele>96.0</ele><time>2026-03-28T09:17:45.614Z</time></trkpt><trkpt lat="45.3933755" lon="10.6143096"><ele>97.0</ele><time>2026-03-28T09:17:46.613Z</time></trkpt><trkpt lat="45.3932878" lon="10.6140907"><ele>98.0</ele><time>2026-03-28T09:17:47.614Z</time></trkpt><trkpt lat="45.3931862" lon="10.6138799"><ele>99.0</ele><time>2026-03-28T09:17:48.611Z</time></trkpt><trkpt lat="45.3931111" lon="10.6136631"><ele>99.0</ele><time>2026-03-28T09:17:49.617Z</time></trkpt><trkpt lat="45.3930354" lon="10.6134752"><ele>99.0</ele><time>2026-03-28T09:17:50.614Z</time></trkpt><trkpt lat="45.3929469" lon="10.6132874"><ele>99.0</ele><time>2026-03-28T09:17:51.62Z</time></trkpt><trkpt lat="45.3928495" lon="10.6131214"><ele>97.5</ele><time>2026-03-28T09:17:52.625Z</time></trkpt><trkpt lat="45.3927427" lon="10.6129825"><ele>96.0</ele><time>2026-03-28T09:17:53.627Z</time></trkpt><trkpt lat="45.3926444" lon="10.6128415"><ele>94.5</ele><time>2026-03-28T09:17:54.627Z</time></trkpt><trkpt lat="45.3925443" lon="10.6126817"><ele>93.0</ele><time>2026-03-28T09:17:55.634Z</time></trkpt><trkpt lat="45.3924524" lon="10.6125232"><ele>93.0</ele><time>2026-03-28T09:17:56.632Z</time></trkpt><trkpt lat="45.3923681" lon="10.6123948"><ele>93.0</ele><time>2026-03-28T09:17:57.629Z</time></trkpt><trkpt lat="45.3922945" lon="10.6122879"><ele>93.0</ele><time>2026-03-28T09:17:58.632Z</time></trkpt><trkpt lat="45.3922314" lon="10.6121886"><ele>93.0</ele><time>2026-03-28T09:17:59.638Z</time></trkpt><trkpt lat="45.3921562" lon="10.6121209"><ele>93.0</ele><time>2026-03-28T09:18:00.621Z</time></trkpt><trkpt lat="45.3920844" lon="10.61208"><ele>93.5</ele><time>2026-03-28T09:18:01.625Z</time></trkpt><trkpt lat="45.3919965" lon="10.6120731"><ele>94.0</ele><time>2026-03-28T09:18:02.633Z</time></trkpt><trkpt lat="45.3918868" lon="10.6121061"><ele>94.5</ele><time>2026-03-28T09:18:03.631Z</time></trkpt><trkpt lat="45.3917641" lon="10.612148"><ele>95.0</ele><time>2026-03-28T09:18:04.618Z</time></trkpt><trkpt lat="45.3916321" lon="10.6121897"><ele>95.0</ele><time>2026-03-28T09:18:05.623Z</time></trkpt><trkpt lat="45.3915054" lon="10.6122326"><ele>95.0</ele><time>2026-03-28T09:18:06.63Z</time></trkpt><trkpt lat="45.391346" lon="10.6122791"><ele>95.0</ele><time>2026-03-28T09:18:07.63Z</time></trkpt><trkpt lat="45.3911938" lon="10.6122938"><ele>95.0</ele><time>2026-03-28T09:18:08.628Z</time></trkpt><trkpt lat="45.3910306" lon="10.6122841"><ele>95.66666666666667</ele><time>2026-03-28T09:18:09.634Z</time></trkpt><trkpt lat="45.3908916" lon="10.6122619"><ele>96.33333333333334</ele><time>2026-03-28T09:18:10.631Z</time></trkpt><trkpt lat="45.3907595" lon="10.612222"><ele>97.0</ele><time>2026-03-28T09:18:11.624Z</time></trkpt><trkpt lat="45.3905937" lon="10.6121255"><ele>97.0</ele><time>2026-03-28T09:18:12.626Z</time></trkpt><trkpt lat="45.3904276" lon="10.6120157"><ele>97.0</ele><time>2026-03-28T09:18:13.636Z</time></trkpt><trkpt lat="45.3902835" lon="10.6119166"><ele>97.0</ele><time>2026-03-28T09:18:14.638Z</time></trkpt><trkpt lat="45.3901322" lon="10.6118326"><ele>97.33333333333334</ele><time>2026-03-28T09:18:15.635Z</time></trkpt><trkpt lat="45.3899774" lon="10.611758"><ele>97.66666666666666</ele><time>2026-03-28T09:18:16.636Z</time></trkpt><trkpt lat="45.3898144" lon="10.6116617"><ele>98.0</ele><time>2026-03-28T09:18:17.639Z</time></trkpt><trkpt lat="45.3896529" lon="10.6115599"><ele>98.33333333333333</ele><time>2026-03-28T09:18:18.637Z</time></trkpt><trkpt lat="45.3895016" lon="10.611481"><ele>98.66666666666666</ele><time>2026-03-28T09:18:19.638Z</time></trkpt><trkpt lat="45.3893547" lon="10.6114125"><ele>99.0</ele><time>2026-03-28T09:18:20.638Z</time></trkpt><trkpt lat="45.3891892" lon="10.6113564"><ele>99.0</ele><time>2026-03-28T09:18:21.638Z</time></trkpt><trkpt lat="45.3890155" lon="10.6113215"><ele>99.0</ele><time>2026-03-28T09:18:22.632Z</time></trkpt><trkpt lat="45.3888191" lon="10.6112961"><ele>99.0</ele><time>2026-03-28T09:18:23.64Z</time></trkpt><trkpt lat="45.388636" lon="10.6112839"><ele>99.0</ele><time>2026-03-28T09:18:24.636Z</time></trkpt><trkpt lat="45.3884361" lon="10.6112493"><ele>99.0</ele><time>2026-03-28T09:18:25.63Z</time></trkpt><trkpt lat="45.3882445" lon="10.6112199"><ele>99.0</ele><time>2026-03-28T09:18:26.633Z</time></trkpt><trkpt lat="45.3880363" lon="10.6112013"><ele>99.0</ele><time>2026-03-28T09:18:27.641Z</time></trkpt><trkpt lat="45.3878288" lon="10.6111722"><ele>99.0</ele><time>2026-03-28T09:18:28.64Z</time></trkpt><trkpt lat="45.3876209" lon="10.6111513"><ele>99.0</ele><time>2026-03-28T09:18:29.637Z</time></trkpt><trkpt lat="45.3874343" lon="10.6111276"><ele>99.0</ele><time>2026-03-28T09:18:30.638Z</time></trkpt><trkpt lat="45.3872428" lon="10.6111005"><ele>99.0</ele><time>2026-03-28T09:18:31.638Z</time></trkpt><trkpt lat="45.3870717" lon="10.6110851"><ele>99.0</ele><time>2026-03-28T09:18:32.635Z</time></trkpt><trkpt lat="45.3868976" lon="10.6110677"><ele>99.33333333333334</ele><time>2026-03-28T09:18:33.635Z</time></trkpt><trkpt lat="45.3867173" lon="10.611056"><ele>99.66666666666667</ele><time>2026-03-28T09:18:34.637Z</time></trkpt><trkpt lat="45.3865564" lon="10.611029"><ele>100.0</ele><time>2026-03-28T09:18:35.635Z</time></trkpt><trkpt lat="45.3864085" lon="10.6109991"><ele>100.25</ele><time>2026-03-28T09:18:36.632Z</time></trkpt><trkpt lat="45.3862557" lon="10.610983"><ele>100.5</ele><time>2026-03-28T09:18:37.632Z</time></trkpt><trkpt lat="45.386123" lon="10.6109716"><ele>100.75</ele><time>2026-03-28T09:18:38.63Z</time></trkpt><trkpt lat="45.3860033" lon="10.6109897"><ele>101.0</ele><time>2026-03-28T09:18:39.631Z</time></trkpt><trkpt lat="45.3858772" lon="10.611027"><ele>101.0</ele><time>2026-03-28T09:18:40.62Z</time></trkpt><trkpt lat="45.385747" lon="10.6111023"><ele>101.0</ele><time>2026-03-28T09:18:41.623Z</time></trkpt><trkpt lat="45.3856293" lon="10.6112046"><ele>101.0</ele><time>2026-03-28T09:18:42.617Z</time></trkpt><trkpt lat="45.3855023" lon="10.6113484"><ele>101.0</ele><time>2026-03-28T09:18:43.623Z</time></trkpt><trkpt lat="45.385341" lon="10.6115019"><ele>101.66666666666666</ele><time>2026-03-28T09:18:44.629Z</time></trkpt><trkpt lat="45.3852132" lon="10.6116606"><ele>102.33333333333334</ele><time>2026-03-28T09:18:45.626Z</time></trkpt><trkpt lat="45.3850632" lon="10.6117766"><ele>103.0</ele><time>2026-03-28T09:18:46.628Z</time></trkpt><trkpt lat="45.3848984" lon="10.611896"><ele>103.0</ele><time>2026-03-28T09:18:47.624Z</time></trkpt><trkpt lat="45.3847137" lon="10.6119923"><ele>103.0</ele><time>2026-03-28T09:18:48.623Z</time></trkpt><trkpt lat="45.3845436" lon="10.6120869"><ele>103.0</ele><time>2026-03-28T09:18:49.625Z</time></trkpt><trkpt lat="45.3843591" lon="10.6121896"><ele>103.0</ele><time>2026-03-28T09:18:50.631Z</time></trkpt><trkpt lat="45.3841782" lon="10.6122852"><ele>103.0</ele><time>2026-03-28T09:18:51.625Z</time></trkpt><trkpt lat="45.3839949" lon="10.6123699"><ele>103.0</ele><time>2026-03-28T09:18:52.627Z</time></trkpt><trkpt lat="45.3838165" lon="10.6124587"><ele>103.0</ele><time>2026-03-28T09:18:53.63Z</time></trkpt><trkpt lat="45.3836474" lon="10.6125488"><ele>103.0</ele><time>2026-03-28T09:18:54.633Z</time></trkpt><trkpt lat="45.3834742" lon="10.6126471"><ele>103.0</ele><time>2026-03-28T09:18:55.621Z</time></trkpt><trkpt lat="45.3832968" lon="10.6127803"><ele>103.0</ele><time>2026-03-28T09:18:56.617Z</time></trkpt><trkpt lat="45.3831373" lon="10.6129352"><ele>103.0</ele><time>2026-03-28T09:18:57.622Z</time></trkpt><trkpt lat="45.3829932" lon="10.6130641"><ele>103.0</ele><time>2026-03-28T09:18:58.634Z</time></trkpt><trkpt lat="45.3828596" lon="10.6132144"><ele>103.0</ele><time>2026-03-28T09:18:59.629Z</time></trkpt><trkpt lat="45.3827485" lon="10.6133581"><ele>103.0</ele><time>2026-03-28T09:19:00.632Z</time></trkpt><trkpt lat="45.3826443" lon="10.6135022"><ele>103.0</ele><time>2026-03-28T09:19:01.635Z</time></trkpt><trkpt lat="45.3825359" lon="10.6136512"><ele>103.0</ele><time>2026-03-28T09:19:02.633Z</time></trkpt><trkpt lat="45.3824275" lon="10.6137808"><ele>103.0</ele><time>2026-03-28T09:19:03.632Z</time></trkpt><trkpt lat="45.3823538" lon="10.6139295"><ele>103.0</ele><time>2026-03-28T09:19:04.636Z</time></trkpt><trkpt lat="45.3822612" lon="10.6140492"><ele>103.0</ele><time>2026-03-28T09:19:05.63Z</time></trkpt><trkpt lat="45.3821773" lon="10.6141453"><ele>103.0</ele><time>2026-03-28T09:19:06.631Z</time></trkpt><trkpt lat="45.3821015" lon="10.614242"><ele>103.0</ele><time>2026-03-28T09:19:07.629Z</time></trkpt><trkpt lat="45.3820311" lon="10.6143239"><ele>103.0</ele><time>2026-03-28T09:19:08.625Z</time></trkpt><trkpt lat="45.381992" lon="10.614404"><ele>103.0</ele><time>2026-03-28T09:19:09.625Z</time></trkpt><trkpt lat="45.3820058" lon="10.6145826"><ele>103.0</ele><time>2026-03-28T09:19:11.618Z</time></trkpt><trkpt lat="45.3820082" lon="10.6146951"><ele>103.0</ele><time>2026-03-28T09:19:12.626Z</time></trkpt><trkpt lat="45.3820233" lon="10.6148397"><ele>103.0</ele><time>2026-03-28T09:19:13.634Z</time></trkpt><trkpt lat="45.3820284" lon="10.6149837"><ele>103.0</ele><time>2026-03-28T09:19:14.638Z</time></trkpt><trkpt lat="45.3820296" lon="10.615126"><ele>103.0</ele><time>2026-03-28T09:19:15.626Z</time></trkpt><trkpt lat="45.3820268" lon="10.6152955"><ele>103.0</ele><time>2026-03-28T09:19:16.63Z</time></trkpt><trkpt lat="45.3820168" lon="10.6154732"><ele>103.0</ele><time>2026-03-28T09:19:17.631Z</time></trkpt><trkpt lat="45.3820153" lon="10.6156517"><ele>103.0</ele><time>2026-03-28T09:19:18.63Z</time></trkpt><trkpt lat="45.3820169" lon="10.6158362"><ele>103.0</ele><time>2026-03-28T09:19:19.627Z</time></trkpt><trkpt lat="45.3820113" lon="10.616025"><ele>103.0</ele><time>2026-03-28T09:19:20.623Z</time></trkpt><trkpt lat="45.3820039" lon="10.616206"><ele>103.0</ele><time>2026-03-28T09:19:21.628Z</time></trkpt><trkpt lat="45.3819989" lon="10.6163954"><ele>103.0</ele><time>2026-03-28T09:19:22.623Z</time></trkpt><trkpt lat="45.3819942" lon="10.6165847"><ele>103.0</ele><time>2026-03-28T09:19:23.63Z</time></trkpt><trkpt lat="45.3819873" lon="10.6167834"><ele>103.0</ele><time>2026-03-28T09:19:24.627Z</time></trkpt><trkpt lat="45.3819874" lon="10.6169563"><ele>103.0</ele><time>2026-03-28T09:19:25.626Z</time></trkpt><trkpt lat="45.381979" lon="10.6171198"><ele>102.80000000000001</ele><time>2026-03-28T09:19:26.625Z</time></trkpt><trkpt lat="45.3819779" lon="10.6172776"><ele>102.6</ele><time>2026-03-28T09:19:27.626Z</time></trkpt><trkpt lat="45.3819685" lon="10.6174531"><ele>102.4</ele><time>2026-03-28T09:19:28.637Z</time></trkpt><trkpt lat="45.3819546" lon="10.6176044"><ele>102.19999999999999</ele><time>2026-03-28T09:19:29.643Z</time></trkpt><trkpt lat="45.3819563" lon="10.6177479"><ele>102.0</ele><time>2026-03-28T09:19:30.632Z</time></trkpt><trkpt lat="45.3819743" lon="10.6178851"><ele>102.0</ele><time>2026-03-28T09:19:31.637Z</time></trkpt><trkpt lat="45.3819934" lon="10.6180293"><ele>102.0</ele><time>2026-03-28T09:19:32.63Z</time></trkpt><trkpt lat="45.3820242" lon="10.618161"><ele>102.0</ele><time>2026-03-28T09:19:33.629Z</time></trkpt><trkpt lat="45.3820523" lon="10.6183046"><ele>102.0</ele><time>2026-03-28T09:19:34.627Z</time></trkpt><trkpt lat="45.3820755" lon="10.6184288"><ele>102.0</ele><time>2026-03-28T09:19:35.622Z</time></trkpt><trkpt lat="45.3820766" lon="10.6185502"><ele>102.75</ele><time>2026-03-28T09:19:36.617Z</time></trkpt><trkpt lat="45.3820853" lon="10.6186959"><ele>103.5</ele><time>2026-03-28T09:19:37.613Z</time></trkpt><trkpt lat="45.3821112" lon="10.6188593"><ele>104.25</ele><time>2026-03-28T09:19:38.62Z</time></trkpt><trkpt lat="45.382151" lon="10.6190189"><ele>105.0</ele><time>2026-03-28T09:19:39.622Z</time></trkpt><trkpt lat="45.3821726" lon="10.6191777"><ele>104.8</ele><time>2026-03-28T09:19:40.616Z</time></trkpt><trkpt lat="45.3821884" lon="10.619312"><ele>104.6</ele><time>2026-03-28T09:19:41.622Z</time></trkpt><trkpt lat="45.3821834" lon="10.6194323"><ele>104.4</ele><time>2026-03-28T09:19:42.623Z</time></trkpt><trkpt lat="45.3821516" lon="10.6195697"><ele>104.2</ele><time>2026-03-28T09:19:43.61Z</time></trkpt><trkpt lat="45.3821083" lon="10.6197298"><ele>104.0</ele><time>2026-03-28T09:19:44.615Z</time></trkpt><trkpt lat="45.3820523" lon="10.6198967"><ele>104.0</ele><time>2026-03-28T09:19:45.632Z</time></trkpt><trkpt lat="45.3819912" lon="10.6200734"><ele>104.0</ele><time>2026-03-28T09:19:46.617Z</time></trkpt><trkpt lat="45.3819459" lon="10.6202378"><ele>104.0</ele><time>2026-03-28T09:19:47.625Z</time></trkpt><trkpt lat="45.3818892" lon="10.6203951"><ele>104.0</ele><time>2026-03-28T09:19:48.62Z</time></trkpt><trkpt lat="45.3818389" lon="10.6205335"><ele>103.25</ele><time>2026-03-28T09:19:49.618Z</time></trkpt><trkpt lat="45.3818046" lon="10.6206591"><ele>102.5</ele><time>2026-03-28T09:19:50.629Z</time></trkpt><trkpt lat="45.3817803" lon="10.6207959"><ele>101.75</ele><time>2026-03-28T09:19:51.628Z</time></trkpt><trkpt lat="45.3817715" lon="10.6209615"><ele>101.0</ele><time>2026-03-28T09:19:52.621Z</time></trkpt><trkpt lat="45.381773" lon="10.6211597"><ele>100.66666666666666</ele><time>2026-03-28T09:19:53.625Z</time></trkpt><trkpt lat="45.3817758" lon="10.6213732"><ele>100.33333333333334</ele><time>2026-03-28T09:19:54.627Z</time></trkpt><trkpt lat="45.3817894" lon="10.62161"><ele>100.0</ele><time>2026-03-28T09:19:55.63Z</time></trkpt><trkpt lat="45.3817818" lon="10.6218206"><ele>100.0</ele><time>2026-03-28T09:19:56.627Z</time></trkpt><trkpt lat="45.3817895" lon="10.6220185"><ele>100.0</ele><time>2026-03-28T09:19:57.624Z</time></trkpt><trkpt lat="45.3817921" lon="10.6222163"><ele>100.0</ele><time>2026-03-28T09:19:58.627Z</time></trkpt><trkpt lat="45.3817835" lon="10.6223953"><ele>100.0</ele><time>2026-03-28T09:19:59.634Z</time></trkpt><trkpt lat="45.3817784" lon="10.6225999"><ele>100.0</ele><time>2026-03-28T09:20:00.638Z</time></trkpt><trkpt lat="45.3817462" lon="10.6228192"><ele>100.0</ele><time>2026-03-28T09:20:01.636Z</time></trkpt><trkpt lat="45.3817314" lon="10.6230305"><ele>100.0</ele><time>2026-03-28T09:20:02.622Z</time></trkpt><trkpt lat="45.3817304" lon="10.6232045"><ele>100.0</ele><time>2026-03-28T09:20:03.616Z</time></trkpt><trkpt lat="45.3817392" lon="10.62334"><ele>100.0</ele><time>2026-03-28T09:20:04.62Z</time></trkpt><trkpt lat="45.3817733" lon="10.6235028"><ele>100.0</ele><time>2026-03-28T09:20:05.621Z</time></trkpt><trkpt lat="45.381776" lon="10.6236728"><ele>100.0</ele><time>2026-03-28T09:20:06.617Z</time></trkpt><trkpt lat="45.3817587" lon="10.6238882"><ele>100.0</ele><time>2026-03-28T09:20:07.614Z</time></trkpt><trkpt lat="45.3817563" lon="10.6240975"><ele>100.33333333333334</ele><time>2026-03-28T09:20:08.621Z</time></trkpt><trkpt lat="45.3817351" lon="10.6243274"><ele>100.66666666666666</ele><time>2026-03-28T09:20:09.625Z</time></trkpt><trkpt lat="45.3817141" lon="10.624546"><ele>101.0</ele><time>2026-03-28T09:20:10.623Z</time></trkpt><trkpt lat="45.3817007" lon="10.6247717"><ele>100.66666666666666</ele><time>2026-03-28T09:20:11.622Z</time></trkpt><trkpt lat="45.3816933" lon="10.6250067"><ele>100.33333333333334</ele><time>2026-03-28T09:20:12.622Z</time></trkpt><trkpt lat="45.3816711" lon="10.6252422"><ele>100.0</ele><time>2026-03-28T09:20:13.626Z</time></trkpt><trkpt lat="45.3816414" lon="10.6254732"><ele>100.0</ele><time>2026-03-28T09:20:14.627Z</time></trkpt><trkpt lat="45.3816115" lon="10.6257211"><ele>100.0</ele><time>2026-03-28T09:20:15.636Z</time></trkpt><trkpt lat="45.3815726" lon="10.6259609"><ele>100.0</ele><time>2026-03-28T09:20:16.627Z</time></trkpt><trkpt lat="45.3815288" lon="10.6261996"><ele>100.33333333333334</ele><time>2026-03-28T09:20:17.622Z</time></trkpt><trkpt lat="45.3814829" lon="10.6264398"><ele>100.66666666666666</ele><time>2026-03-28T09:20:18.625Z</time></trkpt><trkpt lat="45.3814414" lon="10.626663"><ele>101.0</ele><time>2026-03-28T09:20:19.62Z</time></trkpt><trkpt lat="45.3814204" lon="10.6268641"><ele>101.0</ele><time>2026-03-28T09:20:20.617Z</time></trkpt><trkpt lat="45.3813854" lon="10.6270489"><ele>101.0</ele><time>2026-03-28T09:20:21.617Z</time></trkpt><trkpt lat="45.38135" lon="10.6272169"><ele>101.0</ele><time>2026-03-28T09:20:22.61Z</time></trkpt><trkpt lat="45.381322" lon="10.627388"><ele>101.0</ele><time>2026-03-28T09:20:23.611Z</time></trkpt><trkpt lat="45.3813077" lon="10.6275343"><ele>100.83333333333333</ele><time>2026-03-28T09:20:24.615Z</time></trkpt><trkpt lat="45.3812932" lon="10.6276634"><ele>100.66666666666666</ele><time>2026-03-28T09:20:25.618Z</time></trkpt><trkpt lat="45.3812753" lon="10.6277633"><ele>100.5</ele><time>2026-03-28T09:20:26.618Z</time></trkpt><trkpt lat="45.3812552" lon="10.6278573"><ele>100.33333333333334</ele><time>2026-03-28T09:20:27.615Z</time></trkpt><trkpt lat="45.3811611" lon="10.6279324"><ele>100.16666666666667</ele><time>2026-03-28T09:20:29.619Z</time></trkpt><trkpt lat="45.3810606" lon="10.6279568"><ele>100.0</ele><time>2026-03-28T09:20:30.61Z</time></trkpt><trkpt lat="45.3809456" lon="10.6279931"><ele>100.0</ele><time>2026-03-28T09:20:31.613Z</time></trkpt><trkpt lat="45.3808147" lon="10.6280374"><ele>100.0</ele><time>2026-03-28T09:20:32.602Z</time></trkpt><trkpt lat="45.3806631" lon="10.6281137"><ele>100.0</ele><time>2026-03-28T09:20:33.612Z</time></trkpt><trkpt lat="45.380517" lon="10.6281909"><ele>102.0</ele><time>2026-03-28T09:20:34.606Z</time></trkpt><trkpt lat="45.3804118" lon="10.628292"><ele>104.0</ele><time>2026-03-28T09:20:35.607Z</time></trkpt><trkpt lat="45.3803185" lon="10.6283763"><ele>106.0</ele><time>2026-03-28T09:20:36.608Z</time></trkpt><trkpt lat="45.380228" lon="10.6284628"><ele>108.0</ele><time>2026-03-28T09:20:37.608Z</time></trkpt><trkpt lat="45.3801334" lon="10.628531"><ele>108.0</ele><time>2026-03-28T09:20:38.608Z</time></trkpt><trkpt lat="45.3800327" lon="10.6285987"><ele>108.00000000000001</ele><time>2026-03-28T09:20:39.607Z</time></trkpt><trkpt lat="45.3799424" lon="10.6286048"><ele>108.00000000000001</ele><time>2026-03-28T09:20:40.59Z</time></trkpt><trkpt lat="45.3798514" lon="10.6285905"><ele>108.0</ele><time>2026-03-28T09:20:41.588Z</time></trkpt><trkpt lat="45.3797367" lon="10.628564"><ele>108.0</ele><time>2026-03-28T09:20:42.595Z</time></trkpt><trkpt lat="45.3796231" lon="10.6285273"><ele>108.4</ele><time>2026-03-28T09:20:43.607Z</time></trkpt><trkpt lat="45.379515" lon="10.6284837"><ele>108.80000000000001</ele><time>2026-03-28T09:20:44.597Z</time></trkpt><trkpt lat="45.379421" lon="10.6284539"><ele>109.2</ele><time>2026-03-28T09:20:45.6Z</time></trkpt><trkpt lat="45.3793382" lon="10.6284387"><ele>109.6</ele><time>2026-03-28T09:20:46.606Z</time></trkpt><trkpt lat="45.3792557" lon="10.6284334"><ele>110.0</ele><time>2026-03-28T09:20:47.608Z</time></trkpt><trkpt lat="45.3791704" lon="10.6284546"><ele>110.0</ele><time>2026-03-28T09:20:48.608Z</time></trkpt><trkpt lat="45.3790737" lon="10.6284806"><ele>110.0</ele><time>2026-03-28T09:20:49.607Z</time></trkpt><trkpt lat="45.3789586" lon="10.6285068"><ele>110.0</ele><time>2026-03-28T09:20:50.598Z</time></trkpt><trkpt lat="45.3788326" lon="10.6285435"><ele>110.0</ele><time>2026-03-28T09:20:51.602Z</time></trkpt><trkpt lat="45.3787147" lon="10.6285867"><ele>108.75</ele><time>2026-03-28T09:20:52.598Z</time></trkpt><trkpt lat="45.3785958" lon="10.6286453"><ele>107.5</ele><time>2026-03-28T09:20:53.594Z</time></trkpt><trkpt lat="45.3784804" lon="10.6287215"><ele>106.25</ele><time>2026-03-28T09:20:54.601Z</time></trkpt><trkpt lat="45.3783583" lon="10.6288226"><ele>105.0</ele><time>2026-03-28T09:20:55.602Z</time></trkpt><trkpt lat="45.3782369" lon="10.6289248"><ele>105.0</ele><time>2026-03-28T09:20:56.598Z</time></trkpt><trkpt lat="45.3781212" lon="10.6290519"><ele>105.0</ele><time>2026-03-28T09:20:57.609Z</time></trkpt><trkpt lat="45.3779965" lon="10.6291839"><ele>105.0</ele><time>2026-03-28T09:20:58.611Z</time></trkpt><trkpt lat="45.3779074" lon="10.6292789"><ele>105.0</ele><time>2026-03-28T09:20:59.603Z</time></trkpt><trkpt lat="45.3778154" lon="10.6293735"><ele>105.25</ele><time>2026-03-28T09:21:00.606Z</time></trkpt><trkpt lat="45.3777431" lon="10.6294576"><ele>105.5</ele><time>2026-03-28T09:21:01.61Z</time></trkpt><trkpt lat="45.3776691" lon="10.6295824"><ele>105.75</ele><time>2026-03-28T09:21:02.616Z</time></trkpt><trkpt lat="45.3775805" lon="10.6297108"><ele>106.0</ele><time>2026-03-28T09:21:03.605Z</time></trkpt><trkpt lat="45.3775077" lon="10.6298417"><ele>106.0</ele><time>2026-03-28T09:21:04.61Z</time></trkpt><trkpt lat="45.377437" lon="10.6299733"><ele>106.0</ele><time>2026-03-28T09:21:05.61Z</time></trkpt><trkpt lat="45.3773599" lon="10.6300961"><ele>106.0</ele><time>2026-03-28T09:21:06.612Z</time></trkpt><trkpt lat="45.377281" lon="10.6302041"><ele>106.0</ele><time>2026-03-28T09:21:07.606Z</time></trkpt><trkpt lat="45.377202" lon="10.6302936"><ele>106.0</ele><time>2026-03-28T09:21:08.61Z</time></trkpt><trkpt lat="45.3771189" lon="10.6303589"><ele>107.19999999999999</ele><time>2026-03-28T09:21:09.595Z</time></trkpt><trkpt lat="45.3770395" lon="10.630401"><ele>108.39999999999999</ele><time>2026-03-28T09:21:10.597Z</time></trkpt><trkpt lat="45.3769384" lon="10.6303923"><ele>109.6</ele><time>2026-03-28T09:21:11.592Z</time></trkpt><trkpt lat="45.3768435" lon="10.6304021"><ele>110.8</ele><time>2026-03-28T09:21:12.596Z</time></trkpt><trkpt lat="45.3767535" lon="10.6304279"><ele>112.0</ele><time>2026-03-28T09:21:13.596Z</time></trkpt><trkpt lat="45.3766713" lon="10.6304818"><ele>112.0</ele><time>2026-03-28T09:21:14.598Z</time></trkpt><trkpt lat="45.3765931" lon="10.6305608"><ele>111.99999999999999</ele><time>2026-03-28T09:21:15.587Z</time></trkpt><trkpt lat="45.3765342" lon="10.6306417"><ele>111.99999999999999</ele><time>2026-03-28T09:21:16.594Z</time></trkpt><trkpt lat="45.376477" lon="10.6307636"><ele>112.0</ele><time>2026-03-28T09:21:17.607Z</time></trkpt><trkpt lat="45.3764305" lon="10.630921"><ele>112.0</ele><time>2026-03-28T09:21:18.596Z</time></trkpt><trkpt lat="45.3763881" lon="10.6311099"><ele>117.33333333333334</ele><time>2026-03-28T09:21:19.59Z</time></trkpt><trkpt lat="45.3763343" lon="10.631317"><ele>122.66666666666666</ele><time>2026-03-28T09:21:20.601Z</time></trkpt><trkpt lat="45.3762806" lon="10.6315462"><ele>128.0</ele><time>2026-03-28T09:21:21.599Z</time></trkpt><trkpt lat="45.3762136" lon="10.6318173"><ele>125.33333333333333</ele><time>2026-03-28T09:21:22.598Z</time></trkpt><trkpt lat="45.3761655" lon="10.632047"><ele>122.66666666666666</ele><time>2026-03-28T09:21:23.603Z</time></trkpt><trkpt lat="45.3760986" lon="10.6322485"><ele>120.0</ele><time>2026-03-28T09:21:24.6Z</time></trkpt><trkpt lat="45.3760648" lon="10.6324645"><ele>120.0</ele><time>2026-03-28T09:21:25.598Z</time></trkpt><trkpt lat="45.3760458" lon="10.632658"><ele>120.0</ele><time>2026-03-28T09:21:26.604Z</time></trkpt><trkpt lat="45.3760412" lon="10.63284"><ele>120.0</ele><time>2026-03-28T09:21:27.599Z</time></trkpt><trkpt lat="45.3760348" lon="10.6330164"><ele>120.0</ele><time>2026-03-28T09:21:28.599Z</time></trkpt><trkpt lat="45.3760139" lon="10.6331685"><ele>118.2</ele><time>2026-03-28T09:21:29.608Z</time></trkpt><trkpt lat="45.3760055" lon="10.6333227"><ele>116.4</ele><time>2026-03-28T09:21:30.601Z</time></trkpt><trkpt lat="45.3759932" lon="10.6334556"><ele>114.6</ele><time>2026-03-28T09:21:31.614Z</time></trkpt><trkpt lat="45.3759789" lon="10.6335705"><ele>112.8</ele><time>2026-03-28T09:21:32.604Z</time></trkpt><trkpt lat="45.3759615" lon="10.6336714"><ele>111.0</ele><time>2026-03-28T09:21:33.612Z</time></trkpt><trkpt lat="45.3759379" lon="10.6338104"><ele>110.4</ele><time>2026-03-28T09:21:35.603Z</time></trkpt><trkpt lat="45.375981" lon="10.6338955"><ele>109.8</ele><time>2026-03-28T09:21:37.612Z</time></trkpt><trkpt lat="45.3760546" lon="10.6340296"><ele>109.20000000000002</ele><time>2026-03-28T09:21:39.617Z</time></trkpt><trkpt lat="45.3760982" lon="10.6341173"><ele>108.60000000000001</ele><time>2026-03-28T09:21:40.612Z</time></trkpt><trkpt lat="45.3761712" lon="10.634222"><ele>108.0</ele><time>2026-03-28T09:21:41.612Z</time></trkpt><trkpt lat="45.3762552" lon="10.6343255"><ele>108.0</ele><time>2026-03-28T09:21:42.616Z</time></trkpt><trkpt lat="45.3763514" lon="10.6344281"><ele>108.00000000000001</ele><time>2026-03-28T09:21:43.611Z</time></trkpt><trkpt lat="45.3764356" lon="10.6345343"><ele>108.00000000000001</ele><time>2026-03-28T09:21:44.607Z</time></trkpt><trkpt lat="45.3764958" lon="10.6346508"><ele>108.0</ele><time>2026-03-28T09:21:45.596Z</time></trkpt><trkpt lat="45.3765597" lon="10.6347851"><ele>108.0</ele><time>2026-03-28T09:21:46.611Z</time></trkpt><trkpt lat="45.37661" lon="10.6349388"><ele>107.66666666666667</ele><time>2026-03-28T09:21:47.613Z</time></trkpt><trkpt lat="45.3766588" lon="10.6350965"><ele>107.33333333333334</ele><time>2026-03-28T09:21:48.619Z</time></trkpt><trkpt lat="45.3766879" lon="10.6352254"><ele>107.0</ele><time>2026-03-28T09:21:49.609Z</time></trkpt><trkpt lat="45.3767029" lon="10.6353316"><ele>106.66666666666667</ele><time>2026-03-28T09:21:50.615Z</time></trkpt><trkpt lat="45.3766862" lon="10.6354328"><ele>106.33333333333334</ele><time>2026-03-28T09:21:51.615Z</time></trkpt><trkpt lat="45.3766492" lon="10.635528"><ele>106.0</ele><time>2026-03-28T09:21:52.612Z</time></trkpt><trkpt lat="45.376596" lon="10.6356254"><ele>107.6</ele><time>2026-03-28T09:21:53.617Z</time></trkpt><trkpt lat="45.3765481" lon="10.6357194"><ele>109.19999999999999</ele><time>2026-03-28T09:21:54.609Z</time></trkpt><trkpt lat="45.3764772" lon="10.6358498"><ele>110.80000000000001</ele><time>2026-03-28T09:21:56.607Z</time></trkpt><trkpt lat="45.3764166" lon="10.6358996"><ele>112.4</ele><time>2026-03-28T09:21:58.61Z</time></trkpt><trkpt lat="45.3763058" lon="10.6358111"><ele>114.0</ele><time>2026-03-28T09:22:00.609Z</time></trkpt><trkpt lat="45.3762236" lon="10.635713"><ele>114.5</ele><time>2026-03-28T09:22:01.612Z</time></trkpt><trkpt lat="45.3761204" lon="10.6356091"><ele>115.0</ele><time>2026-03-28T09:22:02.613Z</time></trkpt><trkpt lat="45.376018" lon="10.6355206"><ele>115.5</ele><time>2026-03-28T09:22:03.605Z</time></trkpt><trkpt lat="45.3759166" lon="10.6354442"><ele>116.0</ele><time>2026-03-28T09:22:04.61Z</time></trkpt><trkpt lat="45.3758158" lon="10.6353712"><ele>116.0</ele><time>2026-03-28T09:22:05.599Z</time></trkpt><trkpt lat="45.3757229" lon="10.6353273"><ele>116.0</ele><time>2026-03-28T09:22:06.597Z</time></trkpt><trkpt lat="45.3756395" lon="10.6353005"><ele>116.0</ele><time>2026-03-28T09:22:07.589Z</time></trkpt><trkpt lat="45.3755534" lon="10.63527"><ele>116.0</ele><time>2026-03-28T09:22:08.586Z</time></trkpt><trkpt lat="45.3754606" lon="10.6352834"><ele>116.0</ele><time>2026-03-28T09:22:09.58Z</time></trkpt><trkpt lat="45.3753688" lon="10.6353217"><ele>115.33333333333333</ele><time>2026-03-28T09:22:10.581Z</time></trkpt><trkpt lat="45.3752801" lon="10.6353824"><ele>114.66666666666666</ele><time>2026-03-28T09:22:11.579Z</time></trkpt><trkpt lat="45.3752071" lon="10.6354684"><ele>114.0</ele><time>2026-03-28T09:22:12.579Z</time></trkpt><trkpt lat="45.3751486" lon="10.6355674"><ele>113.33333333333334</ele><time>2026-03-28T09:22:13.588Z</time></trkpt><trkpt lat="45.3751046" lon="10.6356551"><ele>112.66666666666667</ele><time>2026-03-28T09:22:14.587Z</time></trkpt><trkpt lat="45.3750608" lon="10.6357434"><ele>112.0</ele><time>2026-03-28T09:22:15.586Z</time></trkpt><trkpt lat="45.3750158" lon="10.6358423"><ele>112.0</ele><time>2026-03-28T09:22:16.585Z</time></trkpt><trkpt lat="45.3749473" lon="10.6359234"><ele>111.99999999999999</ele><time>2026-03-28T09:22:17.587Z</time></trkpt><trkpt lat="45.3748612" lon="10.6360263"><ele>111.99999999999999</ele><time>2026-03-28T09:22:18.59Z</time></trkpt><trkpt lat="45.3747796" lon="10.6361319"><ele>112.0</ele><time>2026-03-28T09:22:19.595Z</time></trkpt><trkpt lat="45.3747081" lon="10.6362371"><ele>112.0</ele><time>2026-03-28T09:22:20.588Z</time></trkpt><trkpt lat="45.3746183" lon="10.6362956"><ele>111.19999999999999</ele><time>2026-03-28T09:22:21.594Z</time></trkpt><trkpt lat="45.3745396" lon="10.6363522"><ele>110.39999999999999</ele><time>2026-03-28T09:22:22.593Z</time></trkpt><trkpt lat="45.3744527" lon="10.6364247"><ele>109.60000000000001</ele><time>2026-03-28T09:22:24.591Z</time></trkpt><trkpt lat="45.3743973" lon="10.6364809"><ele>108.80000000000001</ele><time>2026-03-28T09:22:26.592Z</time></trkpt><trkpt lat="45.3743965" lon="10.6366407"><ele>108.0</ele><time>2026-03-28T09:22:28.593Z</time></trkpt><trkpt lat="45.374433" lon="10.6367584"><ele>108.0</ele><time>2026-03-28T09:22:29.59Z</time></trkpt><trkpt lat="45.3744796" lon="10.6368975"><ele>108.0</ele><time>2026-03-28T09:22:30.582Z</time></trkpt><trkpt lat="45.37453" lon="10.6370432"><ele>108.0</ele><time>2026-03-28T09:22:31.591Z</time></trkpt><trkpt lat="45.3745741" lon="10.6372012"><ele>108.0</ele><time>2026-03-28T09:22:32.592Z</time></trkpt><trkpt lat="45.3745953" lon="10.6373756"><ele>108.5</ele><time>2026-03-28T09:22:33.605Z</time></trkpt><trkpt lat="45.3746047" lon="10.637569"><ele>109.0</ele><time>2026-03-28T09:22:34.598Z</time></trkpt><trkpt lat="45.3746072" lon="10.6377661"><ele>109.5</ele><time>2026-03-28T09:22:35.613Z</time></trkpt><trkpt lat="45.3746208" lon="10.6379704"><ele>110.0</ele><time>2026-03-28T09:22:36.601Z</time></trkpt><trkpt lat="45.3746459" lon="10.6381701"><ele>110.4</ele><time>2026-03-28T09:22:37.599Z</time></trkpt><trkpt lat="45.3746811" lon="10.6383416"><ele>110.8</ele><time>2026-03-28T09:22:38.611Z</time></trkpt><trkpt lat="45.3747351" lon="10.6385039"><ele>111.19999999999999</ele><time>2026-03-28T09:22:39.603Z</time></trkpt><trkpt lat="45.3747746" lon="10.6386441"><ele>111.6</ele><time>2026-03-28T09:22:40.606Z</time></trkpt><trkpt lat="45.3748067" lon="10.6387511"><ele>112.0</ele><time>2026-03-28T09:22:41.605Z</time></trkpt><trkpt lat="45.3748453" lon="10.6388992"><ele>113.5</ele><time>2026-03-28T09:22:42.606Z</time></trkpt><trkpt lat="45.3748595" lon="10.6390507"><ele>115.0</ele><time>2026-03-28T09:22:43.61Z</time></trkpt><trkpt lat="45.3748486" lon="10.6392193"><ele>116.5</ele><time>2026-03-28T09:22:44.614Z</time></trkpt><trkpt lat="45.3748406" lon="10.6393831"><ele>118.0</ele><time>2026-03-28T09:22:45.609Z</time></trkpt><trkpt lat="45.3748511" lon="10.6395444"><ele>118.0</ele><time>2026-03-28T09:22:46.611Z</time></trkpt><trkpt lat="45.3748743" lon="10.6397128"><ele>118.0</ele><time>2026-03-28T09:22:47.613Z</time></trkpt><trkpt lat="45.3749198" lon="10.6398944"><ele>118.0</ele><time>2026-03-28T09:22:48.622Z</time></trkpt><trkpt lat="45.3749844" lon="10.640076"><ele>118.0</ele><time>2026-03-28T09:22:49.602Z</time></trkpt><trkpt lat="45.3750589" lon="10.6402274"><ele>117.0</ele><time>2026-03-28T09:22:50.61Z</time></trkpt><trkpt lat="45.3751617" lon="10.6403681"><ele>116.00000000000001</ele><time>2026-03-28T09:22:51.618Z</time></trkpt><trkpt lat="45.375258" lon="10.6404981"><ele>115.00000000000001</ele><time>2026-03-28T09:22:52.617Z</time></trkpt><trkpt lat="45.3753088" lon="10.6405841"><ele>114.0</ele><time>2026-03-28T09:22:53.614Z</time></trkpt><trkpt lat="45.3753354" lon="10.6406655"><ele>113.0</ele><time>2026-03-28T09:22:54.618Z</time></trkpt><trkpt lat="45.3753707" lon="10.6407741"><ele>112.99999999999999</ele><time>2026-03-28T09:22:55.609Z</time></trkpt><trkpt lat="45.3753646" lon="10.6408872"><ele>113.0</ele><time>2026-03-28T09:22:56.614Z</time></trkpt><trkpt lat="45.375343" lon="10.64099"><ele>113.0</ele><time>2026-03-28T09:22:57.617Z</time></trkpt><trkpt lat="45.3753" lon="10.6410826"><ele>113.0</ele><time>2026-03-28T09:22:58.629Z</time></trkpt><trkpt lat="45.3752194" lon="10.6411462"><ele>112.99999999999999</ele><time>2026-03-28T09:22:59.611Z</time></trkpt><trkpt lat="45.3751036" lon="10.6411917"><ele>113.0</ele><time>2026-03-28T09:23:00.614Z</time></trkpt><trkpt lat="45.3749683" lon="10.6412157"><ele>112.0</ele><time>2026-03-28T09:23:01.624Z</time></trkpt><trkpt lat="45.374794" lon="10.6412253"><ele>111.0</ele><time>2026-03-28T09:23:02.608Z</time></trkpt><trkpt lat="45.3746158" lon="10.6412225"><ele>110.0</ele><time>2026-03-28T09:23:03.614Z</time></trkpt><trkpt lat="45.374428" lon="10.6411982"><ele>109.66666666666666</ele><time>2026-03-28T09:23:04.612Z</time></trkpt><trkpt lat="45.3742421" lon="10.6412027"><ele>109.33333333333334</ele><time>2026-03-28T09:23:05.628Z</time></trkpt><trkpt lat="45.3740728" lon="10.6412107"><ele>109.0</ele><time>2026-03-28T09:23:06.631Z</time></trkpt><trkpt lat="45.3739129" lon="10.6412404"><ele>108.0</ele><time>2026-03-28T09:23:07.613Z</time></trkpt><trkpt lat="45.3737581" lon="10.6412796"><ele>107.0</ele><time>2026-03-28T09:23:08.634Z</time></trkpt><trkpt lat="45.3736308" lon="10.6413689"><ele>106.0</ele><time>2026-03-28T09:23:09.618Z</time></trkpt><trkpt lat="45.3734868" lon="10.6414977"><ele>106.0</ele><time>2026-03-28T09:23:10.615Z</time></trkpt><trkpt lat="45.3733506" lon="10.6416608"><ele>106.0</ele><time>2026-03-28T09:23:11.62Z</time></trkpt><trkpt lat="45.3731858" lon="10.6418242"><ele>106.0</ele><time>2026-03-28T09:23:12.621Z</time></trkpt><trkpt lat="45.3730309" lon="10.641984"><ele>106.0</ele><time>2026-03-28T09:23:13.617Z</time></trkpt><trkpt lat="45.3728661" lon="10.6420979"><ele>106.0</ele><time>2026-03-28T09:23:14.615Z</time></trkpt><trkpt lat="45.3727259" lon="10.6422112"><ele>106.0</ele><time>2026-03-28T09:23:15.616Z</time></trkpt><trkpt lat="45.3725955" lon="10.6422653"><ele>106.0</ele><time>2026-03-28T09:23:16.61Z</time></trkpt><trkpt lat="45.3724429" lon="10.6423299"><ele>106.0</ele><time>2026-03-28T09:23:17.61Z</time></trkpt><trkpt lat="45.372266" lon="10.6423575"><ele>106.0</ele><time>2026-03-28T09:23:18.623Z</time></trkpt><trkpt lat="45.3720882" lon="10.6424029"><ele>107.0</ele><time>2026-03-28T09:23:19.621Z</time></trkpt><trkpt lat="45.3719034" lon="10.6424188"><ele>108.0</ele><time>2026-03-28T09:23:20.619Z</time></trkpt><trkpt lat="45.3717486" lon="10.6424366"><ele>109.0</ele><time>2026-03-28T09:23:21.631Z</time></trkpt><trkpt lat="45.371595" lon="10.6424471"><ele>109.0</ele><time>2026-03-28T09:23:22.616Z</time></trkpt><trkpt lat="45.3714521" lon="10.6424721"><ele>109.0</ele><time>2026-03-28T09:23:23.623Z</time></trkpt><trkpt lat="45.3713331" lon="10.6424984"><ele>109.0</ele><time>2026-03-28T09:23:24.626Z</time></trkpt><trkpt lat="45.3712044" lon="10.6425455"><ele>109.0</ele><time>2026-03-28T09:23:25.614Z</time></trkpt><trkpt lat="45.3710666" lon="10.6426277"><ele>108.66666666666667</ele><time>2026-03-28T09:23:26.617Z</time></trkpt><trkpt lat="45.3709432" lon="10.6427504"><ele>108.33333333333334</ele><time>2026-03-28T09:23:27.617Z</time></trkpt><trkpt lat="45.3708413" lon="10.6429163"><ele>108.0</ele><time>2026-03-28T09:23:28.632Z</time></trkpt><trkpt lat="45.3707515" lon="10.643122"><ele>108.0</ele><time>2026-03-28T09:23:29.63Z</time></trkpt><trkpt lat="45.3706286" lon="10.6432997"><ele>108.0</ele><time>2026-03-28T09:23:30.623Z</time></trkpt><trkpt lat="45.3705361" lon="10.6434236"><ele>108.0</ele><time>2026-03-28T09:23:31.615Z</time></trkpt><trkpt lat="45.3703734" lon="10.6435409"><ele>109.33333333333334</ele><time>2026-03-28T09:23:32.609Z</time></trkpt><trkpt lat="45.370202" lon="10.6436475"><ele>110.66666666666667</ele><time>2026-03-28T09:23:33.611Z</time></trkpt><trkpt lat="45.370043" lon="10.6436941"><ele>112.0</ele><time>2026-03-28T09:23:34.62Z</time></trkpt><trkpt lat="45.3698667" lon="10.6437269"><ele>111.66666666666667</ele><time>2026-03-28T09:23:35.614Z</time></trkpt><trkpt lat="45.3696772" lon="10.6437964"><ele>111.33333333333334</ele><time>2026-03-28T09:23:36.625Z</time></trkpt><trkpt lat="45.3694969" lon="10.6438832"><ele>111.0</ele><time>2026-03-28T09:23:37.642Z</time></trkpt><trkpt lat="45.3693203" lon="10.6439877"><ele>111.0</ele><time>2026-03-28T09:23:38.632Z</time></trkpt><trkpt lat="45.3691465" lon="10.6440883"><ele>111.0</ele><time>2026-03-28T09:23:39.628Z</time></trkpt><trkpt lat="45.3689872" lon="10.6441688"><ele>111.0</ele><time>2026-03-28T09:23:40.631Z</time></trkpt><trkpt lat="45.3688289" lon="10.6442423"><ele>110.66666666666666</ele><time>2026-03-28T09:23:41.625Z</time></trkpt><trkpt lat="45.368659" lon="10.644295"><ele>110.33333333333333</ele><time>2026-03-28T09:23:42.626Z</time></trkpt><trkpt lat="45.3684756" lon="10.6443058"><ele>110.0</ele><time>2026-03-28T09:23:43.626Z</time></trkpt><trkpt lat="45.3682823" lon="10.6443072"><ele>110.0</ele><time>2026-03-28T09:23:44.636Z</time></trkpt><trkpt lat="45.3681096" lon="10.644305"><ele>110.0</ele><time>2026-03-28T09:23:45.637Z</time></trkpt><trkpt lat="45.3679469" lon="10.644306"><ele>110.0</ele><time>2026-03-28T09:23:46.625Z</time></trkpt><trkpt lat="45.367803" lon="10.6442797"><ele>110.0</ele><time>2026-03-28T09:23:47.624Z</time></trkpt><trkpt lat="45.3676341" lon="10.644213"><ele>110.0</ele><time>2026-03-28T09:23:48.627Z</time></trkpt><trkpt lat="45.3674642" lon="10.6441224"><ele>110.0</ele><time>2026-03-28T09:23:49.627Z</time></trkpt><trkpt lat="45.3673016" lon="10.6440229"><ele>109.66666666666666</ele><time>2026-03-28T09:23:50.626Z</time></trkpt><trkpt lat="45.3671351" lon="10.6438829"><ele>109.33333333333334</ele><time>2026-03-28T09:23:51.619Z</time></trkpt><trkpt lat="45.3669802" lon="10.6437255"><ele>109.0</ele><time>2026-03-28T09:23:52.625Z</time></trkpt><trkpt lat="45.3668515" lon="10.643559"><ele>108.5</ele><time>2026-03-28T09:23:53.623Z</time></trkpt><trkpt lat="45.3667213" lon="10.6434226"><ele>108.0</ele><time>2026-03-28T09:23:54.621Z</time></trkpt><trkpt lat="45.3665938" lon="10.6433277"><ele>107.5</ele><time>2026-03-28T09:23:55.605Z</time></trkpt><trkpt lat="45.3664698" lon="10.6432709"><ele>107.0</ele><time>2026-03-28T09:23:56.613Z</time></trkpt><trkpt lat="45.366341" lon="10.6432172"><ele>106.75</ele><time>2026-03-28T09:23:57.615Z</time></trkpt><trkpt lat="45.3662217" lon="10.6431966"><ele>106.5</ele><time>2026-03-28T09:23:58.613Z</time></trkpt><trkpt lat="45.3660959" lon="10.6431975"><ele>106.25</ele><time>2026-03-28T09:23:59.613Z</time></trkpt><trkpt lat="45.3659777" lon="10.6432298"><ele>106.0</ele><time>2026-03-28T09:24:00.623Z</time></trkpt><trkpt lat="45.3658602" lon="10.6432999"><ele>106.0</ele><time>2026-03-28T09:24:01.619Z</time></trkpt><trkpt lat="45.365747" lon="10.6434117"><ele>106.0</ele><time>2026-03-28T09:24:02.607Z</time></trkpt><trkpt lat="45.365609" lon="10.6435648"><ele>106.0</ele><time>2026-03-28T09:24:03.61Z</time></trkpt><trkpt lat="45.3654865" lon="10.6436957"><ele>106.25</ele><time>2026-03-28T09:24:04.602Z</time></trkpt><trkpt lat="45.3653549" lon="10.6438018"><ele>106.5</ele><time>2026-03-28T09:24:05.605Z</time></trkpt><trkpt lat="45.3652086" lon="10.6438747"><ele>106.75</ele><time>2026-03-28T09:24:06.609Z</time></trkpt><trkpt lat="45.3650725" lon="10.6439169"><ele>107.0</ele><time>2026-03-28T09:24:07.616Z</time></trkpt><trkpt lat="45.3649387" lon="10.643936"><ele>107.0</ele><time>2026-03-28T09:24:08.623Z</time></trkpt><trkpt lat="45.3647869" lon="10.6439354"><ele>107.0</ele><time>2026-03-28T09:24:09.61Z</time></trkpt><trkpt lat="45.3646231" lon="10.6438997"><ele>107.0</ele><time>2026-03-28T09:24:10.607Z</time></trkpt><trkpt lat="45.3644608" lon="10.6438369"><ele>107.25</ele><time>2026-03-28T09:24:11.608Z</time></trkpt><trkpt lat="45.3643295" lon="10.6437698"><ele>107.5</ele><time>2026-03-28T09:24:12.6Z</time></trkpt><trkpt lat="45.3641801" lon="10.6437037"><ele>107.75</ele><time>2026-03-28T09:24:13.602Z</time></trkpt><trkpt lat="45.3640628" lon="10.6436702"><ele>108.0</ele><time>2026-03-28T09:24:14.611Z</time></trkpt><trkpt lat="45.3639425" lon="10.6436487"><ele>109.25</ele><time>2026-03-28T09:24:15.597Z</time></trkpt><trkpt lat="45.363822" lon="10.6436496"><ele>110.5</ele><time>2026-03-28T09:24:16.597Z</time></trkpt><trkpt lat="45.3636885" lon="10.6437211"><ele>111.75</ele><time>2026-03-28T09:24:17.615Z</time></trkpt><trkpt lat="45.3635443" lon="10.6438395"><ele>113.0</ele><time>2026-03-28T09:24:18.611Z</time></trkpt><trkpt lat="45.3634044" lon="10.6439502"><ele>113.0</ele><time>2026-03-28T09:24:19.609Z</time></trkpt><trkpt lat="45.3632425" lon="10.6440504"><ele>113.0</ele><time>2026-03-28T09:24:20.615Z</time></trkpt><trkpt lat="45.3630852" lon="10.6441523"><ele>113.0</ele><time>2026-03-28T09:24:21.613Z</time></trkpt><trkpt lat="45.3629368" lon="10.6442407"><ele>114.0</ele><time>2026-03-28T09:24:22.615Z</time></trkpt><trkpt lat="45.3627798" lon="10.6443313"><ele>115.0</ele><time>2026-03-28T09:24:23.638Z</time></trkpt><trkpt lat="45.362641" lon="10.6443794"><ele>116.0</ele><time>2026-03-28T09:24:24.61Z</time></trkpt><trkpt lat="45.3625083" lon="10.6443823"><ele>117.0</ele><time>2026-03-28T09:24:25.626Z</time></trkpt><trkpt lat="45.3623636" lon="10.6443727"><ele>117.0</ele><time>2026-03-28T09:24:26.614Z</time></trkpt><trkpt lat="45.3622052" lon="10.6443688"><ele>117.0</ele><time>2026-03-28T09:24:27.614Z</time></trkpt><trkpt lat="45.3620468" lon="10.6443656"><ele>117.0</ele><time>2026-03-28T09:24:28.611Z</time></trkpt><trkpt lat="45.3618823" lon="10.644384"><ele>120.0</ele><time>2026-03-28T09:24:29.604Z</time></trkpt><trkpt lat="45.3617887" lon="10.6444677"><ele>123.0</ele><time>2026-03-28T09:24:30.602Z</time></trkpt><trkpt lat="45.3616878" lon="10.6445515"><ele>126.0</ele><time>2026-03-28T09:24:31.595Z</time></trkpt><trkpt lat="45.3615624" lon="10.6446343"><ele>129.0</ele><time>2026-03-28T09:24:32.599Z</time></trkpt><trkpt lat="45.3614346" lon="10.6447802"><ele>128.75</ele><time>2026-03-28T09:24:33.591Z</time></trkpt><trkpt lat="45.361361" lon="10.6449245"><ele>128.5</ele><time>2026-03-28T09:24:34.591Z</time></trkpt><trkpt lat="45.3612565" lon="10.6450549"><ele>128.25</ele><time>2026-03-28T09:24:35.6Z</time></trkpt><trkpt lat="45.3611503" lon="10.6451002"><ele>128.0</ele><time>2026-03-28T09:24:36.6Z</time></trkpt><trkpt lat="45.3610538" lon="10.6451347"><ele>128.0</ele><time>2026-03-28T09:24:37.612Z</time></trkpt><trkpt lat="45.360934" lon="10.6451053"><ele>128.0</ele><time>2026-03-28T09:24:38.597Z</time></trkpt><trkpt lat="45.3608012" lon="10.6450415"><ele>128.0</ele><time>2026-03-28T09:24:39.63Z</time></trkpt><trkpt lat="45.3606481" lon="10.6449374"><ele>128.0</ele><time>2026-03-28T09:24:40.608Z</time></trkpt><trkpt lat="45.3604697" lon="10.6448367"><ele>125.66666666666666</ele><time>2026-03-28T09:24:41.617Z</time></trkpt><trkpt lat="45.3603018" lon="10.644756"><ele>123.33333333333334</ele><time>2026-03-28T09:24:42.626Z</time></trkpt><trkpt lat="45.3601457" lon="10.6446934"><ele>121.0</ele><time>2026-03-28T09:24:43.613Z</time></trkpt><trkpt lat="45.3599967" lon="10.6446418"><ele>121.0</ele><time>2026-03-28T09:24:44.618Z</time></trkpt><trkpt lat="45.3598655" lon="10.6446126"><ele>121.0</ele><time>2026-03-28T09:24:45.62Z</time></trkpt><trkpt lat="45.3597226" lon="10.6445848"><ele>121.0</ele><time>2026-03-28T09:24:46.62Z</time></trkpt><trkpt lat="45.3595685" lon="10.6445623"><ele>121.0</ele><time>2026-03-28T09:24:47.615Z</time></trkpt><trkpt lat="45.359422" lon="10.6444927"><ele>121.5</ele><time>2026-03-28T09:24:48.619Z</time></trkpt><trkpt lat="45.3592754" lon="10.6444379"><ele>122.0</ele><time>2026-03-28T09:24:49.625Z</time></trkpt><trkpt lat="45.3591338" lon="10.6443798"><ele>122.5</ele><time>2026-03-28T09:24:50.625Z</time></trkpt><trkpt lat="45.3589892" lon="10.644344"><ele>123.0</ele><time>2026-03-28T09:24:51.626Z</time></trkpt><trkpt lat="45.3588505" lon="10.6443085"><ele>123.0</ele><time>2026-03-28T09:24:52.626Z</time></trkpt><trkpt lat="45.3586951" lon="10.6442717"><ele>123.0</ele><time>2026-03-28T09:24:53.647Z</time></trkpt><trkpt lat="45.3585549" lon="10.6442409"><ele>123.0</ele><time>2026-03-28T09:24:54.628Z</time></trkpt><trkpt lat="45.3584109" lon="10.6442226"><ele>123.0</ele><time>2026-03-28T09:24:55.627Z</time></trkpt><trkpt lat="45.3582885" lon="10.6442133"><ele>123.0</ele><time>2026-03-28T09:24:56.636Z</time></trkpt><trkpt lat="45.3581761" lon="10.6442003"><ele>123.0</ele><time>2026-03-28T09:24:57.632Z</time></trkpt><trkpt lat="45.3580891" lon="10.6441704"><ele>123.0</ele><time>2026-03-28T09:24:58.626Z</time></trkpt><trkpt lat="45.358011" lon="10.6441188"><ele>123.0</ele><time>2026-03-28T09:24:59.625Z</time></trkpt><trkpt lat="45.3579305" lon="10.6440716"><ele>123.0</ele><time>2026-03-28T09:25:00.627Z</time></trkpt><trkpt lat="45.3578612" lon="10.6440374"><ele>123.0</ele><time>2026-03-28T09:25:01.623Z</time></trkpt><trkpt lat="45.3577985" lon="10.6440265"><ele>122.4</ele><time>2026-03-28T09:25:03.631Z</time></trkpt><trkpt lat="45.3577254" lon="10.6440707"><ele>121.80000000000001</ele><time>2026-03-28T09:25:13.641Z</time></trkpt><trkpt lat="45.3576713" lon="10.6441216"><ele>121.2</ele><time>2026-03-28T09:25:14.617Z</time></trkpt><trkpt lat="45.3575817" lon="10.6441818"><ele>120.6</ele><time>2026-03-28T09:25:15.611Z</time></trkpt><trkpt lat="45.3574909" lon="10.644225"><ele>120.0</ele><time>2026-03-28T09:25:16.611Z</time></trkpt><trkpt lat="45.3573697" lon="10.6442388"><ele>120.0</ele><time>2026-03-28T09:25:17.615Z</time></trkpt><trkpt lat="45.3572153" lon="10.6442512"><ele>120.0</ele><time>2026-03-28T09:25:18.609Z</time></trkpt><trkpt lat="45.3570203" lon="10.6442473"><ele>120.0</ele><time>2026-03-28T09:25:19.617Z</time></trkpt><trkpt lat="45.3567739" lon="10.6442215"><ele>120.0</ele><time>2026-03-28T09:25:20.616Z</time></trkpt><trkpt lat="45.3565737" lon="10.6441871"><ele>120.0</ele><time>2026-03-28T09:25:21.621Z</time></trkpt><trkpt lat="45.3564066" lon="10.6441433"><ele>120.0</ele><time>2026-03-28T09:25:22.627Z</time></trkpt><trkpt lat="45.3562348" lon="10.6440974"><ele>120.0</ele><time>2026-03-28T09:25:23.629Z</time></trkpt><trkpt lat="45.356064" lon="10.6440174"><ele>120.0</ele><time>2026-03-28T09:25:24.634Z</time></trkpt><trkpt lat="45.3558988" lon="10.6439017"><ele>120.0</ele><time>2026-03-28T09:25:25.627Z</time></trkpt><trkpt lat="45.3557571" lon="10.6438078"><ele>120.0</ele><time>2026-03-28T09:25:26.626Z</time></trkpt><trkpt lat="45.3556177" lon="10.6437285"><ele>120.0</ele><time>2026-03-28T09:25:27.617Z</time></trkpt><trkpt lat="45.3554852" lon="10.6436496"><ele>120.0</ele><time>2026-03-28T09:25:28.626Z</time></trkpt><trkpt lat="45.3553595" lon="10.6435706"><ele>120.0</ele><time>2026-03-28T09:25:29.636Z</time></trkpt><trkpt lat="45.3552346" lon="10.6435072"><ele>119.5</ele><time>2026-03-28T09:25:30.636Z</time></trkpt><trkpt lat="45.3551074" lon="10.6434502"><ele>119.0</ele><time>2026-03-28T09:25:31.633Z</time></trkpt><trkpt lat="45.3549731" lon="10.6434255"><ele>118.5</ele><time>2026-03-28T09:25:32.621Z</time></trkpt><trkpt lat="45.3548319" lon="10.643444"><ele>118.0</ele><time>2026-03-28T09:25:33.639Z</time></trkpt><trkpt lat="45.3547118" lon="10.6435102"><ele>116.66666666666667</ele><time>2026-03-28T09:25:34.613Z</time></trkpt><trkpt lat="45.3545767" lon="10.6435879"><ele>115.33333333333334</ele><time>2026-03-28T09:25:35.615Z</time></trkpt><trkpt lat="45.3544506" lon="10.643716"><ele>114.0</ele><time>2026-03-28T09:25:36.609Z</time></trkpt><trkpt lat="45.35429" lon="10.6438299"><ele>113.0</ele><time>2026-03-28T09:25:37.61Z</time></trkpt><trkpt lat="45.354134" lon="10.6439407"><ele>112.0</ele><time>2026-03-28T09:25:38.615Z</time></trkpt><trkpt lat="45.3539701" lon="10.6440596"><ele>111.0</ele><time>2026-03-28T09:25:39.613Z</time></trkpt><trkpt lat="45.3537929" lon="10.6441713"><ele>110.66666666666666</ele><time>2026-03-28T09:25:40.619Z</time></trkpt><trkpt lat="45.3536264" lon="10.6443014"><ele>110.33333333333333</ele><time>2026-03-28T09:25:41.618Z</time></trkpt><trkpt lat="45.3534552" lon="10.6444226"><ele>110.0</ele><time>2026-03-28T09:25:42.614Z</time></trkpt><trkpt lat="45.3532843" lon="10.6445624"><ele>110.0</ele><time>2026-03-28T09:25:43.626Z</time></trkpt><trkpt lat="45.353113" lon="10.6447234"><ele>110.0</ele><time>2026-03-28T09:25:44.624Z</time></trkpt><trkpt lat="45.3529326" lon="10.6448677"><ele>110.0</ele><time>2026-03-28T09:25:45.619Z</time></trkpt><trkpt lat="45.3527684" lon="10.645019"><ele>110.0</ele><time>2026-03-28T09:25:46.619Z</time></trkpt><trkpt lat="45.3526126" lon="10.6451639"><ele>110.0</ele><time>2026-03-28T09:25:47.611Z</time></trkpt><trkpt lat="45.3524763" lon="10.6452863"><ele>110.0</ele><time>2026-03-28T09:25:48.611Z</time></trkpt><trkpt lat="45.3523395" lon="10.645409"><ele>109.75</ele><time>2026-03-28T09:25:49.618Z</time></trkpt><trkpt lat="45.3522146" lon="10.6455474"><ele>109.5</ele><time>2026-03-28T09:25:50.619Z</time></trkpt><trkpt lat="45.3521011" lon="10.6456625"><ele>109.25</ele><time>2026-03-28T09:25:51.615Z</time></trkpt><trkpt lat="45.3519878" lon="10.6457601"><ele>109.0</ele><time>2026-03-28T09:25:52.613Z</time></trkpt><trkpt lat="45.3518974" lon="10.6458359"><ele>109.0</ele><time>2026-03-28T09:25:53.619Z</time></trkpt><trkpt lat="45.3518248" lon="10.6458983"><ele>109.0</ele><time>2026-03-28T09:25:54.601Z</time></trkpt><trkpt lat="45.3517117" lon="10.6458954"><ele>109.0</ele><time>2026-03-28T09:25:56.616Z</time></trkpt><trkpt lat="45.3516348" lon="10.6457544"><ele>109.0</ele><time>2026-03-28T09:25:58.599Z</time></trkpt><trkpt lat="45.3516237" lon="10.6456357"><ele>109.0</ele><time>2026-03-28T09:25:59.597Z</time></trkpt><trkpt lat="45.3516258" lon="10.6455081"><ele>109.0</ele><time>2026-03-28T09:26:00.611Z</time></trkpt><trkpt lat="45.3516556" lon="10.6453555"><ele>109.0</ele><time>2026-03-28T09:26:01.607Z</time></trkpt><trkpt lat="45.3517075" lon="10.6451978"><ele>109.0</ele><time>2026-03-28T09:26:02.611Z</time></trkpt><trkpt lat="45.351779" lon="10.6450222"><ele>109.0</ele><time>2026-03-28T09:26:03.61Z</time></trkpt><trkpt lat="45.3518782" lon="10.6448404"><ele>109.25</ele><time>2026-03-28T09:26:04.6Z</time></trkpt><trkpt lat="45.3519854" lon="10.6446576"><ele>109.5</ele><time>2026-03-28T09:26:05.614Z</time></trkpt><trkpt lat="45.3521021" lon="10.6445118"><ele>109.75</ele><time>2026-03-28T09:26:06.619Z</time></trkpt><trkpt lat="45.3521682" lon="10.644424"><ele>110.0</ele><time>2026-03-28T09:26:07.618Z</time></trkpt><trkpt lat="45.3522273" lon="10.6443306"><ele>110.2</ele><time>2026-03-28T09:26:09.607Z</time></trkpt><trkpt lat="45.3522499" lon="10.6442405"><ele>110.4</ele><time>2026-03-28T09:26:11.615Z</time></trkpt><trkpt lat="45.3521746" lon="10.6441665"><ele>110.6</ele><time>2026-03-28T09:26:13.614Z</time></trkpt><trkpt lat="45.352103" lon="10.6441352"><ele>110.8</ele><time>2026-03-28T09:26:14.613Z</time></trkpt><trkpt lat="45.3519917" lon="10.6440995"><ele>111.0</ele><time>2026-03-28T09:26:15.601Z</time></trkpt><trkpt lat="45.3518607" lon="10.644052"><ele>111.0</ele><time>2026-03-28T09:26:16.598Z</time></trkpt><trkpt lat="45.3517239" lon="10.6439942"><ele>111.0</ele><time>2026-03-28T09:26:17.601Z</time></trkpt><trkpt lat="45.351587" lon="10.6439045"><ele>111.0</ele><time>2026-03-28T09:26:18.602Z</time></trkpt><trkpt lat="45.3514612" lon="10.6437887"><ele>111.0</ele><time>2026-03-28T09:26:19.609Z</time></trkpt><trkpt lat="45.3513378" lon="10.6436851"><ele>110.0</ele><time>2026-03-28T09:26:20.606Z</time></trkpt><trkpt lat="45.3512152" lon="10.6435742"><ele>109.0</ele><time>2026-03-28T09:26:21.611Z</time></trkpt><trkpt lat="45.3510699" lon="10.6435035"><ele>108.0</ele><time>2026-03-28T09:26:22.616Z</time></trkpt><trkpt lat="45.3509136" lon="10.6434131"><ele>108.0</ele><time>2026-03-28T09:26:23.621Z</time></trkpt><trkpt lat="45.3507712" lon="10.6433329"><ele>108.0</ele><time>2026-03-28T09:26:24.62Z</time></trkpt><trkpt lat="45.3506267" lon="10.6432384"><ele>108.0</ele><time>2026-03-28T09:26:25.624Z</time></trkpt><trkpt lat="45.3504955" lon="10.6431611"><ele>107.75</ele><time>2026-03-28T09:26:26.631Z</time></trkpt><trkpt lat="45.3503695" lon="10.643082"><ele>107.5</ele><time>2026-03-28T09:26:27.622Z</time></trkpt><trkpt lat="45.3502238" lon="10.6430196"><ele>107.25</ele><time>2026-03-28T09:26:28.623Z</time></trkpt><trkpt lat="45.3501071" lon="10.6429832"><ele>107.0</ele><time>2026-03-28T09:26:29.626Z</time></trkpt><trkpt lat="45.3500065" lon="10.6429348"><ele>107.0</ele><time>2026-03-28T09:26:30.622Z</time></trkpt><trkpt lat="45.3499246" lon="10.6428972"><ele>106.99999999999999</ele><time>2026-03-28T09:26:31.633Z</time></trkpt><trkpt lat="45.349825" lon="10.6428665"><ele>106.99999999999999</ele><time>2026-03-28T09:26:32.629Z</time></trkpt><trkpt lat="45.3497217" lon="10.6428226"><ele>107.0</ele><time>2026-03-28T09:26:33.63Z</time></trkpt><trkpt lat="45.3496238" lon="10.6427757"><ele>107.0</ele><time>2026-03-28T09:26:34.631Z</time></trkpt><trkpt lat="45.349519" lon="10.6427265"><ele>106.5</ele><time>2026-03-28T09:26:35.633Z</time></trkpt><trkpt lat="45.3494072" lon="10.6426871"><ele>106.0</ele><time>2026-03-28T09:26:36.629Z</time></trkpt><trkpt lat="45.3492954" lon="10.6426673"><ele>105.5</ele><time>2026-03-28T09:26:37.63Z</time></trkpt><trkpt lat="45.349188" lon="10.6426391"><ele>105.0</ele><time>2026-03-28T09:26:38.634Z</time></trkpt><trkpt lat="45.3490759" lon="10.6426107"><ele>105.0</ele><time>2026-03-28T09:26:39.632Z</time></trkpt><trkpt lat="45.3489588" lon="10.6425853"><ele>105.0</ele><time>2026-03-28T09:26:40.629Z</time></trkpt><trkpt lat="45.3488542" lon="10.6425556"><ele>105.0</ele><time>2026-03-28T09:26:41.63Z</time></trkpt><trkpt lat="45.3487599" lon="10.6425328"><ele>105.0</ele><time>2026-03-28T09:26:42.627Z</time></trkpt><trkpt lat="45.3486941" lon="10.6425109"><ele>105.0</ele><time>2026-03-28T09:26:43.62Z</time></trkpt><trkpt lat="45.3486291" lon="10.6423709"><ele>105.33333333333333</ele><time>2026-03-28T09:26:45.609Z</time></trkpt><trkpt lat="45.3486266" lon="10.6422519"><ele>105.66666666666666</ele><time>2026-03-28T09:26:46.624Z</time></trkpt><trkpt lat="45.3486571" lon="10.6421246"><ele>106.0</ele><time>2026-03-28T09:26:47.618Z</time></trkpt><trkpt lat="45.3486861" lon="10.6419884"><ele>106.33333333333333</ele><time>2026-03-28T09:26:48.628Z</time></trkpt><trkpt lat="45.3486985" lon="10.6418671"><ele>106.66666666666666</ele><time>2026-03-28T09:26:49.619Z</time></trkpt><trkpt lat="45.3486923" lon="10.6417773"><ele>107.0</ele><time>2026-03-28T09:26:50.614Z</time></trkpt><trkpt lat="45.3486287" lon="10.6416666"><ele>107.0</ele><time>2026-03-28T09:26:52.624Z</time></trkpt><trkpt lat="45.348551" lon="10.6416785"><ele>106.99999999999999</ele><time>2026-03-28T09:26:53.622Z</time></trkpt><trkpt lat="45.3484324" lon="10.6417388"><ele>106.99999999999999</ele><time>2026-03-28T09:26:54.602Z</time></trkpt><trkpt lat="45.3483161" lon="10.6417881"><ele>107.0</ele><time>2026-03-28T09:26:55.618Z</time></trkpt><trkpt lat="45.3482015" lon="10.6418237"><ele>107.0</ele><time>2026-03-28T09:26:56.618Z</time></trkpt><trkpt lat="45.3480945" lon="10.6418644"><ele>107.0</ele><time>2026-03-28T09:26:57.63Z</time></trkpt><trkpt lat="45.3479791" lon="10.6418952"><ele>107.0</ele><time>2026-03-28T09:26:58.62Z</time></trkpt><trkpt lat="45.3478654" lon="10.6419235"><ele>107.0</ele><time>2026-03-28T09:26:59.627Z</time></trkpt><trkpt lat="45.3477417" lon="10.6419446"><ele>107.0</ele><time>2026-03-28T09:27:00.625Z</time></trkpt><trkpt lat="45.347617" lon="10.6419774"><ele>107.0</ele><time>2026-03-28T09:27:01.629Z</time></trkpt><trkpt lat="45.3474892" lon="10.6420016"><ele>107.0</ele><time>2026-03-28T09:27:02.63Z</time></trkpt><trkpt lat="45.3473554" lon="10.6420262"><ele>107.0</ele><time>2026-03-28T09:27:03.625Z</time></trkpt><trkpt lat="45.3472237" lon="10.6420492"><ele>107.0</ele><time>2026-03-28T09:27:04.624Z</time></trkpt><trkpt lat="45.3471148" lon="10.6420768"><ele>106.49999999999999</ele><time>2026-03-28T09:27:05.619Z</time></trkpt><trkpt lat="45.3470221" lon="10.6421099"><ele>106.0</ele><time>2026-03-28T09:27:06.621Z</time></trkpt><trkpt lat="45.3469383" lon="10.6421247"><ele>105.5</ele><time>2026-03-28T09:27:07.616Z</time></trkpt><trkpt lat="45.3468709" lon="10.642151"><ele>105.0</ele><time>2026-03-28T09:27:08.618Z</time></trkpt><trkpt lat="45.3467945" lon="10.6421667"><ele>104.49999999999999</ele><time>2026-03-28T09:27:09.614Z</time></trkpt><trkpt lat="45.346726" lon="10.6421708"><ele>104.0</ele><time>2026-03-28T09:27:10.614Z</time></trkpt><trkpt lat="45.3466716" lon="10.6420989"><ele>105.5</ele><time>2026-03-28T09:27:14.636Z</time></trkpt><trkpt lat="45.346633" lon="10.6419144"><ele>107.0</ele><time>2026-03-28T09:27:16.615Z</time></trkpt><trkpt lat="45.3466005" lon="10.6417868"><ele>108.5</ele><time>2026-03-28T09:27:17.612Z</time></trkpt><trkpt lat="45.3465573" lon="10.6416402"><ele>110.0</ele><time>2026-03-28T09:27:18.615Z</time></trkpt><trkpt lat="45.3465039" lon="10.6414888"><ele>110.0</ele><time>2026-03-28T09:27:19.621Z</time></trkpt><trkpt lat="45.3464461" lon="10.6413424"><ele>110.0</ele><time>2026-03-28T09:27:20.615Z</time></trkpt><trkpt lat="45.3463932" lon="10.6412116"><ele>110.0</ele><time>2026-03-28T09:27:21.611Z</time></trkpt><trkpt lat="45.3463476" lon="10.6410943"><ele>110.0</ele><time>2026-03-28T09:27:22.604Z</time></trkpt><trkpt lat="45.3463188" lon="10.640994"><ele>110.0</ele><time>2026-03-28T09:27:23.606Z</time></trkpt><trkpt lat="45.3463107" lon="10.6408967"><ele>110.2</ele><time>2026-03-28T09:27:24.616Z</time></trkpt><trkpt lat="45.3463339" lon="10.6407815"><ele>110.4</ele><time>2026-03-28T09:27:25.617Z</time></trkpt><trkpt lat="45.346361" lon="10.6406446"><ele>110.6</ele><time>2026-03-28T09:27:26.621Z</time></trkpt><trkpt lat="45.3463908" lon="10.6404867"><ele>110.8</ele><time>2026-03-28T09:27:27.625Z</time></trkpt><trkpt lat="45.3464049" lon="10.6403152"><ele>111.0</ele><time>2026-03-28T09:27:28.626Z</time></trkpt><trkpt lat="45.3463925" lon="10.6401393"><ele>113.75</ele><time>2026-03-28T09:27:29.62Z</time></trkpt><trkpt lat="45.3463623" lon="10.639952"><ele>116.5</ele><time>2026-03-28T09:27:30.625Z</time></trkpt><trkpt lat="45.3463212" lon="10.6397647"><ele>119.25</ele><time>2026-03-28T09:27:31.629Z</time></trkpt><trkpt lat="45.3462816" lon="10.6395839"><ele>122.0</ele><time>2026-03-28T09:27:32.616Z</time></trkpt><trkpt lat="45.3462584" lon="10.6394275"><ele>122.6</ele><time>2026-03-28T09:27:33.618Z</time></trkpt><trkpt lat="45.3462494" lon="10.6392821"><ele>123.19999999999999</ele><time>2026-03-28T09:27:34.625Z</time></trkpt><trkpt lat="45.3462302" lon="10.6391367"><ele>123.8</ele><time>2026-03-28T09:27:35.625Z</time></trkpt><trkpt lat="45.3462195" lon="10.6389936"><ele>124.4</ele><time>2026-03-28T09:27:36.627Z</time></trkpt><trkpt lat="45.3462151" lon="10.638861"><ele>125.0</ele><time>2026-03-28T09:27:37.624Z</time></trkpt><trkpt lat="45.3462005" lon="10.6387326"><ele>124.4</ele><time>2026-03-28T09:27:38.62Z</time></trkpt><trkpt lat="45.3461688" lon="10.638621"><ele>123.8</ele><time>2026-03-28T09:27:39.619Z</time></trkpt><trkpt lat="45.3461241" lon="10.63851"><ele>123.19999999999999</ele><time>2026-03-28T09:27:40.617Z</time></trkpt><trkpt lat="45.3460667" lon="10.6383917"><ele>122.6</ele><time>2026-03-28T09:27:41.618Z</time></trkpt><trkpt lat="45.3460049" lon="10.6382432"><ele>122.0</ele><time>2026-03-28T09:27:42.619Z</time></trkpt><trkpt lat="45.3459471" lon="10.6380962"><ele>121.99999999999999</ele><time>2026-03-28T09:27:43.614Z</time></trkpt><trkpt lat="45.3459013" lon="10.6379733"><ele>122.0</ele><time>2026-03-28T09:27:44.615Z</time></trkpt><trkpt lat="45.3458705" lon="10.6378644"><ele>122.0</ele><time>2026-03-28T09:27:45.611Z</time></trkpt><trkpt lat="45.3458402" lon="10.6377679"><ele>122.0</ele><time>2026-03-28T09:27:46.596Z</time></trkpt><trkpt lat="45.3457946" lon="10.6376548"><ele>121.99999999999999</ele><time>2026-03-28T09:27:48.61Z</time></trkpt><trkpt lat="45.3457093" lon="10.6375827"><ele>122.0</ele><time>2026-03-28T09:27:50.613Z</time></trkpt><trkpt lat="45.3456426" lon="10.6375333"><ele>122.0</ele><time>2026-03-28T09:27:51.616Z</time></trkpt><trkpt lat="45.345571" lon="10.6374681"><ele>121.99999999999999</ele><time>2026-03-28T09:27:52.621Z</time></trkpt><trkpt lat="45.3454897" lon="10.6374065"><ele>121.99999999999999</ele><time>2026-03-28T09:27:53.621Z</time></trkpt><trkpt lat="45.3454016" lon="10.6373489"><ele>122.0</ele><time>2026-03-28T09:27:54.616Z</time></trkpt><trkpt lat="45.3452995" lon="10.6372912"><ele>122.0</ele><time>2026-03-28T09:27:55.619Z</time></trkpt><trkpt lat="45.3451977" lon="10.6372289"><ele>122.0</ele><time>2026-03-28T09:27:56.615Z</time></trkpt><trkpt lat="45.345109" lon="10.6371639"><ele>121.99999999999999</ele><time>2026-03-28T09:27:57.615Z</time></trkpt><trkpt lat="45.3450161" lon="10.6370805"><ele>121.99999999999999</ele><time>2026-03-28T09:27:58.619Z</time></trkpt><trkpt lat="45.3449284" lon="10.6369857"><ele>122.0</ele><time>2026-03-28T09:27:59.629Z</time></trkpt><trkpt lat="45.3448496" lon="10.6368753"><ele>122.0</ele><time>2026-03-28T09:28:00.621Z</time></trkpt><trkpt lat="45.344775" lon="10.6367435"><ele>123.25</ele><time>2026-03-28T09:28:01.623Z</time></trkpt><trkpt lat="45.3447088" lon="10.6366059"><ele>124.5</ele><time>2026-03-28T09:28:02.618Z</time></trkpt><trkpt lat="45.3446548" lon="10.6364645"><ele>125.75</ele><time>2026-03-28T09:28:03.614Z</time></trkpt><trkpt lat="45.3446149" lon="10.6363137"><ele>127.0</ele><time>2026-03-28T09:28:04.607Z</time></trkpt><trkpt lat="45.3445784" lon="10.6361568"><ele>127.0</ele><time>2026-03-28T09:28:05.603Z</time></trkpt><trkpt lat="45.3445379" lon="10.6360126"><ele>126.99999999999999</ele><time>2026-03-28T09:28:06.607Z</time></trkpt><trkpt lat="45.344489" lon="10.6358867"><ele>126.99999999999999</ele><time>2026-03-28T09:28:07.603Z</time></trkpt><trkpt lat="45.3444137" lon="10.6357631"><ele>127.0</ele><time>2026-03-28T09:28:08.596Z</time></trkpt><trkpt lat="45.3443222" lon="10.6356446"><ele>127.0</ele><time>2026-03-28T09:28:09.596Z</time></trkpt><trkpt lat="45.3442239" lon="10.6355186"><ele>127.0</ele><time>2026-03-28T09:28:10.591Z</time></trkpt><trkpt lat="45.344116" lon="10.6354029"><ele>127.0</ele><time>2026-03-28T09:28:11.591Z</time></trkpt><trkpt lat="45.3440016" lon="10.6352836"><ele>127.0</ele><time>2026-03-28T09:28:12.591Z</time></trkpt><trkpt lat="45.3438878" lon="10.6351587"><ele>127.0</ele><time>2026-03-28T09:28:13.587Z</time></trkpt><trkpt lat="45.3438137" lon="10.6350207"><ele>125.39999999999999</ele><time>2026-03-28T09:28:14.59Z</time></trkpt><trkpt lat="45.3437601" lon="10.634887"><ele>123.79999999999998</ele><time>2026-03-28T09:28:15.596Z</time></trkpt><trkpt lat="45.3437142" lon="10.6347601"><ele>122.2</ele><time>2026-03-28T09:28:16.594Z</time></trkpt><trkpt lat="45.3437187" lon="10.634639"><ele>120.6</ele><time>2026-03-28T09:28:17.595Z</time></trkpt><trkpt lat="45.3436898" lon="10.6344632"><ele>119.0</ele><time>2026-03-28T09:28:18.587Z</time></trkpt><trkpt lat="45.3436754" lon="10.6342737"><ele>119.0</ele><time>2026-03-28T09:28:19.593Z</time></trkpt><trkpt lat="45.3436586" lon="10.634113"><ele>119.0</ele><time>2026-03-28T09:28:20.6Z</time></trkpt><trkpt lat="45.343629" lon="10.6339693"><ele>119.0</ele><time>2026-03-28T09:28:21.601Z</time></trkpt><trkpt lat="45.343625" lon="10.6338423"><ele>119.0</ele><time>2026-03-28T09:28:22.598Z</time></trkpt><trkpt lat="45.343635" lon="10.6337129"><ele>119.0</ele><time>2026-03-28T09:28:23.6Z</time></trkpt><trkpt lat="45.3436647" lon="10.6335709"><ele>120.80000000000001</ele><time>2026-03-28T09:28:24.595Z</time></trkpt><trkpt lat="45.3437219" lon="10.6334402"><ele>122.60000000000001</ele><time>2026-03-28T09:28:25.602Z</time></trkpt><trkpt lat="45.3437923" lon="10.6333252"><ele>124.4</ele><time>2026-03-28T09:28:26.603Z</time></trkpt><trkpt lat="45.3438625" lon="10.6332119"><ele>126.2</ele><time>2026-03-28T09:28:27.598Z</time></trkpt><trkpt lat="45.3439207" lon="10.6330928"><ele>128.0</ele><time>2026-03-28T09:28:28.594Z</time></trkpt><trkpt lat="45.3439661" lon="10.6329743"><ele>128.0</ele><time>2026-03-28T09:28:29.59Z</time></trkpt><trkpt lat="45.3439932" lon="10.6328402"><ele>128.0</ele><time>2026-03-28T09:28:30.604Z</time></trkpt><trkpt lat="45.3439873" lon="10.6326625"><ele>128.0</ele><time>2026-03-28T09:28:31.604Z</time></trkpt><trkpt lat="45.343964" lon="10.6324639"><ele>128.0</ele><time>2026-03-28T09:28:32.595Z</time></trkpt><trkpt lat="45.3439626" lon="10.6322673"><ele>128.25</ele><time>2026-03-28T09:28:33.594Z</time></trkpt><trkpt lat="45.3439721" lon="10.6320598"><ele>128.5</ele><time>2026-03-28T09:28:34.605Z</time></trkpt><trkpt lat="45.343992" lon="10.6318658"><ele>128.75</ele><time>2026-03-28T09:28:35.61Z</time></trkpt><trkpt lat="45.3440129" lon="10.6316778"><ele>129.0</ele><time>2026-03-28T09:28:36.609Z</time></trkpt><trkpt lat="45.3440309" lon="10.6315056"><ele>129.8</ele><time>2026-03-28T09:28:37.611Z</time></trkpt><trkpt lat="45.3440502" lon="10.6313505"><ele>130.60000000000002</ele><time>2026-03-28T09:28:38.607Z</time></trkpt><trkpt lat="45.3440605" lon="10.6312193"><ele>131.4</ele><time>2026-03-28T09:28:39.599Z</time></trkpt><trkpt lat="45.3440623" lon="10.6311038"><ele>132.20000000000002</ele><time>2026-03-28T09:28:40.608Z</time></trkpt><trkpt lat="45.3440864" lon="10.6309375"><ele>133.0</ele><time>2026-03-28T09:28:42.605Z</time></trkpt><trkpt lat="45.3441279" lon="10.6308119"><ele>133.20000000000002</ele><time>2026-03-28T09:28:44.608Z</time></trkpt><trkpt lat="45.3441662" lon="10.6306532"><ele>133.4</ele><time>2026-03-28T09:28:46.601Z</time></trkpt><trkpt lat="45.3441994" lon="10.63055"><ele>133.60000000000002</ele><time>2026-03-28T09:28:47.591Z</time></trkpt><trkpt lat="45.3442439" lon="10.6304309"><ele>133.8</ele><time>2026-03-28T09:28:48.597Z</time></trkpt><trkpt lat="45.3443069" lon="10.6303202"><ele>134.0</ele><time>2026-03-28T09:28:49.592Z</time></trkpt><trkpt lat="45.344352" lon="10.6302311"><ele>134.0</ele><time>2026-03-28T09:28:50.591Z</time></trkpt><trkpt lat="45.3444104" lon="10.6300991"><ele>134.0</ele><time>2026-03-28T09:28:52.601Z</time></trkpt><trkpt lat="45.3444445" lon="10.6300069"><ele>134.0</ele><time>2026-03-28T09:28:54.617Z</time></trkpt><trkpt lat="45.3444171" lon="10.6299103"><ele>134.0</ele><time>2026-03-28T09:29:05.63Z</time></trkpt><trkpt lat="45.3443535" lon="10.6298475"><ele>134.0</ele><time>2026-03-28T09:29:07.623Z</time></trkpt><trkpt lat="45.3442896" lon="10.6298335"><ele>134.0</ele><time>2026-03-28T09:29:08.619Z</time></trkpt><trkpt lat="45.3441741" lon="10.6298319"><ele>134.0</ele><time>2026-03-28T09:29:10.621Z</time></trkpt><trkpt lat="45.3440671" lon="10.6298874"><ele>134.0</ele><time>2026-03-28T09:29:12.611Z</time></trkpt><trkpt lat="45.344012" lon="10.6299433"><ele>134.0</ele><time>2026-03-28T09:29:13.61Z</time></trkpt><trkpt lat="45.343926" lon="10.6300452"><ele>134.0</ele><time>2026-03-28T09:29:14.626Z</time></trkpt><trkpt lat="45.3438179" lon="10.630164"><ele>134.0</ele><time>2026-03-28T09:29:15.613Z</time></trkpt><trkpt lat="45.3436885" lon="10.6302827"><ele>133.66666666666666</ele><time>2026-03-28T09:29:16.618Z</time></trkpt><trkpt lat="45.3435513" lon="10.6304052"><ele>133.33333333333334</ele><time>2026-03-28T09:29:17.626Z</time></trkpt><trkpt lat="45.3434027" lon="10.6305184"><ele>133.0</ele><time>2026-03-28T09:29:18.611Z</time></trkpt><trkpt lat="45.3432372" lon="10.630662"><ele>133.0</ele><time>2026-03-28T09:29:19.62Z</time></trkpt><trkpt lat="45.3430983" lon="10.6307783"><ele>133.0</ele><time>2026-03-28T09:29:20.625Z</time></trkpt><trkpt lat="45.3429776" lon="10.6309104"><ele>133.0</ele><time>2026-03-28T09:29:21.627Z</time></trkpt><trkpt lat="45.3428322" lon="10.6310275"><ele>132.66666666666669</ele><time>2026-03-28T09:29:22.623Z</time></trkpt><trkpt lat="45.3427007" lon="10.6311346"><ele>132.33333333333334</ele><time>2026-03-28T09:29:23.63Z</time></trkpt><trkpt lat="45.3425737" lon="10.6312592"><ele>132.0</ele><time>2026-03-28T09:29:24.625Z</time></trkpt><trkpt lat="45.3424469" lon="10.6313716"><ele>132.0</ele><time>2026-03-28T09:29:25.619Z</time></trkpt><trkpt lat="45.3423454" lon="10.6314728"><ele>132.0</ele><time>2026-03-28T09:29:26.622Z</time></trkpt><trkpt lat="45.3422459" lon="10.6315815"><ele>132.0</ele><time>2026-03-28T09:29:27.615Z</time></trkpt><trkpt lat="45.3421749" lon="10.6316914"><ele>132.0</ele><time>2026-03-28T09:29:28.613Z</time></trkpt><trkpt lat="45.3421142" lon="10.6318334"><ele>130.0</ele><time>2026-03-28T09:29:29.623Z</time></trkpt><trkpt lat="45.3420401" lon="10.6320233"><ele>128.0</ele><time>2026-03-28T09:29:30.617Z</time></trkpt><trkpt lat="45.3419502" lon="10.6322447"><ele>126.0</ele><time>2026-03-28T09:29:31.625Z</time></trkpt><trkpt lat="45.3418422" lon="10.632443"><ele>126.0</ele><time>2026-03-28T09:29:32.611Z</time></trkpt><trkpt lat="45.3417372" lon="10.6326571"><ele>126.0</ele><time>2026-03-28T09:29:33.614Z</time></trkpt><trkpt lat="45.3416355" lon="10.6328096"><ele>126.0</ele><time>2026-03-28T09:29:34.621Z</time></trkpt><trkpt lat="45.3415309" lon="10.6329607"><ele>125.5</ele><time>2026-03-28T09:29:35.612Z</time></trkpt><trkpt lat="45.3414195" lon="10.6330726"><ele>125.0</ele><time>2026-03-28T09:29:36.612Z</time></trkpt><trkpt lat="45.3413177" lon="10.6331745"><ele>124.5</ele><time>2026-03-28T09:29:37.608Z</time></trkpt><trkpt lat="45.3412245" lon="10.6332775"><ele>124.0</ele><time>2026-03-28T09:29:38.607Z</time></trkpt><trkpt lat="45.3411423" lon="10.6333636"><ele>124.0</ele><time>2026-03-28T09:29:39.607Z</time></trkpt><trkpt lat="45.3410576" lon="10.6334213"><ele>124.0</ele><time>2026-03-28T09:29:40.616Z</time></trkpt><trkpt lat="45.3409591" lon="10.6334369"><ele>124.0</ele><time>2026-03-28T09:29:41.61Z</time></trkpt><trkpt lat="45.3408692" lon="10.6334794"><ele>124.0</ele><time>2026-03-28T09:29:42.609Z</time></trkpt><trkpt lat="45.3407731" lon="10.6335349"><ele>124.0</ele><time>2026-03-28T09:29:43.612Z</time></trkpt><trkpt lat="45.3406717" lon="10.6335723"><ele>124.0</ele><time>2026-03-28T09:29:44.612Z</time></trkpt><trkpt lat="45.3405622" lon="10.633632"><ele>124.0</ele><time>2026-03-28T09:29:45.601Z</time></trkpt><trkpt lat="45.3404404" lon="10.6336927"><ele>124.0</ele><time>2026-03-28T09:29:46.608Z</time></trkpt><trkpt lat="45.3403178" lon="10.6337515"><ele>124.0</ele><time>2026-03-28T09:29:47.618Z</time></trkpt><trkpt lat="45.340184" lon="10.6337976"><ele>123.75</ele><time>2026-03-28T09:29:48.605Z</time></trkpt><trkpt lat="45.340048" lon="10.6338481"><ele>123.5</ele><time>2026-03-28T09:29:49.61Z</time></trkpt><trkpt lat="45.3399057" lon="10.6338991"><ele>123.25</ele><time>2026-03-28T09:29:50.616Z</time></trkpt><trkpt lat="45.3397684" lon="10.6339631"><ele>123.0</ele><time>2026-03-28T09:29:51.623Z</time></trkpt><trkpt lat="45.3396458" lon="10.6340133"><ele>122.2</ele><time>2026-03-28T09:29:52.621Z</time></trkpt><trkpt lat="45.3395265" lon="10.6340622"><ele>121.4</ele><time>2026-03-28T09:29:53.632Z</time></trkpt><trkpt lat="45.3394265" lon="10.6341073"><ele>120.60000000000001</ele><time>2026-03-28T09:29:54.627Z</time></trkpt><trkpt lat="45.3393513" lon="10.6341441"><ele>119.80000000000001</ele><time>2026-03-28T09:29:55.633Z</time></trkpt><trkpt lat="45.339285" lon="10.6341758"><ele>119.0</ele><time>2026-03-28T09:29:56.631Z</time></trkpt><trkpt lat="45.339189" lon="10.6342117"><ele>119.0</ele><time>2026-03-28T09:29:58.628Z</time></trkpt><trkpt lat="45.3391025" lon="10.6341696"><ele>119.0</ele><time>2026-03-28T09:30:00.625Z</time></trkpt><trkpt lat="45.3390535" lon="10.6340734"><ele>119.0</ele><time>2026-03-28T09:30:02.639Z</time></trkpt><trkpt lat="45.3389851" lon="10.6339819"><ele>119.0</ele><time>2026-03-28T09:30:04.612Z</time></trkpt><trkpt lat="45.3388763" lon="10.6340221"><ele>119.0</ele><time>2026-03-28T09:30:06.606Z</time></trkpt><trkpt lat="45.3387869" lon="10.6341065"><ele>119.25</ele><time>2026-03-28T09:30:07.62Z</time></trkpt><trkpt lat="45.3386742" lon="10.6342138"><ele>119.5</ele><time>2026-03-28T09:30:08.604Z</time></trkpt><trkpt lat="45.3385488" lon="10.634318"><ele>119.75</ele><time>2026-03-28T09:30:09.604Z</time></trkpt><trkpt lat="45.3384108" lon="10.6344167"><ele>120.0</ele><time>2026-03-28T09:30:10.618Z</time></trkpt><trkpt lat="45.3382902" lon="10.6345165"><ele>120.0</ele><time>2026-03-28T09:30:11.616Z</time></trkpt><trkpt lat="45.3381721" lon="10.6346229"><ele>120.0</ele><time>2026-03-28T09:30:12.62Z</time></trkpt><trkpt lat="45.3380368" lon="10.6347432"><ele>120.0</ele><time>2026-03-28T09:30:13.623Z</time></trkpt><trkpt lat="45.3379267" lon="10.6348644"><ele>120.0</ele><time>2026-03-28T09:30:14.628Z</time></trkpt><trkpt lat="45.3378246" lon="10.6349634"><ele>119.2</ele><time>2026-03-28T09:30:15.624Z</time></trkpt><trkpt lat="45.3377234" lon="10.6350367"><ele>118.4</ele><time>2026-03-28T09:30:16.626Z</time></trkpt><trkpt lat="45.33765" lon="10.6351124"><ele>117.6</ele><time>2026-03-28T09:30:17.624Z</time></trkpt><trkpt lat="45.3375941" lon="10.6351688"><ele>116.8</ele><time>2026-03-28T09:30:18.626Z</time></trkpt><trkpt lat="45.3375199" lon="10.6352863"><ele>116.0</ele><time>2026-03-28T09:30:20.622Z</time></trkpt><trkpt lat="45.3374237" lon="10.6353233"><ele>115.19999999999999</ele><time>2026-03-28T09:30:22.622Z</time></trkpt><trkpt lat="45.337312" lon="10.6352336"><ele>114.39999999999999</ele><time>2026-03-28T09:30:24.607Z</time></trkpt><trkpt lat="45.3372522" lon="10.6351447"><ele>113.6</ele><time>2026-03-28T09:30:25.607Z</time></trkpt><trkpt lat="45.337178" lon="10.6350345"><ele>112.8</ele><time>2026-03-28T09:30:26.604Z</time></trkpt><trkpt lat="45.3370998" lon="10.6349072"><ele>112.0</ele><time>2026-03-28T09:30:27.601Z</time></trkpt><trkpt lat="45.3370036" lon="10.6348053"><ele>110.6</ele><time>2026-03-28T09:30:28.603Z</time></trkpt><trkpt lat="45.3369072" lon="10.6347308"><ele>109.19999999999999</ele><time>2026-03-28T09:30:29.614Z</time></trkpt><trkpt lat="45.3368176" lon="10.6346759"><ele>107.8</ele><time>2026-03-28T09:30:30.618Z</time></trkpt><trkpt lat="45.3367237" lon="10.6346021"><ele>106.4</ele><time>2026-03-28T09:30:31.61Z</time></trkpt><trkpt lat="45.3366541" lon="10.6345322"><ele>105.0</ele><time>2026-03-28T09:30:32.607Z</time></trkpt><trkpt lat="45.3366029" lon="10.6344721"><ele>105.0</ele><time>2026-03-28T09:30:33.61Z</time></trkpt><trkpt lat="45.3365492" lon="10.6343576"><ele>105.0</ele><time>2026-03-28T09:30:35.597Z</time></trkpt><trkpt lat="45.3364415" lon="10.6343266"><ele>105.0</ele><time>2026-03-28T09:30:37.613Z</time></trkpt><trkpt lat="45.3363566" lon="10.6343548"><ele>105.0</ele><time>2026-03-28T09:30:38.599Z</time></trkpt><trkpt lat="45.3362548" lon="10.6343948"><ele>105.0</ele><time>2026-03-28T09:30:39.598Z</time></trkpt><trkpt lat="45.3361404" lon="10.6344559"><ele>104.4</ele><time>2026-03-28T09:30:40.593Z</time></trkpt><trkpt lat="45.3360421" lon="10.6345172"><ele>103.8</ele><time>2026-03-28T09:30:41.59Z</time></trkpt><trkpt lat="45.3359586" lon="10.6345843"><ele>103.19999999999999</ele><time>2026-03-28T09:30:42.598Z</time></trkpt><trkpt lat="45.3358999" lon="10.6346521"><ele>102.6</ele><time>2026-03-28T09:30:43.596Z</time></trkpt><trkpt lat="45.3358546" lon="10.6347465"><ele>102.0</ele><time>2026-03-28T09:30:44.608Z</time></trkpt><trkpt lat="45.3358191" lon="10.6348666"><ele>102.0</ele><time>2026-03-28T09:30:45.602Z</time></trkpt><trkpt lat="45.3357682" lon="10.6349819"><ele>102.0</ele><time>2026-03-28T09:30:46.605Z</time></trkpt><trkpt lat="45.3357033" lon="10.635113"><ele>102.0</ele><time>2026-03-28T09:30:47.611Z</time></trkpt><trkpt lat="45.3356399" lon="10.6352485"><ele>102.0</ele><time>2026-03-28T09:30:48.606Z</time></trkpt><trkpt lat="45.33558" lon="10.6354029"><ele>102.0</ele><time>2026-03-28T09:30:49.624Z</time></trkpt><trkpt lat="45.3355253" lon="10.6355664"><ele>101.0</ele><time>2026-03-28T09:30:50.607Z</time></trkpt><trkpt lat="45.3354629" lon="10.6357204"><ele>100.0</ele><time>2026-03-28T09:30:51.614Z</time></trkpt><trkpt lat="45.3354108" lon="10.6358634"><ele>99.0</ele><time>2026-03-28T09:30:52.61Z</time></trkpt><trkpt lat="45.3353385" lon="10.6359758"><ele>98.0</ele><time>2026-03-28T09:30:53.609Z</time></trkpt><trkpt lat="45.3352627" lon="10.636071"><ele>97.0</ele><time>2026-03-28T09:30:54.607Z</time></trkpt><trkpt lat="45.3351759" lon="10.6361599"><ele>97.0</ele><time>2026-03-28T09:30:55.608Z</time></trkpt><trkpt lat="45.3350873" lon="10.6362457"><ele>97.0</ele><time>2026-03-28T09:30:56.612Z</time></trkpt><trkpt lat="45.3350004" lon="10.636319"><ele>97.0</ele><time>2026-03-28T09:30:57.608Z</time></trkpt><trkpt lat="45.3349145" lon="10.6363864"><ele>97.0</ele><time>2026-03-28T09:30:58.606Z</time></trkpt><trkpt lat="45.3348333" lon="10.6364557"><ele>97.0</ele><time>2026-03-28T09:30:59.608Z</time></trkpt><trkpt lat="45.3347566" lon="10.636523"><ele>97.00000000000001</ele><time>2026-03-28T09:31:00.609Z</time></trkpt><trkpt lat="45.3346846" lon="10.636595"><ele>97.0</ele><time>2026-03-28T09:31:01.6Z</time></trkpt><trkpt lat="45.3346122" lon="10.6366757"><ele>97.0</ele><time>2026-03-28T09:31:02.59Z</time></trkpt><trkpt lat="45.3345461" lon="10.6367732"><ele>97.0</ele><time>2026-03-28T09:31:03.598Z</time></trkpt><trkpt lat="45.334489" lon="10.6368639"><ele>97.00000000000001</ele><time>2026-03-28T09:31:04.608Z</time></trkpt><trkpt lat="45.3344356" lon="10.6369595"><ele>97.0</ele><time>2026-03-28T09:31:05.598Z</time></trkpt><trkpt lat="45.3343767" lon="10.6370631"><ele>96.0</ele><time>2026-03-28T09:31:06.599Z</time></trkpt><trkpt lat="45.3343151" lon="10.6371786"><ele>95.0</ele><time>2026-03-28T09:31:07.595Z</time></trkpt><trkpt lat="45.3342616" lon="10.63728"><ele>94.0</ele><time>2026-03-28T09:31:08.596Z</time></trkpt><trkpt lat="45.3342115" lon="10.6373644"><ele>93.0</ele><time>2026-03-28T09:31:09.596Z</time></trkpt><trkpt lat="45.3341687" lon="10.6374318"><ele>92.0</ele><time>2026-03-28T09:31:10.599Z</time></trkpt><trkpt lat="45.3340644" lon="10.6375121"><ele>92.0</ele><time>2026-03-28T09:31:12.604Z</time></trkpt><trkpt lat="45.333982" lon="10.6375481"><ele>92.0</ele><time>2026-03-28T09:31:13.614Z</time></trkpt><trkpt lat="45.3338801" lon="10.6375991"><ele>92.0</ele><time>2026-03-28T09:31:14.616Z</time></trkpt><trkpt lat="45.3337629" lon="10.6376632"><ele>92.0</ele><time>2026-03-28T09:31:15.61Z</time></trkpt><trkpt lat="45.333641" lon="10.6377244"><ele>92.0</ele><time>2026-03-28T09:31:16.603Z</time></trkpt><trkpt lat="45.3335239" lon="10.6377911"><ele>91.25</ele><time>2026-03-28T09:31:17.602Z</time></trkpt><trkpt lat="45.3334043" lon="10.637839"><ele>90.5</ele><time>2026-03-28T09:31:18.602Z</time></trkpt><trkpt lat="45.3332944" lon="10.6378963"><ele>89.75</ele><time>2026-03-28T09:31:19.6Z</time></trkpt><trkpt lat="45.333194" lon="10.6379478"><ele>89.0</ele><time>2026-03-28T09:31:20.613Z</time></trkpt><trkpt lat="45.3331002" lon="10.6380219"><ele>90.6</ele><time>2026-03-28T09:31:21.603Z</time></trkpt><trkpt lat="45.3330054" lon="10.638107"><ele>92.2</ele><time>2026-03-28T09:31:22.608Z</time></trkpt><trkpt lat="45.3329271" lon="10.6382247"><ele>93.8</ele><time>2026-03-28T09:31:23.61Z</time></trkpt><trkpt lat="45.3328515" lon="10.6383232"><ele>95.39999999999999</ele><time>2026-03-28T09:31:24.606Z</time></trkpt><trkpt lat="45.3327736" lon="10.638403"><ele>97.0</ele><time>2026-03-28T09:31:25.611Z</time></trkpt><trkpt lat="45.3327058" lon="10.6384803"><ele>97.0</ele><time>2026-03-28T09:31:26.605Z</time></trkpt><trkpt lat="45.332636" lon="10.6385544"><ele>97.0</ele><time>2026-03-28T09:31:27.602Z</time></trkpt><trkpt lat="45.3325628" lon="10.6386348"><ele>97.0</ele><time>2026-03-28T09:31:28.599Z</time></trkpt><trkpt lat="45.3324756" lon="10.6387209"><ele>97.0</ele><time>2026-03-28T09:31:29.603Z</time></trkpt><trkpt lat="45.332384" lon="10.6388055"><ele>97.0</ele><time>2026-03-28T09:31:30.601Z</time></trkpt><trkpt lat="45.3322786" lon="10.6388793"><ele>94.39999999999999</ele><time>2026-03-28T09:31:31.602Z</time></trkpt><trkpt lat="45.3321755" lon="10.638952"><ele>91.8</ele><time>2026-03-28T09:31:32.598Z</time></trkpt><trkpt lat="45.3320798" lon="10.6390399"><ele>89.2</ele><time>2026-03-28T09:31:33.597Z</time></trkpt><trkpt lat="45.3319994" lon="10.6391418"><ele>86.6</ele><time>2026-03-28T09:31:34.598Z</time></trkpt><trkpt lat="45.3319219" lon="10.639246"><ele>84.0</ele><time>2026-03-28T09:31:35.612Z</time></trkpt><trkpt lat="45.3318521" lon="10.6393588"><ele>84.0</ele><time>2026-03-28T09:31:36.602Z</time></trkpt><trkpt lat="45.3317726" lon="10.6394442"><ele>84.0</ele><time>2026-03-28T09:31:37.6Z</time></trkpt><trkpt lat="45.3316918" lon="10.6395078"><ele>84.0</ele><time>2026-03-28T09:31:38.599Z</time></trkpt><trkpt lat="45.3316287" lon="10.6395703"><ele>84.0</ele><time>2026-03-28T09:31:39.601Z</time></trkpt><trkpt lat="45.3315868" lon="10.639642"><ele>84.0</ele><time>2026-03-28T09:31:40.598Z</time></trkpt><trkpt lat="45.331563" lon="10.6397461"><ele>84.0</ele><time>2026-03-28T09:31:41.603Z</time></trkpt><trkpt lat="45.3315553" lon="10.6398894"><ele>84.0</ele><time>2026-03-28T09:31:43.604Z</time></trkpt><trkpt lat="45.3314689" lon="10.639911"><ele>84.0</ele><time>2026-03-28T09:31:47.614Z</time></trkpt><trkpt lat="45.3313914" lon="10.6398992"><ele>84.0</ele><time>2026-03-28T09:31:48.614Z</time></trkpt><trkpt lat="45.331281" lon="10.6398743"><ele>84.0</ele><time>2026-03-28T09:31:49.605Z</time></trkpt><trkpt lat="45.3311482" lon="10.6398537"><ele>84.0</ele><time>2026-03-28T09:31:50.605Z</time></trkpt><trkpt lat="45.3310036" lon="10.6398436"><ele>84.75</ele><time>2026-03-28T09:31:51.621Z</time></trkpt><trkpt lat="45.3308735" lon="10.6398352"><ele>85.5</ele><time>2026-03-28T09:31:52.604Z</time></trkpt><trkpt lat="45.3307501" lon="10.6398263"><ele>86.25</ele><time>2026-03-28T09:31:53.611Z</time></trkpt><trkpt lat="45.330649" lon="10.6398169"><ele>87.0</ele><time>2026-03-28T09:31:54.605Z</time></trkpt><trkpt lat="45.3305384" lon="10.6397985"><ele>87.0</ele><time>2026-03-28T09:31:55.608Z</time></trkpt><trkpt lat="45.3304269" lon="10.6397765"><ele>87.0</ele><time>2026-03-28T09:31:56.599Z</time></trkpt><trkpt lat="45.3303201" lon="10.6397384"><ele>87.0</ele><time>2026-03-28T09:31:57.598Z</time></trkpt><trkpt lat="45.3302084" lon="10.6396856"><ele>87.0</ele><time>2026-03-28T09:31:58.596Z</time></trkpt><trkpt lat="45.3300864" lon="10.6396346"><ele>87.0</ele><time>2026-03-28T09:31:59.593Z</time></trkpt><trkpt lat="45.3299702" lon="10.6395873"><ele>87.0</ele><time>2026-03-28T09:32:00.597Z</time></trkpt><trkpt lat="45.3298642" lon="10.6395572"><ele>87.0</ele><time>2026-03-28T09:32:01.599Z</time></trkpt><trkpt lat="45.3297622" lon="10.6395351"><ele>87.0</ele><time>2026-03-28T09:32:02.592Z</time></trkpt><trkpt lat="45.3296791" lon="10.6395487"><ele>87.0</ele><time>2026-03-28T09:32:03.587Z</time></trkpt><trkpt lat="45.3296011" lon="10.6396029"><ele>86.0</ele><time>2026-03-28T09:32:04.592Z</time></trkpt><trkpt lat="45.3295459" lon="10.6396978"><ele>85.0</ele><time>2026-03-28T09:32:05.602Z</time></trkpt><trkpt lat="45.3295052" lon="10.6397867"><ele>84.0</ele><time>2026-03-28T09:32:06.61Z</time></trkpt><trkpt lat="45.3294386" lon="10.6399203"><ele>83.0</ele><time>2026-03-28T09:32:08.609Z</time></trkpt><trkpt lat="45.3293969" lon="10.6400395"><ele>82.0</ele><time>2026-03-28T09:32:10.598Z</time></trkpt><trkpt lat="45.32941" lon="10.6402343"><ele>82.5</ele><time>2026-03-28T09:32:12.594Z</time></trkpt><trkpt lat="45.329435" lon="10.6403729"><ele>83.0</ele><time>2026-03-28T09:32:13.601Z</time></trkpt><trkpt lat="45.3294577" lon="10.640531"><ele>83.5</ele><time>2026-03-28T09:32:14.603Z</time></trkpt><trkpt lat="45.3294872" lon="10.6407007"><ele>84.0</ele><time>2026-03-28T09:32:15.606Z</time></trkpt><trkpt lat="45.3295282" lon="10.6408816"><ele>84.0</ele><time>2026-03-28T09:32:16.599Z</time></trkpt><trkpt lat="45.3295602" lon="10.6410302"><ele>84.0</ele><time>2026-03-28T09:32:17.6Z</time></trkpt><trkpt lat="45.3295887" lon="10.6411708"><ele>84.0</ele><time>2026-03-28T09:32:18.601Z</time></trkpt><trkpt lat="45.3296094" lon="10.6413123"><ele>84.0</ele><time>2026-03-28T09:32:19.6Z</time></trkpt><trkpt lat="45.3295832" lon="10.6414568"><ele>84.0</ele><time>2026-03-28T09:32:20.597Z</time></trkpt><trkpt lat="45.3295327" lon="10.6415913"><ele>83.75</ele><time>2026-03-28T09:32:21.605Z</time></trkpt><trkpt lat="45.3294592" lon="10.641731"><ele>83.5</ele><time>2026-03-28T09:32:22.607Z</time></trkpt><trkpt lat="45.3293608" lon="10.6418691"><ele>83.25</ele><time>2026-03-28T09:32:23.606Z</time></trkpt><trkpt lat="45.3292875" lon="10.6420215"><ele>83.0</ele><time>2026-03-28T09:32:24.603Z</time></trkpt><trkpt lat="45.3292275" lon="10.6422069"><ele>82.66666666666667</ele><time>2026-03-28T09:32:25.607Z</time></trkpt><trkpt lat="45.3291599" lon="10.6424335"><ele>82.33333333333333</ele><time>2026-03-28T09:32:26.61Z</time></trkpt><trkpt lat="45.3291283" lon="10.6426596"><ele>82.0</ele><time>2026-03-28T09:32:27.618Z</time></trkpt><trkpt lat="45.3291067" lon="10.6429088"><ele>82.33333333333333</ele><time>2026-03-28T09:32:28.61Z</time></trkpt><trkpt lat="45.329074" lon="10.6431713"><ele>82.66666666666667</ele><time>2026-03-28T09:32:29.614Z</time></trkpt><trkpt lat="45.3290642" lon="10.6434607"><ele>83.0</ele><time>2026-03-28T09:32:30.621Z</time></trkpt><trkpt lat="45.329047" lon="10.6437343"><ele>83.0</ele><time>2026-03-28T09:32:31.62Z</time></trkpt><trkpt lat="45.329044" lon="10.6440089"><ele>83.0</ele><time>2026-03-28T09:32:32.623Z</time></trkpt><trkpt lat="45.3290226" lon="10.6442553"><ele>83.0</ele><time>2026-03-28T09:32:33.622Z</time></trkpt><trkpt lat="45.3290074" lon="10.6444922"><ele>83.66666666666667</ele><time>2026-03-28T09:32:34.626Z</time></trkpt><trkpt lat="45.3290031" lon="10.6447268"><ele>84.33333333333333</ele><time>2026-03-28T09:32:35.62Z</time></trkpt><trkpt lat="45.3289976" lon="10.644957"><ele>85.0</ele><time>2026-03-28T09:32:36.618Z</time></trkpt><trkpt lat="45.3289921" lon="10.6451854"><ele>85.4</ele><time>2026-03-28T09:32:37.62Z</time></trkpt><trkpt lat="45.3289817" lon="10.6453647"><ele>85.8</ele><time>2026-03-28T09:32:38.613Z</time></trkpt><trkpt lat="45.3289811" lon="10.645535"><ele>86.19999999999999</ele><time>2026-03-28T09:32:39.617Z</time></trkpt><trkpt lat="45.3289705" lon="10.6456961"><ele>86.6</ele><time>2026-03-28T09:32:40.611Z</time></trkpt><trkpt lat="45.3289455" lon="10.645817"><ele>87.0</ele><time>2026-03-28T09:32:41.61Z</time></trkpt><trkpt lat="45.3289356" lon="10.6459327"><ele>87.0</ele><time>2026-03-28T09:32:42.598Z</time></trkpt><trkpt lat="45.3289249" lon="10.6460635"><ele>87.0</ele><time>2026-03-28T09:32:44.608Z</time></trkpt><trkpt lat="45.3288747" lon="10.646198"><ele>87.0</ele><time>2026-03-28T09:32:47.611Z</time></trkpt><trkpt lat="45.3287931" lon="10.6463717"><ele>87.0</ele><time>2026-03-28T09:32:49.608Z</time></trkpt><trkpt lat="45.3287496" lon="10.6465112"><ele>87.39999999999999</ele><time>2026-03-28T09:32:50.6Z</time></trkpt><trkpt lat="45.3287073" lon="10.6466488"><ele>87.8</ele><time>2026-03-28T09:32:51.606Z</time></trkpt><trkpt lat="45.3286635" lon="10.6467729"><ele>88.2</ele><time>2026-03-28T09:32:52.595Z</time></trkpt><trkpt lat="45.3286281" lon="10.6468805"><ele>88.6</ele><time>2026-03-28T09:32:53.615Z</time></trkpt><trkpt lat="45.3285933" lon="10.6469714"><ele>89.0</ele><time>2026-03-28T09:32:54.604Z</time></trkpt><trkpt lat="45.3285404" lon="10.6470891"><ele>89.0</ele><time>2026-03-28T09:32:55.602Z</time></trkpt><trkpt lat="45.3284621" lon="10.6471996"><ele>89.0</ele><time>2026-03-28T09:32:56.602Z</time></trkpt><trkpt lat="45.3283713" lon="10.6473168"><ele>89.0</ele><time>2026-03-28T09:32:57.6Z</time></trkpt><trkpt lat="45.3282633" lon="10.6474393"><ele>89.0</ele><time>2026-03-28T09:32:58.603Z</time></trkpt><trkpt lat="45.3281395" lon="10.6475887"><ele>92.33333333333334</ele><time>2026-03-28T09:32:59.604Z</time></trkpt><trkpt lat="45.3280323" lon="10.647792"><ele>95.66666666666667</ele><time>2026-03-28T09:33:00.61Z</time></trkpt><trkpt lat="45.327933" lon="10.6479866"><ele>99.0</ele><time>2026-03-28T09:33:01.613Z</time></trkpt><trkpt lat="45.327829" lon="10.6481821"><ele>99.33333333333334</ele><time>2026-03-28T09:33:02.611Z</time></trkpt><trkpt lat="45.3277066" lon="10.6483902"><ele>99.66666666666667</ele><time>2026-03-28T09:33:03.611Z</time></trkpt><trkpt lat="45.3275815" lon="10.6485817"><ele>100.0</ele><time>2026-03-28T09:33:04.612Z</time></trkpt><trkpt lat="45.3274735" lon="10.6487844"><ele>100.0</ele><time>2026-03-28T09:33:05.608Z</time></trkpt><trkpt lat="45.3273869" lon="10.6490081"><ele>100.0</ele><time>2026-03-28T09:33:06.609Z</time></trkpt><trkpt lat="45.3272863" lon="10.6491945"><ele>100.0</ele><time>2026-03-28T09:33:07.609Z</time></trkpt><trkpt lat="45.3272197" lon="10.6493816"><ele>102.5</ele><time>2026-03-28T09:33:08.605Z</time></trkpt><trkpt lat="45.3271557" lon="10.6495801"><ele>105.0</ele><time>2026-03-28T09:33:09.601Z</time></trkpt><trkpt lat="45.327112" lon="10.6497587"><ele>107.5</ele><time>2026-03-28T09:33:10.606Z</time></trkpt><trkpt lat="45.3270423" lon="10.6499109"><ele>110.0</ele><time>2026-03-28T09:33:11.604Z</time></trkpt><trkpt lat="45.3269706" lon="10.6500887"><ele>110.0</ele><time>2026-03-28T09:33:12.606Z</time></trkpt><trkpt lat="45.32691" lon="10.6502687"><ele>110.0</ele><time>2026-03-28T09:33:13.606Z</time></trkpt><trkpt lat="45.3268423" lon="10.650461"><ele>110.0</ele><time>2026-03-28T09:33:14.608Z</time></trkpt><trkpt lat="45.3267628" lon="10.6506227"><ele>110.0</ele><time>2026-03-28T09:33:15.609Z</time></trkpt><trkpt lat="45.3266853" lon="10.6507798"><ele>108.5</ele><time>2026-03-28T09:33:16.611Z</time></trkpt><trkpt lat="45.3266234" lon="10.650919"><ele>107.0</ele><time>2026-03-28T09:33:17.612Z</time></trkpt><trkpt lat="45.3265362" lon="10.6510439"><ele>105.5</ele><time>2026-03-28T09:33:18.607Z</time></trkpt><trkpt lat="45.326443" lon="10.651163"><ele>104.0</ele><time>2026-03-28T09:33:19.604Z</time></trkpt><trkpt lat="45.3263255" lon="10.651279"><ele>111.0</ele><time>2026-03-28T09:33:20.609Z</time></trkpt><trkpt lat="45.3262143" lon="10.6514087"><ele>118.0</ele><time>2026-03-28T09:33:21.611Z</time></trkpt><trkpt lat="45.3259407" lon="10.6516836"><ele>118.0</ele><time>2026-03-28T09:33:23.615Z</time></trkpt><trkpt lat="45.3258171" lon="10.6518467"><ele>118.0</ele><time>2026-03-28T09:33:24.623Z</time></trkpt><trkpt lat="45.3257132" lon="10.651996"><ele>118.0</ele><time>2026-03-28T09:33:25.609Z</time></trkpt><trkpt lat="45.3256016" lon="10.6521084"><ele>119.75</ele><time>2026-03-28T09:33:26.604Z</time></trkpt><trkpt lat="45.3255148" lon="10.6522359"><ele>121.5</ele><time>2026-03-28T09:33:27.603Z</time></trkpt><trkpt lat="45.3254362" lon="10.6523617"><ele>123.25</ele><time>2026-03-28T09:33:28.605Z</time></trkpt><trkpt lat="45.3253772" lon="10.6524551"><ele>125.0</ele><time>2026-03-28T09:33:29.604Z</time></trkpt><trkpt lat="45.3253142" lon="10.6526192"><ele>125.0</ele><time>2026-03-28T09:33:30.602Z</time></trkpt><trkpt lat="45.325276" lon="10.6527695"><ele>125.0</ele><time>2026-03-28T09:33:31.599Z</time></trkpt><trkpt lat="45.3252124" lon="10.6529201"><ele>125.0</ele><time>2026-03-28T09:33:32.595Z</time></trkpt><trkpt lat="45.3251541" lon="10.6530533"><ele>125.0</ele><time>2026-03-28T09:33:33.585Z</time></trkpt><trkpt lat="45.3251125" lon="10.6531762"><ele>125.0</ele><time>2026-03-28T09:33:34.595Z</time></trkpt><trkpt lat="45.3250707" lon="10.6532789"><ele>124.6</ele><time>2026-03-28T09:33:35.595Z</time></trkpt><trkpt lat="45.3250088" lon="10.6533873"><ele>124.2</ele><time>2026-03-28T09:33:36.595Z</time></trkpt><trkpt lat="45.3249462" lon="10.6534833"><ele>123.80000000000001</ele><time>2026-03-28T09:33:37.596Z</time></trkpt><trkpt lat="45.3248693" lon="10.6535884"><ele>123.4</ele><time>2026-03-28T09:33:38.593Z</time></trkpt><trkpt lat="45.3247899" lon="10.6536859"><ele>123.0</ele><time>2026-03-28T09:33:39.609Z</time></trkpt><trkpt lat="45.3247162" lon="10.6537787"><ele>123.0</ele><time>2026-03-28T09:33:40.595Z</time></trkpt><trkpt lat="45.3246585" lon="10.6538484"><ele>123.0</ele><time>2026-03-28T09:33:41.594Z</time></trkpt><trkpt lat="45.3245806" lon="10.6539433"><ele>123.0</ele><time>2026-03-28T09:33:43.593Z</time></trkpt><trkpt lat="45.3245807" lon="10.6540528"><ele>123.0</ele><time>2026-03-28T09:33:47.605Z</time></trkpt><trkpt lat="45.3246848" lon="10.6540411"><ele>123.0</ele><time>2026-03-28T09:33:49.603Z</time></trkpt><trkpt lat="45.3247634" lon="10.65404"><ele>123.0</ele><time>2026-03-28T09:33:50.598Z</time></trkpt><trkpt lat="45.3248591" lon="10.6540449"><ele>123.0</ele><time>2026-03-28T09:33:51.599Z</time></trkpt><trkpt lat="45.3249791" lon="10.6540774"><ele>123.0</ele><time>2026-03-28T09:33:52.586Z</time></trkpt><trkpt lat="45.325097" lon="10.6541519"><ele>123.0</ele><time>2026-03-28T09:33:53.584Z</time></trkpt><trkpt lat="45.3251972" lon="10.6542437"><ele>123.0</ele><time>2026-03-28T09:33:54.571Z</time></trkpt><trkpt lat="45.325297" lon="10.654373"><ele>123.25</ele><time>2026-03-28T09:33:55.595Z</time></trkpt><trkpt lat="45.3254009" lon="10.6545105"><ele>123.5</ele><time>2026-03-28T09:33:56.584Z</time></trkpt><trkpt lat="45.3254558" lon="10.6546692"><ele>123.75</ele><time>2026-03-28T09:33:57.589Z</time></trkpt><trkpt lat="45.3254976" lon="10.6548321"><ele>124.0</ele><time>2026-03-28T09:33:58.588Z</time></trkpt><trkpt lat="45.3255049" lon="10.6550085"><ele>124.0</ele><time>2026-03-28T09:33:59.591Z</time></trkpt><trkpt lat="45.3255072" lon="10.6551828"><ele>124.0</ele><time>2026-03-28T09:34:00.594Z</time></trkpt><trkpt lat="45.3254554" lon="10.6553746"><ele>124.0</ele><time>2026-03-28T09:34:01.6Z</time></trkpt><trkpt lat="45.3253955" lon="10.6555695"><ele>124.0</ele><time>2026-03-28T09:34:02.589Z</time></trkpt><trkpt lat="45.3253337" lon="10.6557817"><ele>122.66666666666667</ele><time>2026-03-28T09:34:03.602Z</time></trkpt><trkpt lat="45.3252594" lon="10.6560097"><ele>121.33333333333334</ele><time>2026-03-28T09:34:04.607Z</time></trkpt><trkpt lat="45.3252193" lon="10.6562221"><ele>120.0</ele><time>2026-03-28T09:34:05.607Z</time></trkpt><trkpt lat="45.3251507" lon="10.6563988"><ele>117.25</ele><time>2026-03-28T09:34:06.604Z</time></trkpt><trkpt lat="45.3250863" lon="10.6565718"><ele>114.5</ele><time>2026-03-28T09:34:07.605Z</time></trkpt><trkpt lat="45.3250622" lon="10.6567597"><ele>111.75</ele><time>2026-03-28T09:34:08.602Z</time></trkpt><trkpt lat="45.3250465" lon="10.6569117"><ele>109.0</ele><time>2026-03-28T09:34:09.613Z</time></trkpt><trkpt lat="45.3250769" lon="10.6571029"><ele>108.25</ele><time>2026-03-28T09:34:10.609Z</time></trkpt><trkpt lat="45.3250966" lon="10.6572895"><ele>107.5</ele><time>2026-03-28T09:34:11.614Z</time></trkpt><trkpt lat="45.3251631" lon="10.657475"><ele>106.75</ele><time>2026-03-28T09:34:12.61Z</time></trkpt><trkpt lat="45.3252033" lon="10.6576639"><ele>106.0</ele><time>2026-03-28T09:34:13.612Z</time></trkpt><trkpt lat="45.3252186" lon="10.6578176"><ele>106.0</ele><time>2026-03-28T09:34:14.616Z</time></trkpt><trkpt lat="45.3252451" lon="10.6579683"><ele>106.0</ele><time>2026-03-28T09:34:15.599Z</time></trkpt><trkpt lat="45.3252746" lon="10.6581181"><ele>106.0</ele><time>2026-03-28T09:34:16.6Z</time></trkpt><trkpt lat="45.3252952" lon="10.6582633"><ele>106.0</ele><time>2026-03-28T09:34:17.597Z</time></trkpt><trkpt lat="45.3252969" lon="10.6583552"><ele>106.0</ele><time>2026-03-28T09:34:18.604Z</time></trkpt><trkpt lat="45.3253439" lon="10.6584609"><ele>106.0</ele><time>2026-03-28T09:34:20.593Z</time></trkpt><trkpt lat="45.3254132" lon="10.6585075"><ele>106.0</ele><time>2026-03-28T09:34:30.602Z</time></trkpt><trkpt lat="45.3255512" lon="10.6584781"><ele>106.0</ele><time>2026-03-28T09:34:32.594Z</time></trkpt><trkpt lat="45.3256396" lon="10.6584427"><ele>106.0</ele><time>2026-03-28T09:34:33.593Z</time></trkpt><trkpt lat="45.3257365" lon="10.6583961"><ele>106.0</ele><time>2026-03-28T09:34:34.596Z</time></trkpt><trkpt lat="45.3258257" lon="10.6583676"><ele>105.50000000000001</ele><time>2026-03-28T09:34:35.6Z</time></trkpt><trkpt lat="45.3259003" lon="10.6583468"><ele>105.0</ele><time>2026-03-28T09:34:36.6Z</time></trkpt><trkpt lat="45.325964" lon="10.6583301"><ele>104.5</ele><time>2026-03-28T09:34:37.602Z</time></trkpt><trkpt lat="45.3260683" lon="10.6583254"><ele>104.0</ele><time>2026-03-28T09:34:39.604Z</time></trkpt><trkpt lat="45.3261408" lon="10.6583599"><ele>103.50000000000001</ele><time>2026-03-28T09:34:41.603Z</time></trkpt><trkpt lat="45.3262071" lon="10.658345"><ele>103.0</ele><time>2026-03-28T09:36:34.578Z</time></trkpt><trkpt lat="45.3262617" lon="10.6582394"><ele>103.0</ele><time>2026-03-28T09:37:05.621Z</time></trkpt><trkpt lat="45.326331" lon="10.6582283"><ele>103.0</ele><time>2026-03-28T09:39:09.612Z</time></trkpt><trkpt lat="45.3264713" lon="10.6581947"><ele>103.0</ele><time>2026-03-28T09:39:11.618Z</time></trkpt><trkpt lat="45.3265413" lon="10.6581754"><ele>103.0</ele><time>2026-03-28T09:39:12.604Z</time></trkpt><trkpt lat="45.3266704" lon="10.6581975"><ele>103.0</ele><time>2026-03-28T09:39:14.611Z</time></trkpt><trkpt lat="45.3267324" lon="10.6582647"><ele>102.5</ele><time>2026-03-28T09:39:15.613Z</time></trkpt><trkpt lat="45.3267763" lon="10.6583691"><ele>102.0</ele><time>2026-03-28T09:39:16.618Z</time></trkpt><trkpt lat="45.3268136" lon="10.658525"><ele>101.5</ele><time>2026-03-28T09:39:17.609Z</time></trkpt><trkpt lat="45.3268284" lon="10.6586989"><ele>101.0</ele><time>2026-03-28T09:39:18.613Z</time></trkpt><trkpt lat="45.3268275" lon="10.6588892"><ele>100.0</ele><time>2026-03-28T09:39:19.622Z</time></trkpt><trkpt lat="45.326816" lon="10.6590746"><ele>99.0</ele><time>2026-03-28T09:39:20.611Z</time></trkpt><trkpt lat="45.3267905" lon="10.6592475"><ele>98.0</ele><time>2026-03-28T09:39:21.614Z</time></trkpt><trkpt lat="45.3267613" lon="10.6594143"><ele>97.0</ele><time>2026-03-28T09:39:22.61Z</time></trkpt><trkpt lat="45.3267389" lon="10.6595528"><ele>96.6</ele><time>2026-03-28T09:39:23.606Z</time></trkpt><trkpt lat="45.3267147" lon="10.6596667"><ele>96.19999999999999</ele><time>2026-03-28T09:39:24.606Z</time></trkpt><trkpt lat="45.3266921" lon="10.6597588"><ele>95.8</ele><time>2026-03-28T09:39:25.603Z</time></trkpt><trkpt lat="45.3266594" lon="10.6598912"><ele>95.4</ele><time>2026-03-28T09:39:27.599Z</time></trkpt><trkpt lat="45.3266499" lon="10.6600738"><ele>95.0</ele><time>2026-03-28T09:39:29.607Z</time></trkpt><trkpt lat="45.3266679" lon="10.6602134"><ele>94.25</ele><time>2026-03-28T09:39:30.606Z</time></trkpt><trkpt lat="45.3267039" lon="10.6603879"><ele>93.5</ele><time>2026-03-28T09:39:31.614Z</time></trkpt><trkpt lat="45.3267449" lon="10.6605843"><ele>92.75</ele><time>2026-03-28T09:39:32.6Z</time></trkpt><trkpt lat="45.3267834" lon="10.6607891"><ele>92.0</ele><time>2026-03-28T09:39:33.598Z</time></trkpt><trkpt lat="45.3268145" lon="10.6610138"><ele>91.25</ele><time>2026-03-28T09:39:34.613Z</time></trkpt><trkpt lat="45.3268227" lon="10.6612088"><ele>90.5</ele><time>2026-03-28T09:39:35.599Z</time></trkpt><trkpt lat="45.3268232" lon="10.6614075"><ele>89.75</ele><time>2026-03-28T09:39:36.601Z</time></trkpt><trkpt lat="45.3268302" lon="10.6615952"><ele>89.0</ele><time>2026-03-28T09:39:37.603Z</time></trkpt><trkpt lat="45.3268379" lon="10.6617962"><ele>89.0</ele><time>2026-03-28T09:39:38.602Z</time></trkpt><trkpt lat="45.3268411" lon="10.6619579"><ele>89.0</ele><time>2026-03-28T09:39:39.603Z</time></trkpt><trkpt lat="45.3268323" lon="10.6621185"><ele>89.0</ele><time>2026-03-28T09:39:40.606Z</time></trkpt><trkpt lat="45.3268139" lon="10.6622543"><ele>89.0</ele><time>2026-03-28T09:39:41.618Z</time></trkpt><trkpt lat="45.3267928" lon="10.6623604"><ele>89.0</ele><time>2026-03-28T09:39:42.596Z</time></trkpt><trkpt lat="45.3267819" lon="10.6624532"><ele>89.0</ele><time>2026-03-28T09:39:43.599Z</time></trkpt><trkpt lat="45.3267488" lon="10.6626125"><ele>89.0</ele><time>2026-03-28T09:39:45.605Z</time></trkpt><trkpt lat="45.3267282" lon="10.6627891"><ele>89.0</ele><time>2026-03-28T09:39:47.606Z</time></trkpt><trkpt lat="45.3267401" lon="10.6628903"><ele>89.0</ele><time>2026-03-28T09:39:48.606Z</time></trkpt><trkpt lat="45.3267965" lon="10.6629642"><ele>89.0</ele><time>2026-03-28T09:39:49.614Z</time></trkpt><trkpt lat="45.3268844" lon="10.6630205"><ele>89.0</ele><time>2026-03-28T09:39:50.615Z</time></trkpt><trkpt lat="45.3269969" lon="10.6630846"><ele>89.0</ele><time>2026-03-28T09:39:51.613Z</time></trkpt><trkpt lat="45.3271287" lon="10.6631679"><ele>89.0</ele><time>2026-03-28T09:39:52.638Z</time></trkpt><trkpt lat="45.3272798" lon="10.663265"><ele>89.0</ele><time>2026-03-28T09:39:53.623Z</time></trkpt><trkpt lat="45.3274665" lon="10.6633979"><ele>89.0</ele><time>2026-03-28T09:39:54.621Z</time></trkpt><trkpt lat="45.3276138" lon="10.6635094"><ele>89.0</ele><time>2026-03-28T09:39:55.624Z</time></trkpt><trkpt lat="45.3277593" lon="10.6636432"><ele>89.0</ele><time>2026-03-28T09:39:56.627Z</time></trkpt><trkpt lat="45.3279506" lon="10.6637879"><ele>88.0</ele><time>2026-03-28T09:39:57.627Z</time></trkpt><trkpt lat="45.3281136" lon="10.6639045"><ele>87.0</ele><time>2026-03-28T09:39:58.631Z</time></trkpt><trkpt lat="45.3282751" lon="10.6640037"><ele>86.0</ele><time>2026-03-28T09:39:59.632Z</time></trkpt><trkpt lat="45.3284607" lon="10.664108"><ele>86.0</ele><time>2026-03-28T09:40:00.635Z</time></trkpt><trkpt lat="45.3286296" lon="10.6641997"><ele>86.0</ele><time>2026-03-28T09:40:01.629Z</time></trkpt><trkpt lat="45.328803" lon="10.6642941"><ele>86.0</ele><time>2026-03-28T09:40:02.635Z</time></trkpt><trkpt lat="45.3289564" lon="10.6643758"><ele>87.33333333333334</ele><time>2026-03-28T09:40:03.63Z</time></trkpt><trkpt lat="45.3291002" lon="10.6644823"><ele>88.66666666666667</ele><time>2026-03-28T09:40:04.619Z</time></trkpt><trkpt lat="45.3292456" lon="10.664578"><ele>90.0</ele><time>2026-03-28T09:40:05.629Z</time></trkpt><trkpt lat="45.3293877" lon="10.6647203"><ele>90.0</ele><time>2026-03-28T09:40:06.615Z</time></trkpt><trkpt lat="45.3295243" lon="10.6649012"><ele>90.0</ele><time>2026-03-28T09:40:07.62Z</time></trkpt><trkpt lat="45.329646" lon="10.6650795"><ele>90.0</ele><time>2026-03-28T09:40:08.604Z</time></trkpt><trkpt lat="45.3297698" lon="10.6652877"><ele>90.33333333333333</ele><time>2026-03-28T09:40:09.595Z</time></trkpt><trkpt lat="45.329887" lon="10.6654853"><ele>90.66666666666666</ele><time>2026-03-28T09:40:10.608Z</time></trkpt><trkpt lat="45.329998" lon="10.6656812"><ele>91.0</ele><time>2026-03-28T09:40:11.611Z</time></trkpt><trkpt lat="45.3301114" lon="10.6659016"><ele>90.33333333333333</ele><time>2026-03-28T09:40:12.62Z</time></trkpt><trkpt lat="45.3302128" lon="10.6661393"><ele>89.66666666666667</ele><time>2026-03-28T09:40:13.61Z</time></trkpt><trkpt lat="45.3302992" lon="10.6663855"><ele>89.0</ele><time>2026-03-28T09:40:14.617Z</time></trkpt><trkpt lat="45.3304034" lon="10.6666407"><ele>89.0</ele><time>2026-03-28T09:40:15.613Z</time></trkpt><trkpt lat="45.3304986" lon="10.6668971"><ele>89.0</ele><time>2026-03-28T09:40:16.619Z</time></trkpt><trkpt lat="45.3306008" lon="10.6671505"><ele>89.0</ele><time>2026-03-28T09:40:17.613Z</time></trkpt><trkpt lat="45.3306999" lon="10.6673974"><ele>89.66666666666667</ele><time>2026-03-28T09:40:18.62Z</time></trkpt><trkpt lat="45.3307902" lon="10.6676266"><ele>90.33333333333333</ele><time>2026-03-28T09:40:19.612Z</time></trkpt><trkpt lat="45.3308768" lon="10.6678482"><ele>91.0</ele><time>2026-03-28T09:40:20.626Z</time></trkpt><trkpt lat="45.3309486" lon="10.668063"><ele>91.25</ele><time>2026-03-28T09:40:21.618Z</time></trkpt><trkpt lat="45.3310106" lon="10.6682604"><ele>91.5</ele><time>2026-03-28T09:40:22.612Z</time></trkpt><trkpt lat="45.3310825" lon="10.6684497"><ele>91.75</ele><time>2026-03-28T09:40:23.622Z</time></trkpt><trkpt lat="45.3311502" lon="10.6686173"><ele>92.0</ele><time>2026-03-28T09:40:24.612Z</time></trkpt><trkpt lat="45.3312203" lon="10.6687803"><ele>92.25</ele><time>2026-03-28T09:40:25.613Z</time></trkpt><trkpt lat="45.3312854" lon="10.6689031"><ele>92.5</ele><time>2026-03-28T09:40:26.622Z</time></trkpt><trkpt lat="45.3313675" lon="10.6690319"><ele>92.75</ele><time>2026-03-28T09:40:27.618Z</time></trkpt><trkpt lat="45.3314763" lon="10.6691667"><ele>93.0</ele><time>2026-03-28T09:40:28.621Z</time></trkpt><trkpt lat="45.3315852" lon="10.669278"><ele>92.0</ele><time>2026-03-28T09:40:29.62Z</time></trkpt><trkpt lat="45.3317307" lon="10.6693978"><ele>91.0</ele><time>2026-03-28T09:40:30.62Z</time></trkpt><trkpt lat="45.3318959" lon="10.6694965"><ele>90.0</ele><time>2026-03-28T09:40:31.618Z</time></trkpt><trkpt lat="45.3320905" lon="10.6696019"><ele>89.0</ele><time>2026-03-28T09:40:32.618Z</time></trkpt><trkpt lat="45.3322729" lon="10.6696702"><ele>88.0</ele><time>2026-03-28T09:40:33.619Z</time></trkpt><trkpt lat="45.3324658" lon="10.6697596"><ele>87.0</ele><time>2026-03-28T09:40:34.621Z</time></trkpt><trkpt lat="45.3326148" lon="10.6698457"><ele>87.0</ele><time>2026-03-28T09:40:35.615Z</time></trkpt><trkpt lat="45.3327591" lon="10.66991"><ele>87.0</ele><time>2026-03-28T09:40:36.624Z</time></trkpt><trkpt lat="45.3329061" lon="10.6699845"><ele>87.0</ele><time>2026-03-28T09:40:37.617Z</time></trkpt><trkpt lat="45.3330488" lon="10.6700566"><ele>87.0</ele><time>2026-03-28T09:40:38.613Z</time></trkpt><trkpt lat="45.333186" lon="10.6701543"><ele>87.0</ele><time>2026-03-28T09:40:39.618Z</time></trkpt><trkpt lat="45.3333206" lon="10.6702508"><ele>87.0</ele><time>2026-03-28T09:40:40.617Z</time></trkpt><trkpt lat="45.3334404" lon="10.6703661"><ele>87.0</ele><time>2026-03-28T09:40:41.614Z</time></trkpt><trkpt lat="45.333543" lon="10.6704579"><ele>86.6</ele><time>2026-03-28T09:40:42.614Z</time></trkpt><trkpt lat="45.3336464" lon="10.6705581"><ele>86.19999999999999</ele><time>2026-03-28T09:40:43.618Z</time></trkpt><trkpt lat="45.3337274" lon="10.6706415"><ele>85.8</ele><time>2026-03-28T09:40:44.626Z</time></trkpt><trkpt lat="45.3338281" lon="10.6707367"><ele>85.4</ele><time>2026-03-28T09:40:45.622Z</time></trkpt><trkpt lat="45.3339018" lon="10.6708211"><ele>85.0</ele><time>2026-03-28T09:40:46.645Z</time></trkpt><trkpt lat="45.3339519" lon="10.670882"><ele>84.6</ele><time>2026-03-28T09:40:47.633Z</time></trkpt><trkpt lat="45.3340083" lon="10.6709627"><ele>84.2</ele><time>2026-03-28T09:40:49.63Z</time></trkpt><trkpt lat="45.3339724" lon="10.6710982"><ele>83.80000000000001</ele><time>2026-03-28T09:40:51.648Z</time></trkpt><trkpt lat="45.3339171" lon="10.6712033"><ele>83.4</ele><time>2026-03-28T09:40:52.641Z</time></trkpt><trkpt lat="45.3338554" lon="10.6713247"><ele>83.0</ele><time>2026-03-28T09:40:53.643Z</time></trkpt><trkpt lat="45.3337951" lon="10.6714514"><ele>83.0</ele><time>2026-03-28T09:40:54.633Z</time></trkpt><trkpt lat="45.3337228" lon="10.6715986"><ele>83.0</ele><time>2026-03-28T09:40:55.625Z</time></trkpt><trkpt lat="45.3336371" lon="10.6717545"><ele>83.0</ele><time>2026-03-28T09:40:56.627Z</time></trkpt><trkpt lat="45.3335486" lon="10.6719202"><ele>83.0</ele><time>2026-03-28T09:40:57.636Z</time></trkpt><trkpt lat="45.3334616" lon="10.6720785"><ele>82.4</ele><time>2026-03-28T09:40:58.633Z</time></trkpt><trkpt lat="45.3333853" lon="10.6722144"><ele>81.80000000000001</ele><time>2026-03-28T09:40:59.633Z</time></trkpt><trkpt lat="45.3333252" lon="10.6723447"><ele>81.2</ele><time>2026-03-28T09:41:00.633Z</time></trkpt><trkpt lat="45.3332713" lon="10.6724755"><ele>80.6</ele><time>2026-03-28T09:41:01.629Z</time></trkpt><trkpt lat="45.3332383" lon="10.6725973"><ele>80.0</ele><time>2026-03-28T09:41:02.629Z</time></trkpt><trkpt lat="45.3332273" lon="10.6727276"><ele>80.0</ele><time>2026-03-28T09:41:03.623Z</time></trkpt><trkpt lat="45.3332419" lon="10.6728585"><ele>80.0</ele><time>2026-03-28T09:41:04.627Z</time></trkpt><trkpt lat="45.3332664" lon="10.6729643"><ele>80.0</ele><time>2026-03-28T09:41:05.622Z</time></trkpt><trkpt lat="45.333287" lon="10.6730918"><ele>80.0</ele><time>2026-03-28T09:41:07.639Z</time></trkpt><trkpt lat="45.3333314" lon="10.6732378"><ele>80.0</ele><time>2026-03-28T09:41:10.625Z</time></trkpt><trkpt lat="45.3333702" lon="10.6733209"><ele>80.0</ele><time>2026-03-28T09:41:11.637Z</time></trkpt><trkpt lat="45.3334232" lon="10.6734496"><ele>80.0</ele><time>2026-03-28T09:41:12.625Z</time></trkpt><trkpt lat="45.333472" lon="10.6735866"><ele>80.0</ele><time>2026-03-28T09:41:13.624Z</time></trkpt><trkpt lat="45.3335047" lon="10.6737188"><ele>80.0</ele><time>2026-03-28T09:41:14.628Z</time></trkpt><trkpt lat="45.3335469" lon="10.6738266"><ele>80.0</ele><time>2026-03-28T09:41:15.623Z</time></trkpt><trkpt lat="45.3335827" lon="10.6739042"><ele>80.0</ele><time>2026-03-28T09:41:16.631Z</time></trkpt><trkpt lat="45.3335928" lon="10.6740133"><ele>80.0</ele><time>2026-03-28T09:41:18.626Z</time></trkpt><trkpt lat="45.3335417" lon="10.6741597"><ele>80.4</ele><time>2026-03-28T09:41:20.627Z</time></trkpt><trkpt lat="45.3334936" lon="10.674246"><ele>80.8</ele><time>2026-03-28T09:41:21.627Z</time></trkpt><trkpt lat="45.3334415" lon="10.6743653"><ele>81.19999999999999</ele><time>2026-03-28T09:41:22.641Z</time></trkpt><trkpt lat="45.3334032" lon="10.6745109"><ele>81.6</ele><time>2026-03-28T09:41:23.632Z</time></trkpt><trkpt lat="45.3333886" lon="10.674659"><ele>82.0</ele><time>2026-03-28T09:41:24.636Z</time></trkpt><trkpt lat="45.3333998" lon="10.6748089"><ele>82.0</ele><time>2026-03-28T09:41:25.636Z</time></trkpt><trkpt lat="45.3334295" lon="10.6749669"><ele>82.0</ele><time>2026-03-28T09:41:26.654Z</time></trkpt><trkpt lat="45.3334833" lon="10.6751167"><ele>82.0</ele><time>2026-03-28T09:41:27.635Z</time></trkpt><trkpt lat="45.3335425" lon="10.6752464"><ele>82.0</ele><time>2026-03-28T09:41:28.64Z</time></trkpt><trkpt lat="45.3335998" lon="10.6753632"><ele>82.0</ele><time>2026-03-28T09:41:29.632Z</time></trkpt><trkpt lat="45.3337197" lon="10.6755356"><ele>82.0</ele><time>2026-03-28T09:41:31.627Z</time></trkpt><trkpt lat="45.3337807" lon="10.6755931"><ele>82.0</ele><time>2026-03-28T09:41:32.614Z</time></trkpt><trkpt lat="45.3338429" lon="10.6756363"><ele>82.0</ele><time>2026-03-28T09:41:33.612Z</time></trkpt><trkpt lat="45.3339095" lon="10.6756884"><ele>82.0</ele><time>2026-03-28T09:41:35.614Z</time></trkpt><trkpt lat="45.3339267" lon="10.6758266"><ele>82.0</ele><time>2026-03-28T09:41:37.622Z</time></trkpt><trkpt lat="45.3339358" lon="10.6759609"><ele>82.0</ele><time>2026-03-28T09:41:38.627Z</time></trkpt><trkpt lat="45.3339311" lon="10.676117"><ele>83.0</ele><time>2026-03-28T09:41:39.616Z</time></trkpt><trkpt lat="45.3339343" lon="10.6762934"><ele>84.0</ele><time>2026-03-28T09:41:40.625Z</time></trkpt><trkpt lat="45.3339424" lon="10.6764948"><ele>85.0</ele><time>2026-03-28T09:41:41.618Z</time></trkpt><trkpt lat="45.3339598" lon="10.6766984"><ele>86.0</ele><time>2026-03-28T09:41:42.631Z</time></trkpt><trkpt lat="45.3339927" lon="10.6768942"><ele>86.5</ele><time>2026-03-28T09:41:43.629Z</time></trkpt><trkpt lat="45.334007" lon="10.6770764"><ele>87.0</ele><time>2026-03-28T09:41:44.629Z</time></trkpt><trkpt lat="45.3340464" lon="10.6772201"><ele>87.5</ele><time>2026-03-28T09:41:45.623Z</time></trkpt><trkpt lat="45.3340874" lon="10.6773616"><ele>88.0</ele><time>2026-03-28T09:41:46.629Z</time></trkpt><trkpt lat="45.3341229" lon="10.6775084"><ele>88.0</ele><time>2026-03-28T09:41:47.642Z</time></trkpt><trkpt lat="45.334161" lon="10.6776389"><ele>88.0</ele><time>2026-03-28T09:41:48.631Z</time></trkpt><trkpt lat="45.3342055" lon="10.6777816"><ele>88.0</ele><time>2026-03-28T09:41:49.628Z</time></trkpt><trkpt lat="45.3342736" lon="10.6779151"><ele>88.0</ele><time>2026-03-28T09:41:50.626Z</time></trkpt><trkpt lat="45.3343275" lon="10.6780446"><ele>88.0</ele><time>2026-03-28T09:41:51.631Z</time></trkpt><trkpt lat="45.3343734" lon="10.6781654"><ele>88.0</ele><time>2026-03-28T09:41:52.634Z</time></trkpt><trkpt lat="45.334422" lon="10.6782863"><ele>88.0</ele><time>2026-03-28T09:41:53.641Z</time></trkpt><trkpt lat="45.3344678" lon="10.6783962"><ele>88.0</ele><time>2026-03-28T09:41:54.633Z</time></trkpt><trkpt lat="45.3345252" lon="10.6785055"><ele>88.0</ele><time>2026-03-28T09:41:55.632Z</time></trkpt><trkpt lat="45.3345942" lon="10.6785823"><ele>88.0</ele><time>2026-03-28T09:41:56.623Z</time></trkpt><trkpt lat="45.3346592" lon="10.678646"><ele>88.0</ele><time>2026-03-28T09:41:57.635Z</time></trkpt><trkpt lat="45.3347178" lon="10.6786895"><ele>88.0</ele><time>2026-03-28T09:41:58.625Z</time></trkpt><trkpt lat="45.3348268" lon="10.6787163"><ele>88.0</ele><time>2026-03-28T09:42:00.624Z</time></trkpt><trkpt lat="45.3349447" lon="10.6786287"><ele>88.0</ele><time>2026-03-28T09:42:02.608Z</time></trkpt><trkpt lat="45.3350124" lon="10.6785715"><ele>88.0</ele><time>2026-03-28T09:42:03.612Z</time></trkpt><trkpt lat="45.3350822" lon="10.6785083"><ele>88.83333333333333</ele><time>2026-03-28T09:42:04.61Z</time></trkpt><trkpt lat="45.3351574" lon="10.6784452"><ele>89.66666666666666</ele><time>2026-03-28T09:42:05.611Z</time></trkpt><trkpt lat="45.3352311" lon="10.6783854"><ele>90.5</ele><time>2026-03-28T09:42:06.608Z</time></trkpt><trkpt lat="45.3353006" lon="10.6783556"><ele>91.33333333333333</ele><time>2026-03-28T09:42:07.617Z</time></trkpt><trkpt lat="45.3353748" lon="10.6783407"><ele>92.16666666666667</ele><time>2026-03-28T09:42:08.607Z</time></trkpt><trkpt lat="45.3354528" lon="10.6783677"><ele>93.0</ele><time>2026-03-28T09:42:09.628Z</time></trkpt><trkpt lat="45.3354995" lon="10.6784351"><ele>93.0</ele><time>2026-03-28T09:42:10.608Z</time></trkpt><trkpt lat="45.3355537" lon="10.6785337"><ele>93.0</ele><time>2026-03-28T09:42:11.618Z</time></trkpt><trkpt lat="45.3356108" lon="10.6786447"><ele>93.0</ele><time>2026-03-28T09:42:12.624Z</time></trkpt><trkpt lat="45.3356837" lon="10.6787544"><ele>93.0</ele><time>2026-03-28T09:42:13.624Z</time></trkpt><trkpt lat="45.3357492" lon="10.6788793"><ele>93.0</ele><time>2026-03-28T09:42:14.632Z</time></trkpt><trkpt lat="45.3358186" lon="10.6790117"><ele>91.0</ele><time>2026-03-28T09:42:15.634Z</time></trkpt><trkpt lat="45.3358969" lon="10.6791528"><ele>89.0</ele><time>2026-03-28T09:42:16.631Z</time></trkpt><trkpt lat="45.3359774" lon="10.6792898"><ele>87.0</ele><time>2026-03-28T09:42:17.632Z</time></trkpt><trkpt lat="45.3360625" lon="10.6794449"><ele>85.0</ele><time>2026-03-28T09:42:18.636Z</time></trkpt><trkpt lat="45.3361642" lon="10.6796041"><ele>85.0</ele><time>2026-03-28T09:42:19.634Z</time></trkpt><trkpt lat="45.3362714" lon="10.6797606"><ele>85.0</ele><time>2026-03-28T09:42:20.634Z</time></trkpt><trkpt lat="45.3363584" lon="10.6799006"><ele>85.0</ele><time>2026-03-28T09:42:21.633Z</time></trkpt><trkpt lat="45.3364168" lon="10.680007"><ele>85.0</ele><time>2026-03-28T09:42:22.633Z</time></trkpt><trkpt lat="45.3364908" lon="10.6801206"><ele>85.0</ele><time>2026-03-28T09:42:23.632Z</time></trkpt><trkpt lat="45.3365596" lon="10.680205"><ele>85.0</ele><time>2026-03-28T09:42:24.636Z</time></trkpt><trkpt lat="45.3366072" lon="10.6802744"><ele>85.0</ele><time>2026-03-28T09:42:25.629Z</time></trkpt><trkpt lat="45.3366553" lon="10.6803371"><ele>85.0</ele><time>2026-03-28T09:42:26.629Z</time></trkpt><trkpt lat="45.3367218" lon="10.6804428"><ele>85.0</ele><time>2026-03-28T09:42:28.627Z</time></trkpt><trkpt lat="45.3367912" lon="10.680448"><ele>85.0</ele><time>2026-03-28T09:42:31.653Z</time></trkpt><trkpt lat="45.3368488" lon="10.6803585"><ele>85.0</ele><time>2026-03-28T09:42:33.643Z</time></trkpt><trkpt lat="45.3369002" lon="10.6802659"><ele>85.0</ele><time>2026-03-28T09:42:34.644Z</time></trkpt><trkpt lat="45.3369907" lon="10.6801465"><ele>85.0</ele><time>2026-03-28T09:42:35.638Z</time></trkpt><trkpt lat="45.3371014" lon="10.6800039"><ele>85.0</ele><time>2026-03-28T09:42:36.627Z</time></trkpt><trkpt lat="45.3372218" lon="10.6798494"><ele>86.0</ele><time>2026-03-28T09:42:37.632Z</time></trkpt><trkpt lat="45.3373719" lon="10.6796773"><ele>87.0</ele><time>2026-03-28T09:42:38.631Z</time></trkpt><trkpt lat="45.3374749" lon="10.6795303"><ele>88.0</ele><time>2026-03-28T09:42:39.639Z</time></trkpt><trkpt lat="45.3375738" lon="10.6793955"><ele>88.0</ele><time>2026-03-28T09:42:40.645Z</time></trkpt><trkpt lat="45.3376852" lon="10.6792776"><ele>88.0</ele><time>2026-03-28T09:42:41.639Z</time></trkpt><trkpt lat="45.3378059" lon="10.6791635"><ele>88.0</ele><time>2026-03-28T09:42:42.647Z</time></trkpt><trkpt lat="45.3379133" lon="10.6790747"><ele>88.0</ele><time>2026-03-28T09:42:43.641Z</time></trkpt><trkpt lat="45.3380039" lon="10.6789834"><ele>88.0</ele><time>2026-03-28T09:42:44.652Z</time></trkpt><trkpt lat="45.3381069" lon="10.6788804"><ele>88.0</ele><time>2026-03-28T09:42:45.651Z</time></trkpt><trkpt lat="45.3382076" lon="10.6787941"><ele>88.0</ele><time>2026-03-28T09:42:46.647Z</time></trkpt><trkpt lat="45.3382938" lon="10.6787203"><ele>88.0</ele><time>2026-03-28T09:42:47.652Z</time></trkpt><trkpt lat="45.3383717" lon="10.6786602"><ele>88.0</ele><time>2026-03-28T09:42:48.648Z</time></trkpt><trkpt lat="45.33844" lon="10.6786007"><ele>88.0</ele><time>2026-03-28T09:42:49.646Z</time></trkpt><trkpt lat="45.338497" lon="10.6785481"><ele>88.0</ele><time>2026-03-28T09:42:50.64Z</time></trkpt><trkpt lat="45.3385827" lon="10.678515"><ele>88.0</ele><time>2026-03-28T09:42:52.648Z</time></trkpt><trkpt lat="45.3386462" lon="10.6786213"><ele>88.0</ele><time>2026-03-28T09:42:54.638Z</time></trkpt><trkpt lat="45.3386835" lon="10.6787405"><ele>88.0</ele><time>2026-03-28T09:42:55.643Z</time></trkpt><trkpt lat="45.3387337" lon="10.6789019"><ele>88.0</ele><time>2026-03-28T09:42:56.637Z</time></trkpt><trkpt lat="45.3388063" lon="10.679076"><ele>88.0</ele><time>2026-03-28T09:42:57.63Z</time></trkpt><trkpt lat="45.3388765" lon="10.6792593"><ele>88.0</ele><time>2026-03-28T09:42:58.633Z</time></trkpt><trkpt lat="45.33896" lon="10.6794582"><ele>88.5</ele><time>2026-03-28T09:42:59.636Z</time></trkpt><trkpt lat="45.3390281" lon="10.6796075"><ele>89.0</ele><time>2026-03-28T09:43:00.641Z</time></trkpt><trkpt lat="45.3391127" lon="10.6797683"><ele>89.5</ele><time>2026-03-28T09:43:01.642Z</time></trkpt><trkpt lat="45.339202" lon="10.6799485"><ele>90.0</ele><time>2026-03-28T09:43:02.637Z</time></trkpt><trkpt lat="45.3392696" lon="10.6801264"><ele>90.0</ele><time>2026-03-28T09:43:03.639Z</time></trkpt><trkpt lat="45.3393255" lon="10.6802994"><ele>90.0</ele><time>2026-03-28T09:43:04.641Z</time></trkpt><trkpt lat="45.3393776" lon="10.6804721"><ele>90.0</ele><time>2026-03-28T09:43:05.636Z</time></trkpt><trkpt lat="45.3394273" lon="10.6806629"><ele>90.0</ele><time>2026-03-28T09:43:06.634Z</time></trkpt><trkpt lat="45.3395155" lon="10.680836"><ele>90.0</ele><time>2026-03-28T09:43:07.645Z</time></trkpt><trkpt lat="45.3395963" lon="10.6810156"><ele>90.0</ele><time>2026-03-28T09:43:08.647Z</time></trkpt><trkpt lat="45.3396744" lon="10.6812062"><ele>90.0</ele><time>2026-03-28T09:43:09.637Z</time></trkpt><trkpt lat="45.3397593" lon="10.6813776"><ele>90.25</ele><time>2026-03-28T09:43:10.647Z</time></trkpt><trkpt lat="45.3398312" lon="10.6815437"><ele>90.5</ele><time>2026-03-28T09:43:11.66Z</time></trkpt><trkpt lat="45.3399025" lon="10.6816998"><ele>90.75</ele><time>2026-03-28T09:43:12.644Z</time></trkpt><trkpt lat="45.3399638" lon="10.6818577"><ele>91.0</ele><time>2026-03-28T09:43:13.631Z</time></trkpt><trkpt lat="45.3400021" lon="10.6819738"><ele>91.0</ele><time>2026-03-28T09:43:14.632Z</time></trkpt><trkpt lat="45.3400168" lon="10.6820835"><ele>91.0</ele><time>2026-03-28T09:43:15.625Z</time></trkpt><trkpt lat="45.3400166" lon="10.682239"><ele>91.0</ele><time>2026-03-28T09:43:16.628Z</time></trkpt><trkpt lat="45.3400118" lon="10.6824151"><ele>91.0</ele><time>2026-03-28T09:43:17.643Z</time></trkpt><trkpt lat="45.3400228" lon="10.6825798"><ele>91.0</ele><time>2026-03-28T09:43:18.632Z</time></trkpt><trkpt lat="45.3400111" lon="10.6827185"><ele>91.25</ele><time>2026-03-28T09:43:19.635Z</time></trkpt><trkpt lat="45.340034" lon="10.6828841"><ele>91.5</ele><time>2026-03-28T09:43:20.638Z</time></trkpt><trkpt lat="45.340092" lon="10.6830623"><ele>91.75</ele><time>2026-03-28T09:43:21.63Z</time></trkpt><trkpt lat="45.3401655" lon="10.6832542"><ele>92.0</ele><time>2026-03-28T09:43:22.642Z</time></trkpt><trkpt lat="45.3402531" lon="10.6834574"><ele>91.5</ele><time>2026-03-28T09:43:23.642Z</time></trkpt><trkpt lat="45.3403075" lon="10.6836469"><ele>91.0</ele><time>2026-03-28T09:43:24.642Z</time></trkpt><trkpt lat="45.3403659" lon="10.6838437"><ele>90.5</ele><time>2026-03-28T09:43:25.642Z</time></trkpt><trkpt lat="45.340426" lon="10.6840186"><ele>90.0</ele><time>2026-03-28T09:43:26.641Z</time></trkpt><trkpt lat="45.3404711" lon="10.6841596"><ele>90.0</ele><time>2026-03-28T09:43:27.641Z</time></trkpt><trkpt lat="45.3405138" lon="10.6843181"><ele>90.0</ele><time>2026-03-28T09:43:28.637Z</time></trkpt><trkpt lat="45.3405586" lon="10.6845143"><ele>90.0</ele><time>2026-03-28T09:43:29.638Z</time></trkpt><trkpt lat="45.3405699" lon="10.684734"><ele>90.0</ele><time>2026-03-28T09:43:30.638Z</time></trkpt><trkpt lat="45.3406008" lon="10.684954"><ele>90.25</ele><time>2026-03-28T09:43:31.637Z</time></trkpt><trkpt lat="45.3406389" lon="10.6851539"><ele>90.5</ele><time>2026-03-28T09:43:32.638Z</time></trkpt><trkpt lat="45.3406722" lon="10.6853364"><ele>90.75</ele><time>2026-03-28T09:43:33.639Z</time></trkpt><trkpt lat="45.3406781" lon="10.6855097"><ele>91.0</ele><time>2026-03-28T09:43:34.638Z</time></trkpt><trkpt lat="45.3407002" lon="10.6856879"><ele>91.0</ele><time>2026-03-28T09:43:35.639Z</time></trkpt><trkpt lat="45.3407369" lon="10.6858536"><ele>91.0</ele><time>2026-03-28T09:43:36.637Z</time></trkpt><trkpt lat="45.3407902" lon="10.6860102"><ele>91.0</ele><time>2026-03-28T09:43:37.633Z</time></trkpt><trkpt lat="45.340821" lon="10.6861685"><ele>91.0</ele><time>2026-03-28T09:43:38.638Z</time></trkpt><trkpt lat="45.3408561" lon="10.6863328"><ele>91.0</ele><time>2026-03-28T09:43:39.631Z</time></trkpt><trkpt lat="45.3409008" lon="10.6865121"><ele>91.0</ele><time>2026-03-28T09:43:40.637Z</time></trkpt><trkpt lat="45.340941" lon="10.6866992"><ele>91.0</ele><time>2026-03-28T09:43:41.637Z</time></trkpt><trkpt lat="45.3409615" lon="10.6868899"><ele>91.0</ele><time>2026-03-28T09:43:42.626Z</time></trkpt><trkpt lat="45.3409724" lon="10.6870396"><ele>91.0</ele><time>2026-03-28T09:43:43.622Z</time></trkpt><trkpt lat="45.3409622" lon="10.6871922"><ele>91.0</ele><time>2026-03-28T09:43:44.632Z</time></trkpt><trkpt lat="45.3409715" lon="10.6873411"><ele>91.0</ele><time>2026-03-28T09:43:45.626Z</time></trkpt><trkpt lat="45.3409791" lon="10.6875062"><ele>91.0</ele><time>2026-03-28T09:43:46.623Z</time></trkpt><trkpt lat="45.3410106" lon="10.6876888"><ele>91.0</ele><time>2026-03-28T09:43:47.633Z</time></trkpt><trkpt lat="45.3410722" lon="10.6878902"><ele>91.0</ele><time>2026-03-28T09:43:48.635Z</time></trkpt><trkpt lat="45.3411233" lon="10.6880761"><ele>91.0</ele><time>2026-03-28T09:43:49.643Z</time></trkpt><trkpt lat="45.3411826" lon="10.6882813"><ele>91.0</ele><time>2026-03-28T09:43:50.638Z</time></trkpt><trkpt lat="45.3412301" lon="10.6884809"><ele>91.0</ele><time>2026-03-28T09:43:51.64Z</time></trkpt><trkpt lat="45.341284" lon="10.688672"><ele>91.0</ele><time>2026-03-28T09:43:52.642Z</time></trkpt><trkpt lat="45.3413351" lon="10.688881"><ele>91.0</ele><time>2026-03-28T09:43:53.641Z</time></trkpt><trkpt lat="45.3413772" lon="10.6890829"><ele>91.0</ele><time>2026-03-28T09:43:54.635Z</time></trkpt><trkpt lat="45.3414079" lon="10.6892703"><ele>91.0</ele><time>2026-03-28T09:43:55.634Z</time></trkpt><trkpt lat="45.3414468" lon="10.6894398"><ele>91.0</ele><time>2026-03-28T09:43:56.643Z</time></trkpt><trkpt lat="45.3415028" lon="10.6895986"><ele>91.0</ele><time>2026-03-28T09:43:57.634Z</time></trkpt><trkpt lat="45.3415357" lon="10.6897645"><ele>91.0</ele><time>2026-03-28T09:43:58.634Z</time></trkpt><trkpt lat="45.3415931" lon="10.6899396"><ele>91.0</ele><time>2026-03-28T09:43:59.637Z</time></trkpt><trkpt lat="45.3416847" lon="10.6901064"><ele>91.0</ele><time>2026-03-28T09:44:00.643Z</time></trkpt><trkpt lat="45.3417447" lon="10.6902783"><ele>91.0</ele><time>2026-03-28T09:44:01.644Z</time></trkpt><trkpt lat="45.341815" lon="10.6904612"><ele>91.25</ele><time>2026-03-28T09:44:02.637Z</time></trkpt><trkpt lat="45.3418852" lon="10.6906413"><ele>91.5</ele><time>2026-03-28T09:44:03.636Z</time></trkpt><trkpt lat="45.3419498" lon="10.6908199"><ele>91.75</ele><time>2026-03-28T09:44:04.642Z</time></trkpt><trkpt lat="45.3420076" lon="10.6910295"><ele>92.0</ele><time>2026-03-28T09:44:05.634Z</time></trkpt><trkpt lat="45.3420528" lon="10.6912406"><ele>92.25</ele><time>2026-03-28T09:44:06.627Z</time></trkpt><trkpt lat="45.3420631" lon="10.691439"><ele>92.5</ele><time>2026-03-28T09:44:07.633Z</time></trkpt><trkpt lat="45.3420593" lon="10.6916542"><ele>92.75</ele><time>2026-03-28T09:44:08.634Z</time></trkpt><trkpt lat="45.342027" lon="10.6918715"><ele>93.0</ele><time>2026-03-28T09:44:09.64Z</time></trkpt><trkpt lat="45.342019" lon="10.6920812"><ele>93.25</ele><time>2026-03-28T09:44:10.639Z</time></trkpt><trkpt lat="45.3420066" lon="10.6922778"><ele>93.5</ele><time>2026-03-28T09:44:11.638Z</time></trkpt><trkpt lat="45.342026" lon="10.6924729"><ele>93.75</ele><time>2026-03-28T09:44:12.648Z</time></trkpt><trkpt lat="45.3420522" lon="10.6926434"><ele>94.0</ele><time>2026-03-28T09:44:13.633Z</time></trkpt><trkpt lat="45.3420776" lon="10.6927872"><ele>94.33333333333333</ele><time>2026-03-28T09:44:14.64Z</time></trkpt><trkpt lat="45.3421415" lon="10.6929611"><ele>94.66666666666667</ele><time>2026-03-28T09:44:15.63Z</time></trkpt><trkpt lat="45.342216" lon="10.6931705"><ele>95.0</ele><time>2026-03-28T09:44:16.626Z</time></trkpt><trkpt lat="45.342283" lon="10.6933747"><ele>96.5</ele><time>2026-03-28T09:44:17.623Z</time></trkpt><trkpt lat="45.3423285" lon="10.6935831"><ele>98.0</ele><time>2026-03-28T09:44:18.623Z</time></trkpt><trkpt lat="45.3423931" lon="10.6937345"><ele>99.5</ele><time>2026-03-28T09:44:19.625Z</time></trkpt><trkpt lat="45.3424439" lon="10.6938903"><ele>101.0</ele><time>2026-03-28T09:44:20.615Z</time></trkpt><trkpt lat="45.3424628" lon="10.6939999"><ele>100.99999999999999</ele><time>2026-03-28T09:44:21.619Z</time></trkpt><trkpt lat="45.3425018" lon="10.6941182"><ele>101.0</ele><time>2026-03-28T09:44:22.624Z</time></trkpt><trkpt lat="45.3425273" lon="10.694218"><ele>101.0</ele><time>2026-03-28T09:44:23.63Z</time></trkpt><trkpt lat="45.3425643" lon="10.6943003"><ele>101.0</ele><time>2026-03-28T09:44:24.625Z</time></trkpt><trkpt lat="45.3425935" lon="10.694404"><ele>100.99999999999999</ele><time>2026-03-28T09:44:25.618Z</time></trkpt><trkpt lat="45.3426277" lon="10.6945284"><ele>101.0</ele><time>2026-03-28T09:44:26.62Z</time></trkpt><trkpt lat="45.3426518" lon="10.6946881"><ele>100.75</ele><time>2026-03-28T09:44:27.619Z</time></trkpt><trkpt lat="45.3426788" lon="10.6948753"><ele>100.5</ele><time>2026-03-28T09:44:28.613Z</time></trkpt><trkpt lat="45.3427097" lon="10.6950863"><ele>100.25</ele><time>2026-03-28T09:44:29.618Z</time></trkpt><trkpt lat="45.3427504" lon="10.695294"><ele>100.0</ele><time>2026-03-28T09:44:30.624Z</time></trkpt><trkpt lat="45.3428002" lon="10.6955021"><ele>99.66666666666667</ele><time>2026-03-28T09:44:31.617Z</time></trkpt><trkpt lat="45.3428376" lon="10.6957091"><ele>99.33333333333334</ele><time>2026-03-28T09:44:32.612Z</time></trkpt><trkpt lat="45.3428944" lon="10.6959256"><ele>99.0</ele><time>2026-03-28T09:44:33.623Z</time></trkpt><trkpt lat="45.3429282" lon="10.696138"><ele>98.80000000000001</ele><time>2026-03-28T09:44:34.618Z</time></trkpt><trkpt lat="45.3429531" lon="10.696286"><ele>98.60000000000001</ele><time>2026-03-28T09:44:35.617Z</time></trkpt><trkpt lat="45.3429784" lon="10.6964245"><ele>98.4</ele><time>2026-03-28T09:44:36.628Z</time></trkpt><trkpt lat="45.3429985" lon="10.6965731"><ele>98.2</ele><time>2026-03-28T09:44:37.623Z</time></trkpt><trkpt lat="45.3430311" lon="10.6967301"><ele>98.0</ele><time>2026-03-28T09:44:38.628Z</time></trkpt><trkpt lat="45.3430552" lon="10.6969025"><ele>99.33333333333333</ele><time>2026-03-28T09:44:39.622Z</time></trkpt><trkpt lat="45.3430983" lon="10.6971312"><ele>100.66666666666666</ele><time>2026-03-28T09:44:40.622Z</time></trkpt><trkpt lat="45.3431716" lon="10.697353"><ele>102.0</ele><time>2026-03-28T09:44:41.63Z</time></trkpt><trkpt lat="45.3432453" lon="10.6975532"><ele>102.0</ele><time>2026-03-28T09:44:42.629Z</time></trkpt><trkpt lat="45.343331" lon="10.6977418"><ele>102.0</ele><time>2026-03-28T09:44:43.634Z</time></trkpt><trkpt lat="45.3433989" lon="10.6979217"><ele>102.0</ele><time>2026-03-28T09:44:44.627Z</time></trkpt><trkpt lat="45.3434489" lon="10.6980613"><ele>102.0</ele><time>2026-03-28T09:44:45.625Z</time></trkpt><trkpt lat="45.3434815" lon="10.6982148"><ele>101.0</ele><time>2026-03-28T09:44:46.625Z</time></trkpt><trkpt lat="45.3435424" lon="10.6983968"><ele>100.0</ele><time>2026-03-28T09:44:47.62Z</time></trkpt><trkpt lat="45.3436548" lon="10.6986004"><ele>99.0</ele><time>2026-03-28T09:44:48.623Z</time></trkpt><trkpt lat="45.3437675" lon="10.6987716"><ele>99.0</ele><time>2026-03-28T09:44:49.626Z</time></trkpt><trkpt lat="45.3438776" lon="10.6989636"><ele>99.0</ele><time>2026-03-28T09:44:50.62Z</time></trkpt><trkpt lat="45.3439914" lon="10.6991697"><ele>99.0</ele><time>2026-03-28T09:44:51.622Z</time></trkpt><trkpt lat="45.3440954" lon="10.6993984"><ele>98.0</ele><time>2026-03-28T09:44:52.62Z</time></trkpt><trkpt lat="45.3441826" lon="10.6996166"><ele>97.0</ele><time>2026-03-28T09:44:53.626Z</time></trkpt><trkpt lat="45.3442602" lon="10.6998322"><ele>96.0</ele><time>2026-03-28T09:44:54.625Z</time></trkpt><trkpt lat="45.3443372" lon="10.7000376"><ele>96.0</ele><time>2026-03-28T09:44:55.631Z</time></trkpt><trkpt lat="45.3444048" lon="10.7002298"><ele>96.0</ele><time>2026-03-28T09:44:56.629Z</time></trkpt><trkpt lat="45.3444695" lon="10.7004163"><ele>96.0</ele><time>2026-03-28T09:44:57.63Z</time></trkpt><trkpt lat="45.3445419" lon="10.7006003"><ele>96.0</ele><time>2026-03-28T09:44:58.635Z</time></trkpt><trkpt lat="45.344607" lon="10.7007616"><ele>96.0</ele><time>2026-03-28T09:44:59.63Z</time></trkpt><trkpt lat="45.3446606" lon="10.7009066"><ele>96.0</ele><time>2026-03-28T09:45:00.631Z</time></trkpt><trkpt lat="45.3447049" lon="10.7010312"><ele>96.0</ele><time>2026-03-28T09:45:01.624Z</time></trkpt><trkpt lat="45.3447371" lon="10.7011303"><ele>96.0</ele><time>2026-03-28T09:45:02.624Z</time></trkpt><trkpt lat="45.3447657" lon="10.7012317"><ele>96.0</ele><time>2026-03-28T09:45:03.624Z</time></trkpt><trkpt lat="45.3447984" lon="10.7013131"><ele>96.0</ele><time>2026-03-28T09:45:04.619Z</time></trkpt><trkpt lat="45.3448355" lon="10.7014093"><ele>96.0</ele><time>2026-03-28T09:45:06.631Z</time></trkpt><trkpt lat="45.3449069" lon="10.7014518"><ele>96.0</ele><time>2026-03-28T09:45:09.63Z</time></trkpt><trkpt lat="45.3449923" lon="10.7013573"><ele>96.0</ele><time>2026-03-28T09:45:11.636Z</time></trkpt><trkpt lat="45.3450362" lon="10.7012469"><ele>96.0</ele><time>2026-03-28T09:45:12.623Z</time></trkpt><trkpt lat="45.345089" lon="10.7011165"><ele>96.0</ele><time>2026-03-28T09:45:13.623Z</time></trkpt><trkpt lat="45.3451623" lon="10.7009543"><ele>96.25</ele><time>2026-03-28T09:45:14.634Z</time></trkpt><trkpt lat="45.3452363" lon="10.7007736"><ele>96.5</ele><time>2026-03-28T09:45:15.629Z</time></trkpt><trkpt lat="45.3453081" lon="10.7006016"><ele>96.75</ele><time>2026-03-28T09:45:16.622Z</time></trkpt><trkpt lat="45.3453762" lon="10.7004268"><ele>97.0</ele><time>2026-03-28T09:45:17.626Z</time></trkpt><trkpt lat="45.3454473" lon="10.7002541"><ele>98.0</ele><time>2026-03-28T09:45:18.632Z</time></trkpt><trkpt lat="45.3455288" lon="10.7000931"><ele>99.0</ele><time>2026-03-28T09:45:19.626Z</time></trkpt><trkpt lat="45.3456243" lon="10.6999237"><ele>100.0</ele><time>2026-03-28T09:45:20.622Z</time></trkpt><trkpt lat="45.3457288" lon="10.6997625"><ele>101.0</ele><time>2026-03-28T09:45:21.626Z</time></trkpt><trkpt lat="45.3458288" lon="10.6996055"><ele>103.0</ele><time>2026-03-28T09:45:22.63Z</time></trkpt><trkpt lat="45.3459046" lon="10.6994741"><ele>105.0</ele><time>2026-03-28T09:45:23.625Z</time></trkpt><trkpt lat="45.3459948" lon="10.6993249"><ele>107.0</ele><time>2026-03-28T09:45:24.625Z</time></trkpt><trkpt lat="45.3460775" lon="10.6991583"><ele>109.0</ele><time>2026-03-28T09:45:25.626Z</time></trkpt><trkpt lat="45.3461339" lon="10.6990176"><ele>109.5</ele><time>2026-03-28T09:45:26.622Z</time></trkpt><trkpt lat="45.3461856" lon="10.6988608"><ele>110.0</ele><time>2026-03-28T09:45:27.624Z</time></trkpt><trkpt lat="45.3462282" lon="10.6987074"><ele>110.5</ele><time>2026-03-28T09:45:28.619Z</time></trkpt><trkpt lat="45.34627" lon="10.6985555"><ele>111.0</ele><time>2026-03-28T09:45:29.63Z</time></trkpt><trkpt lat="45.3463123" lon="10.6983955"><ele>110.0</ele><time>2026-03-28T09:45:30.627Z</time></trkpt><trkpt lat="45.3463578" lon="10.6982262"><ele>109.0</ele><time>2026-03-28T09:45:31.628Z</time></trkpt><trkpt lat="45.3464196" lon="10.698045"><ele>108.0</ele><time>2026-03-28T09:45:32.625Z</time></trkpt><trkpt lat="45.3464998" lon="10.6978463"><ele>107.0</ele><time>2026-03-28T09:45:33.627Z</time></trkpt><trkpt lat="45.3466087" lon="10.6976648"><ele>105.5</ele><time>2026-03-28T09:45:34.627Z</time></trkpt><trkpt lat="45.3467009" lon="10.6974812"><ele>104.0</ele><time>2026-03-28T09:45:35.626Z</time></trkpt><trkpt lat="45.3467928" lon="10.697314"><ele>102.5</ele><time>2026-03-28T09:45:36.626Z</time></trkpt><trkpt lat="45.3468865" lon="10.6971629"><ele>101.0</ele><time>2026-03-28T09:45:37.627Z</time></trkpt><trkpt lat="45.3469747" lon="10.697017"><ele>100.75</ele><time>2026-03-28T09:45:38.624Z</time></trkpt><trkpt lat="45.3470774" lon="10.6968763"><ele>100.5</ele><time>2026-03-28T09:45:39.624Z</time></trkpt><trkpt lat="45.347196" lon="10.6967771"><ele>100.25</ele><time>2026-03-28T09:45:40.624Z</time></trkpt><trkpt lat="45.3473236" lon="10.6966916"><ele>100.0</ele><time>2026-03-28T09:45:41.626Z</time></trkpt><trkpt lat="45.3474629" lon="10.6966314"><ele>99.75</ele><time>2026-03-28T09:45:42.626Z</time></trkpt><trkpt lat="45.3476003" lon="10.6965679"><ele>99.5</ele><time>2026-03-28T09:45:43.632Z</time></trkpt><trkpt lat="45.3477121" lon="10.6965114"><ele>99.25</ele><time>2026-03-28T09:45:44.637Z</time></trkpt><trkpt lat="45.3478089" lon="10.6964413"><ele>99.0</ele><time>2026-03-28T09:45:45.641Z</time></trkpt><trkpt lat="45.3479085" lon="10.6963647"><ele>99.0</ele><time>2026-03-28T09:45:46.633Z</time></trkpt><trkpt lat="45.3479895" lon="10.6962765"><ele>99.0</ele><time>2026-03-28T09:45:47.635Z</time></trkpt><trkpt lat="45.3480715" lon="10.6962072"><ele>99.0</ele><time>2026-03-28T09:45:48.629Z</time></trkpt><trkpt lat="45.3481578" lon="10.6961578"><ele>99.0</ele><time>2026-03-28T09:45:49.629Z</time></trkpt><trkpt lat="45.3482515" lon="10.6961209"><ele>99.0</ele><time>2026-03-28T09:45:50.622Z</time></trkpt><trkpt lat="45.3483617" lon="10.6961061"><ele>98.5</ele><time>2026-03-28T09:45:51.617Z</time></trkpt><trkpt lat="45.3484872" lon="10.6961159"><ele>98.0</ele><time>2026-03-28T09:45:52.626Z</time></trkpt><trkpt lat="45.3486125" lon="10.6961133"><ele>97.5</ele><time>2026-03-28T09:45:53.629Z</time></trkpt><trkpt lat="45.3487514" lon="10.6961186"><ele>97.0</ele><time>2026-03-28T09:45:54.627Z</time></trkpt><trkpt lat="45.3488817" lon="10.6961167"><ele>96.19999999999999</ele><time>2026-03-28T09:45:55.633Z</time></trkpt><trkpt lat="45.3490011" lon="10.6961109"><ele>95.4</ele><time>2026-03-28T09:45:56.633Z</time></trkpt><trkpt lat="45.3491132" lon="10.6961139"><ele>94.6</ele><time>2026-03-28T09:45:57.639Z</time></trkpt><trkpt lat="45.3492129" lon="10.6961169"><ele>93.80000000000001</ele><time>2026-03-28T09:45:58.629Z</time></trkpt><trkpt lat="45.3492956" lon="10.6961351"><ele>93.0</ele><time>2026-03-28T09:45:59.637Z</time></trkpt><trkpt lat="45.3493725" lon="10.6961703"><ele>93.0</ele><time>2026-03-28T09:46:00.631Z</time></trkpt><trkpt lat="45.3494411" lon="10.6962281"><ele>93.0</ele><time>2026-03-28T09:46:01.634Z</time></trkpt><trkpt lat="45.3494906" lon="10.6963271"><ele>93.0</ele><time>2026-03-28T09:46:02.619Z</time></trkpt><trkpt lat="45.3495297" lon="10.6964567"><ele>93.0</ele><time>2026-03-28T09:46:03.62Z</time></trkpt><trkpt lat="45.34956" lon="10.6966125"><ele>93.0</ele><time>2026-03-28T09:46:04.613Z</time></trkpt><trkpt lat="45.3495557" lon="10.6967833"><ele>93.5</ele><time>2026-03-28T09:46:05.629Z</time></trkpt><trkpt lat="45.349542" lon="10.6969766"><ele>94.0</ele><time>2026-03-28T09:46:06.627Z</time></trkpt><trkpt lat="45.3495351" lon="10.6971795"><ele>94.5</ele><time>2026-03-28T09:46:07.629Z</time></trkpt><trkpt lat="45.3495362" lon="10.6973953"><ele>95.0</ele><time>2026-03-28T09:46:08.63Z</time></trkpt><trkpt lat="45.3495543" lon="10.6976181"><ele>95.33333333333334</ele><time>2026-03-28T09:46:09.625Z</time></trkpt><trkpt lat="45.3495857" lon="10.6978408"><ele>95.66666666666667</ele><time>2026-03-28T09:46:10.63Z</time></trkpt><trkpt lat="45.3496195" lon="10.6980652"><ele>96.0</ele><time>2026-03-28T09:46:11.629Z</time></trkpt><trkpt lat="45.3496412" lon="10.6982822"><ele>96.0</ele><time>2026-03-28T09:46:12.631Z</time></trkpt><trkpt lat="45.3496439" lon="10.6985082"><ele>96.0</ele><time>2026-03-28T09:46:13.627Z</time></trkpt><trkpt lat="45.3496429" lon="10.6987327"><ele>96.0</ele><time>2026-03-28T09:46:14.632Z</time></trkpt><trkpt lat="45.3496412" lon="10.6989528"><ele>96.25</ele><time>2026-03-28T09:46:15.628Z</time></trkpt><trkpt lat="45.3496544" lon="10.6991453"><ele>96.5</ele><time>2026-03-28T09:46:16.633Z</time></trkpt><trkpt lat="45.3496552" lon="10.6993336"><ele>96.75</ele><time>2026-03-28T09:46:17.627Z</time></trkpt><trkpt lat="45.3496415" lon="10.6995237"><ele>97.0</ele><time>2026-03-28T09:46:18.622Z</time></trkpt><trkpt lat="45.3496262" lon="10.699746"><ele>97.0</ele><time>2026-03-28T09:46:19.622Z</time></trkpt><trkpt lat="45.3496077" lon="10.6999681"><ele>97.0</ele><time>2026-03-28T09:46:20.623Z</time></trkpt><trkpt lat="45.3495691" lon="10.70018"><ele>97.0</ele><time>2026-03-28T09:46:21.626Z</time></trkpt><trkpt lat="45.3495502" lon="10.7004048"><ele>96.25</ele><time>2026-03-28T09:46:22.628Z</time></trkpt><trkpt lat="45.3495364" lon="10.7006171"><ele>95.5</ele><time>2026-03-28T09:46:23.622Z</time></trkpt><trkpt lat="45.3495227" lon="10.7008184"><ele>94.75</ele><time>2026-03-28T09:46:24.62Z</time></trkpt><trkpt lat="45.3495079" lon="10.7010035"><ele>94.0</ele><time>2026-03-28T09:46:25.621Z</time></trkpt><trkpt lat="45.3494949" lon="10.7011667"><ele>93.75</ele><time>2026-03-28T09:46:26.62Z</time></trkpt><trkpt lat="45.349477" lon="10.7013447"><ele>93.5</ele><time>2026-03-28T09:46:27.618Z</time></trkpt><trkpt lat="45.349427" lon="10.7015329"><ele>93.25</ele><time>2026-03-28T09:46:28.619Z</time></trkpt><trkpt lat="45.349414" lon="10.7017407"><ele>93.0</ele><time>2026-03-28T09:46:29.613Z</time></trkpt><trkpt lat="45.3494233" lon="10.7019568"><ele>92.33333333333333</ele><time>2026-03-28T09:46:30.609Z</time></trkpt><trkpt lat="45.349446" lon="10.7021721"><ele>91.66666666666666</ele><time>2026-03-28T09:46:31.614Z</time></trkpt><trkpt lat="45.3494726" lon="10.7024002"><ele>91.0</ele><time>2026-03-28T09:46:32.602Z</time></trkpt><trkpt lat="45.3494741" lon="10.7026198"><ele>89.66666666666666</ele><time>2026-03-28T09:46:33.617Z</time></trkpt><trkpt lat="45.3494752" lon="10.7028391"><ele>88.33333333333333</ele><time>2026-03-28T09:46:34.615Z</time></trkpt><trkpt lat="45.3495034" lon="10.7030923"><ele>87.0</ele><time>2026-03-28T09:46:35.613Z</time></trkpt><trkpt lat="45.3495209" lon="10.703324"><ele>87.0</ele><time>2026-03-28T09:46:36.62Z</time></trkpt><trkpt lat="45.3495403" lon="10.7035257"><ele>87.0</ele><time>2026-03-28T09:46:37.617Z</time></trkpt><trkpt lat="45.349559" lon="10.7037495"><ele>87.0</ele><time>2026-03-28T09:46:38.618Z</time></trkpt><trkpt lat="45.349566" lon="10.7039497"><ele>87.0</ele><time>2026-03-28T09:46:39.615Z</time></trkpt><trkpt lat="45.3495583" lon="10.704141"><ele>86.25</ele><time>2026-03-28T09:46:40.614Z</time></trkpt><trkpt lat="45.3495465" lon="10.7043386"><ele>85.5</ele><time>2026-03-28T09:46:41.614Z</time></trkpt><trkpt lat="45.3495198" lon="10.7045102"><ele>84.75</ele><time>2026-03-28T09:46:42.609Z</time></trkpt><trkpt lat="45.349479" lon="10.7046769"><ele>84.0</ele><time>2026-03-28T09:46:43.606Z</time></trkpt><trkpt lat="45.3494418" lon="10.7048778"><ele>84.0</ele><time>2026-03-28T09:46:44.603Z</time></trkpt><trkpt lat="45.3494334" lon="10.7050626"><ele>84.0</ele><time>2026-03-28T09:46:45.61Z</time></trkpt><trkpt lat="45.3494502" lon="10.7052162"><ele>84.0</ele><time>2026-03-28T09:46:46.609Z</time></trkpt><trkpt lat="45.3494891" lon="10.705364"><ele>84.0</ele><time>2026-03-28T09:46:47.616Z</time></trkpt><trkpt lat="45.3495499" lon="10.70553"><ele>84.66666666666667</ele><time>2026-03-28T09:46:48.609Z</time></trkpt><trkpt lat="45.3496153" lon="10.7056922"><ele>85.33333333333334</ele><time>2026-03-28T09:46:49.613Z</time></trkpt><trkpt lat="45.3497016" lon="10.7058518"><ele>86.0</ele><time>2026-03-28T09:46:50.61Z</time></trkpt><trkpt lat="45.349836" lon="10.7060398"><ele>79.33333333333334</ele><time>2026-03-28T09:46:51.621Z</time></trkpt><trkpt lat="45.349968" lon="10.706239"><ele>72.66666666666667</ele><time>2026-03-28T09:46:52.632Z</time></trkpt><trkpt lat="45.35008" lon="10.7064213"><ele>66.0</ele><time>2026-03-28T09:46:53.633Z</time></trkpt><trkpt lat="45.3501875" lon="10.7066146"><ele>66.0</ele><time>2026-03-28T09:46:54.631Z</time></trkpt><trkpt lat="45.3502955" lon="10.7068162"><ele>66.0</ele><time>2026-03-28T09:46:55.633Z</time></trkpt><trkpt lat="45.3503901" lon="10.7070422"><ele>66.0</ele><time>2026-03-28T09:46:56.626Z</time></trkpt><trkpt lat="45.3504762" lon="10.7072744"><ele>67.33333333333333</ele><time>2026-03-28T09:46:57.625Z</time></trkpt><trkpt lat="45.3505698" lon="10.7075071"><ele>68.66666666666666</ele><time>2026-03-28T09:46:58.624Z</time></trkpt><trkpt lat="45.3506632" lon="10.7077266"><ele>70.0</ele><time>2026-03-28T09:46:59.625Z</time></trkpt><trkpt lat="45.3507491" lon="10.7079397"><ele>70.33333333333333</ele><time>2026-03-28T09:47:00.631Z</time></trkpt><trkpt lat="45.3508374" lon="10.708133"><ele>70.66666666666667</ele><time>2026-03-28T09:47:01.626Z</time></trkpt><trkpt lat="45.3509016" lon="10.708319"><ele>71.0</ele><time>2026-03-28T09:47:02.631Z</time></trkpt><trkpt lat="45.350968" lon="10.708507"><ele>70.5</ele><time>2026-03-28T09:47:03.624Z</time></trkpt><trkpt lat="45.3510187" lon="10.7086785"><ele>70.0</ele><time>2026-03-28T09:47:04.625Z</time></trkpt><trkpt lat="45.3510791" lon="10.7088571"><ele>69.5</ele><time>2026-03-28T09:47:05.631Z</time></trkpt><trkpt lat="45.3511449" lon="10.7090692"><ele>69.0</ele><time>2026-03-28T09:47:06.625Z</time></trkpt><trkpt lat="45.3512133" lon="10.7092545"><ele>68.75</ele><time>2026-03-28T09:47:07.626Z</time></trkpt><trkpt lat="45.3512837" lon="10.7094375"><ele>68.5</ele><time>2026-03-28T09:47:08.627Z</time></trkpt><trkpt lat="45.3513391" lon="10.7096186"><ele>68.25</ele><time>2026-03-28T09:47:09.625Z</time></trkpt><trkpt lat="45.3513884" lon="10.7098365"><ele>68.0</ele><time>2026-03-28T09:47:10.623Z</time></trkpt><trkpt lat="45.3514571" lon="10.7100369"><ele>67.5</ele><time>2026-03-28T09:47:11.628Z</time></trkpt><trkpt lat="45.3515167" lon="10.7102335"><ele>67.0</ele><time>2026-03-28T09:47:12.616Z</time></trkpt><trkpt lat="45.3516043" lon="10.710389"><ele>66.5</ele><time>2026-03-28T09:47:13.624Z</time></trkpt><trkpt lat="45.3516874" lon="10.7105671"><ele>66.0</ele><time>2026-03-28T09:47:14.627Z</time></trkpt><trkpt lat="45.3517649" lon="10.7107457"><ele>66.0</ele><time>2026-03-28T09:47:15.626Z</time></trkpt><trkpt lat="45.3518505" lon="10.7109134"><ele>66.0</ele><time>2026-03-28T09:47:16.625Z</time></trkpt><trkpt lat="45.3519321" lon="10.7110599"><ele>66.0</ele><time>2026-03-28T09:47:17.631Z</time></trkpt><trkpt lat="45.3520203" lon="10.7111944"><ele>66.0</ele><time>2026-03-28T09:47:18.635Z</time></trkpt><trkpt lat="45.3521006" lon="10.7113128"><ele>66.2</ele><time>2026-03-28T09:47:19.626Z</time></trkpt><trkpt lat="45.3521677" lon="10.7114317"><ele>66.39999999999999</ele><time>2026-03-28T09:47:20.625Z</time></trkpt><trkpt lat="45.352236" lon="10.7115449"><ele>66.6</ele><time>2026-03-28T09:47:21.623Z</time></trkpt><trkpt lat="45.352282" lon="10.7116367"><ele>66.8</ele><time>2026-03-28T09:47:22.625Z</time></trkpt><trkpt lat="45.3523287" lon="10.7117362"><ele>67.0</ele><time>2026-03-28T09:47:23.624Z</time></trkpt><trkpt lat="45.3523902" lon="10.7118222"><ele>67.0</ele><time>2026-03-28T09:47:24.624Z</time></trkpt><trkpt lat="45.3524513" lon="10.7119083"><ele>67.0</ele><time>2026-03-28T09:47:25.622Z</time></trkpt><trkpt lat="45.3525123" lon="10.7119727"><ele>67.0</ele><time>2026-03-28T09:47:26.621Z</time></trkpt><trkpt lat="45.3525744" lon="10.7121081"><ele>67.0</ele><time>2026-03-28T09:47:28.615Z</time></trkpt><trkpt lat="45.3526095" lon="10.7122304"><ele>67.0</ele><time>2026-03-28T09:47:30.626Z</time></trkpt><trkpt lat="45.3526145" lon="10.7123515"><ele>67.0</ele><time>2026-03-28T09:47:32.611Z</time></trkpt><trkpt lat="45.3527012" lon="10.7125307"><ele>67.0</ele><time>2026-03-28T09:47:34.606Z</time></trkpt><trkpt lat="45.3527822" lon="10.7126617"><ele>67.0</ele><time>2026-03-28T09:47:35.606Z</time></trkpt><trkpt lat="45.3528686" lon="10.7128114"><ele>67.0</ele><time>2026-03-28T09:47:36.608Z</time></trkpt><trkpt lat="45.3529782" lon="10.7129645"><ele>69.0</ele><time>2026-03-28T09:47:37.607Z</time></trkpt><trkpt lat="45.3530986" lon="10.7131302"><ele>71.0</ele><time>2026-03-28T09:47:38.61Z</time></trkpt><trkpt lat="45.353195" lon="10.7132949"><ele>73.0</ele><time>2026-03-28T09:47:39.61Z</time></trkpt><trkpt lat="45.3532807" lon="10.7134616"><ele>71.75</ele><time>2026-03-28T09:47:40.612Z</time></trkpt><trkpt lat="45.3533638" lon="10.7136037"><ele>70.5</ele><time>2026-03-28T09:47:41.61Z</time></trkpt><trkpt lat="45.353451" lon="10.7137452"><ele>69.25</ele><time>2026-03-28T09:47:42.615Z</time></trkpt><trkpt lat="45.3535223" lon="10.7138717"><ele>68.0</ele><time>2026-03-28T09:47:43.614Z</time></trkpt><trkpt lat="45.3535884" lon="10.7139846"><ele>68.0</ele><time>2026-03-28T09:47:44.61Z</time></trkpt><trkpt lat="45.3536359" lon="10.7141233"><ele>68.0</ele><time>2026-03-28T09:47:45.607Z</time></trkpt><trkpt lat="45.3536804" lon="10.7142905"><ele>68.0</ele><time>2026-03-28T09:47:46.613Z</time></trkpt><trkpt lat="45.353718" lon="10.7144892"><ele>68.0</ele><time>2026-03-28T09:47:47.612Z</time></trkpt><trkpt lat="45.3537365" lon="10.714693"><ele>67.33333333333334</ele><time>2026-03-28T09:47:48.611Z</time></trkpt><trkpt lat="45.3537522" lon="10.7148904"><ele>66.66666666666667</ele><time>2026-03-28T09:47:49.628Z</time></trkpt><trkpt lat="45.3537876" lon="10.7151167"><ele>66.0</ele><time>2026-03-28T09:47:50.612Z</time></trkpt><trkpt lat="45.3537995" lon="10.7153641"><ele>65.0</ele><time>2026-03-28T09:47:51.619Z</time></trkpt><trkpt lat="45.353801" lon="10.715585"><ele>64.0</ele><time>2026-03-28T09:47:52.621Z</time></trkpt><trkpt lat="45.3538014" lon="10.7158"><ele>63.0</ele><time>2026-03-28T09:47:53.621Z</time></trkpt><trkpt lat="45.3537873" lon="10.7160216"><ele>62.66666666666667</ele><time>2026-03-28T09:47:54.623Z</time></trkpt><trkpt lat="45.3537616" lon="10.7162464"><ele>62.333333333333336</ele><time>2026-03-28T09:47:55.623Z</time></trkpt><trkpt lat="45.3537495" lon="10.7164751"><ele>62.0</ele><time>2026-03-28T09:47:56.625Z</time></trkpt><trkpt lat="45.3537547" lon="10.7167078"><ele>61.333333333333336</ele><time>2026-03-28T09:47:57.618Z</time></trkpt><trkpt lat="45.3537744" lon="10.7169555"><ele>60.66666666666667</ele><time>2026-03-28T09:47:58.617Z</time></trkpt><trkpt lat="45.3538207" lon="10.7171984"><ele>60.0</ele><time>2026-03-28T09:47:59.613Z</time></trkpt><trkpt lat="45.3538952" lon="10.7174305"><ele>61.0</ele><time>2026-03-28T09:48:00.611Z</time></trkpt><trkpt lat="45.3539971" lon="10.7176297"><ele>62.0</ele><time>2026-03-28T09:48:01.609Z</time></trkpt><trkpt lat="45.3540935" lon="10.7178082"><ele>63.0</ele><time>2026-03-28T09:48:02.61Z</time></trkpt><trkpt lat="45.3520203" lon="10.7111944"><ele>63.0</ele><time>2026-03-28T09:47:18.635Z</time></trkpt><trkpt lat="45.3521006" lon="10.7113128"><ele>63.0</ele><time>2026-03-28T09:47:19.626Z</time></trkpt><trkpt lat="45.3521677" lon="10.7114317"><ele>63.0</ele><time>2026-03-28T09:47:20.625Z</time></trkpt><trkpt lat="45.352236" lon="10.7115449"><ele>63.0</ele><time>2026-03-28T09:47:21.623Z</time></trkpt><trkpt lat="45.352282" lon="10.7116367"><ele>63.0</ele><time>2026-03-28T09:47:22.625Z</time></trkpt><trkpt lat="45.3523287" lon="10.7117362"><ele>63.8</ele><time>2026-03-28T09:47:23.624Z</time></trkpt><trkpt lat="45.3523902" lon="10.7118222"><ele>64.6</ele><time>2026-03-28T09:47:24.624Z</time></trkpt><trkpt lat="45.3524513" lon="10.7119083"><ele>65.4</ele><time>2026-03-28T09:47:25.622Z</time></trkpt><trkpt lat="45.3525123" lon="10.7119727"><ele>66.2</ele><time>2026-03-28T09:47:26.621Z</time></trkpt><trkpt lat="45.3525744" lon="10.7121081"><ele>67.0</ele><time>2026-03-28T09:47:28.615Z</time></trkpt><trkpt lat="45.3526095" lon="10.7122304"><ele>67.0</ele><time>2026-03-28T09:47:30.626Z</time></trkpt><trkpt lat="45.3526145" lon="10.7123515"><ele>67.0</ele><time>2026-03-28T09:47:32.611Z</time></trkpt><trkpt lat="45.3527012" lon="10.7125307"><ele>67.0</ele><time>2026-03-28T09:47:34.606Z</time></trkpt><trkpt lat="45.3527822" lon="10.7126617"><ele>67.0</ele><time>2026-03-28T09:47:35.606Z</time></trkpt><trkpt lat="45.3528686" lon="10.7128114"><ele>65.33333333333333</ele><time>2026-03-28T09:47:36.608Z</time></trkpt><trkpt lat="45.3529782" lon="10.7129645"><ele>63.66666666666667</ele><time>2026-03-28T09:47:37.607Z</time></trkpt><trkpt lat="45.3530986" lon="10.7131302"><ele>62.0</ele><time>2026-03-28T09:47:38.61Z</time></trkpt><trkpt lat="45.353195" lon="10.7132949"><ele>63.5</ele><time>2026-03-28T09:47:39.61Z</time></trkpt><trkpt lat="45.3532807" lon="10.7134616"><ele>65.0</ele><time>2026-03-28T09:47:40.612Z</time></trkpt><trkpt lat="45.3533638" lon="10.7136037"><ele>66.5</ele><time>2026-03-28T09:47:41.61Z</time></trkpt><trkpt lat="45.353451" lon="10.7137452"><ele>68.0</ele><time>2026-03-28T09:47:42.615Z</time></trkpt><trkpt lat="45.3535223" lon="10.7138717"><ele>68.0</ele><time>2026-03-28T09:47:43.614Z</time></trkpt><trkpt lat="45.3535884" lon="10.7139846"><ele>68.0</ele><time>2026-03-28T09:47:44.61Z</time></trkpt><trkpt lat="45.3536359" lon="10.7141233"><ele>68.0</ele><time>2026-03-28T09:47:45.607Z</time></trkpt><trkpt lat="45.3536804" lon="10.7142905"><ele>68.0</ele><time>2026-03-28T09:47:46.613Z</time></trkpt><trkpt lat="45.353718" lon="10.7144892"><ele>67.5</ele><time>2026-03-28T09:47:47.612Z</time></trkpt><trkpt lat="45.3537365" lon="10.714693"><ele>67.0</ele><time>2026-03-28T09:47:48.611Z</time></trkpt><trkpt lat="45.3537522" lon="10.7148904"><ele>66.5</ele><time>2026-03-28T09:47:49.628Z</time></trkpt><trkpt lat="45.3537876" lon="10.7151167"><ele>66.0</ele><time>2026-03-28T09:47:50.612Z</time></trkpt><trkpt lat="45.3537995" lon="10.7153641"><ele>65.0</ele><time>2026-03-28T09:47:51.619Z</time></trkpt><trkpt lat="45.353801" lon="10.715585"><ele>64.0</ele><time>2026-03-28T09:47:52.621Z</time></trkpt><trkpt lat="45.3538014" lon="10.7158"><ele>63.0</ele><time>2026-03-28T09:47:53.621Z</time></trkpt><trkpt lat="45.3537873" lon="10.7160216"><ele>62.66666666666667</ele><time>2026-03-28T09:47:54.623Z</time></trkpt><trkpt lat="45.3537616" lon="10.7162464"><ele>62.333333333333336</ele><time>2026-03-28T09:47:55.623Z</time></trkpt><trkpt lat="45.3537495" lon="10.7164751"><ele>62.0</ele><time>2026-03-28T09:47:56.625Z</time></trkpt><trkpt lat="45.3537547" lon="10.7167078"><ele>61.333333333333336</ele><time>2026-03-28T09:47:57.618Z</time></trkpt><trkpt lat="45.3537744" lon="10.7169555"><ele>60.66666666666667</ele><time>2026-03-28T09:47:58.617Z</time></trkpt><trkpt lat="45.3538207" lon="10.7171984"><ele>60.0</ele><time>2026-03-28T09:47:59.613Z</time></trkpt><trkpt lat="45.3538952" lon="10.7174305"><ele>61.0</ele><time>2026-03-28T09:48:00.611Z</time></trkpt><trkpt lat="45.3539971" lon="10.7176297"><ele>62.0</ele><time>2026-03-28T09:48:01.609Z</time></trkpt><trkpt lat="45.3540935" lon="10.7178082"><ele>63.0</ele><time>2026-03-28T09:48:02.61Z</time></trkpt><trkpt lat="45.3541914" lon="10.7179928"><ele>63.0</ele><time>2026-03-28T09:48:03.626Z</time></trkpt><trkpt lat="45.3543041" lon="10.7181569"><ele>63.0</ele><time>2026-03-28T09:48:04.614Z</time></trkpt><trkpt lat="45.3544093" lon="10.7183275"><ele>63.0</ele><time>2026-03-28T09:48:05.613Z</time></trkpt><trkpt lat="45.3545117" lon="10.7185372"><ele>62.66666666666667</ele><time>2026-03-28T09:48:06.615Z</time></trkpt><trkpt lat="45.354606" lon="10.718718"><ele>62.333333333333336</ele><time>2026-03-28T09:48:07.62Z</time></trkpt><trkpt lat="45.3547031" lon="10.7188995"><ele>62.0</ele><time>2026-03-28T09:48:08.615Z</time></trkpt><trkpt lat="45.3548113" lon="10.719096"><ele>62.66666666666667</ele><time>2026-03-28T09:48:09.616Z</time></trkpt><trkpt lat="45.3549109" lon="10.7193086"><ele>63.33333333333333</ele><time>2026-03-28T09:48:10.62Z</time></trkpt><trkpt lat="45.3550116" lon="10.7195117"><ele>64.0</ele><time>2026-03-28T09:48:11.619Z</time></trkpt><trkpt lat="45.3551008" lon="10.719688"><ele>64.0</ele><time>2026-03-28T09:48:12.62Z</time></trkpt><trkpt lat="45.35521" lon="10.7198521"><ele>64.0</ele><time>2026-03-28T09:48:13.621Z</time></trkpt><trkpt lat="45.3553031" lon="10.7200068"><ele>64.0</ele><time>2026-03-28T09:48:14.623Z</time></trkpt><trkpt lat="45.3553875" lon="10.7201471"><ele>64.0</ele><time>2026-03-28T09:48:15.611Z</time></trkpt><trkpt lat="45.3554644" lon="10.7202745"><ele>63.25</ele><time>2026-03-28T09:48:16.624Z</time></trkpt><trkpt lat="45.3555254" lon="10.7204203"><ele>62.5</ele><time>2026-03-28T09:48:17.622Z</time></trkpt><trkpt lat="45.3556103" lon="10.7205703"><ele>61.75</ele><time>2026-03-28T09:48:18.621Z</time></trkpt><trkpt lat="45.3556786" lon="10.7207139"><ele>61.0</ele><time>2026-03-28T09:48:19.626Z</time></trkpt><trkpt lat="45.3557534" lon="10.7208256"><ele>61.49999999999999</ele><time>2026-03-28T09:48:20.618Z</time></trkpt><trkpt lat="45.3558089" lon="10.7209319"><ele>62.0</ele><time>2026-03-28T09:48:21.62Z</time></trkpt><trkpt lat="45.3558654" lon="10.7210198"><ele>62.5</ele><time>2026-03-28T09:48:22.621Z</time></trkpt><trkpt lat="45.3559129" lon="10.7210958"><ele>63.0</ele><time>2026-03-28T09:48:23.617Z</time></trkpt><trkpt lat="45.3559685" lon="10.7211577"><ele>63.49999999999999</ele><time>2026-03-28T09:48:24.616Z</time></trkpt><trkpt lat="45.3560527" lon="10.7212567"><ele>64.0</ele><time>2026-03-28T09:48:26.626Z</time></trkpt><trkpt lat="45.3560985" lon="10.7213398"><ele>64.0</ele><time>2026-03-28T09:48:28.628Z</time></trkpt><trkpt lat="45.3561421" lon="10.7214478"><ele>64.0</ele><time>2026-03-28T09:48:32.62Z</time></trkpt><trkpt lat="45.3561276" lon="10.7215884"><ele>64.0</ele><time>2026-03-28T09:48:34.625Z</time></trkpt><trkpt lat="45.3560916" lon="10.7216781"><ele>64.0</ele><time>2026-03-28T09:48:35.614Z</time></trkpt><trkpt lat="45.3560391" lon="10.7218111"><ele>64.0</ele><time>2026-03-28T09:48:36.622Z</time></trkpt><trkpt lat="45.355978" lon="10.7219796"><ele>63.0</ele><time>2026-03-28T09:48:37.607Z</time></trkpt><trkpt lat="45.3559171" lon="10.7221324"><ele>62.00000000000001</ele><time>2026-03-28T09:48:38.61Z</time></trkpt><trkpt lat="45.3558656" lon="10.7222694"><ele>61.00000000000001</ele><time>2026-03-28T09:48:39.61Z</time></trkpt><trkpt lat="45.3558203" lon="10.7223955"><ele>60.0</ele><time>2026-03-28T09:48:40.612Z</time></trkpt><trkpt lat="45.3557827" lon="10.7225078"><ele>59.0</ele><time>2026-03-28T09:48:41.605Z</time></trkpt><trkpt lat="45.3557543" lon="10.722601"><ele>59.0</ele><time>2026-03-28T09:48:42.611Z</time></trkpt><trkpt lat="45.3557274" lon="10.7227055"><ele>59.00000000000001</ele><time>2026-03-28T09:48:43.618Z</time></trkpt><trkpt lat="45.3556895" lon="10.7228082"><ele>59.00000000000001</ele><time>2026-03-28T09:48:44.625Z</time></trkpt><trkpt lat="45.3556526" lon="10.7229278"><ele>59.0</ele><time>2026-03-28T09:48:45.62Z</time></trkpt><trkpt lat="45.3556085" lon="10.7230486"><ele>59.0</ele><time>2026-03-28T09:48:46.625Z</time></trkpt><trkpt lat="45.3555624" lon="10.7231797"><ele>59.00000000000001</ele><time>2026-03-28T09:48:47.622Z</time></trkpt><trkpt lat="45.3555234" lon="10.7232998"><ele>59.0</ele><time>2026-03-28T09:48:48.624Z</time></trkpt><trkpt lat="45.3554828" lon="10.7234153"><ele>59.0</ele><time>2026-03-28T09:48:49.619Z</time></trkpt><trkpt lat="45.3554478" lon="10.7235253"><ele>59.0</ele><time>2026-03-28T09:48:50.639Z</time></trkpt><trkpt lat="45.3554115" lon="10.7236277"><ele>59.00000000000001</ele><time>2026-03-28T09:48:51.627Z</time></trkpt><trkpt lat="45.3553734" lon="10.7237253"><ele>59.0</ele><time>2026-03-28T09:48:52.622Z</time></trkpt><trkpt lat="45.3553415" lon="10.7238351"><ele>59.00000000000001</ele><time>2026-03-28T09:48:53.625Z</time></trkpt><trkpt lat="45.3552988" lon="10.7239457"><ele>59.0</ele><time>2026-03-28T09:48:54.621Z</time></trkpt><trkpt lat="45.3552582" lon="10.7240595"><ele>59.0</ele><time>2026-03-28T09:48:55.628Z</time></trkpt><trkpt lat="45.3552276" lon="10.724157"><ele>59.0</ele><time>2026-03-28T09:48:56.62Z</time></trkpt><trkpt lat="45.3551932" lon="10.7242409"><ele>59.00000000000001</ele><time>2026-03-28T09:48:57.618Z</time></trkpt><trkpt lat="45.3551557" lon="10.7243169"><ele>59.0</ele><time>2026-03-28T09:48:58.616Z</time></trkpt><trkpt lat="45.3550893" lon="10.7244354"><ele>59.2</ele><time>2026-03-28T09:49:00.62Z</time></trkpt><trkpt lat="45.3550445" lon="10.7245446"><ele>59.400000000000006</ele><time>2026-03-28T09:49:02.63Z</time></trkpt><trkpt lat="45.355009" lon="10.7246718"><ele>59.6</ele><time>2026-03-28T09:50:29.629Z</time></trkpt><trkpt lat="45.3549399" lon="10.7248667"><ele>59.8</ele><time>2026-03-28T09:50:31.629Z</time></trkpt><trkpt lat="45.3548896" lon="10.7249842"><ele>60.0</ele><time>2026-03-28T09:50:32.62Z</time></trkpt><trkpt lat="45.3548473" lon="10.7250957"><ele>60.0</ele><time>2026-03-28T09:50:33.623Z</time></trkpt><trkpt lat="45.3548225" lon="10.7251878"><ele>60.0</ele><time>2026-03-28T09:50:34.619Z</time></trkpt><trkpt lat="45.3548052" lon="10.7253053"><ele>60.0</ele><time>2026-03-28T09:50:35.622Z</time></trkpt><trkpt lat="45.3547768" lon="10.7254165"><ele>60.0</ele><time>2026-03-28T09:50:36.621Z</time></trkpt><trkpt lat="45.3547492" lon="10.7255164"><ele>60.0</ele><time>2026-03-28T09:50:37.607Z</time></trkpt><trkpt lat="45.3546995" lon="10.7256363"><ele>60.0</ele><time>2026-03-28T09:50:39.615Z</time></trkpt><trkpt lat="45.3546595" lon="10.7257374"><ele>59.8</ele><time>2026-03-28T09:50:41.629Z</time></trkpt><trkpt lat="45.3545872" lon="10.7259131"><ele>59.6</ele><time>2026-03-28T09:50:43.619Z</time></trkpt><trkpt lat="45.3545497" lon="10.7260386"><ele>59.400000000000006</ele><time>2026-03-28T09:50:44.626Z</time></trkpt><trkpt lat="45.3545173" lon="10.7261735"><ele>59.2</ele><time>2026-03-28T09:50:45.623Z</time></trkpt><trkpt lat="45.3544703" lon="10.7263144"><ele>59.0</ele><time>2026-03-28T09:50:46.622Z</time></trkpt><trkpt lat="45.3544237" lon="10.7264653"><ele>59.0</ele><time>2026-03-28T09:50:47.621Z</time></trkpt><trkpt lat="45.3543622" lon="10.7266246"><ele>59.0</ele><time>2026-03-28T09:50:48.626Z</time></trkpt><trkpt lat="45.3543053" lon="10.7267777"><ele>59.0</ele><time>2026-03-28T09:50:49.626Z</time></trkpt><trkpt lat="45.3542497" lon="10.7269176"><ele>59.0</ele><time>2026-03-28T09:50:50.63Z</time></trkpt><trkpt lat="45.3541942" lon="10.7270572"><ele>59.2</ele><time>2026-03-28T09:50:51.627Z</time></trkpt><trkpt lat="45.3541393" lon="10.7271884"><ele>59.400000000000006</ele><time>2026-03-28T09:50:52.626Z</time></trkpt><trkpt lat="45.3540876" lon="10.7273157"><ele>59.6</ele><time>2026-03-28T09:50:53.632Z</time></trkpt><trkpt lat="45.3540366" lon="10.7274467"><ele>59.8</ele><time>2026-03-28T09:50:54.635Z</time></trkpt><trkpt lat="45.3539823" lon="10.7275753"><ele>60.0</ele><time>2026-03-28T09:50:55.622Z</time></trkpt><trkpt lat="45.3539374" lon="10.7276958"><ele>61.0</ele><time>2026-03-28T09:50:56.623Z</time></trkpt><trkpt lat="45.3538946" lon="10.7278124"><ele>62.0</ele><time>2026-03-28T09:50:57.622Z</time></trkpt><trkpt lat="45.3538593" lon="10.7279161"><ele>63.0</ele><time>2026-03-28T09:50:58.617Z</time></trkpt><trkpt lat="45.3538206" lon="10.7279989"><ele>64.0</ele><time>2026-03-28T09:50:59.613Z</time></trkpt><trkpt lat="45.3537647" lon="10.7281119"><ele>65.0</ele><time>2026-03-28T09:51:01.616Z</time></trkpt><trkpt lat="45.3537261" lon="10.7282139"><ele>66.0</ele><time>2026-03-28T09:51:04.621Z</time></trkpt><trkpt lat="45.353675" lon="10.7282679"><ele>63.0</ele><time>2026-03-28T09:51:06.62Z</time></trkpt><trkpt lat="45.3536135" lon="10.7283596"><ele>60.0</ele><time>2026-03-28T09:51:08.623Z</time></trkpt><trkpt lat="45.3548896" lon="10.7249842"><ele>60.0</ele><time>2026-03-28T09:50:32.62Z</time></trkpt><trkpt lat="45.3548473" lon="10.7250957"><ele>60.0</ele><time>2026-03-28T09:50:33.623Z</time></trkpt><trkpt lat="45.3548225" lon="10.7251878"><ele>60.0</ele><time>2026-03-28T09:50:34.619Z</time></trkpt><trkpt lat="45.3548052" lon="10.7253053"><ele>60.0</ele><time>2026-03-28T09:50:35.622Z</time></trkpt><trkpt lat="45.3547768" lon="10.7254165"><ele>60.0</ele><time>2026-03-28T09:50:36.621Z</time></trkpt><trkpt lat="45.3547492" lon="10.7255164"><ele>60.0</ele><time>2026-03-28T09:50:37.607Z</time></trkpt><trkpt lat="45.3546995" lon="10.7256363"><ele>59.8</ele><time>2026-03-28T09:50:39.615Z</time></trkpt><trkpt lat="45.3546595" lon="10.7257374"><ele>59.6</ele><time>2026-03-28T09:50:41.629Z</time></trkpt><trkpt lat="45.3545872" lon="10.7259131"><ele>59.400000000000006</ele><time>2026-03-28T09:50:43.619Z</time></trkpt><trkpt lat="45.3545497" lon="10.7260386"><ele>59.2</ele><time>2026-03-28T09:50:44.626Z</time></trkpt><trkpt lat="45.3545173" lon="10.7261735"><ele>59.0</ele><time>2026-03-28T09:50:45.623Z</time></trkpt><trkpt lat="45.3544703" lon="10.7263144"><ele>59.0</ele><time>2026-03-28T09:50:46.622Z</time></trkpt><trkpt lat="45.3544237" lon="10.7264653"><ele>59.0</ele><time>2026-03-28T09:50:47.621Z</time></trkpt><trkpt lat="45.3543622" lon="10.7266246"><ele>59.0</ele><time>2026-03-28T09:50:48.626Z</time></trkpt><trkpt lat="45.3543053" lon="10.7267777"><ele>59.0</ele><time>2026-03-28T09:50:49.626Z</time></trkpt><trkpt lat="45.3542497" lon="10.7269176"><ele>59.2</ele><time>2026-03-28T09:50:50.63Z</time></trkpt><trkpt lat="45.3541942" lon="10.7270572"><ele>59.400000000000006</ele><time>2026-03-28T09:50:51.627Z</time></trkpt><trkpt lat="45.3541393" lon="10.7271884"><ele>59.6</ele><time>2026-03-28T09:50:52.626Z</time></trkpt><trkpt lat="45.3540876" lon="10.7273157"><ele>59.8</ele><time>2026-03-28T09:50:53.632Z</time></trkpt><trkpt lat="45.3540366" lon="10.7274467"><ele>60.0</ele><time>2026-03-28T09:50:54.635Z</time></trkpt><trkpt lat="45.3539823" lon="10.7275753"><ele>60.0</ele><time>2026-03-28T09:50:55.622Z</time></trkpt><trkpt lat="45.3539374" lon="10.7276958"><ele>60.0</ele><time>2026-03-28T09:50:56.623Z</time></trkpt><trkpt lat="45.3538946" lon="10.7278124"><ele>60.0</ele><time>2026-03-28T09:50:57.622Z</time></trkpt><trkpt lat="45.3538593" lon="10.7279161"><ele>60.0</ele><time>2026-03-28T09:50:58.617Z</time></trkpt><trkpt lat="45.3538206" lon="10.7279989"><ele>60.0</ele><time>2026-03-28T09:50:59.613Z</time></trkpt><trkpt lat="45.3537647" lon="10.7281119"><ele>60.0</ele><time>2026-03-28T09:51:01.616Z</time></trkpt><trkpt lat="45.3537261" lon="10.7282139"><ele>62.666666666666664</ele><time>2026-03-28T09:51:04.621Z</time></trkpt><trkpt lat="45.353675" lon="10.7282679"><ele>65.33333333333333</ele><time>2026-03-28T09:51:06.62Z</time></trkpt><trkpt lat="45.3536135" lon="10.7283596"><ele>68.0</ele><time>2026-03-28T09:51:08.623Z</time></trkpt><trkpt lat="45.3536266" lon="10.728462"><ele>70.66666666666666</ele><time>2026-03-28T09:51:10.617Z</time></trkpt><trkpt lat="45.3537339" lon="10.7285345"><ele>73.33333333333333</ele><time>2026-03-28T09:51:12.615Z</time></trkpt><trkpt lat="45.3537994" lon="10.7285766"><ele>76.0</ele><time>2026-03-28T09:51:13.609Z</time></trkpt><trkpt lat="45.3538688" lon="10.7286434"><ele>77.19999999999999</ele><time>2026-03-28T09:51:14.611Z</time></trkpt><trkpt lat="45.3539582" lon="10.7286998"><ele>78.39999999999999</ele><time>2026-03-28T09:51:15.609Z</time></trkpt><trkpt lat="45.3540451" lon="10.7287377"><ele>79.6</ele><time>2026-03-28T09:51:16.609Z</time></trkpt><trkpt lat="45.3541393" lon="10.7287681"><ele>80.8</ele><time>2026-03-28T09:51:17.605Z</time></trkpt><trkpt lat="45.354248" lon="10.728809"><ele>82.0</ele><time>2026-03-28T09:51:18.609Z</time></trkpt><trkpt lat="45.3543592" lon="10.7288681"><ele>82.0</ele><time>2026-03-28T09:51:19.604Z</time></trkpt><trkpt lat="45.3544699" lon="10.7289224"><ele>82.0</ele><time>2026-03-28T09:51:20.607Z</time></trkpt><trkpt lat="45.3545936" lon="10.728992"><ele>82.0</ele><time>2026-03-28T09:51:21.611Z</time></trkpt><trkpt lat="45.3547338" lon="10.7290542"><ele>82.0</ele><time>2026-03-28T09:51:22.611Z</time></trkpt><trkpt lat="45.3548803" lon="10.7290988"><ele>81.33333333333333</ele><time>2026-03-28T09:51:23.615Z</time></trkpt><trkpt lat="45.3550272" lon="10.7291642"><ele>80.66666666666667</ele><time>2026-03-28T09:51:24.614Z</time></trkpt><trkpt lat="45.355179" lon="10.7292044"><ele>80.0</ele><time>2026-03-28T09:51:25.623Z</time></trkpt><trkpt lat="45.355336" lon="10.7292438"><ele>80.0</ele><time>2026-03-28T09:51:26.614Z</time></trkpt><trkpt lat="45.3554754" lon="10.7292812"><ele>80.0</ele><time>2026-03-28T09:51:27.607Z</time></trkpt><trkpt lat="45.3556014" lon="10.7292976"><ele>80.0</ele><time>2026-03-28T09:51:28.608Z</time></trkpt><trkpt lat="45.3557201" lon="10.7293078"><ele>80.0</ele><time>2026-03-28T09:51:29.609Z</time></trkpt><trkpt lat="45.3558401" lon="10.7293248"><ele>79.8</ele><time>2026-03-28T09:51:30.611Z</time></trkpt><trkpt lat="45.3559587" lon="10.7293509"><ele>79.6</ele><time>2026-03-28T09:51:31.613Z</time></trkpt><trkpt lat="45.3560849" lon="10.7293451"><ele>79.4</ele><time>2026-03-28T09:51:32.608Z</time></trkpt><trkpt lat="45.3561958" lon="10.7293285"><ele>79.2</ele><time>2026-03-28T09:51:33.608Z</time></trkpt><trkpt lat="45.3562807" lon="10.7292892"><ele>79.0</ele><time>2026-03-28T09:51:34.609Z</time></trkpt><trkpt lat="45.3563566" lon="10.7292674"><ele>79.57142857142858</ele><time>2026-03-28T09:51:35.608Z</time></trkpt><trkpt lat="45.356418" lon="10.7292465"><ele>80.14285714285714</ele><time>2026-03-28T09:51:36.606Z</time></trkpt><trkpt lat="45.3564932" lon="10.7292456"><ele>80.71428571428572</ele><time>2026-03-28T09:51:38.605Z</time></trkpt><trkpt lat="45.3565536" lon="10.7292192"><ele>81.28571428571429</ele><time>2026-03-28T09:51:40.618Z</time></trkpt><trkpt lat="45.3566174" lon="10.7292369"><ele>81.85714285714286</ele><time>2026-03-28T09:51:42.61Z</time></trkpt><trkpt lat="45.3566362" lon="10.7293414"><ele>82.42857142857143</ele><time>2026-03-28T09:51:44.61Z</time></trkpt><trkpt lat="45.3565791" lon="10.7294618"><ele>83.0</ele><time>2026-03-28T09:51:46.603Z</time></trkpt><trkpt lat="45.3565188" lon="10.7295102"><ele>85.80000000000001</ele><time>2026-03-28T09:51:47.606Z</time></trkpt><trkpt lat="45.3564276" lon="10.7295496"><ele>88.6</ele><time>2026-03-28T09:51:48.59Z</time></trkpt><trkpt lat="45.3563223" lon="10.7295965"><ele>91.4</ele><time>2026-03-28T09:51:49.584Z</time></trkpt><trkpt lat="45.3562134" lon="10.7296629"><ele>94.19999999999999</ele><time>2026-03-28T09:51:50.589Z</time></trkpt><trkpt lat="45.3561098" lon="10.7297306"><ele>97.0</ele><time>2026-03-28T09:51:51.596Z</time></trkpt><trkpt lat="45.3560136" lon="10.7297958"><ele>97.0</ele><time>2026-03-28T09:51:52.597Z</time></trkpt><trkpt lat="45.3559203" lon="10.7298578"><ele>97.0</ele><time>2026-03-28T09:51:53.596Z</time></trkpt><trkpt lat="45.3558505" lon="10.7299154"><ele>97.0</ele><time>2026-03-28T09:51:54.598Z</time></trkpt><trkpt lat="45.3557928" lon="10.7299755"><ele>97.0</ele><time>2026-03-28T09:51:55.602Z</time></trkpt><trkpt lat="45.3557133" lon="10.7300701"><ele>97.0</ele><time>2026-03-28T09:51:57.611Z</time></trkpt><trkpt lat="45.3556661" lon="10.7301943"><ele>98.19999999999999</ele><time>2026-03-28T09:51:59.613Z</time></trkpt><trkpt lat="45.3556715" lon="10.7303451"><ele>99.4</ele><time>2026-03-28T09:52:01.623Z</time></trkpt><trkpt lat="45.3556993" lon="10.7304678"><ele>100.6</ele><time>2026-03-28T09:52:03.611Z</time></trkpt><trkpt lat="45.3557509" lon="10.730636"><ele>101.80000000000001</ele><time>2026-03-28T09:52:05.606Z</time></trkpt><trkpt lat="45.3557867" lon="10.7307371"><ele>103.0</ele><time>2026-03-28T09:52:06.606Z</time></trkpt><trkpt lat="45.3558162" lon="10.7308594"><ele>103.00000000000001</ele><time>2026-03-28T09:52:07.604Z</time></trkpt><trkpt lat="45.3558364" lon="10.730997"><ele>103.0</ele><time>2026-03-28T09:52:08.598Z</time></trkpt><trkpt lat="45.3558614" lon="10.7311291"><ele>103.0</ele><time>2026-03-28T09:52:09.605Z</time></trkpt><trkpt lat="45.3558787" lon="10.7312331"><ele>103.0</ele><time>2026-03-28T09:52:10.606Z</time></trkpt><trkpt lat="45.3558978" lon="10.7313233"><ele>103.00000000000001</ele><time>2026-03-28T09:52:11.63Z</time></trkpt><trkpt lat="45.3558925" lon="10.7314144"><ele>103.0</ele><time>2026-03-28T09:52:14.625Z</time></trkpt><trkpt lat="45.3558821" lon="10.731516"><ele>102.83333333333334</ele><time>2026-03-28T09:52:17.619Z</time></trkpt><trkpt lat="45.3558612" lon="10.7316786"><ele>102.66666666666667</ele><time>2026-03-28T09:52:19.614Z</time></trkpt><trkpt lat="45.3558577" lon="10.7317682"><ele>102.5</ele><time>2026-03-28T09:52:20.616Z</time></trkpt><trkpt lat="45.3558504" lon="10.7318643"><ele>102.33333333333334</ele><time>2026-03-28T09:52:21.626Z</time></trkpt><trkpt lat="45.3558279" lon="10.7319531"><ele>102.16666666666667</ele><time>2026-03-28T09:52:22.618Z</time></trkpt><trkpt lat="45.3557796" lon="10.7320795"><ele>102.0</ele><time>2026-03-28T09:52:24.625Z</time></trkpt><trkpt lat="45.3557303" lon="10.7322057"><ele>100.6</ele><time>2026-03-28T09:52:26.62Z</time></trkpt><trkpt lat="45.3556759" lon="10.7323421"><ele>99.19999999999999</ele><time>2026-03-28T09:52:28.613Z</time></trkpt><trkpt lat="45.3556267" lon="10.7324314"><ele>97.8</ele><time>2026-03-28T09:52:31.629Z</time></trkpt><trkpt lat="45.3555962" lon="10.7325287"><ele>96.4</ele><time>2026-03-28T09:52:33.627Z</time></trkpt><trkpt lat="45.3555378" lon="10.7326581"><ele>95.0</ele><time>2026-03-28T09:52:35.617Z</time></trkpt><trkpt lat="45.355486" lon="10.7327925"><ele>94.83333333333334</ele><time>2026-03-28T09:52:37.615Z</time></trkpt><trkpt lat="45.35544" lon="10.7328556"><ele>94.66666666666667</ele><time>2026-03-28T09:52:38.613Z</time></trkpt><trkpt lat="45.3553926" lon="10.7329292"><ele>94.5</ele><time>2026-03-28T09:52:39.617Z</time></trkpt><trkpt lat="45.355326" lon="10.7330718"><ele>94.33333333333333</ele><time>2026-03-28T09:52:41.615Z</time></trkpt><trkpt lat="45.3552758" lon="10.7331865"><ele>94.16666666666666</ele><time>2026-03-28T09:52:43.609Z</time></trkpt><trkpt lat="45.3552402" lon="10.7332883"><ele>94.0</ele><time>2026-03-28T09:52:45.619Z</time></trkpt><trkpt lat="45.3552019" lon="10.7334168"><ele>94.0</ele><time>2026-03-28T09:52:47.609Z</time></trkpt><trkpt lat="45.3551571" lon="10.7335125"><ele>94.0</ele><time>2026-03-28T09:52:49.611Z</time></trkpt><trkpt lat="45.3551151" lon="10.7336058"><ele>94.0</ele><time>2026-03-28T09:52:51.618Z</time></trkpt><trkpt lat="45.3550938" lon="10.7337197"><ele>94.0</ele><time>2026-03-28T09:52:53.617Z</time></trkpt><trkpt lat="45.355067" lon="10.7338442"><ele>94.0</ele><time>2026-03-28T09:52:55.609Z</time></trkpt><trkpt lat="45.3550305" lon="10.7339501"><ele>94.0</ele><time>2026-03-28T09:52:57.629Z</time></trkpt><trkpt lat="45.3549925" lon="10.734034"><ele>94.0</ele><time>2026-03-28T09:52:59.615Z</time></trkpt><trkpt lat="45.3549258" lon="10.7341112"><ele>94.0</ele><time>2026-03-28T09:53:02.615Z</time></trkpt><trkpt lat="45.3548684" lon="10.7341493"><ele>94.0</ele><time>2026-03-28T09:53:04.618Z</time></trkpt><trkpt lat="45.3548275" lon="10.7342265"><ele>94.0</ele><time>2026-03-28T09:53:06.622Z</time></trkpt><trkpt lat="45.3548281" lon="10.7343518"><ele>94.0</ele><time>2026-03-28T09:53:08.62Z</time></trkpt><trkpt lat="45.3549104" lon="10.7344399"><ele>94.0</ele><time>2026-03-28T09:53:10.613Z</time></trkpt><trkpt lat="45.3550425" lon="10.7344318"><ele>94.0</ele><time>2026-03-28T09:53:12.612Z</time></trkpt><trkpt lat="45.3551275" lon="10.7344291"><ele>94.0</ele><time>2026-03-28T09:53:13.604Z</time></trkpt><trkpt lat="45.3552187" lon="10.7344531"><ele>94.0</ele><time>2026-03-28T09:53:14.61Z</time></trkpt><trkpt lat="45.3552991" lon="10.7344807"><ele>94.0</ele><time>2026-03-28T09:53:15.608Z</time></trkpt><trkpt lat="45.3553702" lon="10.7345009"><ele>94.0</ele><time>2026-03-28T09:53:16.614Z</time></trkpt><trkpt lat="45.3554665" lon="10.7345436"><ele>94.0</ele><time>2026-03-28T09:53:18.609Z</time></trkpt><trkpt lat="45.3555559" lon="10.7345837"><ele>94.0</ele><time>2026-03-28T09:53:20.612Z</time></trkpt><trkpt lat="45.355665" lon="10.734655"><ele>94.0</ele><time>2026-03-28T09:53:22.613Z</time></trkpt><trkpt lat="45.3557302" lon="10.7346862"><ele>94.0</ele><time>2026-03-28T09:53:24.62Z</time></trkpt><trkpt lat="45.3557983" lon="10.7347643"><ele>94.0</ele><time>2026-03-28T09:53:28.631Z</time></trkpt><trkpt lat="45.3558787" lon="10.7347938"><ele>94.0</ele><time>2026-03-28T09:53:31.631Z</time></trkpt><trkpt lat="45.3559886" lon="10.734828"><ele>94.0</ele><time>2026-03-28T09:53:33.616Z</time></trkpt><trkpt lat="45.3560529" lon="10.7348446"><ele>94.0</ele><time>2026-03-28T09:53:34.609Z</time></trkpt><trkpt lat="45.3561549" lon="10.7348756"><ele>94.0</ele><time>2026-03-28T09:53:36.61Z</time></trkpt><trkpt lat="45.3562215" lon="10.7349039"><ele>94.0</ele><time>2026-03-28T09:53:37.612Z</time></trkpt><trkpt lat="45.3562965" lon="10.7349362"><ele>94.0</ele><time>2026-03-28T09:53:38.61Z</time></trkpt><trkpt lat="45.3563895" lon="10.7349687"><ele>94.0</ele><time>2026-03-28T09:53:39.611Z</time></trkpt><trkpt lat="45.3564791" lon="10.7349826"><ele>93.80000000000001</ele><time>2026-03-28T09:53:40.603Z</time></trkpt><trkpt lat="45.356572" lon="10.7350016"><ele>93.60000000000001</ele><time>2026-03-28T09:53:41.61Z</time></trkpt><trkpt lat="45.3566553" lon="10.7350103"><ele>93.4</ele><time>2026-03-28T09:53:42.612Z</time></trkpt><trkpt lat="45.3567185" lon="10.7350116"><ele>93.2</ele><time>2026-03-28T09:53:43.624Z</time></trkpt><trkpt lat="45.3568269" lon="10.7350423"><ele>93.0</ele><time>2026-03-28T09:53:45.616Z</time></trkpt><trkpt lat="45.3569355" lon="10.7350658"><ele>93.0</ele><time>2026-03-28T09:53:47.62Z</time></trkpt><trkpt lat="45.3570255" lon="10.7350851"><ele>93.0</ele><time>2026-03-28T09:53:49.629Z</time></trkpt><trkpt lat="45.3570996" lon="10.7350576"><ele>93.0</ele><time>2026-03-28T09:53:51.629Z</time></trkpt><trkpt lat="45.3572059" lon="10.7350243"><ele>93.0</ele><time>2026-03-28T09:53:53.619Z</time></trkpt><trkpt lat="45.3572734" lon="10.7349902"><ele>93.0</ele><time>2026-03-28T09:53:55.628Z</time></trkpt><trkpt lat="45.3573473" lon="10.7349746"><ele>93.0</ele><time>2026-03-28T09:53:58.628Z</time></trkpt><trkpt lat="45.3574404" lon="10.7349782"><ele>93.0</ele><time>2026-03-28T09:54:00.621Z</time></trkpt><trkpt lat="45.357551" lon="10.7349759"><ele>93.0</ele><time>2026-03-28T09:54:02.612Z</time></trkpt><trkpt lat="45.3576517" lon="10.7349342"><ele>93.0</ele><time>2026-03-28T09:54:04.617Z</time></trkpt><trkpt lat="45.3577351" lon="10.7349212"><ele>93.0</ele><time>2026-03-28T09:54:06.63Z</time></trkpt><trkpt lat="45.3578123" lon="10.734911"><ele>93.0</ele><time>2026-03-28T09:54:08.632Z</time></trkpt><trkpt lat="45.3579073" lon="10.7349088"><ele>93.0</ele><time>2026-03-28T09:54:11.632Z</time></trkpt><trkpt lat="45.3580083" lon="10.7348797"><ele>93.0</ele><time>2026-03-28T09:54:13.623Z</time></trkpt><trkpt lat="45.3581514" lon="10.7348501"><ele>93.0</ele><time>2026-03-28T09:54:15.628Z</time></trkpt><trkpt lat="45.3582575" lon="10.7348324"><ele>93.0</ele><time>2026-03-28T09:54:16.624Z</time></trkpt><trkpt lat="45.3583882" lon="10.7348273"><ele>93.60000000000001</ele><time>2026-03-28T09:54:17.637Z</time></trkpt><trkpt lat="45.3585128" lon="10.7348447"><ele>94.2</ele><time>2026-03-28T09:54:18.625Z</time></trkpt><trkpt lat="45.3586203" lon="10.7348684"><ele>94.8</ele><time>2026-03-28T09:54:19.621Z</time></trkpt><trkpt lat="45.3587061" lon="10.734898"><ele>95.4</ele><time>2026-03-28T09:54:20.625Z</time></trkpt><trkpt lat="45.3587689" lon="10.7349247"><ele>96.0</ele><time>2026-03-28T09:54:21.625Z</time></trkpt><trkpt lat="45.3589018" lon="10.7349516"><ele>96.19999999999999</ele><time>2026-03-28T09:54:23.626Z</time></trkpt><trkpt lat="45.358978" lon="10.7349552"><ele>96.39999999999999</ele><time>2026-03-28T09:54:24.621Z</time></trkpt><trkpt lat="45.3590654" lon="10.7349506"><ele>96.6</ele><time>2026-03-28T09:54:25.623Z</time></trkpt><trkpt lat="45.3591772" lon="10.7349658"><ele>96.8</ele><time>2026-03-28T09:54:26.617Z</time></trkpt><trkpt lat="45.3593053" lon="10.7349785"><ele>97.0</ele><time>2026-03-28T09:54:27.627Z</time></trkpt><trkpt lat="45.3594347" lon="10.7349887"><ele>97.0</ele><time>2026-03-28T09:54:28.62Z</time></trkpt><trkpt lat="45.3595825" lon="10.7350147"><ele>97.0</ele><time>2026-03-28T09:54:29.625Z</time></trkpt><trkpt lat="45.3597439" lon="10.7350446"><ele>97.0</ele><time>2026-03-28T09:54:30.628Z</time></trkpt><trkpt lat="45.3598587" lon="10.7350654"><ele>97.0</ele><time>2026-03-28T09:54:31.621Z</time></trkpt><trkpt lat="45.3599648" lon="10.7350855"><ele>96.83333333333334</ele><time>2026-03-28T09:54:32.616Z</time></trkpt><trkpt lat="45.3600563" lon="10.7351133"><ele>96.66666666666667</ele><time>2026-03-28T09:54:33.616Z</time></trkpt><trkpt lat="45.3601216" lon="10.7351236"><ele>96.5</ele><time>2026-03-28T09:54:34.618Z</time></trkpt><trkpt lat="45.3601867" lon="10.7351417"><ele>96.33333333333334</ele><time>2026-03-28T09:54:35.619Z</time></trkpt><trkpt lat="45.3602809" lon="10.7352117"><ele>96.16666666666667</ele><time>2026-03-28T09:54:37.619Z</time></trkpt><trkpt lat="45.3603845" lon="10.7352824"><ele>96.0</ele><time>2026-03-28T09:54:39.622Z</time></trkpt><trkpt lat="45.3604541" lon="10.7352855"><ele>96.0</ele><time>2026-03-28T09:54:40.622Z</time></trkpt><trkpt lat="45.360567" lon="10.7352931"><ele>96.0</ele><time>2026-03-28T09:54:42.621Z</time></trkpt><trkpt lat="45.3606332" lon="10.7353031"><ele>96.0</ele><time>2026-03-28T09:54:44.632Z</time></trkpt><trkpt lat="45.3606716" lon="10.7352233"><ele>96.0</ele><time>2026-03-28T09:54:52.642Z</time></trkpt><trkpt lat="45.3605862" lon="10.7351329"><ele>96.0</ele><time>2026-03-28T09:55:05.626Z</time></trkpt><trkpt lat="45.3604836" lon="10.7351231"><ele>96.0</ele><time>2026-03-28T09:55:06.623Z</time></trkpt><trkpt lat="45.3604082" lon="10.7351256"><ele>96.0</ele><time>2026-03-28T09:55:07.622Z</time></trkpt><trkpt lat="45.360337" lon="10.7351612"><ele>96.0</ele><time>2026-03-28T09:55:09.631Z</time></trkpt><trkpt lat="45.3602213" lon="10.7351606"><ele>96.0</ele><time>2026-03-28T09:55:23.635Z</time></trkpt><trkpt lat="45.3601536" lon="10.7351548"><ele>96.0</ele><time>2026-03-28T09:55:24.629Z</time></trkpt><trkpt lat="45.3600794" lon="10.7351472"><ele>96.0</ele><time>2026-03-28T09:55:25.623Z</time></trkpt><trkpt lat="45.359992" lon="10.735131"><ele>96.0</ele><time>2026-03-28T09:55:27.627Z</time></trkpt><trkpt lat="45.3599172" lon="10.7351705"><ele>96.0</ele><time>2026-03-28T09:55:30.621Z</time></trkpt><trkpt lat="45.3599089" lon="10.7352941"><ele>96.0</ele><time>2026-03-28T09:55:32.634Z</time></trkpt><trkpt lat="45.3599125" lon="10.7354463"><ele>96.0</ele><time>2026-03-28T09:55:34.626Z</time></trkpt><trkpt lat="45.3599161" lon="10.7356064"><ele>96.0</ele><time>2026-03-28T09:55:36.626Z</time></trkpt><trkpt lat="45.3598989" lon="10.7358171"><ele>95.5</ele><time>2026-03-28T09:55:38.624Z</time></trkpt><trkpt lat="45.3598924" lon="10.7359568"><ele>95.0</ele><time>2026-03-28T09:55:39.625Z</time></trkpt><trkpt lat="45.3598857" lon="10.7361168"><ele>94.5</ele><time>2026-03-28T09:55:40.625Z</time></trkpt><trkpt lat="45.3598737" lon="10.7362837"><ele>94.0</ele><time>2026-03-28T09:55:41.638Z</time></trkpt><trkpt lat="45.3598605" lon="10.7364658"><ele>94.0</ele><time>2026-03-28T09:55:42.622Z</time></trkpt><trkpt lat="45.3598487" lon="10.7366643"><ele>94.0</ele><time>2026-03-28T09:55:43.621Z</time></trkpt><trkpt lat="45.3598289" lon="10.7368612"><ele>94.0</ele><time>2026-03-28T09:55:44.626Z</time></trkpt><trkpt lat="45.3597996" lon="10.7370512"><ele>94.0</ele><time>2026-03-28T09:55:45.624Z</time></trkpt><trkpt lat="45.3597891" lon="10.7372143"><ele>94.0</ele><time>2026-03-28T09:55:46.626Z</time></trkpt><trkpt lat="45.3597924" lon="10.7373704"><ele>94.0</ele><time>2026-03-28T09:55:47.633Z</time></trkpt><trkpt lat="45.359781" lon="10.7375211"><ele>94.0</ele><time>2026-03-28T09:55:48.622Z</time></trkpt><trkpt lat="45.359773" lon="10.7376513"><ele>94.0</ele><time>2026-03-28T09:55:49.622Z</time></trkpt><trkpt lat="45.3597593" lon="10.7377637"><ele>94.0</ele><time>2026-03-28T09:55:50.63Z</time></trkpt><trkpt lat="45.3597653" lon="10.7378561"><ele>93.80000000000001</ele><time>2026-03-28T09:55:51.629Z</time></trkpt><trkpt lat="45.3597465" lon="10.7380109"><ele>93.60000000000001</ele><time>2026-03-28T09:55:53.622Z</time></trkpt><trkpt lat="45.3597276" lon="10.7381071"><ele>93.4</ele><time>2026-03-28T09:55:54.609Z</time></trkpt><trkpt lat="45.3597107" lon="10.7382357"><ele>93.2</ele><time>2026-03-28T09:55:55.603Z</time></trkpt><trkpt lat="45.3597185" lon="10.7383752"><ele>93.0</ele><time>2026-03-28T09:55:56.612Z</time></trkpt><trkpt lat="45.3597454" lon="10.7385237"><ele>93.0</ele><time>2026-03-28T09:55:57.617Z</time></trkpt><trkpt lat="45.3597892" lon="10.7386687"><ele>93.0</ele><time>2026-03-28T09:55:58.621Z</time></trkpt><trkpt lat="45.3598258" lon="10.7387928"><ele>93.0</ele><time>2026-03-28T09:55:59.624Z</time></trkpt><trkpt lat="45.3598648" lon="10.738893"><ele>93.0</ele><time>2026-03-28T09:56:00.62Z</time></trkpt><trkpt lat="45.3598881" lon="10.739045"><ele>93.0</ele><time>2026-03-28T09:56:02.623Z</time></trkpt><trkpt lat="45.3599047" lon="10.7392224"><ele>93.0</ele><time>2026-03-28T09:56:04.628Z</time></trkpt><trkpt lat="45.3599691" lon="10.7392863"><ele>93.0</ele><time>2026-03-28T09:56:05.623Z</time></trkpt><trkpt lat="45.3600528" lon="10.7393257"><ele>93.0</ele><time>2026-03-28T09:56:06.624Z</time></trkpt><trkpt lat="45.3601424" lon="10.739362"><ele>93.0</ele><time>2026-03-28T09:56:07.623Z</time></trkpt><trkpt lat="45.360248" lon="10.73941"><ele>93.0</ele><time>2026-03-28T09:56:08.62Z</time></trkpt><trkpt lat="45.3603593" lon="10.739466"><ele>93.2</ele><time>2026-03-28T09:56:09.62Z</time></trkpt><trkpt lat="45.3604744" lon="10.7395346"><ele>93.4</ele><time>2026-03-28T09:56:10.623Z</time></trkpt><trkpt lat="45.3605703" lon="10.7395959"><ele>93.60000000000001</ele><time>2026-03-28T09:56:11.62Z</time></trkpt><trkpt lat="45.3606559" lon="10.7396371"><ele>93.80000000000001</ele><time>2026-03-28T09:56:12.619Z</time></trkpt><trkpt lat="45.3607245" lon="10.7396728"><ele>94.0</ele><time>2026-03-28T09:56:13.624Z</time></trkpt><trkpt lat="45.3607942" lon="10.7396858"><ele>94.4</ele><time>2026-03-28T09:56:14.621Z</time></trkpt><trkpt lat="45.3608646" lon="10.739731"><ele>94.80000000000001</ele><time>2026-03-28T09:56:15.615Z</time></trkpt><trkpt lat="45.3609323" lon="10.7398092"><ele>95.19999999999999</ele><time>2026-03-28T09:56:16.614Z</time></trkpt><trkpt lat="45.3609941" lon="10.7399188"><ele>95.6</ele><time>2026-03-28T09:56:17.619Z</time></trkpt><trkpt lat="45.3610501" lon="10.7400505"><ele>96.0</ele><time>2026-03-28T09:56:18.63Z</time></trkpt><trkpt lat="45.3611076" lon="10.740216"><ele>96.0</ele><time>2026-03-28T09:56:19.618Z</time></trkpt><trkpt lat="45.3611787" lon="10.7404094"><ele>96.0</ele><time>2026-03-28T09:56:20.618Z</time></trkpt><trkpt lat="45.3612751" lon="10.7406256"><ele>96.0</ele><time>2026-03-28T09:56:21.631Z</time></trkpt><trkpt lat="45.3613588" lon="10.7408205"><ele>95.5</ele><time>2026-03-28T09:56:22.628Z</time></trkpt><trkpt lat="45.3614345" lon="10.7410098"><ele>95.0</ele><time>2026-03-28T09:56:23.633Z</time></trkpt><trkpt lat="45.3615124" lon="10.7411858"><ele>94.5</ele><time>2026-03-28T09:56:24.634Z</time></trkpt><trkpt lat="45.3615747" lon="10.7413381"><ele>94.0</ele><time>2026-03-28T09:56:25.633Z</time></trkpt><trkpt lat="45.3616237" lon="10.7415293"><ele>93.33333333333333</ele><time>2026-03-28T09:56:26.642Z</time></trkpt><trkpt lat="45.3616859" lon="10.7417325"><ele>92.66666666666667</ele><time>2026-03-28T09:56:27.635Z</time></trkpt><trkpt lat="45.3617365" lon="10.741947"><ele>92.0</ele><time>2026-03-28T09:56:28.634Z</time></trkpt><trkpt lat="45.3617893" lon="10.7421797"><ele>92.0</ele><time>2026-03-28T09:56:29.639Z</time></trkpt><trkpt lat="45.3618387" lon="10.7423918"><ele>92.0</ele><time>2026-03-28T09:56:30.636Z</time></trkpt><trkpt lat="45.3619102" lon="10.7426176"><ele>92.0</ele><time>2026-03-28T09:56:31.637Z</time></trkpt><trkpt lat="45.3619518" lon="10.7428075"><ele>92.0</ele><time>2026-03-28T09:56:32.638Z</time></trkpt><trkpt lat="45.362004" lon="10.7430174"><ele>92.0</ele><time>2026-03-28T09:56:33.631Z</time></trkpt><trkpt lat="45.3620674" lon="10.7432417"><ele>92.0</ele><time>2026-03-28T09:56:34.641Z</time></trkpt><trkpt lat="45.3621332" lon="10.743458"><ele>91.66666666666667</ele><time>2026-03-28T09:56:35.631Z</time></trkpt><trkpt lat="45.3621965" lon="10.7436986"><ele>91.33333333333333</ele><time>2026-03-28T09:56:36.638Z</time></trkpt><trkpt lat="45.3622673" lon="10.7439405"><ele>91.0</ele><time>2026-03-28T09:56:37.629Z</time></trkpt><trkpt lat="45.3623585" lon="10.744213"><ele>91.66666666666666</ele><time>2026-03-28T09:56:38.626Z</time></trkpt><trkpt lat="45.362451" lon="10.7444787"><ele>92.33333333333333</ele><time>2026-03-28T09:56:39.638Z</time></trkpt><trkpt lat="45.3625438" lon="10.7447653"><ele>93.0</ele><time>2026-03-28T09:56:40.636Z</time></trkpt><trkpt lat="45.3626428" lon="10.7450806"><ele>93.0</ele><time>2026-03-28T09:56:41.636Z</time></trkpt><trkpt lat="45.3627564" lon="10.7453766"><ele>93.0</ele><time>2026-03-28T09:56:42.628Z</time></trkpt><trkpt lat="45.3628388" lon="10.7456326"><ele>93.0</ele><time>2026-03-28T09:56:43.63Z</time></trkpt><trkpt lat="45.3629183" lon="10.7459092"><ele>92.66666666666667</ele><time>2026-03-28T09:56:44.63Z</time></trkpt><trkpt lat="45.3629817" lon="10.7461633"><ele>92.33333333333334</ele><time>2026-03-28T09:56:45.634Z</time></trkpt><trkpt lat="45.3630471" lon="10.7463842"><ele>92.0</ele><time>2026-03-28T09:56:46.634Z</time></trkpt><trkpt lat="45.3631152" lon="10.7466085"><ele>92.0</ele><time>2026-03-28T09:56:47.635Z</time></trkpt><trkpt lat="45.3632096" lon="10.7468276"><ele>92.0</ele><time>2026-03-28T09:56:48.627Z</time></trkpt><trkpt lat="45.363328" lon="10.7470425"><ele>92.0</ele><time>2026-03-28T09:56:49.644Z</time></trkpt><trkpt lat="45.3634243" lon="10.7472322"><ele>92.0</ele><time>2026-03-28T09:56:50.635Z</time></trkpt><trkpt lat="45.3635303" lon="10.7474299"><ele>92.0</ele><time>2026-03-28T09:56:51.633Z</time></trkpt><trkpt lat="45.3636375" lon="10.7476074"><ele>92.0</ele><time>2026-03-28T09:56:52.638Z</time></trkpt><trkpt lat="45.3637402" lon="10.7477765"><ele>92.0</ele><time>2026-03-28T09:56:53.636Z</time></trkpt><trkpt lat="45.363847" lon="10.7479547"><ele>92.0</ele><time>2026-03-28T09:56:54.633Z</time></trkpt><trkpt lat="45.3639495" lon="10.7481562"><ele>92.0</ele><time>2026-03-28T09:56:55.644Z</time></trkpt><trkpt lat="45.3640391" lon="10.7483664"><ele>92.33333333333334</ele><time>2026-03-28T09:56:56.636Z</time></trkpt><trkpt lat="45.3641277" lon="10.7485902"><ele>92.66666666666667</ele><time>2026-03-28T09:56:57.632Z</time></trkpt><trkpt lat="45.3642261" lon="10.748817"><ele>93.0</ele><time>2026-03-28T09:56:58.638Z</time></trkpt><trkpt lat="45.3643191" lon="10.7490579"><ele>93.0</ele><time>2026-03-28T09:56:59.633Z</time></trkpt><trkpt lat="45.3644241" lon="10.7493101"><ele>93.0</ele><time>2026-03-28T09:57:00.638Z</time></trkpt><trkpt lat="45.3645365" lon="10.7495641"><ele>93.0</ele><time>2026-03-28T09:57:01.636Z</time></trkpt><trkpt lat="45.3646328" lon="10.7498043"><ele>94.0</ele><time>2026-03-28T09:57:02.631Z</time></trkpt><trkpt lat="45.3647179" lon="10.7500497"><ele>95.0</ele><time>2026-03-28T09:57:03.638Z</time></trkpt><trkpt lat="45.3648199" lon="10.7502827"><ele>96.0</ele><time>2026-03-28T09:57:04.637Z</time></trkpt><trkpt lat="45.3649115" lon="10.7504995"><ele>96.0</ele><time>2026-03-28T09:57:05.661Z</time></trkpt><trkpt lat="45.3650104" lon="10.7507227"><ele>96.0</ele><time>2026-03-28T09:57:06.639Z</time></trkpt><trkpt lat="45.3651141" lon="10.750942"><ele>96.0</ele><time>2026-03-28T09:57:07.636Z</time></trkpt><trkpt lat="45.3652111" lon="10.7511709"><ele>95.33333333333333</ele><time>2026-03-28T09:57:08.636Z</time></trkpt><trkpt lat="45.3653064" lon="10.7513581"><ele>94.66666666666666</ele><time>2026-03-28T09:57:09.638Z</time></trkpt><trkpt lat="45.3654003" lon="10.7515482"><ele>94.0</ele><time>2026-03-28T09:57:10.638Z</time></trkpt><trkpt lat="45.3655072" lon="10.7517407"><ele>94.0</ele><time>2026-03-28T09:57:11.637Z</time></trkpt><trkpt lat="45.36562" lon="10.751954"><ele>94.0</ele><time>2026-03-28T09:57:12.64Z</time></trkpt><trkpt lat="45.3657373" lon="10.7521673"><ele>94.0</ele><time>2026-03-28T09:57:13.634Z</time></trkpt><trkpt lat="45.3658369" lon="10.7523864"><ele>94.0</ele><time>2026-03-28T09:57:14.633Z</time></trkpt><trkpt lat="45.3659466" lon="10.7525966"><ele>94.0</ele><time>2026-03-28T09:57:15.653Z</time></trkpt><trkpt lat="45.3660551" lon="10.7528231"><ele>94.0</ele><time>2026-03-28T09:57:16.633Z</time></trkpt><trkpt lat="45.3661515" lon="10.7530551"><ele>94.0</ele><time>2026-03-28T09:57:17.633Z</time></trkpt><trkpt lat="45.3662475" lon="10.753295"><ele>94.0</ele><time>2026-03-28T09:57:18.631Z</time></trkpt><trkpt lat="45.3663464" lon="10.7535427"><ele>94.0</ele><time>2026-03-28T09:57:19.644Z</time></trkpt><trkpt lat="45.3664366" lon="10.7537831"><ele>93.66666666666666</ele><time>2026-03-28T09:57:20.636Z</time></trkpt><trkpt lat="45.3665301" lon="10.754047"><ele>93.33333333333333</ele><time>2026-03-28T09:57:21.637Z</time></trkpt><trkpt lat="45.3666185" lon="10.7542971"><ele>93.0</ele><time>2026-03-28T09:57:22.64Z</time></trkpt><trkpt lat="45.3667117" lon="10.7545426"><ele>93.33333333333333</ele><time>2026-03-28T09:57:23.643Z</time></trkpt><trkpt lat="45.3668121" lon="10.7547776"><ele>93.66666666666666</ele><time>2026-03-28T09:57:24.635Z</time></trkpt><trkpt lat="45.366912" lon="10.7550276"><ele>94.0</ele><time>2026-03-28T09:57:25.634Z</time></trkpt><trkpt lat="45.3670278" lon="10.75526"><ele>94.0</ele><time>2026-03-28T09:57:26.635Z</time></trkpt><trkpt lat="45.3671298" lon="10.75549"><ele>94.0</ele><time>2026-03-28T09:57:27.63Z</time></trkpt><trkpt lat="45.3672345" lon="10.755696"><ele>94.0</ele><time>2026-03-28T09:57:28.627Z</time></trkpt><trkpt lat="45.3673357" lon="10.7558927"><ele>94.25</ele><time>2026-03-28T09:57:29.631Z</time></trkpt><trkpt lat="45.3674292" lon="10.7560671"><ele>94.5</ele><time>2026-03-28T09:57:30.637Z</time></trkpt><trkpt lat="45.3675073" lon="10.7562469"><ele>94.75</ele><time>2026-03-28T09:57:31.637Z</time></trkpt><trkpt lat="45.3675807" lon="10.7564173"><ele>95.0</ele><time>2026-03-28T09:57:32.635Z</time></trkpt><trkpt lat="45.3676633" lon="10.7565828"><ele>95.0</ele><time>2026-03-28T09:57:33.638Z</time></trkpt><trkpt lat="45.3677405" lon="10.756735"><ele>95.0</ele><time>2026-03-28T09:57:34.632Z</time></trkpt><trkpt lat="45.3678112" lon="10.756861"><ele>95.0</ele><time>2026-03-28T09:57:35.634Z</time></trkpt><trkpt lat="45.3678693" lon="10.7570071"><ele>95.0</ele><time>2026-03-28T09:57:36.629Z</time></trkpt><trkpt lat="45.3678945" lon="10.7571652"><ele>95.25</ele><time>2026-03-28T09:57:37.617Z</time></trkpt><trkpt lat="45.3678866" lon="10.7573704"><ele>95.5</ele><time>2026-03-28T09:57:38.627Z</time></trkpt><trkpt lat="45.3678932" lon="10.7575764"><ele>95.75</ele><time>2026-03-28T09:57:39.624Z</time></trkpt><trkpt lat="45.3679108" lon="10.7577695"><ele>96.0</ele><time>2026-03-28T09:57:40.626Z</time></trkpt><trkpt lat="45.3679351" lon="10.7579439"><ele>96.25</ele><time>2026-03-28T09:57:41.631Z</time></trkpt><trkpt lat="45.3679759" lon="10.7581195"><ele>96.5</ele><time>2026-03-28T09:57:42.622Z</time></trkpt><trkpt lat="45.3679865" lon="10.7582614"><ele>96.75</ele><time>2026-03-28T09:57:43.634Z</time></trkpt><trkpt lat="45.3680238" lon="10.758425"><ele>97.0</ele><time>2026-03-28T09:57:44.632Z</time></trkpt><trkpt lat="45.3680628" lon="10.7586338"><ele>97.0</ele><time>2026-03-28T09:57:45.622Z</time></trkpt><trkpt lat="45.3680973" lon="10.7588643"><ele>97.0</ele><time>2026-03-28T09:57:46.623Z</time></trkpt><trkpt lat="45.3681171" lon="10.7590446"><ele>97.0</ele><time>2026-03-28T09:57:47.625Z</time></trkpt><trkpt lat="45.3681542" lon="10.7592279"><ele>97.0</ele><time>2026-03-28T09:57:48.626Z</time></trkpt><trkpt lat="45.3681878" lon="10.7594102"><ele>97.0</ele><time>2026-03-28T09:57:49.626Z</time></trkpt><trkpt lat="45.3682161" lon="10.7595972"><ele>97.0</ele><time>2026-03-28T09:57:50.63Z</time></trkpt><trkpt lat="45.3682358" lon="10.7597864"><ele>97.0</ele><time>2026-03-28T09:57:51.635Z</time></trkpt><trkpt lat="45.3682638" lon="10.7599754"><ele>97.0</ele><time>2026-03-28T09:57:52.63Z</time></trkpt><trkpt lat="45.3682861" lon="10.7601398"><ele>97.5</ele><time>2026-03-28T09:57:53.624Z</time></trkpt><trkpt lat="45.3683106" lon="10.7603169"><ele>98.0</ele><time>2026-03-28T09:57:54.637Z</time></trkpt><trkpt lat="45.3683337" lon="10.760484"><ele>98.5</ele><time>2026-03-28T09:57:55.625Z</time></trkpt><trkpt lat="45.3683842" lon="10.7606185"><ele>99.0</ele><time>2026-03-28T09:57:56.625Z</time></trkpt><trkpt lat="45.3684308" lon="10.7607566"><ele>99.0</ele><time>2026-03-28T09:57:57.627Z</time></trkpt><trkpt lat="45.3684694" lon="10.760895"><ele>99.0</ele><time>2026-03-28T09:57:58.625Z</time></trkpt><trkpt lat="45.3685147" lon="10.7610059"><ele>99.0</ele><time>2026-03-28T09:57:59.623Z</time></trkpt><trkpt lat="45.3685539" lon="10.7611304"><ele>99.0</ele><time>2026-03-28T09:58:00.628Z</time></trkpt><trkpt lat="45.3685903" lon="10.7612494"><ele>99.0</ele><time>2026-03-28T09:58:01.628Z</time></trkpt><trkpt lat="45.3686286" lon="10.7613828"><ele>98.5</ele><time>2026-03-28T09:58:02.631Z</time></trkpt><trkpt lat="45.3686771" lon="10.7615261"><ele>98.0</ele><time>2026-03-28T09:58:03.626Z</time></trkpt><trkpt lat="45.3687285" lon="10.7616706"><ele>97.5</ele><time>2026-03-28T09:58:04.624Z</time></trkpt><trkpt lat="45.3687719" lon="10.7618235"><ele>97.0</ele><time>2026-03-28T09:58:05.628Z</time></trkpt><trkpt lat="45.3688236" lon="10.7619928"><ele>97.66666666666667</ele><time>2026-03-28T09:58:06.635Z</time></trkpt><trkpt lat="45.3688821" lon="10.7621696"><ele>98.33333333333334</ele><time>2026-03-28T09:58:07.621Z</time></trkpt><trkpt lat="45.3689333" lon="10.762372"><ele>99.0</ele><time>2026-03-28T09:58:08.622Z</time></trkpt><trkpt lat="45.3689992" lon="10.7625838"><ele>98.0</ele><time>2026-03-28T09:58:09.628Z</time></trkpt><trkpt lat="45.3690637" lon="10.7627884"><ele>97.0</ele><time>2026-03-28T09:58:10.633Z</time></trkpt><trkpt lat="45.3691139" lon="10.7629935"><ele>96.0</ele><time>2026-03-28T09:58:11.629Z</time></trkpt><trkpt lat="45.3691612" lon="10.7632049"><ele>96.0</ele><time>2026-03-28T09:58:12.641Z</time></trkpt><trkpt lat="45.3692091" lon="10.7633919"><ele>96.0</ele><time>2026-03-28T09:58:13.631Z</time></trkpt><trkpt lat="45.369244" lon="10.763568"><ele>96.0</ele><time>2026-03-28T09:58:14.637Z</time></trkpt><trkpt lat="45.3692654" lon="10.7637548"><ele>96.0</ele><time>2026-03-28T09:58:15.63Z</time></trkpt><trkpt lat="45.3692724" lon="10.7639362"><ele>96.33333333333334</ele><time>2026-03-28T09:58:16.631Z</time></trkpt><trkpt lat="45.3692465" lon="10.764158"><ele>96.66666666666667</ele><time>2026-03-28T09:58:17.629Z</time></trkpt><trkpt lat="45.3692114" lon="10.7643787"><ele>97.0</ele><time>2026-03-28T09:58:18.642Z</time></trkpt><trkpt lat="45.3691895" lon="10.7645763"><ele>97.0</ele><time>2026-03-28T09:58:19.635Z</time></trkpt><trkpt lat="45.3691946" lon="10.7647565"><ele>97.0</ele><time>2026-03-28T09:58:20.639Z</time></trkpt><trkpt lat="45.3692113" lon="10.7649384"><ele>97.0</ele><time>2026-03-28T09:58:21.638Z</time></trkpt><trkpt lat="45.3692174" lon="10.7650981"><ele>97.0</ele><time>2026-03-28T09:58:22.635Z</time></trkpt><trkpt lat="45.3692144" lon="10.7652314"><ele>97.0</ele><time>2026-03-28T09:58:23.639Z</time></trkpt><trkpt lat="45.3691468" lon="10.7655358"><ele>97.0</ele><time>2026-03-28T09:58:25.628Z</time></trkpt><trkpt lat="45.3690866" lon="10.7657043"><ele>97.0</ele><time>2026-03-28T09:58:26.632Z</time></trkpt><trkpt lat="45.3690063" lon="10.7659072"><ele>97.33333333333334</ele><time>2026-03-28T09:58:27.633Z</time></trkpt><trkpt lat="45.3689144" lon="10.7661354"><ele>97.66666666666666</ele><time>2026-03-28T09:58:28.638Z</time></trkpt><trkpt lat="45.3688198" lon="10.7663884"><ele>98.0</ele><time>2026-03-28T09:58:29.635Z</time></trkpt><trkpt lat="45.3687345" lon="10.7666561"><ele>96.33333333333333</ele><time>2026-03-28T09:58:30.634Z</time></trkpt><trkpt lat="45.3686525" lon="10.7669233"><ele>94.66666666666666</ele><time>2026-03-28T09:58:31.641Z</time></trkpt><trkpt lat="45.3685906" lon="10.7671373"><ele>93.0</ele><time>2026-03-28T09:58:32.641Z</time></trkpt><trkpt lat="45.3685293" lon="10.7673762"><ele>93.0</ele><time>2026-03-28T09:58:33.637Z</time></trkpt><trkpt lat="45.3684746" lon="10.7676113"><ele>93.0</ele><time>2026-03-28T09:58:34.637Z</time></trkpt><trkpt lat="45.3684304" lon="10.7678274"><ele>93.0</ele><time>2026-03-28T09:58:35.632Z</time></trkpt><trkpt lat="45.3683937" lon="10.7680492"><ele>93.0</ele><time>2026-03-28T09:58:36.627Z</time></trkpt><trkpt lat="45.3683578" lon="10.7682832"><ele>93.0</ele><time>2026-03-28T09:58:37.641Z</time></trkpt><trkpt lat="45.3683344" lon="10.7685179"><ele>93.0</ele><time>2026-03-28T09:58:38.627Z</time></trkpt><trkpt lat="45.3683185" lon="10.768778"><ele>93.33333333333333</ele><time>2026-03-28T09:58:39.631Z</time></trkpt><trkpt lat="45.3683149" lon="10.7690125"><ele>93.66666666666666</ele><time>2026-03-28T09:58:40.634Z</time></trkpt><trkpt lat="45.3683047" lon="10.7692275"><ele>94.0</ele><time>2026-03-28T09:58:41.637Z</time></trkpt><trkpt lat="45.3682917" lon="10.7694353"><ele>94.33333333333333</ele><time>2026-03-28T09:58:42.633Z</time></trkpt><trkpt lat="45.3682822" lon="10.7696596"><ele>94.66666666666667</ele><time>2026-03-28T09:58:43.628Z</time></trkpt><trkpt lat="45.3682923" lon="10.7698944"><ele>95.0</ele><time>2026-03-28T09:58:44.634Z</time></trkpt><trkpt lat="45.3683109" lon="10.7701273"><ele>95.0</ele><time>2026-03-28T09:58:45.641Z</time></trkpt><trkpt lat="45.3683167" lon="10.7703548"><ele>95.0</ele><time>2026-03-28T09:58:46.639Z</time></trkpt><trkpt lat="45.3682995" lon="10.7705797"><ele>95.0</ele><time>2026-03-28T09:58:47.634Z</time></trkpt><trkpt lat="45.3682766" lon="10.7708054"><ele>95.0</ele><time>2026-03-28T09:58:48.627Z</time></trkpt><trkpt lat="45.3682372" lon="10.771014"><ele>95.0</ele><time>2026-03-28T09:58:49.632Z</time></trkpt><trkpt lat="45.3681935" lon="10.7712133"><ele>95.0</ele><time>2026-03-28T09:58:50.632Z</time></trkpt><trkpt lat="45.3681464" lon="10.7713994"><ele>95.0</ele><time>2026-03-28T09:58:51.641Z</time></trkpt><trkpt lat="45.3680951" lon="10.7716024"><ele>95.66666666666667</ele><time>2026-03-28T09:58:52.642Z</time></trkpt><trkpt lat="45.3680308" lon="10.7718158"><ele>96.33333333333334</ele><time>2026-03-28T09:58:53.633Z</time></trkpt><trkpt lat="45.3679534" lon="10.7720277"><ele>97.0</ele><time>2026-03-28T09:58:54.639Z</time></trkpt><trkpt lat="45.367893" lon="10.7722598"><ele>95.33333333333334</ele><time>2026-03-28T09:58:55.637Z</time></trkpt><trkpt lat="45.3678521" lon="10.772507"><ele>93.66666666666667</ele><time>2026-03-28T09:58:56.626Z</time></trkpt><trkpt lat="45.3678099" lon="10.772746"><ele>92.0</ele><time>2026-03-28T09:58:57.639Z</time></trkpt><trkpt lat="45.3677816" lon="10.772966"><ele>91.75</ele><time>2026-03-28T09:58:58.637Z</time></trkpt><trkpt lat="45.3677613" lon="10.7731767"><ele>91.5</ele><time>2026-03-28T09:58:59.637Z</time></trkpt><trkpt lat="45.3677529" lon="10.7733727"><ele>91.25</ele><time>2026-03-28T09:59:00.643Z</time></trkpt><trkpt lat="45.3677264" lon="10.7735802"><ele>91.0</ele><time>2026-03-28T09:59:01.645Z</time></trkpt><trkpt lat="45.3677024" lon="10.7738014"><ele>92.0</ele><time>2026-03-28T09:59:02.638Z</time></trkpt><trkpt lat="45.3676742" lon="10.7740215"><ele>93.0</ele><time>2026-03-28T09:59:03.643Z</time></trkpt><trkpt lat="45.3676534" lon="10.7742521"><ele>94.0</ele><time>2026-03-28T09:59:04.642Z</time></trkpt><trkpt lat="45.3676363" lon="10.774484"><ele>94.0</ele><time>2026-03-28T09:59:05.63Z</time></trkpt><trkpt lat="45.3675863" lon="10.7747398"><ele>94.0</ele><time>2026-03-28T09:59:06.645Z</time></trkpt><trkpt lat="45.3675544" lon="10.7750016"><ele>94.0</ele><time>2026-03-28T09:59:07.641Z</time></trkpt><trkpt lat="45.3675292" lon="10.7752623"><ele>94.0</ele><time>2026-03-28T09:59:08.649Z</time></trkpt><trkpt lat="45.3675111" lon="10.7755202"><ele>94.0</ele><time>2026-03-28T09:59:09.634Z</time></trkpt><trkpt lat="45.3674905" lon="10.7757691"><ele>94.0</ele><time>2026-03-28T09:59:10.631Z</time></trkpt><trkpt lat="45.367468" lon="10.7759877"><ele>94.25</ele><time>2026-03-28T09:59:11.632Z</time></trkpt><trkpt lat="45.3674482" lon="10.7762016"><ele>94.5</ele><time>2026-03-28T09:59:12.628Z</time></trkpt><trkpt lat="45.3674318" lon="10.7763783"><ele>94.75</ele><time>2026-03-28T09:59:13.633Z</time></trkpt><trkpt lat="45.3674208" lon="10.7765302"><ele>95.0</ele><time>2026-03-28T09:59:14.632Z</time></trkpt><trkpt lat="45.3674151" lon="10.7767018"><ele>94.5</ele><time>2026-03-28T09:59:15.626Z</time></trkpt><trkpt lat="45.3674168" lon="10.7768794"><ele>94.0</ele><time>2026-03-28T09:59:16.636Z</time></trkpt><trkpt lat="45.3674085" lon="10.777053"><ele>93.5</ele><time>2026-03-28T09:59:17.633Z</time></trkpt><trkpt lat="45.3674202" lon="10.7772068"><ele>93.0</ele><time>2026-03-28T09:59:18.632Z</time></trkpt><trkpt lat="45.3674325" lon="10.777348"><ele>93.0</ele><time>2026-03-28T09:59:19.636Z</time></trkpt><trkpt lat="45.3674454" lon="10.7774863"><ele>93.0</ele><time>2026-03-28T09:59:20.632Z</time></trkpt><trkpt lat="45.36746" lon="10.7776352"><ele>93.0</ele><time>2026-03-28T09:59:21.639Z</time></trkpt><trkpt lat="45.3674813" lon="10.7777947"><ele>93.0</ele><time>2026-03-28T09:59:22.634Z</time></trkpt><trkpt lat="45.3675055" lon="10.7779607"><ele>93.0</ele><time>2026-03-28T09:59:23.643Z</time></trkpt><trkpt lat="45.3675267" lon="10.7781305"><ele>92.25</ele><time>2026-03-28T09:59:24.629Z</time></trkpt><trkpt lat="45.3675311" lon="10.7783004"><ele>91.5</ele><time>2026-03-28T09:59:25.633Z</time></trkpt><trkpt lat="45.3675128" lon="10.7784767"><ele>90.75</ele><time>2026-03-28T09:59:26.623Z</time></trkpt><trkpt lat="45.367473" lon="10.7786614"><ele>90.0</ele><time>2026-03-28T09:59:27.631Z</time></trkpt><trkpt lat="45.3674179" lon="10.7788539"><ele>89.5</ele><time>2026-03-28T09:59:28.626Z</time></trkpt><trkpt lat="45.3673657" lon="10.7790498"><ele>89.0</ele><time>2026-03-28T09:59:29.63Z</time></trkpt><trkpt lat="45.3673143" lon="10.7792193"><ele>88.5</ele><time>2026-03-28T09:59:30.62Z</time></trkpt><trkpt lat="45.3672835" lon="10.7793543"><ele>88.0</ele><time>2026-03-28T09:59:31.632Z</time></trkpt><trkpt lat="45.3672632" lon="10.779455"><ele>87.80000000000001</ele><time>2026-03-28T09:59:32.627Z</time></trkpt><trkpt lat="45.367252" lon="10.7795812"><ele>87.6</ele><time>2026-03-28T09:59:34.627Z</time></trkpt><trkpt lat="45.3672904" lon="10.7796533"><ele>87.4</ele><time>2026-03-28T09:59:36.628Z</time></trkpt><trkpt lat="45.3673927" lon="10.7797138"><ele>87.19999999999999</ele><time>2026-03-28T09:59:38.624Z</time></trkpt><trkpt lat="45.3674697" lon="10.7797144"><ele>87.0</ele><time>2026-03-28T09:59:39.621Z</time></trkpt><trkpt lat="45.367585" lon="10.7797268"><ele>87.0</ele><time>2026-03-28T09:59:40.615Z</time></trkpt><trkpt lat="45.3677144" lon="10.7797561"><ele>87.0</ele><time>2026-03-28T09:59:41.61Z</time></trkpt><trkpt lat="45.3678637" lon="10.7798061"><ele>87.0</ele><time>2026-03-28T09:59:42.605Z</time></trkpt><trkpt lat="45.368016" lon="10.7798734"><ele>87.0</ele><time>2026-03-28T09:59:43.606Z</time></trkpt><trkpt lat="45.3681885" lon="10.7799371"><ele>88.33333333333333</ele><time>2026-03-28T09:59:44.619Z</time></trkpt><trkpt lat="45.3683637" lon="10.7799998"><ele>89.66666666666666</ele><time>2026-03-28T09:59:45.61Z</time></trkpt><trkpt lat="45.3685363" lon="10.7800618"><ele>91.0</ele><time>2026-03-28T09:59:46.617Z</time></trkpt><trkpt lat="45.3686957" lon="10.7801309"><ele>91.0</ele><time>2026-03-28T09:59:47.611Z</time></trkpt><trkpt lat="45.3688553" lon="10.7801897"><ele>91.0</ele><time>2026-03-28T09:59:48.611Z</time></trkpt><trkpt lat="45.3690109" lon="10.7802508"><ele>91.0</ele><time>2026-03-28T09:59:49.613Z</time></trkpt><trkpt lat="45.3691799" lon="10.7803046"><ele>91.25</ele><time>2026-03-28T09:59:50.617Z</time></trkpt><trkpt lat="45.3693247" lon="10.7803646"><ele>91.5</ele><time>2026-03-28T09:59:51.614Z</time></trkpt><trkpt lat="45.3694458" lon="10.7804228"><ele>91.75</ele><time>2026-03-28T09:59:52.611Z</time></trkpt><trkpt lat="45.3695731" lon="10.7804654"><ele>92.0</ele><time>2026-03-28T09:59:53.612Z</time></trkpt><trkpt lat="45.3696918" lon="10.7805197"><ele>92.8</ele><time>2026-03-28T09:59:54.615Z</time></trkpt><trkpt lat="45.3698085" lon="10.780571"><ele>93.6</ele><time>2026-03-28T09:59:55.619Z</time></trkpt><trkpt lat="45.3698942" lon="10.780641"><ele>94.39999999999999</ele><time>2026-03-28T09:59:56.591Z</time></trkpt><trkpt lat="45.369989" lon="10.7807244"><ele>95.19999999999999</ele><time>2026-03-28T09:59:57.59Z</time></trkpt><trkpt lat="45.3700657" lon="10.7808319"><ele>96.0</ele><time>2026-03-28T09:59:58.609Z</time></trkpt><trkpt lat="45.3701373" lon="10.780944"><ele>95.19999999999999</ele><time>2026-03-28T09:59:59.593Z</time></trkpt><trkpt lat="45.3702013" lon="10.7810743"><ele>94.39999999999999</ele><time>2026-03-28T10:00:00.595Z</time></trkpt><trkpt lat="45.3702541" lon="10.7811856"><ele>93.6</ele><time>2026-03-28T10:00:01.605Z</time></trkpt><trkpt lat="45.3703215" lon="10.7812651"><ele>92.8</ele><time>2026-03-28T10:00:02.606Z</time></trkpt><trkpt lat="45.3704168" lon="10.7813274"><ele>92.0</ele><time>2026-03-28T10:00:03.59Z</time></trkpt><trkpt lat="45.3705198" lon="10.7813663"><ele>91.6</ele><time>2026-03-28T10:00:04.606Z</time></trkpt><trkpt lat="45.3706269" lon="10.7814006"><ele>91.19999999999999</ele><time>2026-03-28T10:00:05.607Z</time></trkpt><trkpt lat="45.3707272" lon="10.7814207"><ele>90.8</ele><time>2026-03-28T10:00:06.601Z</time></trkpt><trkpt lat="45.3708205" lon="10.7814479"><ele>90.4</ele><time>2026-03-28T10:00:07.603Z</time></trkpt><trkpt lat="45.3709178" lon="10.7814962"><ele>90.0</ele><time>2026-03-28T10:00:08.606Z</time></trkpt><trkpt lat="45.3710106" lon="10.7815496"><ele>90.0</ele><time>2026-03-28T10:00:09.603Z</time></trkpt><trkpt lat="45.3710915" lon="10.7816147"><ele>90.0</ele><time>2026-03-28T10:00:10.603Z</time></trkpt><trkpt lat="45.3711708" lon="10.7816882"><ele>90.0</ele><time>2026-03-28T10:00:11.604Z</time></trkpt><trkpt lat="45.3712518" lon="10.7817789"><ele>90.0</ele><time>2026-03-28T10:00:12.605Z</time></trkpt><trkpt lat="45.3713328" lon="10.7818781"><ele>90.0</ele><time>2026-03-28T10:00:13.603Z</time></trkpt><trkpt lat="45.3714094" lon="10.7819869"><ele>89.4</ele><time>2026-03-28T10:00:14.607Z</time></trkpt><trkpt lat="45.3714928" lon="10.7820892"><ele>88.8</ele><time>2026-03-28T10:00:15.597Z</time></trkpt><trkpt lat="45.3715723" lon="10.7821674"><ele>88.19999999999999</ele><time>2026-03-28T10:00:16.599Z</time></trkpt><trkpt lat="45.3716424" lon="10.7822252"><ele>87.6</ele><time>2026-03-28T10:00:17.602Z</time></trkpt><trkpt lat="45.3716992" lon="10.7822823"><ele>87.0</ele><time>2026-03-28T10:00:18.61Z</time></trkpt><trkpt lat="45.3718214" lon="10.7823516"><ele>87.0</ele><time>2026-03-28T10:00:20.602Z</time></trkpt><trkpt lat="45.3719021" lon="10.7824125"><ele>87.0</ele><time>2026-03-28T10:00:21.605Z</time></trkpt><trkpt lat="45.371993" lon="10.7824903"><ele>87.0</ele><time>2026-03-28T10:00:22.598Z</time></trkpt><trkpt lat="45.3720807" lon="10.7825768"><ele>87.0</ele><time>2026-03-28T10:00:23.599Z</time></trkpt><trkpt lat="45.372162" lon="10.7826507"><ele>87.0</ele><time>2026-03-28T10:00:24.601Z</time></trkpt><trkpt lat="45.3722416" lon="10.7827394"><ele>85.25</ele><time>2026-03-28T10:00:25.608Z</time></trkpt><trkpt lat="45.3723211" lon="10.782841"><ele>83.5</ele><time>2026-03-28T10:00:26.599Z</time></trkpt><trkpt lat="45.3724045" lon="10.7829408"><ele>81.75</ele><time>2026-03-28T10:00:27.607Z</time></trkpt><trkpt lat="45.3724854" lon="10.7830598"><ele>80.0</ele><time>2026-03-28T10:00:28.599Z</time></trkpt><trkpt lat="45.3725764" lon="10.7831785"><ele>80.0</ele><time>2026-03-28T10:00:29.6Z</time></trkpt><trkpt lat="45.3726722" lon="10.783292"><ele>80.0</ele><time>2026-03-28T10:00:30.597Z</time></trkpt><trkpt lat="45.3727608" lon="10.7833925"><ele>80.0</ele><time>2026-03-28T10:00:31.605Z</time></trkpt><trkpt lat="45.3728491" lon="10.783485"><ele>80.0</ele><time>2026-03-28T10:00:32.598Z</time></trkpt><trkpt lat="45.3729333" lon="10.7835647"><ele>80.0</ele><time>2026-03-28T10:00:33.606Z</time></trkpt><trkpt lat="45.3730276" lon="10.7836438"><ele>77.5</ele><time>2026-03-28T10:00:34.6Z</time></trkpt><trkpt lat="45.3731257" lon="10.7837202"><ele>75.0</ele><time>2026-03-28T10:00:35.604Z</time></trkpt><trkpt lat="45.3732267" lon="10.7837789"><ele>72.5</ele><time>2026-03-28T10:00:36.604Z</time></trkpt><trkpt lat="45.37334" lon="10.7838192"><ele>70.0</ele><time>2026-03-28T10:00:37.599Z</time></trkpt><trkpt lat="45.373472" lon="10.7838368"><ele>70.0</ele><time>2026-03-28T10:00:38.6Z</time></trkpt><trkpt lat="45.3736078" lon="10.783844"><ele>70.0</ele><time>2026-03-28T10:00:39.604Z</time></trkpt><trkpt lat="45.3737524" lon="10.7838354"><ele>70.0</ele><time>2026-03-28T10:00:40.61Z</time></trkpt><trkpt lat="45.3738957" lon="10.7838121"><ele>70.0</ele><time>2026-03-28T10:00:41.602Z</time></trkpt><trkpt lat="45.3740223" lon="10.7838299"><ele>70.0</ele><time>2026-03-28T10:00:42.602Z</time></trkpt><trkpt lat="45.3741249" lon="10.7838354"><ele>70.0</ele><time>2026-03-28T10:00:43.613Z</time></trkpt><trkpt lat="45.3742118" lon="10.7838395"><ele>70.0</ele><time>2026-03-28T10:00:44.604Z</time></trkpt><trkpt lat="45.3742987" lon="10.7838418"><ele>70.0</ele><time>2026-03-28T10:00:45.61Z</time></trkpt><trkpt lat="45.3744058" lon="10.783857"><ele>70.0</ele><time>2026-03-28T10:00:47.604Z</time></trkpt><trkpt lat="45.3744893" lon="10.7838441"><ele>70.0</ele><time>2026-03-28T10:00:49.615Z</time></trkpt><trkpt lat="45.3745536" lon="10.7837868"><ele>70.0</ele><time>2026-03-28T10:00:51.624Z</time></trkpt><trkpt lat="45.3746036" lon="10.783708"><ele>70.0</ele><time>2026-03-28T10:00:52.611Z</time></trkpt><trkpt lat="45.3746576" lon="10.7835933"><ele>70.0</ele><time>2026-03-28T10:00:53.603Z</time></trkpt><trkpt lat="45.3747388" lon="10.7834542"><ele>70.0</ele><time>2026-03-28T10:00:54.599Z</time></trkpt><trkpt lat="45.3748366" lon="10.7833166"><ele>70.33333333333333</ele><time>2026-03-28T10:00:55.6Z</time></trkpt><trkpt lat="45.3749632" lon="10.7831827"><ele>70.66666666666667</ele><time>2026-03-28T10:00:56.605Z</time></trkpt><trkpt lat="45.3751146" lon="10.7830719"><ele>71.0</ele><time>2026-03-28T10:00:57.59Z</time></trkpt><trkpt lat="45.375285" lon="10.7830201"><ele>71.0</ele><time>2026-03-28T10:00:58.594Z</time></trkpt><trkpt lat="45.3754417" lon="10.7829932"><ele>71.0</ele><time>2026-03-28T10:00:59.593Z</time></trkpt><trkpt lat="45.3756011" lon="10.7829484"><ele>71.0</ele><time>2026-03-28T10:01:00.594Z</time></trkpt><trkpt lat="45.3757602" lon="10.7829051"><ele>70.33333333333334</ele><time>2026-03-28T10:01:01.604Z</time></trkpt><trkpt lat="45.3759189" lon="10.7828314"><ele>69.66666666666667</ele><time>2026-03-28T10:01:02.594Z</time></trkpt><trkpt lat="45.3760593" lon="10.7827258"><ele>69.0</ele><time>2026-03-28T10:01:03.594Z</time></trkpt><trkpt lat="45.3761738" lon="10.7826094"><ele>69.33333333333333</ele><time>2026-03-28T10:01:04.594Z</time></trkpt><trkpt lat="45.3762662" lon="10.7824467"><ele>69.66666666666666</ele><time>2026-03-28T10:01:05.589Z</time></trkpt><trkpt lat="45.3763742" lon="10.7822672"><ele>70.0</ele><time>2026-03-28T10:01:06.595Z</time></trkpt><trkpt lat="45.3764822" lon="10.7820448"><ele>71.33333333333333</ele><time>2026-03-28T10:01:07.597Z</time></trkpt><trkpt lat="45.3765715" lon="10.7818185"><ele>72.66666666666667</ele><time>2026-03-28T10:01:08.604Z</time></trkpt><trkpt lat="45.3766611" lon="10.7815821"><ele>74.0</ele><time>2026-03-28T10:01:09.608Z</time></trkpt><trkpt lat="45.376732" lon="10.7813717"><ele>74.0</ele><time>2026-03-28T10:01:10.611Z</time></trkpt><trkpt lat="45.376804" lon="10.7811664"><ele>74.0</ele><time>2026-03-28T10:01:11.614Z</time></trkpt><trkpt lat="45.3768747" lon="10.7809343"><ele>74.0</ele><time>2026-03-28T10:01:12.614Z</time></trkpt><trkpt lat="45.3769278" lon="10.7806936"><ele>74.66666666666667</ele><time>2026-03-28T10:01:13.607Z</time></trkpt><trkpt lat="45.3769616" lon="10.7804474"><ele>75.33333333333333</ele><time>2026-03-28T10:01:14.622Z</time></trkpt><trkpt lat="45.3769867" lon="10.7801957"><ele>76.0</ele><time>2026-03-28T10:01:15.615Z</time></trkpt><trkpt lat="45.3770263" lon="10.779947"><ele>76.33333333333333</ele><time>2026-03-28T10:01:16.617Z</time></trkpt><trkpt lat="45.377074" lon="10.7797135"><ele>76.66666666666667</ele><time>2026-03-28T10:01:17.608Z</time></trkpt><trkpt lat="45.3771323" lon="10.779482"><ele>77.0</ele><time>2026-03-28T10:01:18.606Z</time></trkpt><trkpt lat="45.3771999" lon="10.7792393"><ele>77.0</ele><time>2026-03-28T10:01:19.603Z</time></trkpt><trkpt lat="45.3772645" lon="10.7790052"><ele>77.0</ele><time>2026-03-28T10:01:20.602Z</time></trkpt><trkpt lat="45.3773341" lon="10.7787723"><ele>77.0</ele><time>2026-03-28T10:01:21.603Z</time></trkpt><trkpt lat="45.3774063" lon="10.77855"><ele>77.66666666666667</ele><time>2026-03-28T10:01:22.607Z</time></trkpt><trkpt lat="45.3774792" lon="10.7783256"><ele>78.33333333333333</ele><time>2026-03-28T10:01:23.604Z</time></trkpt><trkpt lat="45.3775401" lon="10.7781281"><ele>79.0</ele><time>2026-03-28T10:01:24.605Z</time></trkpt><trkpt lat="45.3776174" lon="10.7779334"><ele>79.0</ele><time>2026-03-28T10:01:25.604Z</time></trkpt><trkpt lat="45.3776941" lon="10.7777449"><ele>79.0</ele><time>2026-03-28T10:01:26.598Z</time></trkpt><trkpt lat="45.3777782" lon="10.7775813"><ele>79.0</ele><time>2026-03-28T10:01:27.607Z</time></trkpt><trkpt lat="45.3778411" lon="10.7774434"><ele>79.0</ele><time>2026-03-28T10:01:28.595Z</time></trkpt><trkpt lat="45.3779007" lon="10.7773222"><ele>78.2</ele><time>2026-03-28T10:01:29.591Z</time></trkpt><trkpt lat="45.377952" lon="10.7772397"><ele>77.4</ele><time>2026-03-28T10:01:30.606Z</time></trkpt><trkpt lat="45.3780044" lon="10.7771808"><ele>76.6</ele><time>2026-03-28T10:01:31.604Z</time></trkpt><trkpt lat="45.3780974" lon="10.7771381"><ele>75.8</ele><time>2026-03-28T10:01:32.6Z</time></trkpt><trkpt lat="45.3782005" lon="10.77713"><ele>75.0</ele><time>2026-03-28T10:01:33.596Z</time></trkpt><trkpt lat="45.3783068" lon="10.7771787"><ele>75.0</ele><time>2026-03-28T10:01:34.596Z</time></trkpt><trkpt lat="45.3784269" lon="10.7772501"><ele>75.0</ele><time>2026-03-28T10:01:35.598Z</time></trkpt><trkpt lat="45.3785458" lon="10.7773367"><ele>75.0</ele><time>2026-03-28T10:01:36.594Z</time></trkpt><trkpt lat="45.3786581" lon="10.777404"><ele>75.0</ele><time>2026-03-28T10:01:37.603Z</time></trkpt><trkpt lat="45.3787678" lon="10.7774193"><ele>74.5</ele><time>2026-03-28T10:01:38.6Z</time></trkpt><trkpt lat="45.3788803" lon="10.7773862"><ele>74.0</ele><time>2026-03-28T10:01:39.606Z</time></trkpt><trkpt lat="45.37901" lon="10.7773066"><ele>73.5</ele><time>2026-03-28T10:01:40.592Z</time></trkpt><trkpt lat="45.3791546" lon="10.7772027"><ele>73.0</ele><time>2026-03-28T10:01:41.595Z</time></trkpt><trkpt lat="45.3793185" lon="10.7770752"><ele>73.0</ele><time>2026-03-28T10:01:42.598Z</time></trkpt><trkpt lat="45.3794722" lon="10.7769611"><ele>73.0</ele><time>2026-03-28T10:01:43.608Z</time></trkpt><trkpt lat="45.3796272" lon="10.7768488"><ele>73.0</ele><time>2026-03-28T10:01:44.607Z</time></trkpt><trkpt lat="45.3797908" lon="10.7767229"><ele>74.33333333333333</ele><time>2026-03-28T10:01:45.611Z</time></trkpt><trkpt lat="45.3799475" lon="10.7765917"><ele>75.66666666666667</ele><time>2026-03-28T10:01:46.61Z</time></trkpt><trkpt lat="45.3801063" lon="10.7764565"><ele>77.0</ele><time>2026-03-28T10:01:47.616Z</time></trkpt><trkpt lat="45.3802676" lon="10.7763475"><ele>77.0</ele><time>2026-03-28T10:01:48.606Z</time></trkpt><trkpt lat="45.3804378" lon="10.7762542"><ele>77.0</ele><time>2026-03-28T10:01:49.606Z</time></trkpt><trkpt lat="45.3806344" lon="10.7761797"><ele>77.0</ele><time>2026-03-28T10:01:50.613Z</time></trkpt><trkpt lat="45.3808254" lon="10.7761006"><ele>77.66666666666667</ele><time>2026-03-28T10:01:51.618Z</time></trkpt><trkpt lat="45.3809988" lon="10.7760194"><ele>78.33333333333333</ele><time>2026-03-28T10:01:52.618Z</time></trkpt><trkpt lat="45.3811837" lon="10.7759214"><ele>79.0</ele><time>2026-03-28T10:01:53.613Z</time></trkpt><trkpt lat="45.3813351" lon="10.7758449"><ele>79.0</ele><time>2026-03-28T10:01:54.616Z</time></trkpt><trkpt lat="45.3814791" lon="10.7757569"><ele>79.0</ele><time>2026-03-28T10:01:55.622Z</time></trkpt><trkpt lat="45.3815982" lon="10.775677"><ele>79.0</ele><time>2026-03-28T10:01:56.614Z</time></trkpt><trkpt lat="45.381707" lon="10.775599"><ele>79.0</ele><time>2026-03-28T10:01:57.619Z</time></trkpt><trkpt lat="45.3818001" lon="10.7755162"><ele>79.0</ele><time>2026-03-28T10:01:58.612Z</time></trkpt><trkpt lat="45.3818669" lon="10.7754393"><ele>79.0</ele><time>2026-03-28T10:01:59.603Z</time></trkpt><trkpt lat="45.3819034" lon="10.7753388"><ele>79.0</ele><time>2026-03-28T10:02:00.602Z</time></trkpt><trkpt lat="45.3819174" lon="10.7752017"><ele>79.0</ele><time>2026-03-28T10:02:01.603Z</time></trkpt><trkpt lat="45.3819059" lon="10.7750666"><ele>79.0</ele><time>2026-03-28T10:02:02.615Z</time></trkpt><trkpt lat="45.3818628" lon="10.7749223"><ele>80.5</ele><time>2026-03-28T10:02:03.601Z</time></trkpt><trkpt lat="45.3818083" lon="10.7747798"><ele>82.0</ele><time>2026-03-28T10:02:04.604Z</time></trkpt><trkpt lat="45.3817525" lon="10.7746038"><ele>83.5</ele><time>2026-03-28T10:02:05.61Z</time></trkpt><trkpt lat="45.3816997" lon="10.7744304"><ele>85.0</ele><time>2026-03-28T10:02:06.605Z</time></trkpt><trkpt lat="45.3816613" lon="10.7742588"><ele>87.5</ele><time>2026-03-28T10:02:07.615Z</time></trkpt><trkpt lat="45.3816429" lon="10.774075"><ele>90.0</ele><time>2026-03-28T10:02:08.606Z</time></trkpt><trkpt lat="45.3816462" lon="10.7738759"><ele>92.5</ele><time>2026-03-28T10:02:09.61Z</time></trkpt><trkpt lat="45.3816571" lon="10.773662"><ele>95.0</ele><time>2026-03-28T10:02:10.608Z</time></trkpt><trkpt lat="45.3816519" lon="10.7734703"><ele>96.0</ele><time>2026-03-28T10:02:11.608Z</time></trkpt><trkpt lat="45.3816445" lon="10.7732937"><ele>97.0</ele><time>2026-03-28T10:02:12.616Z</time></trkpt><trkpt lat="45.3816606" lon="10.7731302"><ele>98.0</ele><time>2026-03-28T10:02:13.613Z</time></trkpt><trkpt lat="45.3816801" lon="10.7729603"><ele>99.0</ele><time>2026-03-28T10:02:14.612Z</time></trkpt><trkpt lat="45.3817053" lon="10.7727916"><ele>99.25</ele><time>2026-03-28T10:02:15.607Z</time></trkpt><trkpt lat="45.3817604" lon="10.7726085"><ele>99.5</ele><time>2026-03-28T10:02:16.613Z</time></trkpt><trkpt lat="45.3818191" lon="10.7724158"><ele>99.75</ele><time>2026-03-28T10:02:17.604Z</time></trkpt><trkpt lat="45.3818726" lon="10.7722562"><ele>100.0</ele><time>2026-03-28T10:02:18.604Z</time></trkpt><trkpt lat="45.3819236" lon="10.7721175"><ele>100.0</ele><time>2026-03-28T10:02:19.614Z</time></trkpt><trkpt lat="45.3819773" lon="10.7719538"><ele>100.0</ele><time>2026-03-28T10:02:20.605Z</time></trkpt><trkpt lat="45.3820356" lon="10.7717847"><ele>100.0</ele><time>2026-03-28T10:02:21.614Z</time></trkpt><trkpt lat="45.3820932" lon="10.7716181"><ele>100.0</ele><time>2026-03-28T10:02:22.61Z</time></trkpt><trkpt lat="45.3821512" lon="10.7714647"><ele>102.25</ele><time>2026-03-28T10:02:23.606Z</time></trkpt><trkpt lat="45.3822088" lon="10.7713228"><ele>104.5</ele><time>2026-03-28T10:02:24.602Z</time></trkpt><trkpt lat="45.3822819" lon="10.7711857"><ele>106.75</ele><time>2026-03-28T10:02:25.606Z</time></trkpt><trkpt lat="45.3823709" lon="10.7710609"><ele>109.0</ele><time>2026-03-28T10:02:26.617Z</time></trkpt><trkpt lat="45.3824659" lon="10.7709409"><ele>109.2</ele><time>2026-03-28T10:02:27.614Z</time></trkpt><trkpt lat="45.3825492" lon="10.7708236"><ele>109.4</ele><time>2026-03-28T10:02:28.611Z</time></trkpt><trkpt lat="45.3826142" lon="10.7707149"><ele>109.6</ele><time>2026-03-28T10:02:29.606Z</time></trkpt><trkpt lat="45.3826661" lon="10.7706204"><ele>109.8</ele><time>2026-03-28T10:02:30.616Z</time></trkpt><trkpt lat="45.3827052" lon="10.7705386"><ele>110.0</ele><time>2026-03-28T10:02:31.615Z</time></trkpt><trkpt lat="45.3827704" lon="10.7704456"><ele>110.0</ele><time>2026-03-28T10:02:33.612Z</time></trkpt><trkpt lat="45.3828492" lon="10.7704977"><ele>110.0</ele><time>2026-03-28T10:02:35.621Z</time></trkpt><trkpt lat="45.3828914" lon="10.7705979"><ele>110.0</ele><time>2026-03-28T10:02:36.605Z</time></trkpt><trkpt lat="45.3829382" lon="10.7707297"><ele>110.0</ele><time>2026-03-28T10:02:37.599Z</time></trkpt><trkpt lat="45.3830073" lon="10.7708963"><ele>110.0</ele><time>2026-03-28T10:02:38.597Z</time></trkpt><trkpt lat="45.3830877" lon="10.7710682"><ele>111.0</ele><time>2026-03-28T10:02:39.617Z</time></trkpt><trkpt lat="45.3831792" lon="10.7712321"><ele>112.0</ele><time>2026-03-28T10:02:40.606Z</time></trkpt><trkpt lat="45.383287" lon="10.7714451"><ele>113.0</ele><time>2026-03-28T10:02:41.606Z</time></trkpt><trkpt lat="45.3834082" lon="10.7716265"><ele>113.0</ele><time>2026-03-28T10:02:42.609Z</time></trkpt><trkpt lat="45.3835396" lon="10.7717809"><ele>113.0</ele><time>2026-03-28T10:02:43.61Z</time></trkpt><trkpt lat="45.3836775" lon="10.7719178"><ele>113.0</ele><time>2026-03-28T10:02:44.614Z</time></trkpt><trkpt lat="45.3838168" lon="10.7720502"><ele>114.33333333333333</ele><time>2026-03-28T10:02:45.614Z</time></trkpt><trkpt lat="45.3839375" lon="10.7721897"><ele>115.66666666666666</ele><time>2026-03-28T10:02:46.607Z</time></trkpt><trkpt lat="45.3840762" lon="10.7723315"><ele>117.0</ele><time>2026-03-28T10:02:47.606Z</time></trkpt><trkpt lat="45.3842105" lon="10.7724524"><ele>117.0</ele><time>2026-03-28T10:02:48.604Z</time></trkpt><trkpt lat="45.3843398" lon="10.772577"><ele>117.0</ele><time>2026-03-28T10:02:49.612Z</time></trkpt><trkpt lat="45.3844516" lon="10.7727121"><ele>117.0</ele><time>2026-03-28T10:02:50.608Z</time></trkpt><trkpt lat="45.3845448" lon="10.7728163"><ele>117.0</ele><time>2026-03-28T10:02:51.604Z</time></trkpt><trkpt lat="45.3846277" lon="10.7729168"><ele>117.0</ele><time>2026-03-28T10:02:52.606Z</time></trkpt><trkpt lat="45.3846861" lon="10.7729877"><ele>116.99999999999999</ele><time>2026-03-28T10:02:53.613Z</time></trkpt><trkpt lat="45.3847737" lon="10.77307"><ele>116.99999999999999</ele><time>2026-03-28T10:02:54.604Z</time></trkpt><trkpt lat="45.3848693" lon="10.773118"><ele>117.0</ele><time>2026-03-28T10:02:55.599Z</time></trkpt><trkpt lat="45.3849771" lon="10.7731555"><ele>117.0</ele><time>2026-03-28T10:02:56.608Z</time></trkpt><trkpt lat="45.3851033" lon="10.7731779"><ele>117.0</ele><time>2026-03-28T10:02:57.614Z</time></trkpt><trkpt lat="45.3852387" lon="10.7732065"><ele>117.0</ele><time>2026-03-28T10:02:58.605Z</time></trkpt><trkpt lat="45.3853705" lon="10.7732291"><ele>117.0</ele><time>2026-03-28T10:02:59.619Z</time></trkpt><trkpt lat="45.3854859" lon="10.7732469"><ele>117.0</ele><time>2026-03-28T10:03:00.611Z</time></trkpt><trkpt lat="45.3855809" lon="10.7732743"><ele>117.39999999999999</ele><time>2026-03-28T10:03:01.611Z</time></trkpt><trkpt lat="45.3856483" lon="10.773329"><ele>117.79999999999998</ele><time>2026-03-28T10:03:02.604Z</time></trkpt><trkpt lat="45.3857171" lon="10.7734188"><ele>118.2</ele><time>2026-03-28T10:03:03.599Z</time></trkpt><trkpt lat="45.3857973" lon="10.7735295"><ele>118.6</ele><time>2026-03-28T10:03:04.604Z</time></trkpt><trkpt lat="45.3858975" lon="10.7736495"><ele>119.0</ele><time>2026-03-28T10:03:05.603Z</time></trkpt><trkpt lat="45.3860097" lon="10.7737707"><ele>119.0</ele><time>2026-03-28T10:03:06.602Z</time></trkpt><trkpt lat="45.3861385" lon="10.7738734"><ele>119.0</ele><time>2026-03-28T10:03:07.602Z</time></trkpt><trkpt lat="45.3862641" lon="10.7739662"><ele>119.0</ele><time>2026-03-28T10:03:08.604Z</time></trkpt><trkpt lat="45.3863937" lon="10.77408"><ele>119.0</ele><time>2026-03-28T10:03:09.6Z</time></trkpt><trkpt lat="45.3864998" lon="10.774207"><ele>119.5</ele><time>2026-03-28T10:03:10.606Z</time></trkpt><trkpt lat="45.3866035" lon="10.7743073"><ele>120.0</ele><time>2026-03-28T10:03:11.594Z</time></trkpt><trkpt lat="45.3867046" lon="10.7744059"><ele>120.5</ele><time>2026-03-28T10:03:12.603Z</time></trkpt><trkpt lat="45.3868037" lon="10.7745079"><ele>121.0</ele><time>2026-03-28T10:03:13.611Z</time></trkpt><trkpt lat="45.3868868" lon="10.7746066"><ele>121.0</ele><time>2026-03-28T10:03:14.598Z</time></trkpt><trkpt lat="45.3869685" lon="10.774719"><ele>121.0</ele><time>2026-03-28T10:03:15.606Z</time></trkpt><trkpt lat="45.3870464" lon="10.7748461"><ele>121.0</ele><time>2026-03-28T10:03:16.604Z</time></trkpt><trkpt lat="45.3871202" lon="10.7749808"><ele>121.0</ele><time>2026-03-28T10:03:17.609Z</time></trkpt><trkpt lat="45.3871878" lon="10.7751001"><ele>121.25</ele><time>2026-03-28T10:03:18.61Z</time></trkpt><trkpt lat="45.387257" lon="10.7752294"><ele>121.5</ele><time>2026-03-28T10:03:19.61Z</time></trkpt><trkpt lat="45.3873525" lon="10.7753446"><ele>121.75</ele><time>2026-03-28T10:03:20.608Z</time></trkpt><trkpt lat="45.387455" lon="10.7754526"><ele>122.0</ele><time>2026-03-28T10:03:21.616Z</time></trkpt><trkpt lat="45.3875651" lon="10.7755552"><ele>122.0</ele><time>2026-03-28T10:03:22.618Z</time></trkpt><trkpt lat="45.38767" lon="10.7756459"><ele>122.0</ele><time>2026-03-28T10:03:23.611Z</time></trkpt><trkpt lat="45.387783" lon="10.7757286"><ele>122.0</ele><time>2026-03-28T10:03:24.611Z</time></trkpt><trkpt lat="45.3878824" lon="10.7757977"><ele>122.0</ele><time>2026-03-28T10:03:25.609Z</time></trkpt><trkpt lat="45.3879749" lon="10.7758875"><ele>121.6</ele><time>2026-03-28T10:03:26.613Z</time></trkpt><trkpt lat="45.388056" lon="10.7760039"><ele>121.19999999999999</ele><time>2026-03-28T10:03:27.604Z</time></trkpt><trkpt lat="45.3881286" lon="10.7761201"><ele>120.8</ele><time>2026-03-28T10:03:28.606Z</time></trkpt><trkpt lat="45.3881987" lon="10.7762457"><ele>120.4</ele><time>2026-03-28T10:03:29.606Z</time></trkpt><trkpt lat="45.3882701" lon="10.7763691"><ele>120.0</ele><time>2026-03-28T10:03:30.611Z</time></trkpt><trkpt lat="45.3883378" lon="10.7765089"><ele>120.0</ele><time>2026-03-28T10:03:31.598Z</time></trkpt><trkpt lat="45.3884053" lon="10.7766567"><ele>120.0</ele><time>2026-03-28T10:03:32.601Z</time></trkpt><trkpt lat="45.3884748" lon="10.7768136"><ele>120.0</ele><time>2026-03-28T10:03:33.602Z</time></trkpt><trkpt lat="45.3885539" lon="10.7769637"><ele>120.0</ele><time>2026-03-28T10:03:34.602Z</time></trkpt><trkpt lat="45.3886227" lon="10.7770957"><ele>118.2</ele><time>2026-03-28T10:03:35.604Z</time></trkpt><trkpt lat="45.3886848" lon="10.7772113"><ele>116.4</ele><time>2026-03-28T10:03:36.602Z</time></trkpt><trkpt lat="45.388748" lon="10.7773358"><ele>114.6</ele><time>2026-03-28T10:03:37.6Z</time></trkpt><trkpt lat="45.3888011" lon="10.7774698"><ele>112.8</ele><time>2026-03-28T10:03:38.613Z</time></trkpt><trkpt lat="45.3888401" lon="10.7776161"><ele>111.0</ele><time>2026-03-28T10:03:39.604Z</time></trkpt><trkpt lat="45.3888682" lon="10.7777568"><ele>111.0</ele><time>2026-03-28T10:03:40.601Z</time></trkpt><trkpt lat="45.3888938" lon="10.7778673"><ele>111.0</ele><time>2026-03-28T10:03:41.607Z</time></trkpt><trkpt lat="45.3889169" lon="10.7780119"><ele>111.0</ele><time>2026-03-28T10:03:43.605Z</time></trkpt><trkpt lat="45.3889812" lon="10.7781029"><ele>111.0</ele><time>2026-03-28T10:03:45.592Z</time></trkpt><trkpt lat="45.3891025" lon="10.7781611"><ele>111.0</ele><time>2026-03-28T10:03:47.604Z</time></trkpt><trkpt lat="45.3891829" lon="10.7782044"><ele>111.0</ele><time>2026-03-28T10:03:48.605Z</time></trkpt><trkpt lat="45.3892748" lon="10.7782692"><ele>111.0</ele><time>2026-03-28T10:03:49.602Z</time></trkpt><trkpt lat="45.389366" lon="10.7783267"><ele>111.0</ele><time>2026-03-28T10:03:50.608Z</time></trkpt><trkpt lat="45.3894608" lon="10.7783908"><ele>111.0</ele><time>2026-03-28T10:03:51.607Z</time></trkpt><trkpt lat="45.3895536" lon="10.778454"><ele>111.0</ele><time>2026-03-28T10:03:52.608Z</time></trkpt><trkpt lat="45.3896444" lon="10.778508"><ele>110.6</ele><time>2026-03-28T10:03:53.606Z</time></trkpt><trkpt lat="45.3897364" lon="10.7785796"><ele>110.19999999999999</ele><time>2026-03-28T10:03:54.609Z</time></trkpt><trkpt lat="45.3898285" lon="10.7786466"><ele>109.80000000000001</ele><time>2026-03-28T10:03:55.611Z</time></trkpt><trkpt lat="45.3899181" lon="10.7787153"><ele>109.4</ele><time>2026-03-28T10:03:56.613Z</time></trkpt><trkpt lat="45.3900068" lon="10.7787765"><ele>109.0</ele><time>2026-03-28T10:03:57.611Z</time></trkpt><trkpt lat="45.3900977" lon="10.7788386"><ele>109.0</ele><time>2026-03-28T10:03:58.613Z</time></trkpt><trkpt lat="45.3901804" lon="10.7788975"><ele>109.0</ele><time>2026-03-28T10:03:59.611Z</time></trkpt><trkpt lat="45.3902558" lon="10.7789474"><ele>109.0</ele><time>2026-03-28T10:04:00.605Z</time></trkpt><trkpt lat="45.3903199" lon="10.7789883"><ele>109.0</ele><time>2026-03-28T10:04:01.612Z</time></trkpt><trkpt lat="45.3904237" lon="10.7789963"><ele>109.0</ele><time>2026-03-28T10:04:03.599Z</time></trkpt><trkpt lat="45.3904656" lon="10.7788603"><ele>109.0</ele><time>2026-03-28T10:04:05.604Z</time></trkpt><trkpt lat="45.3904778" lon="10.7787418"><ele>109.0</ele><time>2026-03-28T10:04:06.601Z</time></trkpt><trkpt lat="45.3904945" lon="10.7786018"><ele>109.0</ele><time>2026-03-28T10:04:07.601Z</time></trkpt><trkpt lat="45.3905248" lon="10.7784593"><ele>109.0</ele><time>2026-03-28T10:04:08.607Z</time></trkpt><trkpt lat="45.3905537" lon="10.7783149"><ele>109.0</ele><time>2026-03-28T10:04:09.606Z</time></trkpt><trkpt lat="45.3905778" lon="10.7781694"><ele>110.00000000000001</ele><time>2026-03-28T10:04:10.603Z</time></trkpt><trkpt lat="45.3906021" lon="10.7780603"><ele>111.0</ele><time>2026-03-28T10:04:11.6Z</time></trkpt><trkpt lat="45.3906323" lon="10.7779648"><ele>112.0</ele><time>2026-03-28T10:04:12.598Z</time></trkpt><trkpt lat="45.3906852" lon="10.77787"><ele>113.0</ele><time>2026-03-28T10:04:13.593Z</time></trkpt><trkpt lat="45.3907549" lon="10.7777949"><ele>114.00000000000001</ele><time>2026-03-28T10:04:14.61Z</time></trkpt><trkpt lat="45.3908331" lon="10.7777292"><ele>115.0</ele><time>2026-03-28T10:04:15.6Z</time></trkpt><trkpt lat="45.3908997" lon="10.7776536"><ele>115.6</ele><time>2026-03-28T10:04:16.611Z</time></trkpt><trkpt lat="45.390944" lon="10.7775798"><ele>116.2</ele><time>2026-03-28T10:04:17.612Z</time></trkpt><trkpt lat="45.3909877" lon="10.7774683"><ele>116.80000000000001</ele><time>2026-03-28T10:04:19.608Z</time></trkpt><trkpt lat="45.3910246" lon="10.7773328"><ele>117.4</ele><time>2026-03-28T10:04:21.591Z</time></trkpt><trkpt lat="45.391036" lon="10.7772027"><ele>118.0</ele><time>2026-03-28T10:04:22.597Z</time></trkpt><trkpt lat="45.3910318" lon="10.7770525"><ele>118.0</ele><time>2026-03-28T10:04:23.595Z</time></trkpt><trkpt lat="45.3910147" lon="10.7769198"><ele>118.00000000000001</ele><time>2026-03-28T10:04:24.598Z</time></trkpt><trkpt lat="45.390987" lon="10.7767879"><ele>118.00000000000001</ele><time>2026-03-28T10:04:25.598Z</time></trkpt><trkpt lat="45.3909554" lon="10.7766614"><ele>118.0</ele><time>2026-03-28T10:04:26.606Z</time></trkpt><trkpt lat="45.3908956" lon="10.7765461"><ele>118.0</ele><time>2026-03-28T10:04:27.606Z</time></trkpt><trkpt lat="45.3908124" lon="10.7764491"><ele>117.2</ele><time>2026-03-28T10:04:28.602Z</time></trkpt><trkpt lat="45.3907329" lon="10.7763521"><ele>116.4</ele><time>2026-03-28T10:04:29.601Z</time></trkpt><trkpt lat="45.3906647" lon="10.7762614"><ele>115.60000000000001</ele><time>2026-03-28T10:04:30.603Z</time></trkpt><trkpt lat="45.3905996" lon="10.7761962"><ele>114.80000000000001</ele><time>2026-03-28T10:04:31.589Z</time></trkpt><trkpt lat="45.3905331" lon="10.7760561"><ele>114.0</ele><time>2026-03-28T10:04:33.599Z</time></trkpt><trkpt lat="45.3905175" lon="10.7759519"><ele>111.75</ele><time>2026-03-28T10:04:34.592Z</time></trkpt><trkpt lat="45.3905257" lon="10.7758164"><ele>109.5</ele><time>2026-03-28T10:04:35.592Z</time></trkpt><trkpt lat="45.3905449" lon="10.7756608"><ele>107.25</ele><time>2026-03-28T10:04:36.597Z</time></trkpt><trkpt lat="45.390566" lon="10.7754904"><ele>105.0</ele><time>2026-03-28T10:04:37.603Z</time></trkpt><trkpt lat="45.3905754" lon="10.7753052"><ele>104.75</ele><time>2026-03-28T10:04:38.602Z</time></trkpt><trkpt lat="45.3905766" lon="10.7751235"><ele>104.5</ele><time>2026-03-28T10:04:39.608Z</time></trkpt><trkpt lat="45.3905777" lon="10.7749452"><ele>104.25</ele><time>2026-03-28T10:04:40.606Z</time></trkpt><trkpt lat="45.3905779" lon="10.7747616"><ele>104.0</ele><time>2026-03-28T10:04:41.603Z</time></trkpt><trkpt lat="45.3905639" lon="10.774581"><ele>104.0</ele><time>2026-03-28T10:04:42.606Z</time></trkpt><trkpt lat="45.3905303" lon="10.7744082"><ele>104.0</ele><time>2026-03-28T10:04:43.598Z</time></trkpt><trkpt lat="45.3904798" lon="10.774243"><ele>104.0</ele><time>2026-03-28T10:04:44.607Z</time></trkpt><trkpt lat="45.3904283" lon="10.7740803"><ele>104.0</ele><time>2026-03-28T10:04:45.608Z</time></trkpt><trkpt lat="45.3903811" lon="10.7739372"><ele>104.80000000000001</ele><time>2026-03-28T10:04:46.602Z</time></trkpt><trkpt lat="45.3903486" lon="10.7738147"><ele>105.60000000000001</ele><time>2026-03-28T10:04:47.595Z</time></trkpt><trkpt lat="45.3903284" lon="10.7737123"><ele>106.4</ele><time>2026-03-28T10:04:48.602Z</time></trkpt><trkpt lat="45.390365" lon="10.7735651"><ele>107.2</ele><time>2026-03-28T10:04:50.6Z</time></trkpt><trkpt lat="45.3904293" lon="10.7735011"><ele>108.0</ele><time>2026-03-28T10:04:51.592Z</time></trkpt><trkpt lat="45.390519" lon="10.7734529"><ele>105.5</ele><time>2026-03-28T10:04:52.593Z</time></trkpt><trkpt lat="45.3906416" lon="10.7734253"><ele>103.0</ele><time>2026-03-28T10:04:53.601Z</time></trkpt><trkpt lat="45.3907682" lon="10.7734071"><ele>100.5</ele><time>2026-03-28T10:04:54.594Z</time></trkpt><trkpt lat="45.3908772" lon="10.7733494"><ele>98.0</ele><time>2026-03-28T10:04:55.59Z</time></trkpt><trkpt lat="45.3909752" lon="10.7732749"><ele>98.0</ele><time>2026-03-28T10:04:56.594Z</time></trkpt><trkpt lat="45.3910676" lon="10.77319"><ele>98.0</ele><time>2026-03-28T10:04:57.591Z</time></trkpt><trkpt lat="45.3911658" lon="10.7731022"><ele>98.0</ele><time>2026-03-28T10:04:58.588Z</time></trkpt><trkpt lat="45.3912646" lon="10.7730013"><ele>98.0</ele><time>2026-03-28T10:04:59.589Z</time></trkpt><trkpt lat="45.3913597" lon="10.7728916"><ele>96.25</ele><time>2026-03-28T10:05:00.587Z</time></trkpt><trkpt lat="45.3914364" lon="10.7727862"><ele>94.5</ele><time>2026-03-28T10:05:01.603Z</time></trkpt><trkpt lat="45.3915247" lon="10.7726563"><ele>92.75</ele><time>2026-03-28T10:05:02.604Z</time></trkpt><trkpt lat="45.3916293" lon="10.7725439"><ele>91.0</ele><time>2026-03-28T10:05:03.607Z</time></trkpt><trkpt lat="45.3917296" lon="10.7724502"><ele>90.19999999999999</ele><time>2026-03-28T10:05:04.599Z</time></trkpt><trkpt lat="45.3918126" lon="10.7723799"><ele>89.39999999999999</ele><time>2026-03-28T10:05:05.6Z</time></trkpt><trkpt lat="45.3918878" lon="10.7722908"><ele>88.6</ele><time>2026-03-28T10:05:06.604Z</time></trkpt><trkpt lat="45.3919591" lon="10.7721971"><ele>87.8</ele><time>2026-03-28T10:05:07.601Z</time></trkpt><trkpt lat="45.3920293" lon="10.7720869"><ele>87.0</ele><time>2026-03-28T10:05:08.609Z</time></trkpt><trkpt lat="45.3920972" lon="10.7719731"><ele>87.0</ele><time>2026-03-28T10:05:09.602Z</time></trkpt><trkpt lat="45.392171" lon="10.7718673"><ele>87.0</ele><time>2026-03-28T10:05:10.604Z</time></trkpt><trkpt lat="45.3922512" lon="10.7717908"><ele>87.0</ele><time>2026-03-28T10:05:11.606Z</time></trkpt><trkpt lat="45.3923398" lon="10.7717259"><ele>87.0</ele><time>2026-03-28T10:05:12.598Z</time></trkpt><trkpt lat="45.3924164" lon="10.771656"><ele>87.0</ele><time>2026-03-28T10:05:13.6Z</time></trkpt><trkpt lat="45.3924821" lon="10.7715882"><ele>86.8</ele><time>2026-03-28T10:05:14.604Z</time></trkpt><trkpt lat="45.3925404" lon="10.7714924"><ele>86.6</ele><time>2026-03-28T10:05:15.597Z</time></trkpt><trkpt lat="45.3925843" lon="10.7713977"><ele>86.39999999999999</ele><time>2026-03-28T10:05:16.599Z</time></trkpt><trkpt lat="45.3925928" lon="10.7712833"><ele>86.19999999999999</ele><time>2026-03-28T10:05:17.595Z</time></trkpt><trkpt lat="45.3925729" lon="10.7711426"><ele>86.0</ele><time>2026-03-28T10:05:18.598Z</time></trkpt><trkpt lat="45.3925384" lon="10.7709749"><ele>85.8</ele><time>2026-03-28T10:05:19.599Z</time></trkpt><trkpt lat="45.3925133" lon="10.7708051"><ele>85.6</ele><time>2026-03-28T10:05:20.596Z</time></trkpt><trkpt lat="45.3924881" lon="10.7706332"><ele>85.4</ele><time>2026-03-28T10:05:21.601Z</time></trkpt><trkpt lat="45.3924528" lon="10.7704975"><ele>85.2</ele><time>2026-03-28T10:05:22.605Z</time></trkpt><trkpt lat="45.392444" lon="10.7704032"><ele>85.0</ele><time>2026-03-28T10:05:23.588Z</time></trkpt><trkpt lat="45.3924888" lon="10.7702841"><ele>85.0</ele><time>2026-03-28T10:05:25.589Z</time></trkpt><trkpt lat="45.3926212" lon="10.7702571"><ele>85.0</ele><time>2026-03-28T10:05:27.591Z</time></trkpt><trkpt lat="45.3927277" lon="10.7702845"><ele>85.0</ele><time>2026-03-28T10:05:28.585Z</time></trkpt><trkpt lat="45.3928408" lon="10.7703257"><ele>85.0</ele><time>2026-03-28T10:05:29.586Z</time></trkpt><trkpt lat="45.3929712" lon="10.7703458"><ele>85.5</ele><time>2026-03-28T10:05:30.588Z</time></trkpt><trkpt lat="45.3931129" lon="10.7703542"><ele>86.0</ele><time>2026-03-28T10:05:31.586Z</time></trkpt><trkpt lat="45.3932507" lon="10.7703561"><ele>86.5</ele><time>2026-03-28T10:05:32.589Z</time></trkpt><trkpt lat="45.3933857" lon="10.770363"><ele>87.0</ele><time>2026-03-28T10:05:33.58Z</time></trkpt><trkpt lat="45.3935254" lon="10.7703852"><ele>87.0</ele><time>2026-03-28T10:05:34.592Z</time></trkpt><trkpt lat="45.3936777" lon="10.7704226"><ele>87.0</ele><time>2026-03-28T10:05:35.587Z</time></trkpt><trkpt lat="45.3938281" lon="10.770471"><ele>87.0</ele><time>2026-03-28T10:05:36.59Z</time></trkpt><trkpt lat="45.3939889" lon="10.770517"><ele>89.0</ele><time>2026-03-28T10:05:37.589Z</time></trkpt><trkpt lat="45.3941427" lon="10.7705696"><ele>91.0</ele><time>2026-03-28T10:05:38.586Z</time></trkpt><trkpt lat="45.3942842" lon="10.770635"><ele>93.0</ele><time>2026-03-28T10:05:39.59Z</time></trkpt><trkpt lat="45.3943782" lon="10.7707135"><ele>95.0</ele><time>2026-03-28T10:05:40.585Z</time></trkpt><trkpt lat="45.3944813" lon="10.7708456"><ele>95.0</ele><time>2026-03-28T10:05:41.59Z</time></trkpt><trkpt lat="45.3945971" lon="10.770993"><ele>95.0</ele><time>2026-03-28T10:05:42.588Z</time></trkpt><trkpt lat="45.3946912" lon="10.7711465"><ele>95.0</ele><time>2026-03-28T10:05:43.587Z</time></trkpt><trkpt lat="45.394811" lon="10.7712674"><ele>95.0</ele><time>2026-03-28T10:05:44.581Z</time></trkpt><trkpt lat="45.3949227" lon="10.7714174"><ele>94.5</ele><time>2026-03-28T10:05:45.579Z</time></trkpt><trkpt lat="45.3950142" lon="10.7715714"><ele>94.0</ele><time>2026-03-28T10:05:46.582Z</time></trkpt><trkpt lat="45.3951097" lon="10.7716989"><ele>93.5</ele><time>2026-03-28T10:05:47.576Z</time></trkpt><trkpt lat="45.3951811" lon="10.7717848"><ele>93.0</ele><time>2026-03-28T10:05:48.58Z</time></trkpt><trkpt lat="45.3952462" lon="10.7718768"><ele>93.0</ele><time>2026-03-28T10:05:49.578Z</time></trkpt><trkpt lat="45.3953077" lon="10.7720142"><ele>93.0</ele><time>2026-03-28T10:05:50.578Z</time></trkpt><trkpt lat="45.3953615" lon="10.7721594"><ele>93.0</ele><time>2026-03-28T10:05:51.577Z</time></trkpt><trkpt lat="45.3953847" lon="10.7723072"><ele>93.0</ele><time>2026-03-28T10:05:52.583Z</time></trkpt><trkpt lat="45.3954284" lon="10.7724583"><ele>93.0</ele><time>2026-03-28T10:05:53.579Z</time></trkpt><trkpt lat="45.3954678" lon="10.7725981"><ele>93.0</ele><time>2026-03-28T10:05:54.579Z</time></trkpt><trkpt lat="45.3955098" lon="10.7727233"><ele>93.0</ele><time>2026-03-28T10:05:55.576Z</time></trkpt><trkpt lat="45.3955486" lon="10.7728301"><ele>93.0</ele><time>2026-03-28T10:05:56.586Z</time></trkpt><trkpt lat="45.3955875" lon="10.7729244"><ele>93.0</ele><time>2026-03-28T10:05:57.581Z</time></trkpt><trkpt lat="45.3956231" lon="10.7730137"><ele>93.0</ele><time>2026-03-28T10:05:58.581Z</time></trkpt><trkpt lat="45.3956628" lon="10.7731019"><ele>95.4</ele><time>2026-03-28T10:05:59.578Z</time></trkpt><trkpt lat="45.3957178" lon="10.7732677"><ele>97.80000000000001</ele><time>2026-03-28T10:06:01.584Z</time></trkpt><trkpt lat="45.395759" lon="10.7733655"><ele>100.2</ele><time>2026-03-28T10:06:02.587Z</time></trkpt><trkpt lat="45.3957728" lon="10.7734774"><ele>102.6</ele><time>2026-03-28T10:06:03.581Z</time></trkpt><trkpt lat="45.3958103" lon="10.7736139"><ele>105.0</ele><time>2026-03-28T10:06:04.595Z</time></trkpt><trkpt lat="45.3958431" lon="10.7737611"><ele>105.0</ele><time>2026-03-28T10:06:05.594Z</time></trkpt><trkpt lat="45.3958649" lon="10.7739144"><ele>105.0</ele><time>2026-03-28T10:06:06.586Z</time></trkpt><trkpt lat="45.3958888" lon="10.7740564"><ele>105.0</ele><time>2026-03-28T10:06:07.591Z</time></trkpt><trkpt lat="45.3959143" lon="10.7741954"><ele>105.0</ele><time>2026-03-28T10:06:08.59Z</time></trkpt><trkpt lat="45.3959366" lon="10.7742836"><ele>105.0</ele><time>2026-03-28T10:06:09.595Z</time></trkpt><trkpt lat="45.3960192" lon="10.7744119"><ele>104.4</ele><time>2026-03-28T10:06:11.595Z</time></trkpt><trkpt lat="45.3960812" lon="10.7744645"><ele>103.8</ele><time>2026-03-28T10:06:12.598Z</time></trkpt><trkpt lat="45.3961808" lon="10.7744909"><ele>103.19999999999999</ele><time>2026-03-28T10:06:13.597Z</time></trkpt><trkpt lat="45.396293" lon="10.7745003"><ele>102.6</ele><time>2026-03-28T10:06:14.601Z</time></trkpt><trkpt lat="45.3964094" lon="10.7745083"><ele>102.0</ele><time>2026-03-28T10:06:15.6Z</time></trkpt><trkpt lat="45.3965115" lon="10.7744984"><ele>103.8</ele><time>2026-03-28T10:06:16.604Z</time></trkpt><trkpt lat="45.396627" lon="10.7744901"><ele>105.6</ele><time>2026-03-28T10:06:17.605Z</time></trkpt><trkpt lat="45.3967278" lon="10.7744813"><ele>107.39999999999999</ele><time>2026-03-28T10:06:18.604Z</time></trkpt><trkpt lat="45.3968104" lon="10.7744739"><ele>109.19999999999999</ele><time>2026-03-28T10:06:19.604Z</time></trkpt><trkpt lat="45.3969131" lon="10.7744622"><ele>111.0</ele><time>2026-03-28T10:06:21.608Z</time></trkpt><trkpt lat="45.3969655" lon="10.7745424"><ele>111.0</ele><time>2026-03-28T10:06:47.606Z</time></trkpt><trkpt lat="45.3969448" lon="10.7747189"><ele>111.0</ele><time>2026-03-28T10:06:49.593Z</time></trkpt><trkpt lat="45.3969077" lon="10.7748557"><ele>111.0</ele><time>2026-03-28T10:06:50.603Z</time></trkpt><trkpt lat="45.3968704" lon="10.7749919"><ele>111.0</ele><time>2026-03-28T10:06:51.604Z</time></trkpt><trkpt lat="45.3968543" lon="10.7751387"><ele>111.0</ele><time>2026-03-28T10:06:52.595Z</time></trkpt><trkpt lat="45.3968311" lon="10.775314"><ele>111.5</ele><time>2026-03-28T10:06:53.593Z</time></trkpt><trkpt lat="45.3968016" lon="10.7755123"><ele>112.0</ele><time>2026-03-28T10:06:54.605Z</time></trkpt><trkpt lat="45.3967828" lon="10.7756837"><ele>112.5</ele><time>2026-03-28T10:06:55.605Z</time></trkpt><trkpt lat="45.3967664" lon="10.775854"><ele>113.0</ele><time>2026-03-28T10:06:56.601Z</time></trkpt><trkpt lat="45.3967646" lon="10.7759975"><ele>113.0</ele><time>2026-03-28T10:06:57.601Z</time></trkpt><trkpt lat="45.3967622" lon="10.7761188"><ele>113.00000000000001</ele><time>2026-03-28T10:06:58.59Z</time></trkpt><trkpt lat="45.396774" lon="10.7762697"><ele>113.00000000000001</ele><time>2026-03-28T10:07:00.596Z</time></trkpt><trkpt lat="45.3968605" lon="10.7763507"><ele>113.0</ele><time>2026-03-28T10:07:02.597Z</time></trkpt><trkpt lat="45.3969604" lon="10.7763479"><ele>113.0</ele><time>2026-03-28T10:07:03.591Z</time></trkpt><trkpt lat="45.3970847" lon="10.7763399"><ele>114.25</ele><time>2026-03-28T10:07:04.594Z</time></trkpt><trkpt lat="45.3972309" lon="10.7763362"><ele>115.5</ele><time>2026-03-28T10:07:05.595Z</time></trkpt><trkpt lat="45.3973855" lon="10.7763693"><ele>116.75</ele><time>2026-03-28T10:07:06.591Z</time></trkpt><trkpt lat="45.3975252" lon="10.7764085"><ele>118.0</ele><time>2026-03-28T10:07:07.596Z</time></trkpt><trkpt lat="45.3976494" lon="10.7764235"><ele>118.0</ele><time>2026-03-28T10:07:08.593Z</time></trkpt><trkpt lat="45.3977623" lon="10.7764002"><ele>118.00000000000001</ele><time>2026-03-28T10:07:09.594Z</time></trkpt><trkpt lat="45.3978616" lon="10.7763706"><ele>118.00000000000001</ele><time>2026-03-28T10:07:10.589Z</time></trkpt><trkpt lat="45.3979429" lon="10.7763712"><ele>118.0</ele><time>2026-03-28T10:07:11.59Z</time></trkpt><trkpt lat="45.3980249" lon="10.7764332"><ele>118.0</ele><time>2026-03-28T10:07:13.601Z</time></trkpt><trkpt lat="45.398038" lon="10.7765623"><ele>118.60000000000001</ele><time>2026-03-28T10:07:14.605Z</time></trkpt><trkpt lat="45.3980564" lon="10.7766816"><ele>119.20000000000002</ele><time>2026-03-28T10:07:15.604Z</time></trkpt><trkpt lat="45.3980649" lon="10.7768031"><ele>119.8</ele><time>2026-03-28T10:07:16.6Z</time></trkpt><trkpt lat="45.3981082" lon="10.7769437"><ele>120.4</ele><time>2026-03-28T10:07:18.602Z</time></trkpt><trkpt lat="45.3982701" lon="10.7769791"><ele>121.0</ele><time>2026-03-28T10:07:20.605Z</time></trkpt><trkpt lat="45.398392" lon="10.7769802"><ele>121.4</ele><time>2026-03-28T10:07:21.617Z</time></trkpt><trkpt lat="45.3985111" lon="10.7769852"><ele>121.8</ele><time>2026-03-28T10:07:22.61Z</time></trkpt><trkpt lat="45.3986125" lon="10.7770016"><ele>122.20000000000002</ele><time>2026-03-28T10:07:23.598Z</time></trkpt><trkpt lat="45.3986912" lon="10.777036"><ele>122.60000000000001</ele><time>2026-03-28T10:07:24.597Z</time></trkpt><trkpt lat="45.3987433" lon="10.7770967"><ele>123.0</ele><time>2026-03-28T10:07:25.601Z</time></trkpt><trkpt lat="45.3987854" lon="10.7771969"><ele>123.0</ele><time>2026-03-28T10:07:26.607Z</time></trkpt><trkpt lat="45.3988213" lon="10.7773469"><ele>123.0</ele><time>2026-03-28T10:07:27.597Z</time></trkpt><trkpt lat="45.3988764" lon="10.7775057"><ele>123.0</ele><time>2026-03-28T10:07:28.597Z</time></trkpt><trkpt lat="45.398975" lon="10.7776401"><ele>123.0</ele><time>2026-03-28T10:07:29.597Z</time></trkpt><trkpt lat="45.3990655" lon="10.7777402"><ele>123.0</ele><time>2026-03-28T10:07:30.601Z</time></trkpt><trkpt lat="45.3991378" lon="10.7778319"><ele>123.00000000000001</ele><time>2026-03-28T10:07:31.605Z</time></trkpt><trkpt lat="45.3991852" lon="10.7779239"><ele>123.00000000000001</ele><time>2026-03-28T10:07:32.596Z</time></trkpt><trkpt lat="45.3992201" lon="10.7780296"><ele>123.0</ele><time>2026-03-28T10:07:33.591Z</time></trkpt><trkpt lat="45.3992367" lon="10.7781569"><ele>123.0</ele><time>2026-03-28T10:07:34.585Z</time></trkpt><trkpt lat="45.399237" lon="10.7783157"><ele>123.0</ele><time>2026-03-28T10:07:35.596Z</time></trkpt><trkpt lat="45.3992325" lon="10.778512"><ele>123.0</ele><time>2026-03-28T10:07:36.607Z</time></trkpt><trkpt lat="45.3992504" lon="10.7787261"><ele>123.0</ele><time>2026-03-28T10:07:37.606Z</time></trkpt><trkpt lat="45.3992752" lon="10.7789409"><ele>123.0</ele><time>2026-03-28T10:07:38.603Z</time></trkpt><trkpt lat="45.3993133" lon="10.779146"><ele>122.80000000000001</ele><time>2026-03-28T10:07:39.601Z</time></trkpt><trkpt lat="45.3993453" lon="10.7793235"><ele>122.60000000000001</ele><time>2026-03-28T10:07:40.599Z</time></trkpt><trkpt lat="45.399361" lon="10.779469"><ele>122.39999999999999</ele><time>2026-03-28T10:07:41.611Z</time></trkpt><trkpt lat="45.3993643" lon="10.7795685"><ele>122.19999999999999</ele><time>2026-03-28T10:07:42.604Z</time></trkpt><trkpt lat="45.3993629" lon="10.7796712"><ele>122.0</ele><time>2026-03-28T10:07:43.607Z</time></trkpt><trkpt lat="45.3993476" lon="10.7798161"><ele>121.8</ele><time>2026-03-28T10:07:45.604Z</time></trkpt><trkpt lat="45.3993729" lon="10.7799069"><ele>121.6</ele><time>2026-03-28T10:07:47.603Z</time></trkpt><trkpt lat="45.3994798" lon="10.7799222"><ele>121.39999999999999</ele><time>2026-03-28T10:07:49.597Z</time></trkpt><trkpt lat="45.3995689" lon="10.7799104"><ele>121.19999999999999</ele><time>2026-03-28T10:07:50.6Z</time></trkpt><trkpt lat="45.3996966" lon="10.7798792"><ele>121.0</ele><time>2026-03-28T10:07:51.602Z</time></trkpt><trkpt lat="45.3998475" lon="10.7798463"><ele>121.0</ele><time>2026-03-28T10:07:52.61Z</time></trkpt><trkpt lat="45.3999975" lon="10.7798355"><ele>121.0</ele><time>2026-03-28T10:07:53.605Z</time></trkpt><trkpt lat="45.4001463" lon="10.779833"><ele>121.0</ele><time>2026-03-28T10:07:54.598Z</time></trkpt><trkpt lat="45.4002721" lon="10.7798182"><ele>121.0</ele><time>2026-03-28T10:07:55.604Z</time></trkpt><trkpt lat="45.4003791" lon="10.7798149"><ele>121.00000000000001</ele><time>2026-03-28T10:07:56.6Z</time></trkpt><trkpt lat="45.4004717" lon="10.779822"><ele>121.0</ele><time>2026-03-28T10:07:57.6Z</time></trkpt><trkpt lat="45.4005538" lon="10.7798457"><ele>121.0</ele><time>2026-03-28T10:07:58.597Z</time></trkpt><trkpt lat="45.4006298" lon="10.7798914"><ele>121.0</ele><time>2026-03-28T10:07:59.607Z</time></trkpt><trkpt lat="45.4006999" lon="10.7799471"><ele>121.00000000000001</ele><time>2026-03-28T10:08:00.602Z</time></trkpt><trkpt lat="45.4007596" lon="10.7800083"><ele>121.0</ele><time>2026-03-28T10:08:01.615Z</time></trkpt><trkpt lat="45.4008274" lon="10.7800734"><ele>121.00000000000001</ele><time>2026-03-28T10:08:02.607Z</time></trkpt><trkpt lat="45.4008905" lon="10.7801402"><ele>121.0</ele><time>2026-03-28T10:08:03.608Z</time></trkpt><trkpt lat="45.400957" lon="10.7802063"><ele>121.0</ele><time>2026-03-28T10:08:04.605Z</time></trkpt><trkpt lat="45.4010243" lon="10.7802699"><ele>121.0</ele><time>2026-03-28T10:08:05.6Z</time></trkpt><trkpt lat="45.4010981" lon="10.7803447"><ele>121.00000000000001</ele><time>2026-03-28T10:08:06.606Z</time></trkpt><trkpt lat="45.4011854" lon="10.7804145"><ele>121.0</ele><time>2026-03-28T10:08:07.602Z</time></trkpt><trkpt lat="45.4012805" lon="10.7804893"><ele>121.8</ele><time>2026-03-28T10:08:08.605Z</time></trkpt><trkpt lat="45.4013781" lon="10.7805444"><ele>122.6</ele><time>2026-03-28T10:08:09.619Z</time></trkpt><trkpt lat="45.4014767" lon="10.7805939"><ele>123.4</ele><time>2026-03-28T10:08:10.603Z</time></trkpt><trkpt lat="45.4015614" lon="10.780631"><ele>124.2</ele><time>2026-03-28T10:08:11.61Z</time></trkpt><trkpt lat="45.4016214" lon="10.7806832"><ele>125.0</ele><time>2026-03-28T10:08:12.601Z</time></trkpt><trkpt lat="45.4016953" lon="10.7808302"><ele>125.0</ele><time>2026-03-28T10:08:14.598Z</time></trkpt><trkpt lat="45.4017255" lon="10.7809355"><ele>125.0</ele><time>2026-03-28T10:08:15.602Z</time></trkpt><trkpt lat="45.4017714" lon="10.7810826"><ele>125.0</ele><time>2026-03-28T10:08:16.599Z</time></trkpt><trkpt lat="45.4018321" lon="10.7812322"><ele>125.0</ele><time>2026-03-28T10:08:17.607Z</time></trkpt><trkpt lat="45.401912" lon="10.7813905"><ele>124.0</ele><time>2026-03-28T10:08:18.606Z</time></trkpt><trkpt lat="45.4020024" lon="10.7815293"><ele>123.0</ele><time>2026-03-28T10:08:19.596Z</time></trkpt><trkpt lat="45.4021032" lon="10.7816411"><ele>122.0</ele><time>2026-03-28T10:08:20.604Z</time></trkpt><trkpt lat="45.4022202" lon="10.7817276"><ele>121.0</ele><time>2026-03-28T10:08:21.616Z</time></trkpt><trkpt lat="45.402343" lon="10.7818101"><ele>120.75</ele><time>2026-03-28T10:08:22.609Z</time></trkpt><trkpt lat="45.4024584" lon="10.78192"><ele>120.5</ele><time>2026-03-28T10:08:23.605Z</time></trkpt><trkpt lat="45.4025642" lon="10.782056"><ele>120.25</ele><time>2026-03-28T10:08:24.607Z</time></trkpt><trkpt lat="45.4026806" lon="10.7822186"><ele>120.0</ele><time>2026-03-28T10:08:25.606Z</time></trkpt><trkpt lat="45.4027751" lon="10.7823632"><ele>120.0</ele><time>2026-03-28T10:08:26.61Z</time></trkpt><trkpt lat="45.4028459" lon="10.7825016"><ele>120.0</ele><time>2026-03-28T10:08:27.608Z</time></trkpt><trkpt lat="45.4029109" lon="10.7826582"><ele>120.0</ele><time>2026-03-28T10:08:28.614Z</time></trkpt><trkpt lat="45.4029893" lon="10.7827897"><ele>120.0</ele><time>2026-03-28T10:08:29.607Z</time></trkpt><trkpt lat="45.4030774" lon="10.7828612"><ele>119.83333333333333</ele><time>2026-03-28T10:08:30.604Z</time></trkpt><trkpt lat="45.4031327" lon="10.7829305"><ele>119.66666666666666</ele><time>2026-03-28T10:08:31.605Z</time></trkpt><trkpt lat="45.4031855" lon="10.7829891"><ele>119.5</ele><time>2026-03-28T10:08:32.611Z</time></trkpt><trkpt lat="45.4032575" lon="10.7830964"><ele>119.33333333333333</ele><time>2026-03-28T10:08:34.603Z</time></trkpt><trkpt lat="45.4032885" lon="10.7831953"><ele>119.16666666666666</ele><time>2026-03-28T10:08:35.606Z</time></trkpt><trkpt lat="45.4033303" lon="10.7833143"><ele>119.0</ele><time>2026-03-28T10:08:36.605Z</time></trkpt><trkpt lat="45.4033943" lon="10.7834168"><ele>119.25</ele><time>2026-03-28T10:08:37.609Z</time></trkpt><trkpt lat="45.4034717" lon="10.783526"><ele>119.5</ele><time>2026-03-28T10:08:38.607Z</time></trkpt><trkpt lat="45.4035518" lon="10.7836672"><ele>119.75</ele><time>2026-03-28T10:08:39.606Z</time></trkpt><trkpt lat="45.4036375" lon="10.7838324"><ele>120.0</ele><time>2026-03-28T10:08:40.612Z</time></trkpt><trkpt lat="45.4037366" lon="10.7840014"><ele>120.0</ele><time>2026-03-28T10:08:41.609Z</time></trkpt><trkpt lat="45.4038374" lon="10.7841649"><ele>120.0</ele><time>2026-03-28T10:08:42.607Z</time></trkpt><trkpt lat="45.4039402" lon="10.7842917"><ele>120.0</ele><time>2026-03-28T10:08:43.606Z</time></trkpt><trkpt lat="45.4040096" lon="10.7844084"><ele>120.0</ele><time>2026-03-28T10:08:44.614Z</time></trkpt><trkpt lat="45.4040734" lon="10.7845544"><ele>120.75</ele><time>2026-03-28T10:08:45.599Z</time></trkpt><trkpt lat="45.4041024" lon="10.7847417"><ele>121.5</ele><time>2026-03-28T10:08:46.607Z</time></trkpt><trkpt lat="45.4041141" lon="10.7849468"><ele>122.25</ele><time>2026-03-28T10:08:47.606Z</time></trkpt><trkpt lat="45.4041195" lon="10.785158"><ele>123.0</ele><time>2026-03-28T10:08:48.61Z</time></trkpt><trkpt lat="45.4041334" lon="10.7853508"><ele>123.25</ele><time>2026-03-28T10:08:49.605Z</time></trkpt><trkpt lat="45.4041496" lon="10.7855464"><ele>123.5</ele><time>2026-03-28T10:08:50.609Z</time></trkpt><trkpt lat="45.4041603" lon="10.7857224"><ele>123.75</ele><time>2026-03-28T10:08:51.602Z</time></trkpt><trkpt lat="45.4041961" lon="10.7859011"><ele>124.0</ele><time>2026-03-28T10:08:52.606Z</time></trkpt><trkpt lat="45.4042428" lon="10.7860845"><ele>124.0</ele><time>2026-03-28T10:08:53.606Z</time></trkpt><trkpt lat="45.4042877" lon="10.7862434"><ele>124.0</ele><time>2026-03-28T10:08:54.601Z</time></trkpt><trkpt lat="45.4043416" lon="10.7863908"><ele>124.0</ele><time>2026-03-28T10:08:55.6Z</time></trkpt><trkpt lat="45.4043598" lon="10.7865397"><ele>124.0</ele><time>2026-03-28T10:08:56.595Z</time></trkpt><trkpt lat="45.404339" lon="10.7866499"><ele>124.0</ele><time>2026-03-28T10:08:57.595Z</time></trkpt><trkpt lat="45.4042972" lon="10.7867549"><ele>123.0</ele><time>2026-03-28T10:08:58.603Z</time></trkpt><trkpt lat="45.4042625" lon="10.7868509"><ele>122.0</ele><time>2026-03-28T10:08:59.598Z</time></trkpt><trkpt lat="45.4042372" lon="10.7869656"><ele>121.0</ele><time>2026-03-28T10:09:00.6Z</time></trkpt><trkpt lat="45.4042235" lon="10.7870929"><ele>120.0</ele><time>2026-03-28T10:09:01.591Z</time></trkpt><trkpt lat="45.4042291" lon="10.7872477"><ele>119.0</ele><time>2026-03-28T10:09:02.599Z</time></trkpt><trkpt lat="45.404255" lon="10.7874226"><ele>119.0</ele><time>2026-03-28T10:09:03.596Z</time></trkpt><trkpt lat="45.4042955" lon="10.7876032"><ele>119.0</ele><time>2026-03-28T10:09:04.603Z</time></trkpt><trkpt lat="45.4043384" lon="10.7877565"><ele>119.0</ele><time>2026-03-28T10:09:05.595Z</time></trkpt><trkpt lat="45.4043965" lon="10.7878943"><ele>119.0</ele><time>2026-03-28T10:09:06.603Z</time></trkpt><trkpt lat="45.4044763" lon="10.7880318"><ele>118.0</ele><time>2026-03-28T10:09:07.601Z</time></trkpt><trkpt lat="45.4045792" lon="10.7881606"><ele>117.0</ele><time>2026-03-28T10:09:08.596Z</time></trkpt><trkpt lat="45.4046807" lon="10.7882654"><ele>116.0</ele><time>2026-03-28T10:09:09.604Z</time></trkpt><trkpt lat="45.4047709" lon="10.7883653"><ele>115.0</ele><time>2026-03-28T10:09:10.599Z</time></trkpt><trkpt lat="45.4048309" lon="10.7884524"><ele>114.0</ele><time>2026-03-28T10:09:11.599Z</time></trkpt><trkpt lat="45.4048659" lon="10.7885473"><ele>113.0</ele><time>2026-03-28T10:09:12.592Z</time></trkpt><trkpt lat="45.4048861" lon="10.7886866"><ele>112.0</ele><time>2026-03-28T10:09:13.59Z</time></trkpt><trkpt lat="45.4048954" lon="10.7888625"><ele>111.0</ele><time>2026-03-28T10:09:14.6Z</time></trkpt><trkpt lat="45.4048969" lon="10.7890708"><ele>110.0</ele><time>2026-03-28T10:09:15.595Z</time></trkpt><trkpt lat="45.4048963" lon="10.7892715"><ele>110.2</ele><time>2026-03-28T10:09:16.593Z</time></trkpt><trkpt lat="45.4049021" lon="10.7894454"><ele>110.4</ele><time>2026-03-28T10:09:17.593Z</time></trkpt><trkpt lat="45.4049111" lon="10.7895982"><ele>110.6</ele><time>2026-03-28T10:09:18.602Z</time></trkpt><trkpt lat="45.4049119" lon="10.7897407"><ele>110.8</ele><time>2026-03-28T10:09:19.604Z</time></trkpt><trkpt lat="45.4049078" lon="10.789893"><ele>111.0</ele><time>2026-03-28T10:09:20.607Z</time></trkpt><trkpt lat="45.404902" lon="10.7900467"><ele>110.8</ele><time>2026-03-28T10:09:21.604Z</time></trkpt><trkpt lat="45.404896" lon="10.7902001"><ele>110.6</ele><time>2026-03-28T10:09:22.608Z</time></trkpt><trkpt lat="45.4048939" lon="10.7903568"><ele>110.4</ele><time>2026-03-28T10:09:23.609Z</time></trkpt><trkpt lat="45.4048951" lon="10.7904974"><ele>110.2</ele><time>2026-03-28T10:09:24.605Z</time></trkpt><trkpt lat="45.4048994" lon="10.7906487"><ele>110.0</ele><time>2026-03-28T10:09:25.605Z</time></trkpt><trkpt lat="45.4049096" lon="10.7908209"><ele>110.0</ele><time>2026-03-28T10:09:26.609Z</time></trkpt><trkpt lat="45.4049157" lon="10.7909919"><ele>110.0</ele><time>2026-03-28T10:09:27.601Z</time></trkpt><trkpt lat="45.4049171" lon="10.7911354"><ele>110.0</ele><time>2026-03-28T10:09:28.599Z</time></trkpt><trkpt lat="45.404921" lon="10.7912604"><ele>110.0</ele><time>2026-03-28T10:09:29.599Z</time></trkpt><trkpt lat="45.4049243" lon="10.7913578"><ele>110.0</ele><time>2026-03-28T10:09:30.603Z</time></trkpt><trkpt lat="45.4049464" lon="10.7914782"><ele>110.4</ele><time>2026-03-28T10:09:32.597Z</time></trkpt><trkpt lat="45.4050074" lon="10.7915196"><ele>110.8</ele><time>2026-03-28T10:09:34.603Z</time></trkpt><trkpt lat="45.4051295" lon="10.7915184"><ele>111.19999999999999</ele><time>2026-03-28T10:09:36.597Z</time></trkpt><trkpt lat="45.4052368" lon="10.7914954"><ele>111.6</ele><time>2026-03-28T10:09:37.606Z</time></trkpt><trkpt lat="45.405385" lon="10.7914609"><ele>112.0</ele><time>2026-03-28T10:09:38.603Z</time></trkpt><trkpt lat="45.4055333" lon="10.7914276"><ele>112.33333333333334</ele><time>2026-03-28T10:09:39.595Z</time></trkpt><trkpt lat="45.4057013" lon="10.7914001"><ele>112.66666666666666</ele><time>2026-03-28T10:09:40.597Z</time></trkpt><trkpt lat="45.4058968" lon="10.791392"><ele>113.0</ele><time>2026-03-28T10:09:41.602Z</time></trkpt><trkpt lat="45.4060753" lon="10.7913796"><ele>113.0</ele><time>2026-03-28T10:09:42.601Z</time></trkpt><trkpt lat="45.4062378" lon="10.7913605"><ele>113.0</ele><time>2026-03-28T10:09:43.601Z</time></trkpt><trkpt lat="45.406398" lon="10.7913447"><ele>113.0</ele><time>2026-03-28T10:09:44.61Z</time></trkpt><trkpt lat="45.4065641" lon="10.7913381"><ele>112.66666666666666</ele><time>2026-03-28T10:09:45.612Z</time></trkpt><trkpt lat="45.4067361" lon="10.79133"><ele>112.33333333333334</ele><time>2026-03-28T10:09:46.608Z</time></trkpt><trkpt lat="45.4069091" lon="10.7913292"><ele>112.0</ele><time>2026-03-28T10:09:47.607Z</time></trkpt><trkpt lat="45.4070913" lon="10.7913344"><ele>112.0</ele><time>2026-03-28T10:09:48.611Z</time></trkpt><trkpt lat="45.4072572" lon="10.7913285"><ele>112.0</ele><time>2026-03-28T10:09:49.606Z</time></trkpt><trkpt lat="45.4074029" lon="10.7913302"><ele>112.0</ele><time>2026-03-28T10:09:50.611Z</time></trkpt><trkpt lat="45.4075548" lon="10.7913243"><ele>112.0</ele><time>2026-03-28T10:09:51.61Z</time></trkpt><trkpt lat="45.4077245" lon="10.7913155"><ele>112.0</ele><time>2026-03-28T10:09:52.606Z</time></trkpt><trkpt lat="45.4078826" lon="10.7913102"><ele>112.0</ele><time>2026-03-28T10:09:53.626Z</time></trkpt><trkpt lat="45.4080326" lon="10.7912919"><ele>112.25</ele><time>2026-03-28T10:09:54.602Z</time></trkpt><trkpt lat="45.4081719" lon="10.7912895"><ele>112.5</ele><time>2026-03-28T10:09:55.607Z</time></trkpt><trkpt lat="45.4082911" lon="10.7912847"><ele>112.75</ele><time>2026-03-28T10:09:56.607Z</time></trkpt><trkpt lat="45.4084077" lon="10.7912761"><ele>113.0</ele><time>2026-03-28T10:09:57.61Z</time></trkpt><trkpt lat="45.4085375" lon="10.7912769"><ele>113.0</ele><time>2026-03-28T10:09:58.607Z</time></trkpt><trkpt lat="45.4086527" lon="10.7912647"><ele>113.00000000000001</ele><time>2026-03-28T10:09:59.603Z</time></trkpt><trkpt lat="45.4087673" lon="10.7912671"><ele>113.00000000000001</ele><time>2026-03-28T10:10:00.606Z</time></trkpt><trkpt lat="45.4088816" lon="10.7912586"><ele>113.0</ele><time>2026-03-28T10:10:01.607Z</time></trkpt><trkpt lat="45.4089788" lon="10.7912526"><ele>113.0</ele><time>2026-03-28T10:10:02.604Z</time></trkpt><trkpt lat="45.4090709" lon="10.7912411"><ele>112.99999999999999</ele><time>2026-03-28T10:10:03.611Z</time></trkpt><trkpt lat="45.4091486" lon="10.7912266"><ele>113.0</ele><time>2026-03-28T10:10:04.598Z</time></trkpt><trkpt lat="45.4092119" lon="10.7912162"><ele>113.0</ele><time>2026-03-28T10:10:05.598Z</time></trkpt><trkpt lat="45.4092955" lon="10.7911955"><ele>113.0</ele><time>2026-03-28T10:10:07.596Z</time></trkpt><trkpt lat="45.4093303" lon="10.7910909"><ele>112.99999999999999</ele><time>2026-03-28T10:10:13.627Z</time></trkpt><trkpt lat="45.4093349" lon="10.7909922"><ele>113.0</ele><time>2026-03-28T10:10:14.603Z</time></trkpt><trkpt lat="45.4093298" lon="10.7908226"><ele>113.2</ele><time>2026-03-28T10:10:15.603Z</time></trkpt><trkpt lat="45.4093219" lon="10.7906477"><ele>113.4</ele><time>2026-03-28T10:10:16.601Z</time></trkpt><trkpt lat="45.409308" lon="10.7904992"><ele>113.60000000000001</ele><time>2026-03-28T10:10:17.603Z</time></trkpt><trkpt lat="45.4092997" lon="10.7903867"><ele>113.80000000000001</ele><time>2026-03-28T10:10:18.601Z</time></trkpt><trkpt lat="45.4093256" lon="10.7902129"><ele>114.0</ele><time>2026-03-28T10:10:20.6Z</time></trkpt><trkpt lat="45.4093717" lon="10.790133"><ele>114.25</ele><time>2026-03-28T10:10:21.6Z</time></trkpt><trkpt lat="45.4094473" lon="10.7900652"><ele>114.5</ele><time>2026-03-28T10:10:22.598Z</time></trkpt><trkpt lat="45.4095416" lon="10.790007"><ele>114.75</ele><time>2026-03-28T10:10:23.612Z</time></trkpt><trkpt lat="45.4096528" lon="10.7899126"><ele>115.0</ele><time>2026-03-28T10:10:24.594Z</time></trkpt><trkpt lat="45.4097781" lon="10.7898039"><ele>115.33333333333334</ele><time>2026-03-28T10:10:25.597Z</time></trkpt><trkpt lat="45.4099516" lon="10.7896653"><ele>115.66666666666666</ele><time>2026-03-28T10:10:26.605Z</time></trkpt><trkpt lat="45.4101154" lon="10.7895256"><ele>116.0</ele><time>2026-03-28T10:10:27.612Z</time></trkpt><trkpt lat="45.4102356" lon="10.7894072"><ele>115.66666666666666</ele><time>2026-03-28T10:10:28.603Z</time></trkpt><trkpt lat="45.4103736" lon="10.7892852"><ele>115.33333333333334</ele><time>2026-03-28T10:10:29.606Z</time></trkpt><trkpt lat="45.4105169" lon="10.7891691"><ele>115.0</ele><time>2026-03-28T10:10:30.608Z</time></trkpt><trkpt lat="45.4106496" lon="10.7890479"><ele>115.66666666666667</ele><time>2026-03-28T10:10:31.612Z</time></trkpt><trkpt lat="45.4107916" lon="10.7889287"><ele>116.33333333333334</ele><time>2026-03-28T10:10:32.608Z</time></trkpt><trkpt lat="45.410928" lon="10.7888073"><ele>117.0</ele><time>2026-03-28T10:10:33.615Z</time></trkpt><trkpt lat="45.4110611" lon="10.788692"><ele>117.0</ele><time>2026-03-28T10:10:34.608Z</time></trkpt><trkpt lat="45.4111903" lon="10.7885524"><ele>117.0</ele><time>2026-03-28T10:10:35.604Z</time></trkpt><trkpt lat="45.4113164" lon="10.7884156"><ele>117.0</ele><time>2026-03-28T10:10:36.61Z</time></trkpt><trkpt lat="45.4114472" lon="10.7882514"><ele>117.25</ele><time>2026-03-28T10:10:37.611Z</time></trkpt><trkpt lat="45.4115631" lon="10.7880994"><ele>117.5</ele><time>2026-03-28T10:10:38.611Z</time></trkpt><trkpt lat="45.4116752" lon="10.7879689"><ele>117.75</ele><time>2026-03-28T10:10:39.602Z</time></trkpt><trkpt lat="45.4117805" lon="10.7878843"><ele>118.0</ele><time>2026-03-28T10:10:40.606Z</time></trkpt><trkpt lat="45.4118852" lon="10.7877907"><ele>118.0</ele><time>2026-03-28T10:10:41.605Z</time></trkpt><trkpt lat="45.4119954" lon="10.7876862"><ele>118.0</ele><time>2026-03-28T10:10:42.599Z</time></trkpt><trkpt lat="45.4120835" lon="10.7875809"><ele>118.0</ele><time>2026-03-28T10:10:43.614Z</time></trkpt><trkpt lat="45.4121473" lon="10.787461"><ele>118.0</ele><time>2026-03-28T10:10:44.607Z</time></trkpt><trkpt lat="45.412206" lon="10.7872887"><ele>118.0</ele><time>2026-03-28T10:10:45.595Z</time></trkpt><trkpt lat="45.4122349" lon="10.7871065"><ele>118.0</ele><time>2026-03-28T10:10:46.602Z</time></trkpt><trkpt lat="45.4122478" lon="10.7869415"><ele>118.0</ele><time>2026-03-28T10:10:47.606Z</time></trkpt><trkpt lat="45.4122693" lon="10.7868074"><ele>118.0</ele><time>2026-03-28T10:10:48.605Z</time></trkpt><trkpt lat="45.4123237" lon="10.7866665"><ele>117.5</ele><time>2026-03-28T10:10:49.595Z</time></trkpt><trkpt lat="45.4124029" lon="10.7865116"><ele>117.0</ele><time>2026-03-28T10:10:50.6Z</time></trkpt><trkpt lat="45.4125059" lon="10.7863635"><ele>116.5</ele><time>2026-03-28T10:10:51.596Z</time></trkpt><trkpt lat="45.4126187" lon="10.7861993"><ele>116.0</ele><time>2026-03-28T10:10:52.598Z</time></trkpt><trkpt lat="45.4127437" lon="10.7860333"><ele>116.66666666666666</ele><time>2026-03-28T10:10:53.608Z</time></trkpt><trkpt lat="45.4128802" lon="10.7858743"><ele>117.33333333333334</ele><time>2026-03-28T10:10:54.592Z</time></trkpt><trkpt lat="45.4130258" lon="10.7857041"><ele>118.0</ele><time>2026-03-28T10:10:55.605Z</time></trkpt><trkpt lat="45.413149" lon="10.7855387"><ele>118.33333333333334</ele><time>2026-03-28T10:10:56.603Z</time></trkpt><trkpt lat="45.4132768" lon="10.7853525"><ele>118.66666666666666</ele><time>2026-03-28T10:10:57.608Z</time></trkpt><trkpt lat="45.4133865" lon="10.7851792"><ele>119.0</ele><time>2026-03-28T10:10:58.599Z</time></trkpt><trkpt lat="45.4134891" lon="10.7850141"><ele>119.6</ele><time>2026-03-28T10:10:59.602Z</time></trkpt><trkpt lat="45.4135649" lon="10.7848717"><ele>120.2</ele><time>2026-03-28T10:11:00.602Z</time></trkpt><trkpt lat="45.4136345" lon="10.7847416"><ele>120.79999999999998</ele><time>2026-03-28T10:11:01.6Z</time></trkpt><trkpt lat="45.4137051" lon="10.7846162"><ele>121.39999999999999</ele><time>2026-03-28T10:11:02.589Z</time></trkpt><trkpt lat="45.4137603" lon="10.7845061"><ele>122.0</ele><time>2026-03-28T10:11:03.607Z</time></trkpt><trkpt lat="45.4138206" lon="10.7843977"><ele>122.66666666666666</ele><time>2026-03-28T10:11:04.601Z</time></trkpt><trkpt lat="45.4138718" lon="10.7843168"><ele>123.33333333333333</ele><time>2026-03-28T10:11:05.593Z</time></trkpt><trkpt lat="45.4139232" lon="10.7842511"><ele>124.0</ele><time>2026-03-28T10:11:06.6Z</time></trkpt><trkpt lat="45.4140221" lon="10.7841731"><ele>124.66666666666666</ele><time>2026-03-28T10:11:08.594Z</time></trkpt><trkpt lat="45.4140845" lon="10.7841854"><ele>125.33333333333333</ele><time>2026-03-28T10:11:09.602Z</time></trkpt><trkpt lat="45.4141698" lon="10.7842357"><ele>126.0</ele><time>2026-03-28T10:11:10.591Z</time></trkpt><trkpt lat="45.4142755" lon="10.7843042"><ele>125.0</ele><time>2026-03-28T10:11:11.605Z</time></trkpt><trkpt lat="45.4144081" lon="10.7844065"><ele>124.0</ele><time>2026-03-28T10:11:12.595Z</time></trkpt><trkpt lat="45.4145456" lon="10.7844994"><ele>123.0</ele><time>2026-03-28T10:11:13.596Z</time></trkpt><trkpt lat="45.4146796" lon="10.78458"><ele>122.0</ele><time>2026-03-28T10:11:14.603Z</time></trkpt><trkpt lat="45.4147988" lon="10.7846538"><ele>122.0</ele><time>2026-03-28T10:11:15.611Z</time></trkpt><trkpt lat="45.4149246" lon="10.7847341"><ele>122.0</ele><time>2026-03-28T10:11:16.601Z</time></trkpt><trkpt lat="45.4150423" lon="10.7848119"><ele>122.0</ele><time>2026-03-28T10:11:17.604Z</time></trkpt><trkpt lat="45.4151498" lon="10.7848905"><ele>122.0</ele><time>2026-03-28T10:11:18.604Z</time></trkpt><trkpt lat="45.4152562" lon="10.7849617"><ele>122.0</ele><time>2026-03-28T10:11:19.608Z</time></trkpt><trkpt lat="45.4153629" lon="10.7850284"><ele>121.99999999999999</ele><time>2026-03-28T10:11:20.606Z</time></trkpt><trkpt lat="45.4154637" lon="10.7850944"><ele>121.99999999999999</ele><time>2026-03-28T10:11:21.606Z</time></trkpt><trkpt lat="45.4155622" lon="10.785161"><ele>122.0</ele><time>2026-03-28T10:11:22.605Z</time></trkpt><trkpt lat="45.4156546" lon="10.7852236"><ele>122.0</ele><time>2026-03-28T10:11:23.612Z</time></trkpt><trkpt lat="45.4157397" lon="10.7852752"><ele>121.8</ele><time>2026-03-28T10:11:24.603Z</time></trkpt><trkpt lat="45.4158275" lon="10.7853343"><ele>121.6</ele><time>2026-03-28T10:11:25.604Z</time></trkpt><trkpt lat="45.4159238" lon="10.7853987"><ele>121.39999999999999</ele><time>2026-03-28T10:11:26.605Z</time></trkpt><trkpt lat="45.4160088" lon="10.7854627"><ele>121.19999999999999</ele><time>2026-03-28T10:11:27.602Z</time></trkpt><trkpt lat="45.41609" lon="10.7855116"><ele>121.0</ele><time>2026-03-28T10:11:28.606Z</time></trkpt><trkpt lat="45.4161583" lon="10.7855565"><ele>121.0</ele><time>2026-03-28T10:11:29.605Z</time></trkpt><trkpt lat="45.416265" lon="10.7856365"><ele>121.0</ele><time>2026-03-28T10:11:31.613Z</time></trkpt><trkpt lat="45.4163498" lon="10.7856793"><ele>121.0</ele><time>2026-03-28T10:11:33.605Z</time></trkpt><trkpt lat="45.4164575" lon="10.7857603"><ele>121.0</ele><time>2026-03-28T10:11:35.603Z</time></trkpt><trkpt lat="45.4165238" lon="10.7857923"><ele>121.0</ele><time>2026-03-28T10:11:36.604Z</time></trkpt><trkpt lat="45.4165898" lon="10.785829"><ele>121.0</ele><time>2026-03-28T10:11:37.604Z</time></trkpt><trkpt lat="45.4166958" lon="10.7858869"><ele>121.0</ele><time>2026-03-28T10:11:39.608Z</time></trkpt><trkpt lat="45.4167849" lon="10.7859654"><ele>121.0</ele><time>2026-03-28T10:11:41.606Z</time></trkpt><trkpt lat="45.416907" lon="10.7860476"><ele>121.0</ele><time>2026-03-28T10:11:43.608Z</time></trkpt><trkpt lat="45.4169773" lon="10.7861055"><ele>121.0</ele><time>2026-03-28T10:11:44.605Z</time></trkpt><trkpt lat="45.4170571" lon="10.7861757"><ele>121.0</ele><time>2026-03-28T10:11:45.611Z</time></trkpt><trkpt lat="45.4171511" lon="10.7862543"><ele>121.0</ele><time>2026-03-28T10:11:46.603Z</time></trkpt><trkpt lat="45.4172656" lon="10.7863258"><ele>121.0</ele><time>2026-03-28T10:11:47.604Z</time></trkpt><trkpt lat="45.4173907" lon="10.7864013"><ele>121.0</ele><time>2026-03-28T10:11:48.6Z</time></trkpt><trkpt lat="45.4175223" lon="10.7864693"><ele>122.0</ele><time>2026-03-28T10:11:49.607Z</time></trkpt><trkpt lat="45.4176477" lon="10.7865292"><ele>123.0</ele><time>2026-03-28T10:11:50.609Z</time></trkpt><trkpt lat="45.4177817" lon="10.7866051"><ele>124.0</ele><time>2026-03-28T10:11:51.605Z</time></trkpt><trkpt lat="45.417933" lon="10.786693"><ele>125.0</ele><time>2026-03-28T10:11:52.609Z</time></trkpt><trkpt lat="45.4180373" lon="10.7867946"><ele>125.0</ele><time>2026-03-28T10:11:53.607Z</time></trkpt><trkpt lat="45.4181747" lon="10.7868892"><ele>125.0</ele><time>2026-03-28T10:11:54.604Z</time></trkpt><trkpt lat="45.4183168" lon="10.7869683"><ele>125.0</ele><time>2026-03-28T10:11:55.605Z</time></trkpt><trkpt lat="45.4184262" lon="10.7870442"><ele>125.0</ele><time>2026-03-28T10:11:56.6Z</time></trkpt><trkpt lat="45.4185391" lon="10.7871219"><ele>125.0</ele><time>2026-03-28T10:11:57.611Z</time></trkpt><trkpt lat="45.4186259" lon="10.787193"><ele>125.0</ele><time>2026-03-28T10:11:58.603Z</time></trkpt><trkpt lat="45.4186972" lon="10.7872531"><ele>125.0</ele><time>2026-03-28T10:11:59.598Z</time></trkpt><trkpt lat="45.4187803" lon="10.7872996"><ele>125.0</ele><time>2026-03-28T10:12:00.6Z</time></trkpt><trkpt lat="45.4188861" lon="10.7873314"><ele>125.0</ele><time>2026-03-28T10:12:01.598Z</time></trkpt><trkpt lat="45.4189761" lon="10.7873622"><ele>124.6</ele><time>2026-03-28T10:12:02.602Z</time></trkpt><trkpt lat="45.4190404" lon="10.7874014"><ele>124.2</ele><time>2026-03-28T10:12:03.602Z</time></trkpt><trkpt lat="45.4191472" lon="10.787439"><ele>123.80000000000001</ele><time>2026-03-28T10:12:05.598Z</time></trkpt><trkpt lat="45.4192273" lon="10.7874013"><ele>123.4</ele><time>2026-03-28T10:12:07.598Z</time></trkpt><trkpt lat="45.4192938" lon="10.7872445"><ele>123.0</ele><time>2026-03-28T10:12:09.598Z</time></trkpt><trkpt lat="45.4193045" lon="10.7871228"><ele>123.0</ele><time>2026-03-28T10:12:10.607Z</time></trkpt><trkpt lat="45.4193108" lon="10.7870279"><ele>123.0</ele><time>2026-03-28T10:12:11.609Z</time></trkpt><trkpt lat="45.4193346" lon="10.786923"><ele>123.0</ele><time>2026-03-28T10:12:13.606Z</time></trkpt><trkpt lat="45.4194129" lon="10.786922"><ele>123.0</ele><time>2026-03-28T10:12:15.605Z</time></trkpt><trkpt lat="45.4194755" lon="10.786964"><ele>123.0</ele><time>2026-03-28T10:12:16.611Z</time></trkpt><trkpt lat="45.4195585" lon="10.7870195"><ele>123.0</ele><time>2026-03-28T10:12:17.604Z</time></trkpt><trkpt lat="45.4196509" lon="10.7870799"><ele>123.4</ele><time>2026-03-28T10:12:18.6Z</time></trkpt><trkpt lat="45.4197558" lon="10.7871383"><ele>123.80000000000001</ele><time>2026-03-28T10:12:19.603Z</time></trkpt><trkpt lat="45.4198513" lon="10.7871859"><ele>124.2</ele><time>2026-03-28T10:12:20.604Z</time></trkpt><trkpt lat="45.4199319" lon="10.7872244"><ele>124.6</ele><time>2026-03-28T10:12:21.608Z</time></trkpt><trkpt lat="45.4200148" lon="10.7872916"><ele>125.0</ele><time>2026-03-28T10:12:22.603Z</time></trkpt><trkpt lat="45.4201003" lon="10.7873757"><ele>125.0</ele><time>2026-03-28T10:12:23.607Z</time></trkpt><trkpt lat="45.4201902" lon="10.7874714"><ele>125.0</ele><time>2026-03-28T10:12:24.6Z</time></trkpt><trkpt lat="45.4202839" lon="10.7875842"><ele>125.0</ele><time>2026-03-28T10:12:25.601Z</time></trkpt><trkpt lat="45.4203777" lon="10.7877153"><ele>125.0</ele><time>2026-03-28T10:12:26.604Z</time></trkpt><trkpt lat="45.4204732" lon="10.7878627"><ele>126.0</ele><time>2026-03-28T10:12:27.594Z</time></trkpt><trkpt lat="45.4205561" lon="10.7879931"><ele>127.0</ele><time>2026-03-28T10:12:28.602Z</time></trkpt><trkpt lat="45.4206435" lon="10.7881231"><ele>128.0</ele><time>2026-03-28T10:12:29.6Z</time></trkpt><trkpt lat="45.4207353" lon="10.7882314"><ele>129.0</ele><time>2026-03-28T10:12:30.607Z</time></trkpt><trkpt lat="45.4208277" lon="10.7883253"><ele>129.0</ele><time>2026-03-28T10:12:31.606Z</time></trkpt><trkpt lat="45.4209088" lon="10.7884065"><ele>129.0</ele><time>2026-03-28T10:12:32.607Z</time></trkpt><trkpt lat="45.4209964" lon="10.7884927"><ele>129.0</ele><time>2026-03-28T10:12:33.601Z</time></trkpt><trkpt lat="45.4210763" lon="10.7885799"><ele>129.0</ele><time>2026-03-28T10:12:34.605Z</time></trkpt><trkpt lat="45.4211584" lon="10.7886754"><ele>129.0</ele><time>2026-03-28T10:12:35.601Z</time></trkpt><trkpt lat="45.4212343" lon="10.7887687"><ele>129.0</ele><time>2026-03-28T10:12:36.604Z</time></trkpt><trkpt lat="45.4213092" lon="10.7888663"><ele>129.0</ele><time>2026-03-28T10:12:37.604Z</time></trkpt><trkpt lat="45.4213762" lon="10.7889643"><ele>129.0</ele><time>2026-03-28T10:12:38.603Z</time></trkpt><trkpt lat="45.421441" lon="10.7890492"><ele>129.0</ele><time>2026-03-28T10:12:39.594Z</time></trkpt><trkpt lat="45.4215027" lon="10.7891376"><ele>129.0</ele><time>2026-03-28T10:12:40.592Z</time></trkpt><trkpt lat="45.4215569" lon="10.7892281"><ele>129.16666666666666</ele><time>2026-03-28T10:12:41.596Z</time></trkpt><trkpt lat="45.4216098" lon="10.7893211"><ele>129.33333333333334</ele><time>2026-03-28T10:12:42.599Z</time></trkpt><trkpt lat="45.4216516" lon="10.78942"><ele>129.5</ele><time>2026-03-28T10:12:43.602Z</time></trkpt><trkpt lat="45.4216908" lon="10.7895337"><ele>129.66666666666669</ele><time>2026-03-28T10:12:44.601Z</time></trkpt><trkpt lat="45.4217212" lon="10.7896482"><ele>129.83333333333334</ele><time>2026-03-28T10:12:45.602Z</time></trkpt><trkpt lat="45.4217595" lon="10.7897625"><ele>130.0</ele><time>2026-03-28T10:12:46.599Z</time></trkpt><trkpt lat="45.4218033" lon="10.7898819"><ele>130.2</ele><time>2026-03-28T10:12:47.607Z</time></trkpt><trkpt lat="45.4218474" lon="10.7900083"><ele>130.4</ele><time>2026-03-28T10:12:48.601Z</time></trkpt><trkpt lat="45.4218943" lon="10.7901405"><ele>130.6</ele><time>2026-03-28T10:12:49.605Z</time></trkpt><trkpt lat="45.4219378" lon="10.7902701"><ele>130.8</ele><time>2026-03-28T10:12:50.596Z</time></trkpt><trkpt lat="45.421985" lon="10.7903932"><ele>131.0</ele><time>2026-03-28T10:12:51.592Z</time></trkpt><trkpt lat="45.4220272" lon="10.7904829"><ele>131.0</ele><time>2026-03-28T10:12:52.597Z</time></trkpt><trkpt lat="45.4221161" lon="10.7905697"><ele>131.0</ele><time>2026-03-28T10:12:54.606Z</time></trkpt><trkpt lat="45.4222091" lon="10.7905564"><ele>131.0</ele><time>2026-03-28T10:12:56.611Z</time></trkpt><trkpt lat="45.4222634" lon="10.7904978"><ele>131.0</ele><time>2026-03-28T10:12:57.616Z</time></trkpt><trkpt lat="45.4223361" lon="10.7904352"><ele>131.0</ele><time>2026-03-28T10:12:58.598Z</time></trkpt><trkpt lat="45.4224157" lon="10.7903842"><ele>131.0</ele><time>2026-03-28T10:12:59.603Z</time></trkpt><trkpt lat="45.4225086" lon="10.7903407"><ele>131.0</ele><time>2026-03-28T10:13:00.598Z</time></trkpt><trkpt lat="45.4226064" lon="10.7903244"><ele>131.0</ele><time>2026-03-28T10:13:01.602Z</time></trkpt><trkpt lat="45.4227192" lon="10.7903039"><ele>131.0</ele><time>2026-03-28T10:13:02.607Z</time></trkpt><trkpt lat="45.4228305" lon="10.7902844"><ele>131.0</ele><time>2026-03-28T10:13:03.599Z</time></trkpt><trkpt lat="45.4229494" lon="10.7902569"><ele>131.0</ele><time>2026-03-28T10:13:04.604Z</time></trkpt><trkpt lat="45.4230645" lon="10.7902126"><ele>130.8</ele><time>2026-03-28T10:13:05.6Z</time></trkpt><trkpt lat="45.4231824" lon="10.7901749"><ele>130.6</ele><time>2026-03-28T10:13:06.597Z</time></trkpt><trkpt lat="45.4232777" lon="10.7901482"><ele>130.4</ele><time>2026-03-28T10:13:07.601Z</time></trkpt><trkpt lat="45.4233661" lon="10.7901246"><ele>130.2</ele><time>2026-03-28T10:13:08.6Z</time></trkpt><trkpt lat="45.4234644" lon="10.790101"><ele>130.0</ele><time>2026-03-28T10:13:09.598Z</time></trkpt><trkpt lat="45.42356" lon="10.7900777"><ele>130.0</ele><time>2026-03-28T10:13:10.601Z</time></trkpt><trkpt lat="45.4236425" lon="10.7900589"><ele>130.0</ele><time>2026-03-28T10:13:11.601Z</time></trkpt><trkpt lat="45.4237287" lon="10.7900325"><ele>130.0</ele><time>2026-03-28T10:13:12.602Z</time></trkpt><trkpt lat="45.4238061" lon="10.7900099"><ele>130.0</ele><time>2026-03-28T10:13:13.606Z</time></trkpt><trkpt lat="45.4239171" lon="10.7899599"><ele>130.0</ele><time>2026-03-28T10:13:15.604Z</time></trkpt><trkpt lat="45.4239789" lon="10.7899273"><ele>130.0</ele><time>2026-03-28T10:13:17.607Z</time></trkpt><trkpt lat="45.4240486" lon="10.7900169"><ele>130.2</ele><time>2026-03-28T10:13:25.608Z</time></trkpt><trkpt lat="45.4240627" lon="10.7901257"><ele>130.4</ele><time>2026-03-28T10:13:26.605Z</time></trkpt><trkpt lat="45.4240718" lon="10.790285"><ele>130.6</ele><time>2026-03-28T10:13:27.6Z</time></trkpt><trkpt lat="45.4240755" lon="10.7904504"><ele>130.8</ele><time>2026-03-28T10:13:28.599Z</time></trkpt><trkpt lat="45.4240886" lon="10.7906226"><ele>131.0</ele><time>2026-03-28T10:13:29.596Z</time></trkpt><trkpt lat="45.4241098" lon="10.7908136"><ele>131.0</ele><time>2026-03-28T10:13:30.611Z</time></trkpt><trkpt lat="45.4241305" lon="10.790989"><ele>131.0</ele><time>2026-03-28T10:13:31.6Z</time></trkpt><trkpt lat="45.4241461" lon="10.7911607"><ele>131.0</ele><time>2026-03-28T10:13:32.601Z</time></trkpt><trkpt lat="45.4241492" lon="10.7913226"><ele>131.0</ele><time>2026-03-28T10:13:33.599Z</time></trkpt><trkpt lat="45.4241472" lon="10.7914785"><ele>131.0</ele><time>2026-03-28T10:13:34.596Z</time></trkpt><trkpt lat="45.4241416" lon="10.7916209"><ele>131.0</ele><time>2026-03-28T10:13:35.602Z</time></trkpt><trkpt lat="45.4241358" lon="10.791753"><ele>131.0</ele><time>2026-03-28T10:13:36.604Z</time></trkpt><trkpt lat="45.4241347" lon="10.7918748"><ele>131.0</ele><time>2026-03-28T10:13:37.606Z</time></trkpt><trkpt lat="45.4241251" lon="10.7919808"><ele>131.0</ele><time>2026-03-28T10:13:38.604Z</time></trkpt><trkpt lat="45.4241251" lon="10.7921257"><ele>130.6</ele><time>2026-03-28T10:13:40.596Z</time></trkpt><trkpt lat="45.4241789" lon="10.7922137"><ele>130.2</ele><time>2026-03-28T10:13:42.602Z</time></trkpt><trkpt lat="45.4242447" lon="10.7922386"><ele>129.8</ele><time>2026-03-28T10:13:43.599Z</time></trkpt><trkpt lat="45.4243401" lon="10.7922591"><ele>129.4</ele><time>2026-03-28T10:13:44.601Z</time></trkpt><trkpt lat="45.4244579" lon="10.7922984"><ele>129.0</ele><time>2026-03-28T10:13:45.596Z</time></trkpt><trkpt lat="45.4245928" lon="10.7923324"><ele>128.0</ele><time>2026-03-28T10:13:46.606Z</time></trkpt><trkpt lat="45.4247216" lon="10.7923623"><ele>127.0</ele><time>2026-03-28T10:13:47.603Z</time></trkpt><trkpt lat="45.4248456" lon="10.7923888"><ele>126.0</ele><time>2026-03-28T10:13:48.601Z</time></trkpt><trkpt lat="45.4249532" lon="10.792407"><ele>125.0</ele><time>2026-03-28T10:13:49.61Z</time></trkpt><trkpt lat="45.4250462" lon="10.7924262"><ele>125.0</ele><time>2026-03-28T10:13:50.606Z</time></trkpt><trkpt lat="45.4251184" lon="10.7924348"><ele>125.0</ele><time>2026-03-28T10:13:51.6Z</time></trkpt><trkpt lat="45.4252043" lon="10.792471"><ele>125.0</ele><time>2026-03-28T10:13:53.607Z</time></trkpt><trkpt lat="45.427004" lon="10.7919455"><ele>127.0</ele><time>2026-03-28T10:14:40.612Z</time></trkpt><trkpt lat="45.4304802" lon="10.7915825"><ele>131.0</ele><time>2026-03-28T10:15:18.616Z</time></trkpt><trkpt lat="45.4331948" lon="10.7923577"><ele>133.0</ele><time>2026-03-28T10:15:36.6Z</time></trkpt><trkpt lat="45.4366243" lon="10.792044"><ele>128.0</ele><time>2026-03-28T10:15:55.598Z</time></trkpt><trkpt lat="45.4372925" lon="10.7892881"><ele>128.0</ele><time>2026-03-28T10:16:28.603Z</time></trkpt><trkpt lat="45.436967" lon="10.7874206"><ele>137.0</ele><time>2026-03-28T10:16:50.596Z</time></trkpt><trkpt lat="45.437623" lon="10.7846356"><ele>123.0</ele><time>2026-03-28T10:17:10.601Z</time></trkpt><trkpt lat="45.4388442" lon="10.7823305"><ele>120.0</ele><time>2026-03-28T10:17:40.595Z</time></trkpt><trkpt lat="45.4407289" lon="10.7810485"><ele>119.0</ele><time>2026-03-28T10:18:35.594Z</time></trkpt><trkpt lat="45.4432836" lon="10.7823138"><ele>118.0</ele><time>2026-03-28T10:18:52.614Z</time></trkpt><trkpt lat="45.4467628" lon="10.7819492"><ele>118.0</ele><time>2026-03-28T10:19:15.593Z</time></trkpt><trkpt lat="45.4490394" lon="10.7798683"><ele>116.0</ele><time>2026-03-28T10:19:32.607Z</time></trkpt><trkpt lat="45.4464998" lon="10.7764659"><ele>111.0</ele><time>2026-03-28T10:20:25.616Z</time></trkpt><trkpt lat="45.4449581" lon="10.772037"><ele>121.0</ele><time>2026-03-28T10:20:47.606Z</time></trkpt><trkpt lat="45.4444672" lon="10.7691959"><ele>112.0</ele><time>2026-03-28T10:21:05.598Z</time></trkpt><trkpt lat="45.4463811" lon="10.7681158"><ele>116.0</ele><time>2026-03-28T10:22:21.61Z</time></trkpt><trkpt lat="45.4488286" lon="10.7698242"><ele>117.0</ele><time>2026-03-28T10:22:40.625Z</time></trkpt><trkpt lat="45.4516201" lon="10.7706763"><ele>120.0</ele><time>2026-03-28T10:23:04.606Z</time></trkpt><trkpt lat="45.4549882" lon="10.7712722"><ele>121.0</ele><time>2026-03-28T10:23:28.615Z</time></trkpt><trkpt lat="45.4563814" lon="10.7719548"><ele>121.0</ele><time>2026-03-28T10:23:45.612Z</time></trkpt><trkpt lat="45.4591386" lon="10.7718996"><ele>125.0</ele><time>2026-03-28T10:24:04.616Z</time></trkpt><trkpt lat="45.4618665" lon="10.7725939"><ele>142.0</ele><time>2026-03-28T10:24:39.603Z</time></trkpt><trkpt lat="45.4641996" lon="10.7748821"><ele>154.0</ele><time>2026-03-28T10:25:18.615Z</time></trkpt><trkpt lat="45.4667134" lon="10.7766699"><ele>154.0</ele><time>2026-03-28T10:25:44.612Z</time></trkpt><trkpt lat="45.4667134" lon="10.7766699"><ele>154.0</ele><time>2026-03-28T10:25:44.612Z</time></trkpt><trkpt lat="45.4683143" lon="10.7796307"><ele>154.0</ele><time>2026-03-28T10:33:18.627Z</time></trkpt><trkpt lat="45.4668924" lon="10.7817604"><ele>149.0</ele><time>2026-03-28T10:33:34.62Z</time></trkpt><trkpt lat="45.4691679" lon="10.7838499"><ele>140.0</ele><time>2026-03-28T10:34:22.618Z</time></trkpt><trkpt lat="45.4718641" lon="10.7835913"><ele>142.0</ele><time>2026-03-28T10:34:42.618Z</time></trkpt><trkpt lat="45.4745582" lon="10.7830984"><ele>134.0</ele><time>2026-03-28T10:35:11.622Z</time></trkpt><trkpt lat="45.4762856" lon="10.7813963"><ele>139.0</ele><time>2026-03-28T10:35:28.607Z</time></trkpt><trkpt lat="45.4768395" lon="10.7785774"><ele>136.0</ele><time>2026-03-28T10:36:04.619Z</time></trkpt><trkpt lat="45.4787769" lon="10.7758822"><ele>132.0</ele><time>2026-03-28T10:36:38.622Z</time></trkpt><trkpt lat="45.4798578" lon="10.7745385"><ele>135.0</ele><time>2026-03-28T10:36:55.62Z</time></trkpt><trkpt lat="45.4816861" lon="10.7716252"><ele>137.0</ele><time>2026-03-28T10:37:24.614Z</time></trkpt><trkpt lat="45.4835875" lon="10.7706242"><ele>135.0</ele><time>2026-03-28T10:37:45.611Z</time></trkpt><trkpt lat="45.486016" lon="10.7725239"><ele>135.0</ele><time>2026-03-28T10:38:27.614Z</time></trkpt><trkpt lat="45.4876686" lon="10.7707589"><ele>138.0</ele><time>2026-03-28T10:38:46.611Z</time></trkpt><trkpt lat="45.4898123" lon="10.7705988"><ele>133.0</ele><time>2026-03-28T10:39:36.617Z</time></trkpt><trkpt lat="45.4924401" lon="10.7695223"><ele>137.0</ele><time>2026-03-28T10:39:57.615Z</time></trkpt><trkpt lat="45.4933087" lon="10.7711065"><ele>142.0</ele><time>2026-03-28T10:40:13.606Z</time></trkpt><trkpt lat="45.4944965" lon="10.7736664"><ele>146.0</ele><time>2026-03-28T10:40:36.612Z</time></trkpt><trkpt lat="45.4955071" lon="10.7772457"><ele>135.0</ele><time>2026-03-28T10:41:02.621Z</time></trkpt><trkpt lat="45.4969447" lon="10.7806238"><ele>154.0</ele><time>2026-03-28T10:41:48.612Z</time></trkpt><trkpt lat="45.4980527" lon="10.7831394"><ele>159.0</ele><time>2026-03-28T10:42:29.613Z</time></trkpt><trkpt lat="45.5000401" lon="10.783692"><ele>161.0</ele><time>2026-03-28T10:42:58.632Z</time></trkpt><trkpt lat="45.5019992" lon="10.7827623"><ele>156.0</ele><time>2026-03-28T10:43:22.62Z</time></trkpt><trkpt lat="45.5041269" lon="10.7829961"><ele>148.0</ele><time>2026-03-28T10:43:45.623Z</time></trkpt><trkpt lat="45.5055326" lon="10.7864652"><ele>148.0</ele><time>2026-03-28T10:44:20.625Z</time></trkpt><trkpt lat="45.5062596" lon="10.7901947"><ele>152.0</ele><time>2026-03-28T10:44:42.618Z</time></trkpt><trkpt lat="45.5066001" lon="10.7941703"><ele>152.0</ele><time>2026-03-28T10:45:05.606Z</time></trkpt><trkpt lat="45.5090217" lon="10.7924109"><ele>152.0</ele><time>2026-03-28T10:45:56.611Z</time></trkpt><trkpt lat="45.5096858" lon="10.788599"><ele>157.0</ele><time>2026-03-28T10:46:15.618Z</time></trkpt><trkpt lat="45.5119581" lon="10.7850125"><ele>158.0</ele><time>2026-03-28T10:46:59.606Z</time></trkpt><trkpt lat="45.513346" lon="10.7842978"><ele>166.0</ele><time>2026-03-28T10:47:22.617Z</time></trkpt><trkpt lat="45.5160089" lon="10.7836694"><ele>168.0</ele><time>2026-03-28T10:47:45.622Z</time></trkpt><trkpt lat="45.5188205" lon="10.7830407"><ele>170.0</ele><time>2026-03-28T10:48:24.619Z</time></trkpt><trkpt lat="45.5216144" lon="10.7823154"><ele>163.0</ele><time>2026-03-28T10:48:43.629Z</time></trkpt><trkpt lat="45.5243052" lon="10.781603"><ele>166.0</ele><time>2026-03-28T10:49:05.619Z</time></trkpt><trkpt lat="45.5245605" lon="10.7795919"><ele>158.0</ele><time>2026-03-28T10:49:20.619Z</time></trkpt><trkpt lat="45.5253424" lon="10.7758246"><ele>159.0</ele><time>2026-03-28T10:49:49.613Z</time></trkpt><trkpt lat="45.5281156" lon="10.775999"><ele>159.0</ele><time>2026-03-28T10:50:11.611Z</time></trkpt><trkpt lat="45.5308248" lon="10.7764162"><ele>165.0</ele><time>2026-03-28T10:50:44.613Z</time></trkpt><trkpt lat="45.5328591" lon="10.776063"><ele>172.0</ele><time>2026-03-28T10:51:24.598Z</time></trkpt><trkpt lat="45.5355584" lon="10.7760466"><ele>174.0</ele><time>2026-03-28T10:51:44.611Z</time></trkpt><trkpt lat="45.5374917" lon="10.7750563"><ele>176.0</ele><time>2026-03-28T10:52:41.626Z</time></trkpt><trkpt lat="45.537617" lon="10.7771887"><ele>163.0</ele><time>2026-03-28T10:53:02.625Z</time></trkpt><trkpt lat="45.535994" lon="10.7803512"><ele>166.0</ele><time>2026-03-28T10:53:33.611Z</time></trkpt><trkpt lat="45.5326352" lon="10.7808214"><ele>167.0</ele><time>2026-03-28T10:53:54.624Z</time></trkpt><trkpt lat="45.5322323" lon="10.784777"><ele>171.0</ele><time>2026-03-28T10:54:27.616Z</time></trkpt><trkpt lat="45.5311075" lon="10.7872811"><ele>180.0</ele><time>2026-03-28T10:54:46.626Z</time></trkpt><trkpt lat="45.5323743" lon="10.7879955"><ele>208.0</ele><time>2026-03-28T10:55:42.623Z</time></trkpt><trkpt lat="45.5345773" lon="10.7903497"><ele>184.0</ele><time>2026-03-28T10:56:15.622Z</time></trkpt><trkpt lat="45.5365983" lon="10.7911962"><ele>169.0</ele><time>2026-03-28T10:56:54.592Z</time></trkpt><trkpt lat="45.5379063" lon="10.7905601"><ele>192.0</ele><time>2026-03-28T10:57:16.606Z</time></trkpt><trkpt lat="45.5394103" lon="10.7884507"><ele>178.0</ele><time>2026-03-28T10:57:38.599Z</time></trkpt><trkpt lat="45.5407168" lon="10.7860644"><ele>182.0</ele><time>2026-03-28T10:58:01.607Z</time></trkpt><trkpt lat="45.542351" lon="10.784356"><ele>184.0</ele><time>2026-03-28T10:58:22.611Z</time></trkpt><trkpt lat="45.5458503" lon="10.7842391"><ele>176.0</ele><time>2026-03-28T10:59:49.641Z</time></trkpt><trkpt lat="45.5479999" lon="10.7880805"><ele>183.0</ele><time>2026-03-28T11:00:07.623Z</time></trkpt><trkpt lat="45.5464997" lon="10.7914986"><ele>187.0</ele><time>2026-03-28T11:00:38.616Z</time></trkpt><trkpt lat="45.5491164" lon="10.7927808"><ele>186.0</ele><time>2026-03-28T11:01:24.613Z</time></trkpt><trkpt lat="45.5508124" lon="10.7944184"><ele>185.0</ele><time>2026-03-28T11:01:44.605Z</time></trkpt><trkpt lat="45.5508809" lon="10.7973073"><ele>177.0</ele><time>2026-03-28T11:02:04.61Z</time></trkpt><trkpt lat="45.550903" lon="10.8012907"><ele>175.0</ele><time>2026-03-28T11:02:21.623Z</time></trkpt><trkpt lat="45.5538991" lon="10.8035975"><ele>190.0</ele><time>2026-03-28T11:03:01.626Z</time></trkpt><trkpt lat="45.557221" lon="10.8018407"><ele>185.0</ele><time>2026-03-28T11:03:21.611Z</time></trkpt><trkpt lat="45.5604191" lon="10.799931"><ele>189.0</ele><time>2026-03-28T11:03:42.62Z</time></trkpt><trkpt lat="45.564407" lon="10.801409"><ele>192.0</ele><time>2026-03-28T11:04:03.617Z</time></trkpt><trkpt lat="45.5678304" lon="10.8021954"><ele>197.0</ele><time>2026-03-28T11:04:21.607Z</time></trkpt><trkpt lat="45.5707955" lon="10.7996901"><ele>206.0</ele><time>2026-03-28T11:04:58.615Z</time></trkpt><trkpt lat="45.5726735" lon="10.7983352"><ele>200.0</ele><time>2026-03-28T11:05:20.609Z</time></trkpt><trkpt lat="45.5745731" lon="10.797196"><ele>204.0</ele><time>2026-03-28T11:05:40.603Z</time></trkpt><trkpt lat="45.5761339" lon="10.7952283"><ele>202.0</ele><time>2026-03-28T11:05:59.592Z</time></trkpt><trkpt lat="45.5765903" lon="10.7922343"><ele>216.0</ele><time>2026-03-28T11:06:22.611Z</time></trkpt><trkpt lat="45.5755156" lon="10.7874704"><ele>227.0</ele><time>2026-03-28T11:06:45.611Z</time></trkpt><trkpt lat="45.5752823" lon="10.7826394"><ele>224.0</ele><time>2026-03-28T11:07:04.602Z</time></trkpt><trkpt lat="45.5745108" lon="10.7778181"><ele>213.0</ele><time>2026-03-28T11:07:28.6Z</time></trkpt><trkpt lat="45.5733975" lon="10.7722555"><ele>206.0</ele><time>2026-03-28T11:08:31.626Z</time></trkpt><trkpt lat="45.5736717" lon="10.7682804"><ele>204.0</ele><time>2026-03-28T11:08:50.613Z</time></trkpt><trkpt lat="45.5729338" lon="10.7634302"><ele>204.0</ele><time>2026-03-28T11:09:14.603Z</time></trkpt><trkpt lat="45.5721384" lon="10.7587185"><ele>206.0</ele><time>2026-03-28T11:09:39.618Z</time></trkpt><trkpt lat="45.5734097" lon="10.7579501"><ele>208.0</ele><time>2026-03-28T11:09:55.611Z</time></trkpt><trkpt lat="45.5754591" lon="10.7572674"><ele>208.0</ele><time>2026-03-28T11:10:13.624Z</time></trkpt></trkseg></trk></gpx>